<?xml version="1.0" encoding="UTF-8" standalone="no" ?>
<gpx xmlns="http://www.topografix.com/GPX/1/1" xmlns:xsi="http://www.w3.org/2001/XMLSchema-instance" xsi:schemaLocation="http://www.topografix.com/GPX/1/1 http://www.topografix.com/GPX/1/1/gpx.xsd" version="1.1" creator="VisuGPX - https://www.visugpx.com">
  <metadata>
    <name>Pommiers VTT 2016</name>
  </metadata>
  <trk>
    <name><![CDATA[Pommiers]]></name>
    <trkseg>
      <trkpt lat="45.95093" lon="4.68397">
        <ele>315.364563</ele>
        <time>2016-09-11T06:11:06Z</time>
      </trkpt>
      <trkpt lat="45.95092" lon="4.68392">
        <ele>315.63501</ele>
        <time>2016-09-11T06:11:08Z</time>
      </trkpt>
      <trkpt lat="45.9508" lon="4.68331">
        <ele>315.658478</ele>
        <time>2016-09-11T06:11:10Z</time>
      </trkpt>
      <trkpt lat="45.9508" lon="4.68328">
        <ele>315.752319</ele>
        <time>2016-09-11T06:11:12Z</time>
      </trkpt>
      <trkpt lat="45.95081" lon="4.68324">
        <ele>315.792877</ele>
        <time>2016-09-11T06:11:14Z</time>
      </trkpt>
      <trkpt lat="45.95081" lon="4.6832">
        <ele>315.828003</ele>
        <time>2016-09-11T06:11:16Z</time>
      </trkpt>
      <trkpt lat="45.95081" lon="4.68318">
        <ele>315.825623</ele>
        <time>2016-09-11T06:11:18Z</time>
      </trkpt>
      <trkpt lat="45.95081" lon="4.68315">
        <ele>315.831177</ele>
        <time>2016-09-11T06:11:20Z</time>
      </trkpt>
      <trkpt lat="45.95082" lon="4.68314">
        <ele>315.912598</ele>
        <time>2016-09-11T06:11:22Z</time>
      </trkpt>
      <trkpt lat="45.95084" lon="4.68312">
        <ele>315.893372</ele>
        <time>2016-09-11T06:11:24Z</time>
      </trkpt>
      <trkpt lat="45.95086" lon="4.68312">
        <ele>315.963074</ele>
        <time>2016-09-11T06:11:26Z</time>
      </trkpt>
      <trkpt lat="45.95086" lon="4.6831">
        <ele>315.930023</ele>
        <time>2016-09-11T06:11:28Z</time>
      </trkpt>
      <trkpt lat="45.95087" lon="4.68309">
        <ele>315.936462</ele>
        <time>2016-09-11T06:11:30Z</time>
      </trkpt>
      <trkpt lat="45.95088" lon="4.68308">
        <ele>315.916779</ele>
        <time>2016-09-11T06:11:32Z</time>
      </trkpt>
      <trkpt lat="45.95091" lon="4.68308">
        <ele>315.914612</ele>
        <time>2016-09-11T06:11:34Z</time>
      </trkpt>
      <trkpt lat="45.95088" lon="4.68309">
        <ele>315.934387</ele>
        <time>2016-09-11T06:11:56Z</time>
      </trkpt>
      <trkpt lat="45.95092" lon="4.6831">
        <ele>313.768768</ele>
        <time>2016-09-11T06:12:50Z</time>
      </trkpt>
      <trkpt lat="45.95099" lon="4.68314">
        <ele>311.743835</ele>
        <time>2016-09-11T06:12:52Z</time>
      </trkpt>
      <trkpt lat="45.95101" lon="4.68319">
        <ele>311.754517</ele>
        <time>2016-09-11T06:12:54Z</time>
      </trkpt>
      <trkpt lat="45.95104" lon="4.68324">
        <ele>311.775848</ele>
        <time>2016-09-11T06:12:56Z</time>
      </trkpt>
      <trkpt lat="45.95105" lon="4.6833">
        <ele>311.859558</ele>
        <time>2016-09-11T06:12:58Z</time>
      </trkpt>
      <trkpt lat="45.95108" lon="4.68337">
        <ele>311.922943</ele>
        <time>2016-09-11T06:13:00Z</time>
      </trkpt>
      <trkpt lat="45.95108" lon="4.68345">
        <ele>312.076691</ele>
        <time>2016-09-11T06:13:02Z</time>
      </trkpt>
      <trkpt lat="45.9511" lon="4.68352">
        <ele>312.2005</ele>
        <time>2016-09-11T06:13:04Z</time>
      </trkpt>
      <trkpt lat="45.95111" lon="4.68359">
        <ele>312.403381</ele>
        <time>2016-09-11T06:13:06Z</time>
      </trkpt>
      <trkpt lat="45.95112" lon="4.68365">
        <ele>312.533264</ele>
        <time>2016-09-11T06:13:08Z</time>
      </trkpt>
      <trkpt lat="45.95113" lon="4.68372">
        <ele>312.812988</ele>
        <time>2016-09-11T06:13:10Z</time>
      </trkpt>
      <trkpt lat="45.95114" lon="4.68379">
        <ele>313.020142</ele>
        <time>2016-09-11T06:13:12Z</time>
      </trkpt>
      <trkpt lat="45.95115" lon="4.68385">
        <ele>313.351166</ele>
        <time>2016-09-11T06:13:14Z</time>
      </trkpt>
      <trkpt lat="45.95115" lon="4.6839">
        <ele>313.581787</ele>
        <time>2016-09-11T06:13:16Z</time>
      </trkpt>
      <trkpt lat="45.95113" lon="4.68394">
        <ele>313.72699</ele>
        <time>2016-09-11T06:13:18Z</time>
      </trkpt>
      <trkpt lat="45.95111" lon="4.68397">
        <ele>313.95282</ele>
        <time>2016-09-11T06:13:20Z</time>
      </trkpt>
      <trkpt lat="45.95108" lon="4.684">
        <ele>314.265961</ele>
        <time>2016-09-11T06:13:22Z</time>
      </trkpt>
      <trkpt lat="45.95104" lon="4.68402">
        <ele>314.532898</ele>
        <time>2016-09-11T06:13:24Z</time>
      </trkpt>
      <trkpt lat="45.95099" lon="4.68402">
        <ele>315.678802</ele>
        <time>2016-09-11T06:13:26Z</time>
      </trkpt>
      <trkpt lat="45.95093" lon="4.68401">
        <ele>317.305939</ele>
        <time>2016-09-11T06:13:28Z</time>
      </trkpt>
      <trkpt lat="45.95086" lon="4.684">
        <ele>317.572327</ele>
        <time>2016-09-11T06:13:30Z</time>
      </trkpt>
      <trkpt lat="45.95079" lon="4.68399">
        <ele>317.826477</ele>
        <time>2016-09-11T06:13:32Z</time>
      </trkpt>
      <trkpt lat="45.95073" lon="4.68398">
        <ele>320.306305</ele>
        <time>2016-09-11T06:13:34Z</time>
      </trkpt>
      <trkpt lat="45.95067" lon="4.68397">
        <ele>320.58963</ele>
        <time>2016-09-11T06:13:36Z</time>
      </trkpt>
      <trkpt lat="45.9506" lon="4.68396">
        <ele>320.832947</ele>
        <time>2016-09-11T06:13:38Z</time>
      </trkpt>
      <trkpt lat="45.95054" lon="4.68394">
        <ele>321.230957</ele>
        <time>2016-09-11T06:13:40Z</time>
      </trkpt>
      <trkpt lat="45.95048" lon="4.68392">
        <ele>321.471252</ele>
        <time>2016-09-11T06:13:42Z</time>
      </trkpt>
      <trkpt lat="45.95041" lon="4.68392">
        <ele>321.657227</ele>
        <time>2016-09-11T06:13:44Z</time>
      </trkpt>
      <trkpt lat="45.95034" lon="4.68393">
        <ele>321.887909</ele>
        <time>2016-09-11T06:13:46Z</time>
      </trkpt>
      <trkpt lat="45.95028" lon="4.68395">
        <ele>321.992676</ele>
        <time>2016-09-11T06:13:48Z</time>
      </trkpt>
      <trkpt lat="45.95021" lon="4.68398">
        <ele>322.245117</ele>
        <time>2016-09-11T06:13:50Z</time>
      </trkpt>
      <trkpt lat="45.95014" lon="4.68398">
        <ele>322.193848</ele>
        <time>2016-09-11T06:13:52Z</time>
      </trkpt>
      <trkpt lat="45.95007" lon="4.68398">
        <ele>322.330353</ele>
        <time>2016-09-11T06:13:54Z</time>
      </trkpt>
      <trkpt lat="45.95001" lon="4.68397">
        <ele>322.232086</ele>
        <time>2016-09-11T06:13:56Z</time>
      </trkpt>
      <trkpt lat="45.94993" lon="4.68396">
        <ele>322.223541</ele>
        <time>2016-09-11T06:13:58Z</time>
      </trkpt>
      <trkpt lat="45.94986" lon="4.68395">
        <ele>322.459045</ele>
        <time>2016-09-11T06:14:00Z</time>
      </trkpt>
      <trkpt lat="45.9498" lon="4.68395">
        <ele>322.640686</ele>
        <time>2016-09-11T06:14:02Z</time>
      </trkpt>
      <trkpt lat="45.94974" lon="4.68396">
        <ele>322.794495</ele>
        <time>2016-09-11T06:14:04Z</time>
      </trkpt>
      <trkpt lat="45.94967" lon="4.68395">
        <ele>323.135651</ele>
        <time>2016-09-11T06:14:06Z</time>
      </trkpt>
      <trkpt lat="45.94961" lon="4.68395">
        <ele>323.32074</ele>
        <time>2016-09-11T06:14:08Z</time>
      </trkpt>
      <trkpt lat="45.94955" lon="4.68393">
        <ele>323.549347</ele>
        <time>2016-09-11T06:14:10Z</time>
      </trkpt>
      <trkpt lat="45.94949" lon="4.6839">
        <ele>323.758209</ele>
        <time>2016-09-11T06:14:12Z</time>
      </trkpt>
      <trkpt lat="45.94945" lon="4.68382">
        <ele>323.875732</ele>
        <time>2016-09-11T06:14:14Z</time>
      </trkpt>
      <trkpt lat="45.94947" lon="4.68368">
        <ele>323.966187</ele>
        <time>2016-09-11T06:14:16Z</time>
      </trkpt>
      <trkpt lat="45.94949" lon="4.68355">
        <ele>323.741638</ele>
        <time>2016-09-11T06:14:18Z</time>
      </trkpt>
      <trkpt lat="45.94952" lon="4.68344">
        <ele>323.521637</ele>
        <time>2016-09-11T06:14:20Z</time>
      </trkpt>
      <trkpt lat="45.94955" lon="4.6833">
        <ele>323.333679</ele>
        <time>2016-09-11T06:14:22Z</time>
      </trkpt>
      <trkpt lat="45.94955" lon="4.68315">
        <ele>323.151001</ele>
        <time>2016-09-11T06:14:24Z</time>
      </trkpt>
      <trkpt lat="45.94952" lon="4.68311">
        <ele>323.054138</ele>
        <time>2016-09-11T06:14:26Z</time>
      </trkpt>
      <trkpt lat="45.9495" lon="4.68312">
        <ele>322.757263</ele>
        <time>2016-09-11T06:14:28Z</time>
      </trkpt>
      <trkpt lat="45.94949" lon="4.68313">
        <ele>322.663177</ele>
        <time>2016-09-11T06:14:30Z</time>
      </trkpt>
      <trkpt lat="45.94947" lon="4.68311">
        <ele>322.443115</ele>
        <time>2016-09-11T06:14:32Z</time>
      </trkpt>
      <trkpt lat="45.94944" lon="4.68309">
        <ele>322.31424</ele>
        <time>2016-09-11T06:14:34Z</time>
      </trkpt>
      <trkpt lat="45.94941" lon="4.68309">
        <ele>322.158722</ele>
        <time>2016-09-11T06:14:36Z</time>
      </trkpt>
      <trkpt lat="45.94938" lon="4.68307">
        <ele>322.188629</ele>
        <time>2016-09-11T06:14:38Z</time>
      </trkpt>
      <trkpt lat="45.94938" lon="4.68301">
        <ele>322.040833</ele>
        <time>2016-09-11T06:14:40Z</time>
      </trkpt>
      <trkpt lat="45.94937" lon="4.68291">
        <ele>321.639282</ele>
        <time>2016-09-11T06:14:42Z</time>
      </trkpt>
      <trkpt lat="45.94934" lon="4.6828">
        <ele>321.239868</ele>
        <time>2016-09-11T06:14:44Z</time>
      </trkpt>
      <trkpt lat="45.94933" lon="4.68269">
        <ele>320.842499</ele>
        <time>2016-09-11T06:14:46Z</time>
      </trkpt>
      <trkpt lat="45.94935" lon="4.68258">
        <ele>320.033997</ele>
        <time>2016-09-11T06:14:48Z</time>
      </trkpt>
      <trkpt lat="45.94938" lon="4.68249">
        <ele>319.448853</ele>
        <time>2016-09-11T06:14:50Z</time>
      </trkpt>
      <trkpt lat="45.94942" lon="4.68238">
        <ele>319.090027</ele>
        <time>2016-09-11T06:14:52Z</time>
      </trkpt>
      <trkpt lat="45.94946" lon="4.68233">
        <ele>318.525726</ele>
        <time>2016-09-11T06:14:54Z</time>
      </trkpt>
      <trkpt lat="45.9495" lon="4.68235">
        <ele>317.893311</ele>
        <time>2016-09-11T06:14:56Z</time>
      </trkpt>
      <trkpt lat="45.94953" lon="4.68232">
        <ele>317.346588</ele>
        <time>2016-09-11T06:14:58Z</time>
      </trkpt>
      <trkpt lat="45.94953" lon="4.68222">
        <ele>317.101074</ele>
        <time>2016-09-11T06:15:00Z</time>
      </trkpt>
      <trkpt lat="45.94956" lon="4.68215">
        <ele>316.722137</ele>
        <time>2016-09-11T06:15:02Z</time>
      </trkpt>
      <trkpt lat="45.94961" lon="4.68213">
        <ele>316.284576</ele>
        <time>2016-09-11T06:15:04Z</time>
      </trkpt>
      <trkpt lat="45.94964" lon="4.68216">
        <ele>315.860321</ele>
        <time>2016-09-11T06:15:06Z</time>
      </trkpt>
      <trkpt lat="45.94968" lon="4.68213">
        <ele>315.382233</ele>
        <time>2016-09-11T06:15:08Z</time>
      </trkpt>
      <trkpt lat="45.94974" lon="4.68211">
        <ele>314.884094</ele>
        <time>2016-09-11T06:15:10Z</time>
      </trkpt>
      <trkpt lat="45.94981" lon="4.68213">
        <ele>314.209656</ele>
        <time>2016-09-11T06:15:12Z</time>
      </trkpt>
      <trkpt lat="45.9499" lon="4.68216">
        <ele>313.696106</ele>
        <time>2016-09-11T06:15:14Z</time>
      </trkpt>
      <trkpt lat="45.95001" lon="4.68218">
        <ele>313.164246</ele>
        <time>2016-09-11T06:15:16Z</time>
      </trkpt>
      <trkpt lat="45.95013" lon="4.6822">
        <ele>312.647644</ele>
        <time>2016-09-11T06:15:18Z</time>
      </trkpt>
      <trkpt lat="45.95025" lon="4.68223">
        <ele>312.150299</ele>
        <time>2016-09-11T06:15:20Z</time>
      </trkpt>
      <trkpt lat="45.95038" lon="4.68225">
        <ele>311.482574</ele>
        <time>2016-09-11T06:15:22Z</time>
      </trkpt>
      <trkpt lat="45.95051" lon="4.68227">
        <ele>311.130432</ele>
        <time>2016-09-11T06:15:24Z</time>
      </trkpt>
      <trkpt lat="45.95063" lon="4.6823">
        <ele>310.961853</ele>
        <time>2016-09-11T06:15:26Z</time>
      </trkpt>
      <trkpt lat="45.95075" lon="4.68232">
        <ele>310.451691</ele>
        <time>2016-09-11T06:15:28Z</time>
      </trkpt>
      <trkpt lat="45.95085" lon="4.68234">
        <ele>310.336487</ele>
        <time>2016-09-11T06:15:30Z</time>
      </trkpt>
      <trkpt lat="45.95092" lon="4.68232">
        <ele>309.915405</ele>
        <time>2016-09-11T06:15:32Z</time>
      </trkpt>
      <trkpt lat="45.95092" lon="4.68224">
        <ele>309.475952</ele>
        <time>2016-09-11T06:15:34Z</time>
      </trkpt>
      <trkpt lat="45.95089" lon="4.68215">
        <ele>308.977966</ele>
        <time>2016-09-11T06:15:36Z</time>
      </trkpt>
      <trkpt lat="45.95085" lon="4.68206">
        <ele>308.52829</ele>
        <time>2016-09-11T06:15:38Z</time>
      </trkpt>
      <trkpt lat="45.95082" lon="4.68196">
        <ele>308.05249</ele>
        <time>2016-09-11T06:15:40Z</time>
      </trkpt>
      <trkpt lat="45.95077" lon="4.68184">
        <ele>307.388062</ele>
        <time>2016-09-11T06:15:42Z</time>
      </trkpt>
      <trkpt lat="45.95073" lon="4.68173">
        <ele>306.797638</ele>
        <time>2016-09-11T06:15:44Z</time>
      </trkpt>
      <trkpt lat="45.9507" lon="4.6816">
        <ele>306.179138</ele>
        <time>2016-09-11T06:15:46Z</time>
      </trkpt>
      <trkpt lat="45.95066" lon="4.68145">
        <ele>305.513885</ele>
        <time>2016-09-11T06:15:48Z</time>
      </trkpt>
      <trkpt lat="45.95065" lon="4.68132">
        <ele>304.606567</ele>
        <time>2016-09-11T06:15:50Z</time>
      </trkpt>
      <trkpt lat="45.95068" lon="4.6812">
        <ele>303.794617</ele>
        <time>2016-09-11T06:15:52Z</time>
      </trkpt>
      <trkpt lat="45.95072" lon="4.68117">
        <ele>302.811981</ele>
        <time>2016-09-11T06:15:54Z</time>
      </trkpt>
      <trkpt lat="45.95078" lon="4.68117">
        <ele>302.345154</ele>
        <time>2016-09-11T06:15:56Z</time>
      </trkpt>
      <trkpt lat="45.95084" lon="4.68115">
        <ele>301.432922</ele>
        <time>2016-09-11T06:15:58Z</time>
      </trkpt>
      <trkpt lat="45.95089" lon="4.68106">
        <ele>300.855042</ele>
        <time>2016-09-11T06:16:00Z</time>
      </trkpt>
      <trkpt lat="45.95094" lon="4.68097">
        <ele>300.047028</ele>
        <time>2016-09-11T06:16:02Z</time>
      </trkpt>
      <trkpt lat="45.95103" lon="4.68091">
        <ele>299.465271</ele>
        <time>2016-09-11T06:16:04Z</time>
      </trkpt>
      <trkpt lat="45.95112" lon="4.68087">
        <ele>298.621155</ele>
        <time>2016-09-11T06:16:06Z</time>
      </trkpt>
      <trkpt lat="45.95122" lon="4.68083">
        <ele>297.585327</ele>
        <time>2016-09-11T06:16:08Z</time>
      </trkpt>
      <trkpt lat="45.95133" lon="4.68083">
        <ele>296.739136</ele>
        <time>2016-09-11T06:16:10Z</time>
      </trkpt>
      <trkpt lat="45.95142" lon="4.68084">
        <ele>295.646637</ele>
        <time>2016-09-11T06:16:12Z</time>
      </trkpt>
      <trkpt lat="45.95151" lon="4.68083">
        <ele>294.511017</ele>
        <time>2016-09-11T06:16:14Z</time>
      </trkpt>
      <trkpt lat="45.95161" lon="4.68083">
        <ele>293.765259</ele>
        <time>2016-09-11T06:16:16Z</time>
      </trkpt>
      <trkpt lat="45.95171" lon="4.68083">
        <ele>293.147522</ele>
        <time>2016-09-11T06:16:18Z</time>
      </trkpt>
      <trkpt lat="45.95183" lon="4.68081">
        <ele>291.950409</ele>
        <time>2016-09-11T06:16:20Z</time>
      </trkpt>
      <trkpt lat="45.95196" lon="4.68079">
        <ele>291.057678</ele>
        <time>2016-09-11T06:16:22Z</time>
      </trkpt>
      <trkpt lat="45.95206" lon="4.68076">
        <ele>290.416534</ele>
        <time>2016-09-11T06:16:24Z</time>
      </trkpt>
      <trkpt lat="45.9521" lon="4.68064">
        <ele>289.803009</ele>
        <time>2016-09-11T06:16:26Z</time>
      </trkpt>
      <trkpt lat="45.9521" lon="4.68046">
        <ele>288.885162</ele>
        <time>2016-09-11T06:16:28Z</time>
      </trkpt>
      <trkpt lat="45.9521" lon="4.68028">
        <ele>287.903839</ele>
        <time>2016-09-11T06:16:30Z</time>
      </trkpt>
      <trkpt lat="45.95207" lon="4.68014">
        <ele>287.086548</ele>
        <time>2016-09-11T06:16:32Z</time>
      </trkpt>
      <trkpt lat="45.95201" lon="4.68004">
        <ele>286.395111</ele>
        <time>2016-09-11T06:16:34Z</time>
      </trkpt>
      <trkpt lat="45.95191" lon="4.67996">
        <ele>285.724823</ele>
        <time>2016-09-11T06:16:36Z</time>
      </trkpt>
      <trkpt lat="45.95179" lon="4.67988">
        <ele>284.788757</ele>
        <time>2016-09-11T06:16:38Z</time>
      </trkpt>
      <trkpt lat="45.95167" lon="4.6798">
        <ele>283.171844</ele>
        <time>2016-09-11T06:16:40Z</time>
      </trkpt>
      <trkpt lat="45.95154" lon="4.67972">
        <ele>281.684937</ele>
        <time>2016-09-11T06:16:42Z</time>
      </trkpt>
      <trkpt lat="45.95141" lon="4.67965">
        <ele>280.624603</ele>
        <time>2016-09-11T06:16:44Z</time>
      </trkpt>
      <trkpt lat="45.95127" lon="4.67958">
        <ele>279.542114</ele>
        <time>2016-09-11T06:16:46Z</time>
      </trkpt>
      <trkpt lat="45.95114" lon="4.67954">
        <ele>278.41449</ele>
        <time>2016-09-11T06:16:48Z</time>
      </trkpt>
      <trkpt lat="45.951" lon="4.67952">
        <ele>277.704651</ele>
        <time>2016-09-11T06:16:50Z</time>
      </trkpt>
      <trkpt lat="45.95087" lon="4.67952">
        <ele>276.17804</ele>
        <time>2016-09-11T06:16:52Z</time>
      </trkpt>
      <trkpt lat="45.95074" lon="4.67951">
        <ele>275.150879</ele>
        <time>2016-09-11T06:16:54Z</time>
      </trkpt>
      <trkpt lat="45.95063" lon="4.67946">
        <ele>274.45755</ele>
        <time>2016-09-11T06:16:56Z</time>
      </trkpt>
      <trkpt lat="45.95054" lon="4.67937">
        <ele>273.30072</ele>
        <time>2016-09-11T06:16:58Z</time>
      </trkpt>
      <trkpt lat="45.95045" lon="4.67926">
        <ele>272.317017</ele>
        <time>2016-09-11T06:17:00Z</time>
      </trkpt>
      <trkpt lat="45.95033" lon="4.67914">
        <ele>271.254547</ele>
        <time>2016-09-11T06:17:02Z</time>
      </trkpt>
      <trkpt lat="45.95019" lon="4.67902">
        <ele>270.242584</ele>
        <time>2016-09-11T06:17:04Z</time>
      </trkpt>
      <trkpt lat="45.95003" lon="4.67893">
        <ele>269.523071</ele>
        <time>2016-09-11T06:17:06Z</time>
      </trkpt>
      <trkpt lat="45.94989" lon="4.67882">
        <ele>268.545441</ele>
        <time>2016-09-11T06:17:08Z</time>
      </trkpt>
      <trkpt lat="45.94978" lon="4.67872">
        <ele>267.242554</ele>
        <time>2016-09-11T06:17:10Z</time>
      </trkpt>
      <trkpt lat="45.94965" lon="4.67865">
        <ele>266.458801</ele>
        <time>2016-09-11T06:17:12Z</time>
      </trkpt>
      <trkpt lat="45.94954" lon="4.67859">
        <ele>265.768311</ele>
        <time>2016-09-11T06:17:14Z</time>
      </trkpt>
      <trkpt lat="45.94944" lon="4.67856">
        <ele>265.190063</ele>
        <time>2016-09-11T06:17:16Z</time>
      </trkpt>
      <trkpt lat="45.94935" lon="4.6785">
        <ele>264.429169</ele>
        <time>2016-09-11T06:17:18Z</time>
      </trkpt>
      <trkpt lat="45.94925" lon="4.67846">
        <ele>263.917542</ele>
        <time>2016-09-11T06:17:20Z</time>
      </trkpt>
      <trkpt lat="45.94917" lon="4.67842">
        <ele>263.159729</ele>
        <time>2016-09-11T06:17:22Z</time>
      </trkpt>
      <trkpt lat="45.94909" lon="4.67838">
        <ele>263.079132</ele>
        <time>2016-09-11T06:17:24Z</time>
      </trkpt>
      <trkpt lat="45.94901" lon="4.67834">
        <ele>262.562683</ele>
        <time>2016-09-11T06:17:26Z</time>
      </trkpt>
      <trkpt lat="45.94893" lon="4.67833">
        <ele>262.577423</ele>
        <time>2016-09-11T06:17:28Z</time>
      </trkpt>
      <trkpt lat="45.94884" lon="4.67832">
        <ele>262.045441</ele>
        <time>2016-09-11T06:17:30Z</time>
      </trkpt>
      <trkpt lat="45.94876" lon="4.67833">
        <ele>262.176697</ele>
        <time>2016-09-11T06:17:32Z</time>
      </trkpt>
      <trkpt lat="45.94867" lon="4.67835">
        <ele>262.038574</ele>
        <time>2016-09-11T06:17:34Z</time>
      </trkpt>
      <trkpt lat="45.94859" lon="4.67838">
        <ele>261.734894</ele>
        <time>2016-09-11T06:17:36Z</time>
      </trkpt>
      <trkpt lat="45.94851" lon="4.67839">
        <ele>261.282227</ele>
        <time>2016-09-11T06:17:38Z</time>
      </trkpt>
      <trkpt lat="45.94842" lon="4.67841">
        <ele>261.683441</ele>
        <time>2016-09-11T06:17:40Z</time>
      </trkpt>
      <trkpt lat="45.94833" lon="4.67842">
        <ele>261.660126</ele>
        <time>2016-09-11T06:17:42Z</time>
      </trkpt>
      <trkpt lat="45.94824" lon="4.67843">
        <ele>261.40863</ele>
        <time>2016-09-11T06:17:44Z</time>
      </trkpt>
      <trkpt lat="45.94815" lon="4.67845">
        <ele>261.409668</ele>
        <time>2016-09-11T06:17:46Z</time>
      </trkpt>
      <trkpt lat="45.94806" lon="4.67846">
        <ele>260.655548</ele>
        <time>2016-09-11T06:17:48Z</time>
      </trkpt>
      <trkpt lat="45.94798" lon="4.67846">
        <ele>260.861481</ele>
        <time>2016-09-11T06:17:50Z</time>
      </trkpt>
      <trkpt lat="45.94789" lon="4.67848">
        <ele>261.110077</ele>
        <time>2016-09-11T06:17:52Z</time>
      </trkpt>
      <trkpt lat="45.94781" lon="4.6785">
        <ele>261.235168</ele>
        <time>2016-09-11T06:17:54Z</time>
      </trkpt>
      <trkpt lat="45.94773" lon="4.67851">
        <ele>261.267029</ele>
        <time>2016-09-11T06:17:56Z</time>
      </trkpt>
      <trkpt lat="45.94765" lon="4.67854">
        <ele>261.332855</ele>
        <time>2016-09-11T06:17:58Z</time>
      </trkpt>
      <trkpt lat="45.94757" lon="4.67857">
        <ele>260.983154</ele>
        <time>2016-09-11T06:18:00Z</time>
      </trkpt>
      <trkpt lat="45.94749" lon="4.67861">
        <ele>261.706268</ele>
        <time>2016-09-11T06:18:02Z</time>
      </trkpt>
      <trkpt lat="45.94741" lon="4.67864">
        <ele>261.888672</ele>
        <time>2016-09-11T06:18:04Z</time>
      </trkpt>
      <trkpt lat="45.94734" lon="4.67867">
        <ele>262.050018</ele>
        <time>2016-09-11T06:18:06Z</time>
      </trkpt>
      <trkpt lat="45.94726" lon="4.6787">
        <ele>261.816406</ele>
        <time>2016-09-11T06:18:08Z</time>
      </trkpt>
      <trkpt lat="45.94717" lon="4.67874">
        <ele>261.939606</ele>
        <time>2016-09-11T06:18:10Z</time>
      </trkpt>
      <trkpt lat="45.94709" lon="4.67878">
        <ele>261.920471</ele>
        <time>2016-09-11T06:18:12Z</time>
      </trkpt>
      <trkpt lat="45.947" lon="4.6788">
        <ele>261.863129</ele>
        <time>2016-09-11T06:18:14Z</time>
      </trkpt>
      <trkpt lat="45.94692" lon="4.67881">
        <ele>261.627289</ele>
        <time>2016-09-11T06:18:16Z</time>
      </trkpt>
      <trkpt lat="45.94684" lon="4.6788">
        <ele>261.866882</ele>
        <time>2016-09-11T06:18:18Z</time>
      </trkpt>
      <trkpt lat="45.94676" lon="4.67881">
        <ele>261.809509</ele>
        <time>2016-09-11T06:18:20Z</time>
      </trkpt>
      <trkpt lat="45.94669" lon="4.67881">
        <ele>261.801331</ele>
        <time>2016-09-11T06:18:22Z</time>
      </trkpt>
      <trkpt lat="45.94661" lon="4.67882">
        <ele>261.80127</ele>
        <time>2016-09-11T06:18:24Z</time>
      </trkpt>
      <trkpt lat="45.94652" lon="4.67881">
        <ele>261.997742</ele>
        <time>2016-09-11T06:18:26Z</time>
      </trkpt>
      <trkpt lat="45.94643" lon="4.67882">
        <ele>262.123047</ele>
        <time>2016-09-11T06:18:28Z</time>
      </trkpt>
      <trkpt lat="45.94635" lon="4.67882">
        <ele>262.165527</ele>
        <time>2016-09-11T06:18:30Z</time>
      </trkpt>
      <trkpt lat="45.94626" lon="4.67883">
        <ele>262.309784</ele>
        <time>2016-09-11T06:18:32Z</time>
      </trkpt>
      <trkpt lat="45.94618" lon="4.67884">
        <ele>262.62207</ele>
        <time>2016-09-11T06:18:34Z</time>
      </trkpt>
      <trkpt lat="45.9461" lon="4.67886">
        <ele>262.949127</ele>
        <time>2016-09-11T06:18:36Z</time>
      </trkpt>
      <trkpt lat="45.94601" lon="4.67887">
        <ele>263.127502</ele>
        <time>2016-09-11T06:18:38Z</time>
      </trkpt>
      <trkpt lat="45.94593" lon="4.67889">
        <ele>263.36969</ele>
        <time>2016-09-11T06:18:40Z</time>
      </trkpt>
      <trkpt lat="45.94585" lon="4.6789">
        <ele>263.404938</ele>
        <time>2016-09-11T06:18:42Z</time>
      </trkpt>
      <trkpt lat="45.94577" lon="4.67891">
        <ele>263.5224</ele>
        <time>2016-09-11T06:18:44Z</time>
      </trkpt>
      <trkpt lat="45.9457" lon="4.67894">
        <ele>263.747589</ele>
        <time>2016-09-11T06:18:46Z</time>
      </trkpt>
      <trkpt lat="45.94563" lon="4.67896">
        <ele>263.915375</ele>
        <time>2016-09-11T06:18:48Z</time>
      </trkpt>
      <trkpt lat="45.94555" lon="4.67898">
        <ele>264.191467</ele>
        <time>2016-09-11T06:18:50Z</time>
      </trkpt>
      <trkpt lat="45.94547" lon="4.67899">
        <ele>264.499481</ele>
        <time>2016-09-11T06:18:52Z</time>
      </trkpt>
      <trkpt lat="45.94539" lon="4.67899">
        <ele>264.688538</ele>
        <time>2016-09-11T06:18:54Z</time>
      </trkpt>
      <trkpt lat="45.94531" lon="4.67899">
        <ele>264.811768</ele>
        <time>2016-09-11T06:18:56Z</time>
      </trkpt>
      <trkpt lat="45.94522" lon="4.67899">
        <ele>264.945984</ele>
        <time>2016-09-11T06:18:58Z</time>
      </trkpt>
      <trkpt lat="45.94514" lon="4.67899">
        <ele>265.052185</ele>
        <time>2016-09-11T06:19:00Z</time>
      </trkpt>
      <trkpt lat="45.94506" lon="4.67899">
        <ele>265.317688</ele>
        <time>2016-09-11T06:19:02Z</time>
      </trkpt>
      <trkpt lat="45.94498" lon="4.67898">
        <ele>265.582947</ele>
        <time>2016-09-11T06:19:04Z</time>
      </trkpt>
      <trkpt lat="45.94491" lon="4.67898">
        <ele>265.833649</ele>
        <time>2016-09-11T06:19:06Z</time>
      </trkpt>
      <trkpt lat="45.94483" lon="4.67898">
        <ele>265.850647</ele>
        <time>2016-09-11T06:19:08Z</time>
      </trkpt>
      <trkpt lat="45.94476" lon="4.67898">
        <ele>266.03656</ele>
        <time>2016-09-11T06:19:10Z</time>
      </trkpt>
      <trkpt lat="45.94468" lon="4.67898">
        <ele>266.196228</ele>
        <time>2016-09-11T06:19:12Z</time>
      </trkpt>
      <trkpt lat="45.94461" lon="4.67899">
        <ele>266.274841</ele>
        <time>2016-09-11T06:19:14Z</time>
      </trkpt>
      <trkpt lat="45.94454" lon="4.67899">
        <ele>266.280609</ele>
        <time>2016-09-11T06:19:16Z</time>
      </trkpt>
      <trkpt lat="45.94447" lon="4.67899">
        <ele>266.490448</ele>
        <time>2016-09-11T06:19:18Z</time>
      </trkpt>
      <trkpt lat="45.94439" lon="4.67899">
        <ele>266.775146</ele>
        <time>2016-09-11T06:19:20Z</time>
      </trkpt>
      <trkpt lat="45.94432" lon="4.67899">
        <ele>266.974884</ele>
        <time>2016-09-11T06:19:22Z</time>
      </trkpt>
      <trkpt lat="45.94425" lon="4.67899">
        <ele>267.331848</ele>
        <time>2016-09-11T06:19:24Z</time>
      </trkpt>
      <trkpt lat="45.94418" lon="4.679">
        <ele>267.461487</ele>
        <time>2016-09-11T06:19:26Z</time>
      </trkpt>
      <trkpt lat="45.9441" lon="4.679">
        <ele>267.64212</ele>
        <time>2016-09-11T06:19:28Z</time>
      </trkpt>
      <trkpt lat="45.94405" lon="4.67901">
        <ele>267.848236</ele>
        <time>2016-09-11T06:19:30Z</time>
      </trkpt>
      <trkpt lat="45.944" lon="4.679">
        <ele>268.037384</ele>
        <time>2016-09-11T06:19:32Z</time>
      </trkpt>
      <trkpt lat="45.94397" lon="4.67898">
        <ele>268.190399</ele>
        <time>2016-09-11T06:19:34Z</time>
      </trkpt>
      <trkpt lat="45.94396" lon="4.67892">
        <ele>268.36676</ele>
        <time>2016-09-11T06:19:36Z</time>
      </trkpt>
      <trkpt lat="45.94399" lon="4.67887">
        <ele>268.542389</ele>
        <time>2016-09-11T06:19:38Z</time>
      </trkpt>
      <trkpt lat="45.944" lon="4.67884">
        <ele>268.840363</ele>
        <time>2016-09-11T06:19:40Z</time>
      </trkpt>
      <trkpt lat="45.94402" lon="4.67882">
        <ele>269.13147</ele>
        <time>2016-09-11T06:19:42Z</time>
      </trkpt>
      <trkpt lat="45.94403" lon="4.6788">
        <ele>269.337677</ele>
        <time>2016-09-11T06:19:44Z</time>
      </trkpt>
      <trkpt lat="45.94404" lon="4.67876">
        <ele>269.477966</ele>
        <time>2016-09-11T06:19:46Z</time>
      </trkpt>
      <trkpt lat="45.94406" lon="4.67869">
        <ele>269.647552</ele>
        <time>2016-09-11T06:19:48Z</time>
      </trkpt>
      <trkpt lat="45.94408" lon="4.67863">
        <ele>269.899536</ele>
        <time>2016-09-11T06:19:50Z</time>
      </trkpt>
      <trkpt lat="45.94411" lon="4.67855">
        <ele>270.084442</ele>
        <time>2016-09-11T06:19:52Z</time>
      </trkpt>
      <trkpt lat="45.94415" lon="4.67847">
        <ele>270.188202</ele>
        <time>2016-09-11T06:19:54Z</time>
      </trkpt>
      <trkpt lat="45.94417" lon="4.67839">
        <ele>270.3461</ele>
        <time>2016-09-11T06:19:56Z</time>
      </trkpt>
      <trkpt lat="45.94415" lon="4.67833">
        <ele>270.571442</ele>
        <time>2016-09-11T06:19:58Z</time>
      </trkpt>
      <trkpt lat="45.94409" lon="4.67833">
        <ele>270.55069</ele>
        <time>2016-09-11T06:20:00Z</time>
      </trkpt>
      <trkpt lat="45.94402" lon="4.67834">
        <ele>270.444458</ele>
        <time>2016-09-11T06:20:02Z</time>
      </trkpt>
      <trkpt lat="45.94393" lon="4.67835">
        <ele>270.514587</ele>
        <time>2016-09-11T06:20:04Z</time>
      </trkpt>
      <trkpt lat="45.94385" lon="4.67841">
        <ele>270.419373</ele>
        <time>2016-09-11T06:20:06Z</time>
      </trkpt>
      <trkpt lat="45.94378" lon="4.67844">
        <ele>270.429993</ele>
        <time>2016-09-11T06:20:08Z</time>
      </trkpt>
      <trkpt lat="45.94371" lon="4.67845">
        <ele>270.323761</ele>
        <time>2016-09-11T06:20:10Z</time>
      </trkpt>
      <trkpt lat="45.94363" lon="4.67847">
        <ele>270.109131</ele>
        <time>2016-09-11T06:20:12Z</time>
      </trkpt>
      <trkpt lat="45.94358" lon="4.67848">
        <ele>270.148407</ele>
        <time>2016-09-11T06:20:14Z</time>
      </trkpt>
      <trkpt lat="45.94354" lon="4.6785">
        <ele>270.108063</ele>
        <time>2016-09-11T06:20:16Z</time>
      </trkpt>
      <trkpt lat="45.94347" lon="4.67852">
        <ele>269.978027</ele>
        <time>2016-09-11T06:20:18Z</time>
      </trkpt>
      <trkpt lat="45.94341" lon="4.67854">
        <ele>270.124207</ele>
        <time>2016-09-11T06:20:20Z</time>
      </trkpt>
      <trkpt lat="45.94334" lon="4.67854">
        <ele>270.039246</ele>
        <time>2016-09-11T06:20:22Z</time>
      </trkpt>
      <trkpt lat="45.94327" lon="4.67855">
        <ele>270.230133</ele>
        <time>2016-09-11T06:20:24Z</time>
      </trkpt>
      <trkpt lat="45.94319" lon="4.67857">
        <ele>270.304749</ele>
        <time>2016-09-11T06:20:26Z</time>
      </trkpt>
      <trkpt lat="45.94314" lon="4.67857">
        <ele>270.315369</ele>
        <time>2016-09-11T06:20:28Z</time>
      </trkpt>
      <trkpt lat="45.94311" lon="4.67857">
        <ele>270.494232</ele>
        <time>2016-09-11T06:20:32Z</time>
      </trkpt>
      <trkpt lat="45.94308" lon="4.67857">
        <ele>270.566589</ele>
        <time>2016-09-11T06:20:34Z</time>
      </trkpt>
      <trkpt lat="45.94304" lon="4.6786">
        <ele>270.694183</ele>
        <time>2016-09-11T06:20:36Z</time>
      </trkpt>
      <trkpt lat="45.94302" lon="4.6786">
        <ele>270.749451</ele>
        <time>2016-09-11T06:20:38Z</time>
      </trkpt>
      <trkpt lat="45.94299" lon="4.6786">
        <ele>270.899963</ele>
        <time>2016-09-11T06:20:42Z</time>
      </trkpt>
      <trkpt lat="45.94296" lon="4.6786">
        <ele>271.267639</ele>
        <time>2016-09-11T06:20:44Z</time>
      </trkpt>
      <trkpt lat="45.94292" lon="4.67862">
        <ele>271.324615</ele>
        <time>2016-09-11T06:20:46Z</time>
      </trkpt>
      <trkpt lat="45.94287" lon="4.67866">
        <ele>271.543304</ele>
        <time>2016-09-11T06:20:48Z</time>
      </trkpt>
      <trkpt lat="45.94281" lon="4.67867">
        <ele>271.760101</ele>
        <time>2016-09-11T06:20:50Z</time>
      </trkpt>
      <trkpt lat="45.94274" lon="4.67869">
        <ele>271.738831</ele>
        <time>2016-09-11T06:20:52Z</time>
      </trkpt>
      <trkpt lat="45.94267" lon="4.67869">
        <ele>271.898254</ele>
        <time>2016-09-11T06:20:54Z</time>
      </trkpt>
      <trkpt lat="45.94261" lon="4.67868">
        <ele>271.946136</ele>
        <time>2016-09-11T06:20:56Z</time>
      </trkpt>
      <trkpt lat="45.94256" lon="4.67869">
        <ele>272.217285</ele>
        <time>2016-09-11T06:20:58Z</time>
      </trkpt>
      <trkpt lat="45.94248" lon="4.6787">
        <ele>272.185394</ele>
        <time>2016-09-11T06:21:00Z</time>
      </trkpt>
      <trkpt lat="45.94241" lon="4.67871">
        <ele>272.385254</ele>
        <time>2016-09-11T06:21:02Z</time>
      </trkpt>
      <trkpt lat="45.94236" lon="4.67869">
        <ele>272.549652</ele>
        <time>2016-09-11T06:21:04Z</time>
      </trkpt>
      <trkpt lat="45.94231" lon="4.67869">
        <ele>272.575623</ele>
        <time>2016-09-11T06:21:06Z</time>
      </trkpt>
      <trkpt lat="45.94225" lon="4.67867">
        <ele>272.696533</ele>
        <time>2016-09-11T06:21:08Z</time>
      </trkpt>
      <trkpt lat="45.94219" lon="4.67866">
        <ele>272.843201</ele>
        <time>2016-09-11T06:21:10Z</time>
      </trkpt>
      <trkpt lat="45.94212" lon="4.67867">
        <ele>272.834686</ele>
        <time>2016-09-11T06:21:12Z</time>
      </trkpt>
      <trkpt lat="45.94205" lon="4.67867">
        <ele>273.0047</ele>
        <time>2016-09-11T06:21:14Z</time>
      </trkpt>
      <trkpt lat="45.94196" lon="4.67869">
        <ele>273.068542</ele>
        <time>2016-09-11T06:21:16Z</time>
      </trkpt>
      <trkpt lat="45.94188" lon="4.67868">
        <ele>273.098267</ele>
        <time>2016-09-11T06:21:18Z</time>
      </trkpt>
      <trkpt lat="45.94181" lon="4.67867">
        <ele>273.259888</ele>
        <time>2016-09-11T06:21:20Z</time>
      </trkpt>
      <trkpt lat="45.94173" lon="4.67866">
        <ele>273.26239</ele>
        <time>2016-09-11T06:21:22Z</time>
      </trkpt>
      <trkpt lat="45.94165" lon="4.67864">
        <ele>273.364441</ele>
        <time>2016-09-11T06:21:24Z</time>
      </trkpt>
      <trkpt lat="45.94159" lon="4.67864">
        <ele>273.428253</ele>
        <time>2016-09-11T06:21:26Z</time>
      </trkpt>
      <trkpt lat="45.94155" lon="4.67861">
        <ele>273.247833</ele>
        <time>2016-09-11T06:21:28Z</time>
      </trkpt>
      <trkpt lat="45.94153" lon="4.67858">
        <ele>273.539124</ele>
        <time>2016-09-11T06:21:30Z</time>
      </trkpt>
      <trkpt lat="45.94154" lon="4.67854">
        <ele>273.505096</ele>
        <time>2016-09-11T06:21:32Z</time>
      </trkpt>
      <trkpt lat="45.94154" lon="4.6785">
        <ele>273.818176</ele>
        <time>2016-09-11T06:21:34Z</time>
      </trkpt>
      <trkpt lat="45.94154" lon="4.67845">
        <ele>273.923553</ele>
        <time>2016-09-11T06:21:36Z</time>
      </trkpt>
      <trkpt lat="45.94154" lon="4.67841">
        <ele>274.106415</ele>
        <time>2016-09-11T06:21:38Z</time>
      </trkpt>
      <trkpt lat="45.94153" lon="4.67837">
        <ele>274.380737</ele>
        <time>2016-09-11T06:21:40Z</time>
      </trkpt>
      <trkpt lat="45.94152" lon="4.67833">
        <ele>274.631622</ele>
        <time>2016-09-11T06:21:42Z</time>
      </trkpt>
      <trkpt lat="45.94151" lon="4.67829">
        <ele>274.853943</ele>
        <time>2016-09-11T06:21:44Z</time>
      </trkpt>
      <trkpt lat="45.9415" lon="4.67824">
        <ele>275.113953</ele>
        <time>2016-09-11T06:21:46Z</time>
      </trkpt>
      <trkpt lat="45.9415" lon="4.67819">
        <ele>275.388336</ele>
        <time>2016-09-11T06:21:48Z</time>
      </trkpt>
      <trkpt lat="45.94151" lon="4.67813">
        <ele>275.522278</ele>
        <time>2016-09-11T06:21:50Z</time>
      </trkpt>
      <trkpt lat="45.94151" lon="4.67807">
        <ele>275.85199</ele>
        <time>2016-09-11T06:21:52Z</time>
      </trkpt>
      <trkpt lat="45.94151" lon="4.67803">
        <ele>276.422119</ele>
        <time>2016-09-11T06:21:54Z</time>
      </trkpt>
      <trkpt lat="45.94152" lon="4.67797">
        <ele>276.822052</ele>
        <time>2016-09-11T06:21:56Z</time>
      </trkpt>
      <trkpt lat="45.94152" lon="4.67791">
        <ele>277.087952</ele>
        <time>2016-09-11T06:21:58Z</time>
      </trkpt>
      <trkpt lat="45.94152" lon="4.67785">
        <ele>277.60556</ele>
        <time>2016-09-11T06:22:00Z</time>
      </trkpt>
      <trkpt lat="45.94152" lon="4.6778">
        <ele>277.948303</ele>
        <time>2016-09-11T06:22:02Z</time>
      </trkpt>
      <trkpt lat="45.9415" lon="4.67775">
        <ele>278.407684</ele>
        <time>2016-09-11T06:22:04Z</time>
      </trkpt>
      <trkpt lat="45.9415" lon="4.67769">
        <ele>278.701233</ele>
        <time>2016-09-11T06:22:06Z</time>
      </trkpt>
      <trkpt lat="45.9415" lon="4.67763">
        <ele>279.19696</ele>
        <time>2016-09-11T06:22:08Z</time>
      </trkpt>
      <trkpt lat="45.94149" lon="4.67758">
        <ele>280.173309</ele>
        <time>2016-09-11T06:22:10Z</time>
      </trkpt>
      <trkpt lat="45.94149" lon="4.67752">
        <ele>280.647339</ele>
        <time>2016-09-11T06:22:12Z</time>
      </trkpt>
      <trkpt lat="45.9415" lon="4.67746">
        <ele>281.431854</ele>
        <time>2016-09-11T06:22:14Z</time>
      </trkpt>
      <trkpt lat="45.94149" lon="4.6774">
        <ele>282.026398</ele>
        <time>2016-09-11T06:22:16Z</time>
      </trkpt>
      <trkpt lat="45.94149" lon="4.67734">
        <ele>282.705109</ele>
        <time>2016-09-11T06:22:18Z</time>
      </trkpt>
      <trkpt lat="45.9415" lon="4.67728">
        <ele>282.705353</ele>
        <time>2016-09-11T06:22:20Z</time>
      </trkpt>
      <trkpt lat="45.9415" lon="4.67722">
        <ele>283.1203</ele>
        <time>2016-09-11T06:22:22Z</time>
      </trkpt>
      <trkpt lat="45.94151" lon="4.67716">
        <ele>283.41394</ele>
        <time>2016-09-11T06:22:24Z</time>
      </trkpt>
      <trkpt lat="45.94151" lon="4.6771">
        <ele>283.917175</ele>
        <time>2016-09-11T06:22:26Z</time>
      </trkpt>
      <trkpt lat="45.94152" lon="4.67704">
        <ele>284.41333</ele>
        <time>2016-09-11T06:22:28Z</time>
      </trkpt>
      <trkpt lat="45.94151" lon="4.67697">
        <ele>284.662323</ele>
        <time>2016-09-11T06:22:30Z</time>
      </trkpt>
      <trkpt lat="45.9415" lon="4.67691">
        <ele>285.11554</ele>
        <time>2016-09-11T06:22:32Z</time>
      </trkpt>
      <trkpt lat="45.9415" lon="4.67683">
        <ele>285.684021</ele>
        <time>2016-09-11T06:22:34Z</time>
      </trkpt>
      <trkpt lat="45.9415" lon="4.67674">
        <ele>285.992493</ele>
        <time>2016-09-11T06:22:36Z</time>
      </trkpt>
      <trkpt lat="45.94149" lon="4.67665">
        <ele>286.267059</ele>
        <time>2016-09-11T06:22:38Z</time>
      </trkpt>
      <trkpt lat="45.94148" lon="4.67657">
        <ele>286.712463</ele>
        <time>2016-09-11T06:22:40Z</time>
      </trkpt>
      <trkpt lat="45.94147" lon="4.6765">
        <ele>286.93399</ele>
        <time>2016-09-11T06:22:42Z</time>
      </trkpt>
      <trkpt lat="45.94146" lon="4.67642">
        <ele>287.33783</ele>
        <time>2016-09-11T06:22:44Z</time>
      </trkpt>
      <trkpt lat="45.94144" lon="4.67635">
        <ele>287.755066</ele>
        <time>2016-09-11T06:22:46Z</time>
      </trkpt>
      <trkpt lat="45.94143" lon="4.67627">
        <ele>288.021118</ele>
        <time>2016-09-11T06:22:48Z</time>
      </trkpt>
      <trkpt lat="45.94143" lon="4.6762">
        <ele>288.21701</ele>
        <time>2016-09-11T06:22:50Z</time>
      </trkpt>
      <trkpt lat="45.94142" lon="4.67613">
        <ele>288.522003</ele>
        <time>2016-09-11T06:22:52Z</time>
      </trkpt>
      <trkpt lat="45.94141" lon="4.67605">
        <ele>288.585876</ele>
        <time>2016-09-11T06:22:54Z</time>
      </trkpt>
      <trkpt lat="45.94141" lon="4.67599">
        <ele>288.703033</ele>
        <time>2016-09-11T06:22:56Z</time>
      </trkpt>
      <trkpt lat="45.9414" lon="4.67593">
        <ele>289.039917</ele>
        <time>2016-09-11T06:22:58Z</time>
      </trkpt>
      <trkpt lat="45.94138" lon="4.67588">
        <ele>289.306091</ele>
        <time>2016-09-11T06:23:00Z</time>
      </trkpt>
      <trkpt lat="45.94138" lon="4.67584">
        <ele>290.011414</ele>
        <time>2016-09-11T06:23:02Z</time>
      </trkpt>
      <trkpt lat="45.94137" lon="4.67581">
        <ele>290.343567</ele>
        <time>2016-09-11T06:23:04Z</time>
      </trkpt>
      <trkpt lat="45.94133" lon="4.67582">
        <ele>290.701324</ele>
        <time>2016-09-11T06:23:06Z</time>
      </trkpt>
      <trkpt lat="45.9413" lon="4.67586">
        <ele>290.972168</ele>
        <time>2016-09-11T06:23:08Z</time>
      </trkpt>
      <trkpt lat="45.94125" lon="4.67591">
        <ele>291.217072</ele>
        <time>2016-09-11T06:23:10Z</time>
      </trkpt>
      <trkpt lat="45.94118" lon="4.67595">
        <ele>291.679138</ele>
        <time>2016-09-11T06:23:12Z</time>
      </trkpt>
      <trkpt lat="45.94109" lon="4.67601">
        <ele>291.670593</ele>
        <time>2016-09-11T06:23:14Z</time>
      </trkpt>
      <trkpt lat="45.94102" lon="4.67604">
        <ele>291.924408</ele>
        <time>2016-09-11T06:23:16Z</time>
      </trkpt>
      <trkpt lat="45.94092" lon="4.67608">
        <ele>291.990479</ele>
        <time>2016-09-11T06:23:18Z</time>
      </trkpt>
      <trkpt lat="45.94082" lon="4.67611">
        <ele>291.954285</ele>
        <time>2016-09-11T06:23:20Z</time>
      </trkpt>
      <trkpt lat="45.94071" lon="4.67614">
        <ele>291.980835</ele>
        <time>2016-09-11T06:23:22Z</time>
      </trkpt>
      <trkpt lat="45.9406" lon="4.67618">
        <ele>292.085144</ele>
        <time>2016-09-11T06:23:24Z</time>
      </trkpt>
      <trkpt lat="45.94049" lon="4.67621">
        <ele>292.47345</ele>
        <time>2016-09-11T06:23:26Z</time>
      </trkpt>
      <trkpt lat="45.94038" lon="4.67623">
        <ele>292.835602</ele>
        <time>2016-09-11T06:23:28Z</time>
      </trkpt>
      <trkpt lat="45.94026" lon="4.67625">
        <ele>293.255219</ele>
        <time>2016-09-11T06:23:30Z</time>
      </trkpt>
      <trkpt lat="45.94015" lon="4.67626">
        <ele>293.255249</ele>
        <time>2016-09-11T06:23:32Z</time>
      </trkpt>
      <trkpt lat="45.94003" lon="4.67628">
        <ele>293.259521</ele>
        <time>2016-09-11T06:23:34Z</time>
      </trkpt>
      <trkpt lat="45.93992" lon="4.6763">
        <ele>293.50238</ele>
        <time>2016-09-11T06:23:36Z</time>
      </trkpt>
      <trkpt lat="45.9398" lon="4.67632">
        <ele>293.614868</ele>
        <time>2016-09-11T06:23:38Z</time>
      </trkpt>
      <trkpt lat="45.93969" lon="4.67634">
        <ele>293.587219</ele>
        <time>2016-09-11T06:23:40Z</time>
      </trkpt>
      <trkpt lat="45.93958" lon="4.67636">
        <ele>293.736359</ele>
        <time>2016-09-11T06:23:42Z</time>
      </trkpt>
      <trkpt lat="45.93947" lon="4.67638">
        <ele>293.87384</ele>
        <time>2016-09-11T06:23:44Z</time>
      </trkpt>
      <trkpt lat="45.93935" lon="4.67641">
        <ele>293.875488</ele>
        <time>2016-09-11T06:23:46Z</time>
      </trkpt>
      <trkpt lat="45.93923" lon="4.67643">
        <ele>293.715881</ele>
        <time>2016-09-11T06:23:48Z</time>
      </trkpt>
      <trkpt lat="45.93911" lon="4.67645">
        <ele>293.48822</ele>
        <time>2016-09-11T06:23:50Z</time>
      </trkpt>
      <trkpt lat="45.939" lon="4.67648">
        <ele>293.586243</ele>
        <time>2016-09-11T06:23:52Z</time>
      </trkpt>
      <trkpt lat="45.93889" lon="4.67651">
        <ele>293.605408</ele>
        <time>2016-09-11T06:23:54Z</time>
      </trkpt>
      <trkpt lat="45.93877" lon="4.67653">
        <ele>293.723816</ele>
        <time>2016-09-11T06:23:56Z</time>
      </trkpt>
      <trkpt lat="45.93866" lon="4.67656">
        <ele>293.691833</ele>
        <time>2016-09-11T06:23:58Z</time>
      </trkpt>
      <trkpt lat="45.93855" lon="4.67659">
        <ele>293.774811</ele>
        <time>2016-09-11T06:24:00Z</time>
      </trkpt>
      <trkpt lat="45.93843" lon="4.67663">
        <ele>294.269226</ele>
        <time>2016-09-11T06:24:02Z</time>
      </trkpt>
      <trkpt lat="45.93832" lon="4.67668">
        <ele>294.179535</ele>
        <time>2016-09-11T06:24:04Z</time>
      </trkpt>
      <trkpt lat="45.93822" lon="4.67673">
        <ele>293.819519</ele>
        <time>2016-09-11T06:24:06Z</time>
      </trkpt>
      <trkpt lat="45.93811" lon="4.67676">
        <ele>293.634216</ele>
        <time>2016-09-11T06:24:08Z</time>
      </trkpt>
      <trkpt lat="45.93802" lon="4.67677">
        <ele>293.615051</ele>
        <time>2016-09-11T06:24:10Z</time>
      </trkpt>
      <trkpt lat="45.93792" lon="4.67678">
        <ele>293.235199</ele>
        <time>2016-09-11T06:24:12Z</time>
      </trkpt>
      <trkpt lat="45.93781" lon="4.67679">
        <ele>293.092529</ele>
        <time>2016-09-11T06:24:14Z</time>
      </trkpt>
      <trkpt lat="45.9377" lon="4.67683">
        <ele>292.732727</ele>
        <time>2016-09-11T06:24:16Z</time>
      </trkpt>
      <trkpt lat="45.93759" lon="4.67688">
        <ele>292.398438</ele>
        <time>2016-09-11T06:24:18Z</time>
      </trkpt>
      <trkpt lat="45.93748" lon="4.67695">
        <ele>292.370697</ele>
        <time>2016-09-11T06:24:20Z</time>
      </trkpt>
      <trkpt lat="45.93736" lon="4.67701">
        <ele>292.19751</ele>
        <time>2016-09-11T06:24:22Z</time>
      </trkpt>
      <trkpt lat="45.93723" lon="4.67709">
        <ele>291.532562</ele>
        <time>2016-09-11T06:24:24Z</time>
      </trkpt>
      <trkpt lat="45.9371" lon="4.67718">
        <ele>291.158142</ele>
        <time>2016-09-11T06:24:26Z</time>
      </trkpt>
      <trkpt lat="45.93696" lon="4.67728">
        <ele>290.740967</ele>
        <time>2016-09-11T06:24:28Z</time>
      </trkpt>
      <trkpt lat="45.93681" lon="4.67737">
        <ele>290.47052</ele>
        <time>2016-09-11T06:24:30Z</time>
      </trkpt>
      <trkpt lat="45.93667" lon="4.67745">
        <ele>290.66684</ele>
        <time>2016-09-11T06:24:32Z</time>
      </trkpt>
      <trkpt lat="45.93655" lon="4.67748">
        <ele>290.006744</ele>
        <time>2016-09-11T06:24:34Z</time>
      </trkpt>
      <trkpt lat="45.9365" lon="4.67743">
        <ele>289.563812</ele>
        <time>2016-09-11T06:24:36Z</time>
      </trkpt>
      <trkpt lat="45.93647" lon="4.67738">
        <ele>289.300629</ele>
        <time>2016-09-11T06:24:38Z</time>
      </trkpt>
      <trkpt lat="45.93641" lon="4.67732">
        <ele>288.776855</ele>
        <time>2016-09-11T06:24:40Z</time>
      </trkpt>
      <trkpt lat="45.93633" lon="4.67727">
        <ele>288.395813</ele>
        <time>2016-09-11T06:24:42Z</time>
      </trkpt>
      <trkpt lat="45.93623" lon="4.67725">
        <ele>287.01416</ele>
        <time>2016-09-11T06:24:44Z</time>
      </trkpt>
      <trkpt lat="45.93613" lon="4.67725">
        <ele>286.622406</ele>
        <time>2016-09-11T06:24:46Z</time>
      </trkpt>
      <trkpt lat="45.93605" lon="4.67725">
        <ele>286.568268</ele>
        <time>2016-09-11T06:24:48Z</time>
      </trkpt>
      <trkpt lat="45.93595" lon="4.67725">
        <ele>286.49115</ele>
        <time>2016-09-11T06:24:50Z</time>
      </trkpt>
      <trkpt lat="45.93585" lon="4.67723">
        <ele>286.002045</ele>
        <time>2016-09-11T06:24:52Z</time>
      </trkpt>
      <trkpt lat="45.93576" lon="4.67721">
        <ele>285.963074</ele>
        <time>2016-09-11T06:24:54Z</time>
      </trkpt>
      <trkpt lat="45.93567" lon="4.67717">
        <ele>286.046143</ele>
        <time>2016-09-11T06:24:56Z</time>
      </trkpt>
      <trkpt lat="45.93559" lon="4.67713">
        <ele>285.960846</ele>
        <time>2016-09-11T06:24:58Z</time>
      </trkpt>
      <trkpt lat="45.9355" lon="4.67708">
        <ele>285.828766</ele>
        <time>2016-09-11T06:25:00Z</time>
      </trkpt>
      <trkpt lat="45.93541" lon="4.67704">
        <ele>285.762695</ele>
        <time>2016-09-11T06:25:02Z</time>
      </trkpt>
      <trkpt lat="45.93533" lon="4.677">
        <ele>285.565338</ele>
        <time>2016-09-11T06:25:04Z</time>
      </trkpt>
      <trkpt lat="45.93524" lon="4.67696">
        <ele>285.523285</ele>
        <time>2016-09-11T06:25:06Z</time>
      </trkpt>
      <trkpt lat="45.93517" lon="4.67691">
        <ele>285.472321</ele>
        <time>2016-09-11T06:25:08Z</time>
      </trkpt>
      <trkpt lat="45.93508" lon="4.67686">
        <ele>285.71698</ele>
        <time>2016-09-11T06:25:10Z</time>
      </trkpt>
      <trkpt lat="45.935" lon="4.67682">
        <ele>285.610535</ele>
        <time>2016-09-11T06:25:12Z</time>
      </trkpt>
      <trkpt lat="45.93491" lon="4.67678">
        <ele>285.301331</ele>
        <time>2016-09-11T06:25:14Z</time>
      </trkpt>
      <trkpt lat="45.93484" lon="4.67675">
        <ele>285.564758</ele>
        <time>2016-09-11T06:25:16Z</time>
      </trkpt>
      <trkpt lat="45.93477" lon="4.67671">
        <ele>285.720154</ele>
        <time>2016-09-11T06:25:18Z</time>
      </trkpt>
      <trkpt lat="45.93469" lon="4.67666">
        <ele>285.869324</ele>
        <time>2016-09-11T06:25:20Z</time>
      </trkpt>
      <trkpt lat="45.93462" lon="4.67662">
        <ele>286.020416</ele>
        <time>2016-09-11T06:25:22Z</time>
      </trkpt>
      <trkpt lat="45.93454" lon="4.67658">
        <ele>286.781952</ele>
        <time>2016-09-11T06:25:24Z</time>
      </trkpt>
      <trkpt lat="45.93446" lon="4.67654">
        <ele>286.930969</ele>
        <time>2016-09-11T06:25:26Z</time>
      </trkpt>
      <trkpt lat="45.93438" lon="4.6765">
        <ele>287.539978</ele>
        <time>2016-09-11T06:25:28Z</time>
      </trkpt>
      <trkpt lat="45.93431" lon="4.67647">
        <ele>287.479187</ele>
        <time>2016-09-11T06:25:30Z</time>
      </trkpt>
      <trkpt lat="45.93424" lon="4.67644">
        <ele>287.385895</ele>
        <time>2016-09-11T06:25:32Z</time>
      </trkpt>
      <trkpt lat="45.93416" lon="4.6764">
        <ele>287.647766</ele>
        <time>2016-09-11T06:25:34Z</time>
      </trkpt>
      <trkpt lat="45.93409" lon="4.67635">
        <ele>287.923096</ele>
        <time>2016-09-11T06:25:36Z</time>
      </trkpt>
      <trkpt lat="45.93402" lon="4.67629">
        <ele>288.076447</ele>
        <time>2016-09-11T06:25:38Z</time>
      </trkpt>
      <trkpt lat="45.93396" lon="4.67623">
        <ele>288.108368</ele>
        <time>2016-09-11T06:25:40Z</time>
      </trkpt>
      <trkpt lat="45.9339" lon="4.67615">
        <ele>288.425629</ele>
        <time>2016-09-11T06:25:42Z</time>
      </trkpt>
      <trkpt lat="45.93383" lon="4.67609">
        <ele>288.679077</ele>
        <time>2016-09-11T06:25:44Z</time>
      </trkpt>
      <trkpt lat="45.93377" lon="4.67604">
        <ele>289.262573</ele>
        <time>2016-09-11T06:25:46Z</time>
      </trkpt>
      <trkpt lat="45.93372" lon="4.676">
        <ele>289.366882</ele>
        <time>2016-09-11T06:25:48Z</time>
      </trkpt>
      <trkpt lat="45.93366" lon="4.67596">
        <ele>289.5755</ele>
        <time>2016-09-11T06:25:50Z</time>
      </trkpt>
      <trkpt lat="45.93361" lon="4.67592">
        <ele>289.88855</ele>
        <time>2016-09-11T06:25:52Z</time>
      </trkpt>
      <trkpt lat="45.93354" lon="4.67588">
        <ele>290.129181</ele>
        <time>2016-09-11T06:25:54Z</time>
      </trkpt>
      <trkpt lat="45.93348" lon="4.67586">
        <ele>290.127045</ele>
        <time>2016-09-11T06:25:56Z</time>
      </trkpt>
      <trkpt lat="45.93342" lon="4.67584">
        <ele>290.427856</ele>
        <time>2016-09-11T06:25:58Z</time>
      </trkpt>
      <trkpt lat="45.93335" lon="4.67582">
        <ele>290.696259</ele>
        <time>2016-09-11T06:26:00Z</time>
      </trkpt>
      <trkpt lat="45.93329" lon="4.67579">
        <ele>291.341553</ele>
        <time>2016-09-11T06:26:02Z</time>
      </trkpt>
      <trkpt lat="45.93324" lon="4.67575">
        <ele>291.537506</ele>
        <time>2016-09-11T06:26:04Z</time>
      </trkpt>
      <trkpt lat="45.93319" lon="4.67572">
        <ele>291.788849</ele>
        <time>2016-09-11T06:26:06Z</time>
      </trkpt>
      <trkpt lat="45.93313" lon="4.67569">
        <ele>292.178528</ele>
        <time>2016-09-11T06:26:08Z</time>
      </trkpt>
      <trkpt lat="45.93308" lon="4.67565">
        <ele>292.151306</ele>
        <time>2016-09-11T06:26:10Z</time>
      </trkpt>
      <trkpt lat="45.93302" lon="4.67561">
        <ele>292.379211</ele>
        <time>2016-09-11T06:26:12Z</time>
      </trkpt>
      <trkpt lat="45.93296" lon="4.67556">
        <ele>292.707275</ele>
        <time>2016-09-11T06:26:14Z</time>
      </trkpt>
      <trkpt lat="45.93288" lon="4.67553">
        <ele>292.54541</ele>
        <time>2016-09-11T06:26:16Z</time>
      </trkpt>
      <trkpt lat="45.93281" lon="4.67548">
        <ele>292.945923</ele>
        <time>2016-09-11T06:26:18Z</time>
      </trkpt>
      <trkpt lat="45.93273" lon="4.67543">
        <ele>292.850037</ele>
        <time>2016-09-11T06:26:20Z</time>
      </trkpt>
      <trkpt lat="45.93266" lon="4.67539">
        <ele>293.048126</ele>
        <time>2016-09-11T06:26:22Z</time>
      </trkpt>
      <trkpt lat="45.93259" lon="4.67534">
        <ele>293.040222</ele>
        <time>2016-09-11T06:26:24Z</time>
      </trkpt>
      <trkpt lat="45.93253" lon="4.67529">
        <ele>293.031738</ele>
        <time>2016-09-11T06:26:26Z</time>
      </trkpt>
      <trkpt lat="45.93247" lon="4.67526">
        <ele>292.79953</ele>
        <time>2016-09-11T06:26:28Z</time>
      </trkpt>
      <trkpt lat="45.93238" lon="4.67523">
        <ele>293.04657</ele>
        <time>2016-09-11T06:26:30Z</time>
      </trkpt>
      <trkpt lat="45.93229" lon="4.6752">
        <ele>293.195679</ele>
        <time>2016-09-11T06:26:32Z</time>
      </trkpt>
      <trkpt lat="45.93221" lon="4.67517">
        <ele>293.257446</ele>
        <time>2016-09-11T06:26:34Z</time>
      </trkpt>
      <trkpt lat="45.93212" lon="4.67515">
        <ele>293.302185</ele>
        <time>2016-09-11T06:26:36Z</time>
      </trkpt>
      <trkpt lat="45.93203" lon="4.67513">
        <ele>293.327728</ele>
        <time>2016-09-11T06:26:38Z</time>
      </trkpt>
      <trkpt lat="45.93195" lon="4.6751">
        <ele>293.323456</ele>
        <time>2016-09-11T06:26:40Z</time>
      </trkpt>
      <trkpt lat="45.93186" lon="4.67507">
        <ele>293.387421</ele>
        <time>2016-09-11T06:26:42Z</time>
      </trkpt>
      <trkpt lat="45.93179" lon="4.67504">
        <ele>293.174255</ele>
        <time>2016-09-11T06:26:44Z</time>
      </trkpt>
      <trkpt lat="45.93171" lon="4.67504">
        <ele>293.129517</ele>
        <time>2016-09-11T06:26:46Z</time>
      </trkpt>
      <trkpt lat="45.93163" lon="4.67502">
        <ele>293.240387</ele>
        <time>2016-09-11T06:26:48Z</time>
      </trkpt>
      <trkpt lat="45.93158" lon="4.67501">
        <ele>293.355438</ele>
        <time>2016-09-11T06:26:50Z</time>
      </trkpt>
      <trkpt lat="45.93156" lon="4.67496">
        <ele>293.395447</ele>
        <time>2016-09-11T06:26:52Z</time>
      </trkpt>
      <trkpt lat="45.93158" lon="4.67492">
        <ele>293.523834</ele>
        <time>2016-09-11T06:26:54Z</time>
      </trkpt>
      <trkpt lat="45.9316" lon="4.6749">
        <ele>293.596161</ele>
        <time>2016-09-11T06:26:56Z</time>
      </trkpt>
      <trkpt lat="45.93163" lon="4.67488">
        <ele>293.866669</ele>
        <time>2016-09-11T06:26:58Z</time>
      </trkpt>
      <trkpt lat="45.93166" lon="4.67484">
        <ele>293.866913</ele>
        <time>2016-09-11T06:27:00Z</time>
      </trkpt>
      <trkpt lat="45.93169" lon="4.6748">
        <ele>294.141205</ele>
        <time>2016-09-11T06:27:02Z</time>
      </trkpt>
      <trkpt lat="45.93172" lon="4.67476">
        <ele>294.381348</ele>
        <time>2016-09-11T06:27:04Z</time>
      </trkpt>
      <trkpt lat="45.93174" lon="4.67471">
        <ele>294.813782</ele>
        <time>2016-09-11T06:27:06Z</time>
      </trkpt>
      <trkpt lat="45.93176" lon="4.67467">
        <ele>295.210144</ele>
        <time>2016-09-11T06:27:08Z</time>
      </trkpt>
      <trkpt lat="45.93179" lon="4.67463">
        <ele>295.561707</ele>
        <time>2016-09-11T06:27:10Z</time>
      </trkpt>
      <trkpt lat="45.93182" lon="4.67459">
        <ele>296.102966</ele>
        <time>2016-09-11T06:27:12Z</time>
      </trkpt>
      <trkpt lat="45.93184" lon="4.67454">
        <ele>296.275604</ele>
        <time>2016-09-11T06:27:14Z</time>
      </trkpt>
      <trkpt lat="45.93187" lon="4.6745">
        <ele>296.623444</ele>
        <time>2016-09-11T06:27:16Z</time>
      </trkpt>
      <trkpt lat="45.93189" lon="4.67445">
        <ele>297.026184</ele>
        <time>2016-09-11T06:27:18Z</time>
      </trkpt>
      <trkpt lat="45.93192" lon="4.67439">
        <ele>297.467255</ele>
        <time>2016-09-11T06:27:20Z</time>
      </trkpt>
      <trkpt lat="45.93194" lon="4.67435">
        <ele>297.884705</ele>
        <time>2016-09-11T06:27:22Z</time>
      </trkpt>
      <trkpt lat="45.93197" lon="4.6743">
        <ele>298.238464</ele>
        <time>2016-09-11T06:27:24Z</time>
      </trkpt>
      <trkpt lat="45.93199" lon="4.67425">
        <ele>298.653595</ele>
        <time>2016-09-11T06:27:26Z</time>
      </trkpt>
      <trkpt lat="45.93202" lon="4.6742">
        <ele>298.877716</ele>
        <time>2016-09-11T06:27:28Z</time>
      </trkpt>
      <trkpt lat="45.93205" lon="4.67415">
        <ele>299.438263</ele>
        <time>2016-09-11T06:27:30Z</time>
      </trkpt>
      <trkpt lat="45.93207" lon="4.67411">
        <ele>299.883759</ele>
        <time>2016-09-11T06:27:32Z</time>
      </trkpt>
      <trkpt lat="45.9321" lon="4.67406">
        <ele>300.32019</ele>
        <time>2016-09-11T06:27:34Z</time>
      </trkpt>
      <trkpt lat="45.93213" lon="4.67401">
        <ele>300.850952</ele>
        <time>2016-09-11T06:27:36Z</time>
      </trkpt>
      <trkpt lat="45.93216" lon="4.67396">
        <ele>301.038544</ele>
        <time>2016-09-11T06:27:38Z</time>
      </trkpt>
      <trkpt lat="45.9322" lon="4.67391">
        <ele>301.637726</ele>
        <time>2016-09-11T06:27:40Z</time>
      </trkpt>
      <trkpt lat="45.93223" lon="4.67386">
        <ele>302.144897</ele>
        <time>2016-09-11T06:27:42Z</time>
      </trkpt>
      <trkpt lat="45.93226" lon="4.67382">
        <ele>302.680481</ele>
        <time>2016-09-11T06:27:44Z</time>
      </trkpt>
      <trkpt lat="45.9323" lon="4.67378">
        <ele>303.119446</ele>
        <time>2016-09-11T06:27:46Z</time>
      </trkpt>
      <trkpt lat="45.93233" lon="4.67373">
        <ele>303.646118</ele>
        <time>2016-09-11T06:27:48Z</time>
      </trkpt>
      <trkpt lat="45.93236" lon="4.67367">
        <ele>304.02356</ele>
        <time>2016-09-11T06:27:50Z</time>
      </trkpt>
      <trkpt lat="45.93239" lon="4.67362">
        <ele>304.554138</ele>
        <time>2016-09-11T06:27:52Z</time>
      </trkpt>
      <trkpt lat="45.93242" lon="4.67357">
        <ele>304.878387</ele>
        <time>2016-09-11T06:27:54Z</time>
      </trkpt>
      <trkpt lat="45.93245" lon="4.67352">
        <ele>305.362061</ele>
        <time>2016-09-11T06:27:56Z</time>
      </trkpt>
      <trkpt lat="45.93247" lon="4.67347">
        <ele>305.801392</ele>
        <time>2016-09-11T06:27:58Z</time>
      </trkpt>
      <trkpt lat="45.93248" lon="4.67342">
        <ele>306.379395</ele>
        <time>2016-09-11T06:28:00Z</time>
      </trkpt>
      <trkpt lat="45.9325" lon="4.67336">
        <ele>306.814667</ele>
        <time>2016-09-11T06:28:02Z</time>
      </trkpt>
      <trkpt lat="45.93251" lon="4.67331">
        <ele>307.027985</ele>
        <time>2016-09-11T06:28:04Z</time>
      </trkpt>
      <trkpt lat="45.93252" lon="4.67325">
        <ele>307.5625</ele>
        <time>2016-09-11T06:28:06Z</time>
      </trkpt>
      <trkpt lat="45.93253" lon="4.6732">
        <ele>308.097015</ele>
        <time>2016-09-11T06:28:08Z</time>
      </trkpt>
      <trkpt lat="45.93253" lon="4.67314">
        <ele>308.553101</ele>
        <time>2016-09-11T06:28:10Z</time>
      </trkpt>
      <trkpt lat="45.93254" lon="4.67308">
        <ele>309.009674</ele>
        <time>2016-09-11T06:28:12Z</time>
      </trkpt>
      <trkpt lat="45.93255" lon="4.67302">
        <ele>309.375122</ele>
        <time>2016-09-11T06:28:14Z</time>
      </trkpt>
      <trkpt lat="45.93255" lon="4.67296">
        <ele>309.814697</ele>
        <time>2016-09-11T06:28:16Z</time>
      </trkpt>
      <trkpt lat="45.93255" lon="4.6729">
        <ele>310.230774</ele>
        <time>2016-09-11T06:28:18Z</time>
      </trkpt>
      <trkpt lat="45.93255" lon="4.67285">
        <ele>310.840881</ele>
        <time>2016-09-11T06:28:20Z</time>
      </trkpt>
      <trkpt lat="45.93255" lon="4.67279">
        <ele>311.152405</ele>
        <time>2016-09-11T06:28:22Z</time>
      </trkpt>
      <trkpt lat="45.93256" lon="4.67273">
        <ele>311.542938</ele>
        <time>2016-09-11T06:28:24Z</time>
      </trkpt>
      <trkpt lat="45.93256" lon="4.67268">
        <ele>312.006042</ele>
        <time>2016-09-11T06:28:26Z</time>
      </trkpt>
      <trkpt lat="45.93256" lon="4.67262">
        <ele>312.229218</ele>
        <time>2016-09-11T06:28:28Z</time>
      </trkpt>
      <trkpt lat="45.93258" lon="4.67256">
        <ele>312.698761</ele>
        <time>2016-09-11T06:28:30Z</time>
      </trkpt>
      <trkpt lat="45.93259" lon="4.67251">
        <ele>313.127747</ele>
        <time>2016-09-11T06:28:32Z</time>
      </trkpt>
      <trkpt lat="45.93261" lon="4.67245">
        <ele>313.47821</ele>
        <time>2016-09-11T06:28:34Z</time>
      </trkpt>
      <trkpt lat="45.93262" lon="4.67239">
        <ele>313.945587</ele>
        <time>2016-09-11T06:28:36Z</time>
      </trkpt>
      <trkpt lat="45.93263" lon="4.67233">
        <ele>314.261505</ele>
        <time>2016-09-11T06:28:38Z</time>
      </trkpt>
      <trkpt lat="45.93264" lon="4.67226">
        <ele>314.647888</ele>
        <time>2016-09-11T06:28:40Z</time>
      </trkpt>
      <trkpt lat="45.93265" lon="4.6722">
        <ele>315.083405</ele>
        <time>2016-09-11T06:28:42Z</time>
      </trkpt>
      <trkpt lat="45.93266" lon="4.67214">
        <ele>315.580811</ele>
        <time>2016-09-11T06:28:44Z</time>
      </trkpt>
      <trkpt lat="45.93267" lon="4.67207">
        <ele>316.015076</ele>
        <time>2016-09-11T06:28:46Z</time>
      </trkpt>
      <trkpt lat="45.93268" lon="4.67201">
        <ele>316.398621</ele>
        <time>2016-09-11T06:28:48Z</time>
      </trkpt>
      <trkpt lat="45.93269" lon="4.67195">
        <ele>316.819214</ele>
        <time>2016-09-11T06:28:50Z</time>
      </trkpt>
      <trkpt lat="45.93271" lon="4.67188">
        <ele>317.147888</ele>
        <time>2016-09-11T06:28:52Z</time>
      </trkpt>
      <trkpt lat="45.93272" lon="4.67182">
        <ele>317.591248</ele>
        <time>2016-09-11T06:28:54Z</time>
      </trkpt>
      <trkpt lat="45.93273" lon="4.67175">
        <ele>317.690857</ele>
        <time>2016-09-11T06:28:56Z</time>
      </trkpt>
      <trkpt lat="45.93275" lon="4.67168">
        <ele>317.882996</ele>
        <time>2016-09-11T06:28:58Z</time>
      </trkpt>
      <trkpt lat="45.93276" lon="4.67161">
        <ele>318.139465</ele>
        <time>2016-09-11T06:29:00Z</time>
      </trkpt>
      <trkpt lat="45.93278" lon="4.67155">
        <ele>318.483307</ele>
        <time>2016-09-11T06:29:02Z</time>
      </trkpt>
      <trkpt lat="45.9328" lon="4.67149">
        <ele>318.991608</ele>
        <time>2016-09-11T06:29:04Z</time>
      </trkpt>
      <trkpt lat="45.93283" lon="4.67142">
        <ele>319.269196</ele>
        <time>2016-09-11T06:29:06Z</time>
      </trkpt>
      <trkpt lat="45.93285" lon="4.67135">
        <ele>319.625916</ele>
        <time>2016-09-11T06:29:08Z</time>
      </trkpt>
      <trkpt lat="45.93289" lon="4.67128">
        <ele>319.895721</ele>
        <time>2016-09-11T06:29:10Z</time>
      </trkpt>
      <trkpt lat="45.93292" lon="4.67121">
        <ele>320.105774</ele>
        <time>2016-09-11T06:29:12Z</time>
      </trkpt>
      <trkpt lat="45.93296" lon="4.67115">
        <ele>320.449646</ele>
        <time>2016-09-11T06:29:14Z</time>
      </trkpt>
      <trkpt lat="45.933" lon="4.67108">
        <ele>320.539337</ele>
        <time>2016-09-11T06:29:16Z</time>
      </trkpt>
      <trkpt lat="45.93305" lon="4.67101">
        <ele>320.663177</ele>
        <time>2016-09-11T06:29:18Z</time>
      </trkpt>
      <trkpt lat="45.93309" lon="4.67093">
        <ele>321.173615</ele>
        <time>2016-09-11T06:29:20Z</time>
      </trkpt>
      <trkpt lat="45.93313" lon="4.67086">
        <ele>321.17572</ele>
        <time>2016-09-11T06:29:22Z</time>
      </trkpt>
      <trkpt lat="45.93316" lon="4.67079">
        <ele>321.197083</ele>
        <time>2016-09-11T06:29:24Z</time>
      </trkpt>
      <trkpt lat="45.93319" lon="4.67071">
        <ele>321.307983</ele>
        <time>2016-09-11T06:29:26Z</time>
      </trkpt>
      <trkpt lat="45.93321" lon="4.67062">
        <ele>321.614349</ele>
        <time>2016-09-11T06:29:28Z</time>
      </trkpt>
      <trkpt lat="45.93322" lon="4.67054">
        <ele>321.39447</ele>
        <time>2016-09-11T06:29:30Z</time>
      </trkpt>
      <trkpt lat="45.93323" lon="4.67046">
        <ele>321.591003</ele>
        <time>2016-09-11T06:29:32Z</time>
      </trkpt>
      <trkpt lat="45.93325" lon="4.67037">
        <ele>321.638123</ele>
        <time>2016-09-11T06:29:34Z</time>
      </trkpt>
      <trkpt lat="45.93325" lon="4.67028">
        <ele>321.840332</ele>
        <time>2016-09-11T06:29:36Z</time>
      </trkpt>
      <trkpt lat="45.93327" lon="4.67018">
        <ele>322.038757</ele>
        <time>2016-09-11T06:29:38Z</time>
      </trkpt>
      <trkpt lat="45.93328" lon="4.67008">
        <ele>322.433899</ele>
        <time>2016-09-11T06:29:40Z</time>
      </trkpt>
      <trkpt lat="45.9333" lon="4.66998">
        <ele>322.36322</ele>
        <time>2016-09-11T06:29:42Z</time>
      </trkpt>
      <trkpt lat="45.9333" lon="4.66987">
        <ele>322.553406</ele>
        <time>2016-09-11T06:29:44Z</time>
      </trkpt>
      <trkpt lat="45.93331" lon="4.66977">
        <ele>322.541565</ele>
        <time>2016-09-11T06:29:46Z</time>
      </trkpt>
      <trkpt lat="45.93332" lon="4.66967">
        <ele>322.723145</ele>
        <time>2016-09-11T06:29:48Z</time>
      </trkpt>
      <trkpt lat="45.93333" lon="4.66956">
        <ele>322.857788</ele>
        <time>2016-09-11T06:29:50Z</time>
      </trkpt>
      <trkpt lat="45.93334" lon="4.66947">
        <ele>323.074738</ele>
        <time>2016-09-11T06:29:52Z</time>
      </trkpt>
      <trkpt lat="45.93335" lon="4.66937">
        <ele>323.344666</ele>
        <time>2016-09-11T06:29:54Z</time>
      </trkpt>
      <trkpt lat="45.93337" lon="4.66927">
        <ele>323.48999</ele>
        <time>2016-09-11T06:29:56Z</time>
      </trkpt>
      <trkpt lat="45.93337" lon="4.66917">
        <ele>323.780487</ele>
        <time>2016-09-11T06:29:58Z</time>
      </trkpt>
      <trkpt lat="45.93338" lon="4.66908">
        <ele>324.293396</ele>
        <time>2016-09-11T06:30:00Z</time>
      </trkpt>
      <trkpt lat="45.9334" lon="4.66899">
        <ele>324.61615</ele>
        <time>2016-09-11T06:30:02Z</time>
      </trkpt>
      <trkpt lat="45.93341" lon="4.66891">
        <ele>324.874664</ele>
        <time>2016-09-11T06:30:04Z</time>
      </trkpt>
      <trkpt lat="45.93343" lon="4.66883">
        <ele>325.199402</ele>
        <time>2016-09-11T06:30:06Z</time>
      </trkpt>
      <trkpt lat="45.93345" lon="4.66875">
        <ele>325.349182</ele>
        <time>2016-09-11T06:30:08Z</time>
      </trkpt>
      <trkpt lat="45.93345" lon="4.66868">
        <ele>325.361755</ele>
        <time>2016-09-11T06:30:10Z</time>
      </trkpt>
      <trkpt lat="45.93345" lon="4.66861">
        <ele>325.793121</ele>
        <time>2016-09-11T06:30:12Z</time>
      </trkpt>
      <trkpt lat="45.93345" lon="4.66852">
        <ele>326.152191</ele>
        <time>2016-09-11T06:30:14Z</time>
      </trkpt>
      <trkpt lat="45.93346" lon="4.66844">
        <ele>326.42569</ele>
        <time>2016-09-11T06:30:16Z</time>
      </trkpt>
      <trkpt lat="45.93348" lon="4.66835">
        <ele>326.448517</ele>
        <time>2016-09-11T06:30:18Z</time>
      </trkpt>
      <trkpt lat="45.93348" lon="4.66827">
        <ele>326.6745</ele>
        <time>2016-09-11T06:30:20Z</time>
      </trkpt>
      <trkpt lat="45.9335" lon="4.66819">
        <ele>326.84549</ele>
        <time>2016-09-11T06:30:22Z</time>
      </trkpt>
      <trkpt lat="45.93351" lon="4.66811">
        <ele>327.143585</ele>
        <time>2016-09-11T06:30:24Z</time>
      </trkpt>
      <trkpt lat="45.93353" lon="4.66802">
        <ele>326.91922</ele>
        <time>2016-09-11T06:30:26Z</time>
      </trkpt>
      <trkpt lat="45.93356" lon="4.66794">
        <ele>327.022919</ele>
        <time>2016-09-11T06:30:28Z</time>
      </trkpt>
      <trkpt lat="45.93359" lon="4.66784">
        <ele>326.890442</ele>
        <time>2016-09-11T06:30:30Z</time>
      </trkpt>
      <trkpt lat="45.93363" lon="4.66773">
        <ele>326.881165</ele>
        <time>2016-09-11T06:30:32Z</time>
      </trkpt>
      <trkpt lat="45.93367" lon="4.66763">
        <ele>326.85553</ele>
        <time>2016-09-11T06:30:34Z</time>
      </trkpt>
      <trkpt lat="45.93371" lon="4.66753">
        <ele>326.700256</ele>
        <time>2016-09-11T06:30:36Z</time>
      </trkpt>
      <trkpt lat="45.93377" lon="4.66743">
        <ele>326.670319</ele>
        <time>2016-09-11T06:30:38Z</time>
      </trkpt>
      <trkpt lat="45.93383" lon="4.66732">
        <ele>326.215393</ele>
        <time>2016-09-11T06:30:40Z</time>
      </trkpt>
      <trkpt lat="45.9339" lon="4.6672">
        <ele>325.911438</ele>
        <time>2016-09-11T06:30:42Z</time>
      </trkpt>
      <trkpt lat="45.93394" lon="4.66704">
        <ele>325.588684</ele>
        <time>2016-09-11T06:30:44Z</time>
      </trkpt>
      <trkpt lat="45.93398" lon="4.66688">
        <ele>325.49469</ele>
        <time>2016-09-11T06:30:46Z</time>
      </trkpt>
      <trkpt lat="45.93402" lon="4.66673">
        <ele>325.212708</ele>
        <time>2016-09-11T06:30:48Z</time>
      </trkpt>
      <trkpt lat="45.93407" lon="4.66659">
        <ele>324.464508</ele>
        <time>2016-09-11T06:30:50Z</time>
      </trkpt>
      <trkpt lat="45.93412" lon="4.66644">
        <ele>324.428253</ele>
        <time>2016-09-11T06:30:52Z</time>
      </trkpt>
      <trkpt lat="45.9342" lon="4.6663">
        <ele>324.082428</ele>
        <time>2016-09-11T06:30:54Z</time>
      </trkpt>
      <trkpt lat="45.93427" lon="4.66613">
        <ele>323.403137</ele>
        <time>2016-09-11T06:30:56Z</time>
      </trkpt>
      <trkpt lat="45.93434" lon="4.66593">
        <ele>323.415955</ele>
        <time>2016-09-11T06:30:58Z</time>
      </trkpt>
      <trkpt lat="45.93441" lon="4.66574">
        <ele>322.766754</ele>
        <time>2016-09-11T06:31:00Z</time>
      </trkpt>
      <trkpt lat="45.93449" lon="4.66555">
        <ele>322.107483</ele>
        <time>2016-09-11T06:31:02Z</time>
      </trkpt>
      <trkpt lat="45.93455" lon="4.66536">
        <ele>321.806458</ele>
        <time>2016-09-11T06:31:04Z</time>
      </trkpt>
      <trkpt lat="45.93458" lon="4.66516">
        <ele>321.066284</ele>
        <time>2016-09-11T06:31:06Z</time>
      </trkpt>
      <trkpt lat="45.93461" lon="4.66496">
        <ele>320.641296</ele>
        <time>2016-09-11T06:31:08Z</time>
      </trkpt>
      <trkpt lat="45.93466" lon="4.66477">
        <ele>320.389374</ele>
        <time>2016-09-11T06:31:10Z</time>
      </trkpt>
      <trkpt lat="45.93474" lon="4.66459">
        <ele>319.799927</ele>
        <time>2016-09-11T06:31:12Z</time>
      </trkpt>
      <trkpt lat="45.93482" lon="4.66442">
        <ele>319.268188</ele>
        <time>2016-09-11T06:31:14Z</time>
      </trkpt>
      <trkpt lat="45.93491" lon="4.66424">
        <ele>318.939301</ele>
        <time>2016-09-11T06:31:16Z</time>
      </trkpt>
      <trkpt lat="45.935" lon="4.66409">
        <ele>318.623718</ele>
        <time>2016-09-11T06:31:18Z</time>
      </trkpt>
      <trkpt lat="45.9351" lon="4.66393">
        <ele>317.953186</ele>
        <time>2016-09-11T06:31:20Z</time>
      </trkpt>
      <trkpt lat="45.93522" lon="4.6638">
        <ele>318.088654</ele>
        <time>2016-09-11T06:31:22Z</time>
      </trkpt>
      <trkpt lat="45.93535" lon="4.66368">
        <ele>317.826416</ele>
        <time>2016-09-11T06:31:24Z</time>
      </trkpt>
      <trkpt lat="45.93547" lon="4.66357">
        <ele>317.175079</ele>
        <time>2016-09-11T06:31:26Z</time>
      </trkpt>
      <trkpt lat="45.93559" lon="4.66345">
        <ele>316.611359</ele>
        <time>2016-09-11T06:31:28Z</time>
      </trkpt>
      <trkpt lat="45.9357" lon="4.66333">
        <ele>316.266327</ele>
        <time>2016-09-11T06:31:30Z</time>
      </trkpt>
      <trkpt lat="45.93582" lon="4.66325">
        <ele>316.396515</ele>
        <time>2016-09-11T06:31:32Z</time>
      </trkpt>
      <trkpt lat="45.93595" lon="4.66321">
        <ele>315.508362</ele>
        <time>2016-09-11T06:31:34Z</time>
      </trkpt>
      <trkpt lat="45.93608" lon="4.66325">
        <ele>315.324768</ele>
        <time>2016-09-11T06:31:36Z</time>
      </trkpt>
      <trkpt lat="45.93621" lon="4.66327">
        <ele>315.029938</ele>
        <time>2016-09-11T06:31:38Z</time>
      </trkpt>
      <trkpt lat="45.93633" lon="4.66324">
        <ele>314.445862</ele>
        <time>2016-09-11T06:31:40Z</time>
      </trkpt>
      <trkpt lat="45.93646" lon="4.66317">
        <ele>314.296448</ele>
        <time>2016-09-11T06:31:42Z</time>
      </trkpt>
      <trkpt lat="45.9366" lon="4.66308">
        <ele>314.130493</ele>
        <time>2016-09-11T06:31:44Z</time>
      </trkpt>
      <trkpt lat="45.93673" lon="4.66295">
        <ele>313.430084</ele>
        <time>2016-09-11T06:31:46Z</time>
      </trkpt>
      <trkpt lat="45.93684" lon="4.6628">
        <ele>313.591888</ele>
        <time>2016-09-11T06:31:48Z</time>
      </trkpt>
      <trkpt lat="45.93693" lon="4.66264">
        <ele>313.60849</ele>
        <time>2016-09-11T06:31:50Z</time>
      </trkpt>
      <trkpt lat="45.93702" lon="4.66248">
        <ele>312.897522</ele>
        <time>2016-09-11T06:31:52Z</time>
      </trkpt>
      <trkpt lat="45.9371" lon="4.6624">
        <ele>312.462311</ele>
        <time>2016-09-11T06:31:54Z</time>
      </trkpt>
      <trkpt lat="45.9372" lon="4.66237">
        <ele>312.658691</ele>
        <time>2016-09-11T06:31:56Z</time>
      </trkpt>
      <trkpt lat="45.93731" lon="4.66237">
        <ele>312.299561</ele>
        <time>2016-09-11T06:31:58Z</time>
      </trkpt>
      <trkpt lat="45.93742" lon="4.66238">
        <ele>311.680786</ele>
        <time>2016-09-11T06:32:00Z</time>
      </trkpt>
      <trkpt lat="45.93754" lon="4.66236">
        <ele>311.315857</ele>
        <time>2016-09-11T06:32:02Z</time>
      </trkpt>
      <trkpt lat="45.93765" lon="4.66237">
        <ele>310.732208</ele>
        <time>2016-09-11T06:32:04Z</time>
      </trkpt>
      <trkpt lat="45.93779" lon="4.66236">
        <ele>310.530243</ele>
        <time>2016-09-11T06:32:06Z</time>
      </trkpt>
      <trkpt lat="45.93792" lon="4.66232">
        <ele>310.387268</ele>
        <time>2016-09-11T06:32:08Z</time>
      </trkpt>
      <trkpt lat="45.93806" lon="4.66229">
        <ele>310.033142</ele>
        <time>2016-09-11T06:32:10Z</time>
      </trkpt>
      <trkpt lat="45.9382" lon="4.66226">
        <ele>309.884857</ele>
        <time>2016-09-11T06:32:12Z</time>
      </trkpt>
      <trkpt lat="45.93834" lon="4.66222">
        <ele>309.259735</ele>
        <time>2016-09-11T06:32:14Z</time>
      </trkpt>
      <trkpt lat="45.93849" lon="4.6622">
        <ele>309.285461</ele>
        <time>2016-09-11T06:32:16Z</time>
      </trkpt>
      <trkpt lat="45.93864" lon="4.66224">
        <ele>308.602905</ele>
        <time>2016-09-11T06:32:18Z</time>
      </trkpt>
      <trkpt lat="45.93877" lon="4.66223">
        <ele>308.072937</ele>
        <time>2016-09-11T06:32:20Z</time>
      </trkpt>
      <trkpt lat="45.93891" lon="4.66219">
        <ele>307.670135</ele>
        <time>2016-09-11T06:32:22Z</time>
      </trkpt>
      <trkpt lat="45.93904" lon="4.66217">
        <ele>307.834229</ele>
        <time>2016-09-11T06:32:24Z</time>
      </trkpt>
      <trkpt lat="45.93918" lon="4.66217">
        <ele>307.281952</ele>
        <time>2016-09-11T06:32:26Z</time>
      </trkpt>
      <trkpt lat="45.93932" lon="4.66219">
        <ele>306.742584</ele>
        <time>2016-09-11T06:32:28Z</time>
      </trkpt>
      <trkpt lat="45.93948" lon="4.6622">
        <ele>305.807434</ele>
        <time>2016-09-11T06:32:30Z</time>
      </trkpt>
      <trkpt lat="45.93961" lon="4.66217">
        <ele>305.884308</ele>
        <time>2016-09-11T06:32:32Z</time>
      </trkpt>
      <trkpt lat="45.93974" lon="4.66216">
        <ele>305.458618</ele>
        <time>2016-09-11T06:32:34Z</time>
      </trkpt>
      <trkpt lat="45.93989" lon="4.66215">
        <ele>304.874695</ele>
        <time>2016-09-11T06:32:36Z</time>
      </trkpt>
      <trkpt lat="45.94003" lon="4.66216">
        <ele>304.198914</ele>
        <time>2016-09-11T06:32:38Z</time>
      </trkpt>
      <trkpt lat="45.94016" lon="4.66212">
        <ele>303.146149</ele>
        <time>2016-09-11T06:32:40Z</time>
      </trkpt>
      <trkpt lat="45.94029" lon="4.66209">
        <ele>302.709167</ele>
        <time>2016-09-11T06:32:42Z</time>
      </trkpt>
      <trkpt lat="45.94043" lon="4.66209">
        <ele>302.020569</ele>
        <time>2016-09-11T06:32:44Z</time>
      </trkpt>
      <trkpt lat="45.94057" lon="4.66209">
        <ele>301.127502</ele>
        <time>2016-09-11T06:32:46Z</time>
      </trkpt>
      <trkpt lat="45.94069" lon="4.66207">
        <ele>300.250671</ele>
        <time>2016-09-11T06:32:48Z</time>
      </trkpt>
      <trkpt lat="45.94082" lon="4.66203">
        <ele>299.75824</ele>
        <time>2016-09-11T06:32:50Z</time>
      </trkpt>
      <trkpt lat="45.94093" lon="4.66198">
        <ele>298.74527</ele>
        <time>2016-09-11T06:32:52Z</time>
      </trkpt>
      <trkpt lat="45.94104" lon="4.66193">
        <ele>297.615784</ele>
        <time>2016-09-11T06:32:54Z</time>
      </trkpt>
      <trkpt lat="45.94116" lon="4.66189">
        <ele>296.570618</ele>
        <time>2016-09-11T06:32:56Z</time>
      </trkpt>
      <trkpt lat="45.94128" lon="4.66189">
        <ele>296.221252</ele>
        <time>2016-09-11T06:32:58Z</time>
      </trkpt>
      <trkpt lat="45.9414" lon="4.66193">
        <ele>295.590759</ele>
        <time>2016-09-11T06:33:00Z</time>
      </trkpt>
      <trkpt lat="45.94151" lon="4.66194">
        <ele>294.862244</ele>
        <time>2016-09-11T06:33:02Z</time>
      </trkpt>
      <trkpt lat="45.94162" lon="4.66191">
        <ele>294.206726</ele>
        <time>2016-09-11T06:33:04Z</time>
      </trkpt>
      <trkpt lat="45.9417" lon="4.66186">
        <ele>292.690979</ele>
        <time>2016-09-11T06:33:06Z</time>
      </trkpt>
      <trkpt lat="45.9418" lon="4.6618">
        <ele>291.539459</ele>
        <time>2016-09-11T06:33:08Z</time>
      </trkpt>
      <trkpt lat="45.94191" lon="4.66175">
        <ele>291.41452</ele>
        <time>2016-09-11T06:33:10Z</time>
      </trkpt>
      <trkpt lat="45.94206" lon="4.66172">
        <ele>290.878235</ele>
        <time>2016-09-11T06:33:12Z</time>
      </trkpt>
      <trkpt lat="45.94219" lon="4.66176">
        <ele>289.490051</ele>
        <time>2016-09-11T06:33:14Z</time>
      </trkpt>
      <trkpt lat="45.9423" lon="4.66179">
        <ele>289.277252</ele>
        <time>2016-09-11T06:33:16Z</time>
      </trkpt>
      <trkpt lat="45.94239" lon="4.6618">
        <ele>288.241943</ele>
        <time>2016-09-11T06:33:18Z</time>
      </trkpt>
      <trkpt lat="45.94249" lon="4.66179">
        <ele>287.502014</ele>
        <time>2016-09-11T06:33:20Z</time>
      </trkpt>
      <trkpt lat="45.94259" lon="4.66178">
        <ele>286.89743</ele>
        <time>2016-09-11T06:33:22Z</time>
      </trkpt>
      <trkpt lat="45.9427" lon="4.66178">
        <ele>285.878052</ele>
        <time>2016-09-11T06:33:24Z</time>
      </trkpt>
      <trkpt lat="45.94279" lon="4.66175">
        <ele>285.522583</ele>
        <time>2016-09-11T06:33:26Z</time>
      </trkpt>
      <trkpt lat="45.94288" lon="4.66172">
        <ele>285.026062</ele>
        <time>2016-09-11T06:33:28Z</time>
      </trkpt>
      <trkpt lat="45.943" lon="4.66167">
        <ele>284.253448</ele>
        <time>2016-09-11T06:33:30Z</time>
      </trkpt>
      <trkpt lat="45.94312" lon="4.66163">
        <ele>282.88269</ele>
        <time>2016-09-11T06:33:32Z</time>
      </trkpt>
      <trkpt lat="45.94324" lon="4.66159">
        <ele>281.964691</ele>
        <time>2016-09-11T06:33:34Z</time>
      </trkpt>
      <trkpt lat="45.94339" lon="4.66163">
        <ele>281.237305</ele>
        <time>2016-09-11T06:33:36Z</time>
      </trkpt>
      <trkpt lat="45.94355" lon="4.66173">
        <ele>280.034424</ele>
        <time>2016-09-11T06:33:38Z</time>
      </trkpt>
      <trkpt lat="45.9437" lon="4.66184">
        <ele>279.634308</ele>
        <time>2016-09-11T06:33:40Z</time>
      </trkpt>
      <trkpt lat="45.94386" lon="4.66191">
        <ele>278.828217</ele>
        <time>2016-09-11T06:33:42Z</time>
      </trkpt>
      <trkpt lat="45.94402" lon="4.66197">
        <ele>277.969055</ele>
        <time>2016-09-11T06:33:44Z</time>
      </trkpt>
      <trkpt lat="45.94417" lon="4.66203">
        <ele>277.252258</ele>
        <time>2016-09-11T06:33:46Z</time>
      </trkpt>
      <trkpt lat="45.94432" lon="4.66211">
        <ele>277.158356</ele>
        <time>2016-09-11T06:33:48Z</time>
      </trkpt>
      <trkpt lat="45.94446" lon="4.6622">
        <ele>275.987885</ele>
        <time>2016-09-11T06:33:50Z</time>
      </trkpt>
      <trkpt lat="45.94459" lon="4.66228">
        <ele>274.497986</ele>
        <time>2016-09-11T06:33:52Z</time>
      </trkpt>
      <trkpt lat="45.94471" lon="4.66237">
        <ele>273.908783</ele>
        <time>2016-09-11T06:33:54Z</time>
      </trkpt>
      <trkpt lat="45.94482" lon="4.66245">
        <ele>273.413696</ele>
        <time>2016-09-11T06:33:56Z</time>
      </trkpt>
      <trkpt lat="45.94494" lon="4.66251">
        <ele>272.670074</ele>
        <time>2016-09-11T06:33:58Z</time>
      </trkpt>
      <trkpt lat="45.94506" lon="4.66258">
        <ele>271.957947</ele>
        <time>2016-09-11T06:34:00Z</time>
      </trkpt>
      <trkpt lat="45.94518" lon="4.66265">
        <ele>271.592957</ele>
        <time>2016-09-11T06:34:02Z</time>
      </trkpt>
      <trkpt lat="45.94531" lon="4.66271">
        <ele>270.765533</ele>
        <time>2016-09-11T06:34:04Z</time>
      </trkpt>
      <trkpt lat="45.94544" lon="4.66278">
        <ele>270.139069</ele>
        <time>2016-09-11T06:34:06Z</time>
      </trkpt>
      <trkpt lat="45.94558" lon="4.66284">
        <ele>269.31485</ele>
        <time>2016-09-11T06:34:08Z</time>
      </trkpt>
      <trkpt lat="45.94572" lon="4.66291">
        <ele>268.836487</ele>
        <time>2016-09-11T06:34:10Z</time>
      </trkpt>
      <trkpt lat="45.94585" lon="4.66302">
        <ele>268.568726</ele>
        <time>2016-09-11T06:34:12Z</time>
      </trkpt>
      <trkpt lat="45.94598" lon="4.6631">
        <ele>268.028381</ele>
        <time>2016-09-11T06:34:14Z</time>
      </trkpt>
      <trkpt lat="45.94612" lon="4.66317">
        <ele>267.4823</ele>
        <time>2016-09-11T06:34:16Z</time>
      </trkpt>
      <trkpt lat="45.94626" lon="4.66323">
        <ele>267.569397</ele>
        <time>2016-09-11T06:34:18Z</time>
      </trkpt>
      <trkpt lat="45.94641" lon="4.66326">
        <ele>267.580017</ele>
        <time>2016-09-11T06:34:20Z</time>
      </trkpt>
      <trkpt lat="45.94656" lon="4.66328">
        <ele>267.114624</ele>
        <time>2016-09-11T06:34:22Z</time>
      </trkpt>
      <trkpt lat="45.94672" lon="4.6633">
        <ele>266.477448</ele>
        <time>2016-09-11T06:34:24Z</time>
      </trkpt>
      <trkpt lat="45.94687" lon="4.66334">
        <ele>265.989929</ele>
        <time>2016-09-11T06:34:26Z</time>
      </trkpt>
      <trkpt lat="45.94701" lon="4.66337">
        <ele>265.590515</ele>
        <time>2016-09-11T06:34:28Z</time>
      </trkpt>
      <trkpt lat="45.94716" lon="4.66339">
        <ele>265.263184</ele>
        <time>2016-09-11T06:34:30Z</time>
      </trkpt>
      <trkpt lat="45.94731" lon="4.66339">
        <ele>265.163269</ele>
        <time>2016-09-11T06:34:32Z</time>
      </trkpt>
      <trkpt lat="45.94746" lon="4.6634">
        <ele>265.200989</ele>
        <time>2016-09-11T06:34:34Z</time>
      </trkpt>
      <trkpt lat="45.94762" lon="4.66341">
        <ele>264.628418</ele>
        <time>2016-09-11T06:34:36Z</time>
      </trkpt>
      <trkpt lat="45.94778" lon="4.66343">
        <ele>264.516876</ele>
        <time>2016-09-11T06:34:38Z</time>
      </trkpt>
      <trkpt lat="45.94795" lon="4.66346">
        <ele>264.116821</ele>
        <time>2016-09-11T06:34:40Z</time>
      </trkpt>
      <trkpt lat="45.94811" lon="4.66349">
        <ele>263.605072</ele>
        <time>2016-09-11T06:34:42Z</time>
      </trkpt>
      <trkpt lat="45.94823" lon="4.66351">
        <ele>262.818909</ele>
        <time>2016-09-11T06:34:44Z</time>
      </trkpt>
      <trkpt lat="45.94832" lon="4.66353">
        <ele>262.982178</ele>
        <time>2016-09-11T06:34:46Z</time>
      </trkpt>
      <trkpt lat="45.94837" lon="4.66361">
        <ele>262.476593</ele>
        <time>2016-09-11T06:34:48Z</time>
      </trkpt>
      <trkpt lat="45.94841" lon="4.6637">
        <ele>262.351257</ele>
        <time>2016-09-11T06:34:50Z</time>
      </trkpt>
      <trkpt lat="45.94847" lon="4.66381">
        <ele>261.909241</ele>
        <time>2016-09-11T06:34:52Z</time>
      </trkpt>
      <trkpt lat="45.94853" lon="4.66393">
        <ele>261.578552</ele>
        <time>2016-09-11T06:34:54Z</time>
      </trkpt>
      <trkpt lat="45.9486" lon="4.66404">
        <ele>261.485107</ele>
        <time>2016-09-11T06:34:56Z</time>
      </trkpt>
      <trkpt lat="45.94869" lon="4.66423">
        <ele>261.458344</ele>
        <time>2016-09-11T06:35:00Z</time>
      </trkpt>
      <trkpt lat="45.94872" lon="4.66432">
        <ele>261.335144</ele>
        <time>2016-09-11T06:35:02Z</time>
      </trkpt>
      <trkpt lat="45.94874" lon="4.6644">
        <ele>261.160675</ele>
        <time>2016-09-11T06:35:04Z</time>
      </trkpt>
      <trkpt lat="45.94877" lon="4.66449">
        <ele>260.929016</ele>
        <time>2016-09-11T06:35:06Z</time>
      </trkpt>
      <trkpt lat="45.94879" lon="4.66457">
        <ele>261.540436</ele>
        <time>2016-09-11T06:35:08Z</time>
      </trkpt>
      <trkpt lat="45.94881" lon="4.66466">
        <ele>261.476685</ele>
        <time>2016-09-11T06:35:10Z</time>
      </trkpt>
      <trkpt lat="45.94883" lon="4.66475">
        <ele>261.672089</ele>
        <time>2016-09-11T06:35:12Z</time>
      </trkpt>
      <trkpt lat="45.94883" lon="4.66484">
        <ele>261.570129</ele>
        <time>2016-09-11T06:35:14Z</time>
      </trkpt>
      <trkpt lat="45.94884" lon="4.66492">
        <ele>261.514832</ele>
        <time>2016-09-11T06:35:16Z</time>
      </trkpt>
      <trkpt lat="45.94885" lon="4.665">
        <ele>261.727509</ele>
        <time>2016-09-11T06:35:18Z</time>
      </trkpt>
      <trkpt lat="45.94886" lon="4.66508">
        <ele>261.947418</ele>
        <time>2016-09-11T06:35:20Z</time>
      </trkpt>
      <trkpt lat="45.94888" lon="4.66514">
        <ele>262.076965</ele>
        <time>2016-09-11T06:35:22Z</time>
      </trkpt>
      <trkpt lat="45.94893" lon="4.66515">
        <ele>262.387726</ele>
        <time>2016-09-11T06:35:24Z</time>
      </trkpt>
      <trkpt lat="45.94898" lon="4.66516">
        <ele>262.956238</ele>
        <time>2016-09-11T06:35:26Z</time>
      </trkpt>
      <trkpt lat="45.94902" lon="4.66517">
        <ele>263.35553</ele>
        <time>2016-09-11T06:35:28Z</time>
      </trkpt>
      <trkpt lat="45.94906" lon="4.66518">
        <ele>263.570007</ele>
        <time>2016-09-11T06:35:30Z</time>
      </trkpt>
      <trkpt lat="45.94911" lon="4.66519">
        <ele>264.022644</ele>
        <time>2016-09-11T06:35:32Z</time>
      </trkpt>
      <trkpt lat="45.94915" lon="4.6652">
        <ele>264.303162</ele>
        <time>2016-09-11T06:35:34Z</time>
      </trkpt>
      <trkpt lat="45.94922" lon="4.66523">
        <ele>264.671204</ele>
        <time>2016-09-11T06:35:37Z</time>
      </trkpt>
      <trkpt lat="45.94927" lon="4.66524">
        <ele>264.946655</ele>
        <time>2016-09-11T06:35:39Z</time>
      </trkpt>
      <trkpt lat="45.94934" lon="4.66526">
        <ele>265.231781</ele>
        <time>2016-09-11T06:35:41Z</time>
      </trkpt>
      <trkpt lat="45.94941" lon="4.66528">
        <ele>265.09259</ele>
        <time>2016-09-11T06:35:43Z</time>
      </trkpt>
      <trkpt lat="45.94949" lon="4.6653">
        <ele>265.10321</ele>
        <time>2016-09-11T06:35:45Z</time>
      </trkpt>
      <trkpt lat="45.94957" lon="4.66531">
        <ele>265.483459</ele>
        <time>2016-09-11T06:35:47Z</time>
      </trkpt>
      <trkpt lat="45.94966" lon="4.66533">
        <ele>265.421356</ele>
        <time>2016-09-11T06:35:49Z</time>
      </trkpt>
      <trkpt lat="45.94975" lon="4.66535">
        <ele>265.304657</ele>
        <time>2016-09-11T06:35:51Z</time>
      </trkpt>
      <trkpt lat="45.94984" lon="4.66536">
        <ele>265.141083</ele>
        <time>2016-09-11T06:35:53Z</time>
      </trkpt>
      <trkpt lat="45.94994" lon="4.66537">
        <ele>265.274963</ele>
        <time>2016-09-11T06:35:55Z</time>
      </trkpt>
      <trkpt lat="45.95004" lon="4.66538">
        <ele>265.108032</ele>
        <time>2016-09-11T06:35:57Z</time>
      </trkpt>
      <trkpt lat="45.95015" lon="4.6654">
        <ele>264.891388</ele>
        <time>2016-09-11T06:35:59Z</time>
      </trkpt>
      <trkpt lat="45.95025" lon="4.66542">
        <ele>264.617615</ele>
        <time>2016-09-11T06:36:01Z</time>
      </trkpt>
      <trkpt lat="45.95035" lon="4.66544">
        <ele>264.243774</ele>
        <time>2016-09-11T06:36:03Z</time>
      </trkpt>
      <trkpt lat="45.95044" lon="4.66546">
        <ele>263.971893</ele>
        <time>2016-09-11T06:36:05Z</time>
      </trkpt>
      <trkpt lat="45.95053" lon="4.6655">
        <ele>263.651672</ele>
        <time>2016-09-11T06:36:07Z</time>
      </trkpt>
      <trkpt lat="45.95062" lon="4.66557">
        <ele>263.483917</ele>
        <time>2016-09-11T06:36:09Z</time>
      </trkpt>
      <trkpt lat="45.95069" lon="4.66565">
        <ele>263.195038</ele>
        <time>2016-09-11T06:36:11Z</time>
      </trkpt>
      <trkpt lat="45.95077" lon="4.66573">
        <ele>263.039978</ele>
        <time>2016-09-11T06:36:13Z</time>
      </trkpt>
      <trkpt lat="45.95085" lon="4.6658">
        <ele>262.840057</ele>
        <time>2016-09-11T06:36:15Z</time>
      </trkpt>
      <trkpt lat="45.95094" lon="4.66588">
        <ele>262.654663</ele>
        <time>2016-09-11T06:36:17Z</time>
      </trkpt>
      <trkpt lat="45.95102" lon="4.66596">
        <ele>262.327515</ele>
        <time>2016-09-11T06:36:19Z</time>
      </trkpt>
      <trkpt lat="45.9511" lon="4.66604">
        <ele>262.154755</ele>
        <time>2016-09-11T06:36:21Z</time>
      </trkpt>
      <trkpt lat="45.95118" lon="4.66612">
        <ele>262.152374</ele>
        <time>2016-09-11T06:36:23Z</time>
      </trkpt>
      <trkpt lat="45.95126" lon="4.6662">
        <ele>262.171448</ele>
        <time>2016-09-11T06:36:25Z</time>
      </trkpt>
      <trkpt lat="45.95133" lon="4.66629">
        <ele>262.243683</ele>
        <time>2016-09-11T06:36:27Z</time>
      </trkpt>
      <trkpt lat="45.95141" lon="4.66637">
        <ele>261.896545</ele>
        <time>2016-09-11T06:36:29Z</time>
      </trkpt>
      <trkpt lat="45.95149" lon="4.66646">
        <ele>261.924622</ele>
        <time>2016-09-11T06:36:31Z</time>
      </trkpt>
      <trkpt lat="45.95157" lon="4.66654">
        <ele>261.975525</ele>
        <time>2016-09-11T06:36:33Z</time>
      </trkpt>
      <trkpt lat="45.95164" lon="4.66663">
        <ele>262.026459</ele>
        <time>2016-09-11T06:36:35Z</time>
      </trkpt>
      <trkpt lat="45.95172" lon="4.66672">
        <ele>261.85141</ele>
        <time>2016-09-11T06:36:37Z</time>
      </trkpt>
      <trkpt lat="45.9518" lon="4.66681">
        <ele>262.161804</ele>
        <time>2016-09-11T06:36:39Z</time>
      </trkpt>
      <trkpt lat="45.95189" lon="4.66688">
        <ele>262.208557</ele>
        <time>2016-09-11T06:36:41Z</time>
      </trkpt>
      <trkpt lat="45.95197" lon="4.66696">
        <ele>262.43576</ele>
        <time>2016-09-11T06:36:43Z</time>
      </trkpt>
      <trkpt lat="45.95205" lon="4.66704">
        <ele>262.595093</ele>
        <time>2016-09-11T06:36:45Z</time>
      </trkpt>
      <trkpt lat="45.95213" lon="4.66712">
        <ele>262.983429</ele>
        <time>2016-09-11T06:36:47Z</time>
      </trkpt>
      <trkpt lat="45.95218" lon="4.6672">
        <ele>263.074768</ele>
        <time>2016-09-11T06:36:49Z</time>
      </trkpt>
      <trkpt lat="45.95221" lon="4.66724">
        <ele>263.229797</ele>
        <time>2016-09-11T06:36:51Z</time>
      </trkpt>
      <trkpt lat="45.95223" lon="4.66722">
        <ele>263.476196</ele>
        <time>2016-09-11T06:36:53Z</time>
      </trkpt>
      <trkpt lat="45.95226" lon="4.66719">
        <ele>263.615784</ele>
        <time>2016-09-11T06:36:55Z</time>
      </trkpt>
      <trkpt lat="45.9523" lon="4.66715">
        <ele>263.78595</ele>
        <time>2016-09-11T06:36:57Z</time>
      </trkpt>
      <trkpt lat="45.95233" lon="4.66706">
        <ele>263.903778</ele>
        <time>2016-09-11T06:36:59Z</time>
      </trkpt>
      <trkpt lat="45.95236" lon="4.66694">
        <ele>264.071777</ele>
        <time>2016-09-11T06:37:01Z</time>
      </trkpt>
      <trkpt lat="45.9524" lon="4.66679">
        <ele>263.868683</ele>
        <time>2016-09-11T06:37:03Z</time>
      </trkpt>
      <trkpt lat="45.95244" lon="4.6666">
        <ele>263.610413</ele>
        <time>2016-09-11T06:37:05Z</time>
      </trkpt>
      <trkpt lat="45.95247" lon="4.66644">
        <ele>263.147644</ele>
        <time>2016-09-11T06:37:07Z</time>
      </trkpt>
      <trkpt lat="45.95251" lon="4.66637">
        <ele>263.166382</ele>
        <time>2016-09-11T06:37:09Z</time>
      </trkpt>
      <trkpt lat="45.95256" lon="4.66638">
        <ele>262.942932</ele>
        <time>2016-09-11T06:37:11Z</time>
      </trkpt>
      <trkpt lat="45.95264" lon="4.6664">
        <ele>262.838867</ele>
        <time>2016-09-11T06:37:13Z</time>
      </trkpt>
      <trkpt lat="45.95273" lon="4.66644">
        <ele>262.447296</ele>
        <time>2016-09-11T06:37:15Z</time>
      </trkpt>
      <trkpt lat="45.95283" lon="4.66647">
        <ele>262.119537</ele>
        <time>2016-09-11T06:37:17Z</time>
      </trkpt>
      <trkpt lat="45.95294" lon="4.66651">
        <ele>261.873169</ele>
        <time>2016-09-11T06:37:19Z</time>
      </trkpt>
      <trkpt lat="45.95305" lon="4.66655">
        <ele>261.352722</ele>
        <time>2016-09-11T06:37:21Z</time>
      </trkpt>
      <trkpt lat="45.95316" lon="4.66661">
        <ele>260.881348</ele>
        <time>2016-09-11T06:37:23Z</time>
      </trkpt>
      <trkpt lat="45.95327" lon="4.66668">
        <ele>260.297638</ele>
        <time>2016-09-11T06:37:25Z</time>
      </trkpt>
      <trkpt lat="45.95337" lon="4.66676">
        <ele>259.779449</ele>
        <time>2016-09-11T06:37:27Z</time>
      </trkpt>
      <trkpt lat="45.95347" lon="4.66684">
        <ele>259.266205</ele>
        <time>2016-09-11T06:37:29Z</time>
      </trkpt>
      <trkpt lat="45.95358" lon="4.66691">
        <ele>258.858521</ele>
        <time>2016-09-11T06:37:31Z</time>
      </trkpt>
      <trkpt lat="45.95368" lon="4.66698">
        <ele>258.739624</ele>
        <time>2016-09-11T06:37:33Z</time>
      </trkpt>
      <trkpt lat="45.95379" lon="4.66706">
        <ele>258.508698</ele>
        <time>2016-09-11T06:37:35Z</time>
      </trkpt>
      <trkpt lat="45.9539" lon="4.66713">
        <ele>257.96283</ele>
        <time>2016-09-11T06:37:37Z</time>
      </trkpt>
      <trkpt lat="45.95401" lon="4.6672">
        <ele>257.230377</ele>
        <time>2016-09-11T06:37:39Z</time>
      </trkpt>
      <trkpt lat="45.95412" lon="4.66727">
        <ele>257.114716</ele>
        <time>2016-09-11T06:37:41Z</time>
      </trkpt>
      <trkpt lat="45.95424" lon="4.66732">
        <ele>256.602997</ele>
        <time>2016-09-11T06:37:43Z</time>
      </trkpt>
      <trkpt lat="45.95436" lon="4.66737">
        <ele>256.069489</ele>
        <time>2016-09-11T06:37:45Z</time>
      </trkpt>
      <trkpt lat="45.95446" lon="4.66743">
        <ele>256.180756</ele>
        <time>2016-09-11T06:37:47Z</time>
      </trkpt>
      <trkpt lat="45.95453" lon="4.66743">
        <ele>255.938843</ele>
        <time>2016-09-11T06:37:49Z</time>
      </trkpt>
      <trkpt lat="45.95456" lon="4.6674">
        <ele>255.29184</ele>
        <time>2016-09-11T06:37:51Z</time>
      </trkpt>
      <trkpt lat="45.95458" lon="4.66731">
        <ele>254.841095</ele>
        <time>2016-09-11T06:37:53Z</time>
      </trkpt>
      <trkpt lat="45.95461" lon="4.66719">
        <ele>254.169388</ele>
        <time>2016-09-11T06:37:55Z</time>
      </trkpt>
      <trkpt lat="45.95467" lon="4.66707">
        <ele>253.989044</ele>
        <time>2016-09-11T06:37:57Z</time>
      </trkpt>
      <trkpt lat="45.95479" lon="4.66694">
        <ele>253.285492</ele>
        <time>2016-09-11T06:37:59Z</time>
      </trkpt>
      <trkpt lat="45.95488" lon="4.66674">
        <ele>252.527954</ele>
        <time>2016-09-11T06:38:01Z</time>
      </trkpt>
      <trkpt lat="45.95492" lon="4.66652">
        <ele>252.065674</ele>
        <time>2016-09-11T06:38:03Z</time>
      </trkpt>
      <trkpt lat="45.95493" lon="4.66632">
        <ele>251.620285</ele>
        <time>2016-09-11T06:38:05Z</time>
      </trkpt>
      <trkpt lat="45.95496" lon="4.66618">
        <ele>251.350906</ele>
        <time>2016-09-11T06:38:07Z</time>
      </trkpt>
      <trkpt lat="45.95498" lon="4.6661">
        <ele>250.794479</ele>
        <time>2016-09-11T06:38:09Z</time>
      </trkpt>
      <trkpt lat="45.95499" lon="4.66605">
        <ele>250.06868</ele>
        <time>2016-09-11T06:38:11Z</time>
      </trkpt>
      <trkpt lat="45.95497" lon="4.666">
        <ele>249.459839</ele>
        <time>2016-09-11T06:38:13Z</time>
      </trkpt>
      <trkpt lat="45.95493" lon="4.66595">
        <ele>248.477264</ele>
        <time>2016-09-11T06:38:15Z</time>
      </trkpt>
      <trkpt lat="45.95489" lon="4.6659">
        <ele>247.584351</ele>
        <time>2016-09-11T06:38:17Z</time>
      </trkpt>
      <trkpt lat="45.95485" lon="4.66587">
        <ele>247.077728</ele>
        <time>2016-09-11T06:38:19Z</time>
      </trkpt>
      <trkpt lat="45.95483" lon="4.66583">
        <ele>246.700241</ele>
        <time>2016-09-11T06:38:21Z</time>
      </trkpt>
      <trkpt lat="45.95479" lon="4.66578">
        <ele>245.741135</ele>
        <time>2016-09-11T06:38:23Z</time>
      </trkpt>
      <trkpt lat="45.95477" lon="4.66574">
        <ele>245.448456</ele>
        <time>2016-09-11T06:38:25Z</time>
      </trkpt>
      <trkpt lat="45.95477" lon="4.66569">
        <ele>245.033966</ele>
        <time>2016-09-11T06:38:27Z</time>
      </trkpt>
      <trkpt lat="45.95479" lon="4.66563">
        <ele>244.632477</ele>
        <time>2016-09-11T06:38:29Z</time>
      </trkpt>
      <trkpt lat="45.95483" lon="4.66561">
        <ele>244.339798</ele>
        <time>2016-09-11T06:38:31Z</time>
      </trkpt>
      <trkpt lat="45.95487" lon="4.66561">
        <ele>244.106522</ele>
        <time>2016-09-11T06:38:33Z</time>
      </trkpt>
      <trkpt lat="45.95491" lon="4.66558">
        <ele>243.983521</ele>
        <time>2016-09-11T06:38:35Z</time>
      </trkpt>
      <trkpt lat="45.95492" lon="4.66552">
        <ele>243.861908</ele>
        <time>2016-09-11T06:38:37Z</time>
      </trkpt>
      <trkpt lat="45.95495" lon="4.66547">
        <ele>243.590485</ele>
        <time>2016-09-11T06:38:39Z</time>
      </trkpt>
      <trkpt lat="45.95496" lon="4.66541">
        <ele>243.658295</ele>
        <time>2016-09-11T06:38:41Z</time>
      </trkpt>
      <trkpt lat="45.95498" lon="4.66534">
        <ele>243.676758</ele>
        <time>2016-09-11T06:38:43Z</time>
      </trkpt>
      <trkpt lat="45.955" lon="4.66528">
        <ele>243.746658</ele>
        <time>2016-09-11T06:38:45Z</time>
      </trkpt>
      <trkpt lat="45.95502" lon="4.66521">
        <ele>243.895065</ele>
        <time>2016-09-11T06:38:47Z</time>
      </trkpt>
      <trkpt lat="45.95504" lon="4.66514">
        <ele>243.925461</ele>
        <time>2016-09-11T06:38:49Z</time>
      </trkpt>
      <trkpt lat="45.95505" lon="4.66507">
        <ele>244.135376</ele>
        <time>2016-09-11T06:38:51Z</time>
      </trkpt>
      <trkpt lat="45.95507" lon="4.665">
        <ele>244.264694</ele>
        <time>2016-09-11T06:38:53Z</time>
      </trkpt>
      <trkpt lat="45.95509" lon="4.66493">
        <ele>244.531891</ele>
        <time>2016-09-11T06:38:55Z</time>
      </trkpt>
      <trkpt lat="45.9551" lon="4.66485">
        <ele>244.726959</ele>
        <time>2016-09-11T06:38:57Z</time>
      </trkpt>
      <trkpt lat="45.95507" lon="4.66479">
        <ele>244.843231</ele>
        <time>2016-09-11T06:38:59Z</time>
      </trkpt>
      <trkpt lat="45.95504" lon="4.66474">
        <ele>245.09314</ele>
        <time>2016-09-11T06:39:01Z</time>
      </trkpt>
      <trkpt lat="45.95499" lon="4.6647">
        <ele>245.353958</ele>
        <time>2016-09-11T06:39:03Z</time>
      </trkpt>
      <trkpt lat="45.95495" lon="4.66466">
        <ele>245.682449</ele>
        <time>2016-09-11T06:39:05Z</time>
      </trkpt>
      <trkpt lat="45.95491" lon="4.66461">
        <ele>246.043701</ele>
        <time>2016-09-11T06:39:07Z</time>
      </trkpt>
      <trkpt lat="45.95487" lon="4.66456">
        <ele>246.490036</ele>
        <time>2016-09-11T06:39:09Z</time>
      </trkpt>
      <trkpt lat="45.95484" lon="4.66451">
        <ele>246.888428</ele>
        <time>2016-09-11T06:39:11Z</time>
      </trkpt>
      <trkpt lat="45.95481" lon="4.66446">
        <ele>247.257492</ele>
        <time>2016-09-11T06:39:13Z</time>
      </trkpt>
      <trkpt lat="45.95478" lon="4.66442">
        <ele>247.620193</ele>
        <time>2016-09-11T06:39:15Z</time>
      </trkpt>
      <trkpt lat="45.95475" lon="4.66438">
        <ele>248.034515</ele>
        <time>2016-09-11T06:39:17Z</time>
      </trkpt>
      <trkpt lat="45.95472" lon="4.66433">
        <ele>248.670898</ele>
        <time>2016-09-11T06:39:19Z</time>
      </trkpt>
      <trkpt lat="45.95469" lon="4.66429">
        <ele>249.175781</ele>
        <time>2016-09-11T06:39:21Z</time>
      </trkpt>
      <trkpt lat="45.95467" lon="4.66425">
        <ele>249.704025</ele>
        <time>2016-09-11T06:39:23Z</time>
      </trkpt>
      <trkpt lat="45.95465" lon="4.66421">
        <ele>250.012253</ele>
        <time>2016-09-11T06:39:25Z</time>
      </trkpt>
      <trkpt lat="45.95462" lon="4.66418">
        <ele>250.618988</ele>
        <time>2016-09-11T06:39:27Z</time>
      </trkpt>
      <trkpt lat="45.9546" lon="4.66415">
        <ele>251.196075</ele>
        <time>2016-09-11T06:39:29Z</time>
      </trkpt>
      <trkpt lat="45.95458" lon="4.66413">
        <ele>251.6521</ele>
        <time>2016-09-11T06:39:31Z</time>
      </trkpt>
      <trkpt lat="45.95456" lon="4.6641">
        <ele>252.25473</ele>
        <time>2016-09-11T06:39:33Z</time>
      </trkpt>
      <trkpt lat="45.95454" lon="4.66406">
        <ele>252.957062</ele>
        <time>2016-09-11T06:39:35Z</time>
      </trkpt>
      <trkpt lat="45.95452" lon="4.66403">
        <ele>253.409058</ele>
        <time>2016-09-11T06:39:37Z</time>
      </trkpt>
      <trkpt lat="45.9545" lon="4.664">
        <ele>254.049957</ele>
        <time>2016-09-11T06:39:39Z</time>
      </trkpt>
      <trkpt lat="45.95447" lon="4.66397">
        <ele>254.567719</ele>
        <time>2016-09-11T06:39:41Z</time>
      </trkpt>
      <trkpt lat="45.95445" lon="4.66393">
        <ele>255.204468</ele>
        <time>2016-09-11T06:39:43Z</time>
      </trkpt>
      <trkpt lat="45.95442" lon="4.6639">
        <ele>255.777664</ele>
        <time>2016-09-11T06:39:45Z</time>
      </trkpt>
      <trkpt lat="45.9544" lon="4.66386">
        <ele>256.333435</ele>
        <time>2016-09-11T06:39:47Z</time>
      </trkpt>
      <trkpt lat="45.95437" lon="4.66383">
        <ele>256.912292</ele>
        <time>2016-09-11T06:39:49Z</time>
      </trkpt>
      <trkpt lat="45.95436" lon="4.66379">
        <ele>257.534241</ele>
        <time>2016-09-11T06:39:51Z</time>
      </trkpt>
      <trkpt lat="45.95434" lon="4.66376">
        <ele>257.822937</ele>
        <time>2016-09-11T06:39:53Z</time>
      </trkpt>
      <trkpt lat="45.95432" lon="4.66373">
        <ele>258.289337</ele>
        <time>2016-09-11T06:39:55Z</time>
      </trkpt>
      <trkpt lat="45.9543" lon="4.6637">
        <ele>258.875244</ele>
        <time>2016-09-11T06:39:57Z</time>
      </trkpt>
      <trkpt lat="45.95429" lon="4.66367">
        <ele>259.510376</ele>
        <time>2016-09-11T06:39:59Z</time>
      </trkpt>
      <trkpt lat="45.95427" lon="4.66364">
        <ele>259.986023</ele>
        <time>2016-09-11T06:40:01Z</time>
      </trkpt>
      <trkpt lat="45.95426" lon="4.6636">
        <ele>260.489288</ele>
        <time>2016-09-11T06:40:03Z</time>
      </trkpt>
      <trkpt lat="45.95425" lon="4.66356">
        <ele>261.009583</ele>
        <time>2016-09-11T06:40:05Z</time>
      </trkpt>
      <trkpt lat="45.95425" lon="4.66352">
        <ele>261.592468</ele>
        <time>2016-09-11T06:40:07Z</time>
      </trkpt>
      <trkpt lat="45.95425" lon="4.66348">
        <ele>262.180847</ele>
        <time>2016-09-11T06:40:09Z</time>
      </trkpt>
      <trkpt lat="45.95425" lon="4.66344">
        <ele>262.826477</ele>
        <time>2016-09-11T06:40:11Z</time>
      </trkpt>
      <trkpt lat="45.95425" lon="4.66341">
        <ele>263.483582</ele>
        <time>2016-09-11T06:40:13Z</time>
      </trkpt>
      <trkpt lat="45.95425" lon="4.66336">
        <ele>263.967896</ele>
        <time>2016-09-11T06:40:15Z</time>
      </trkpt>
      <trkpt lat="45.95425" lon="4.66333">
        <ele>264.660461</ele>
        <time>2016-09-11T06:40:17Z</time>
      </trkpt>
      <trkpt lat="45.95426" lon="4.66329">
        <ele>265.22345</ele>
        <time>2016-09-11T06:40:19Z</time>
      </trkpt>
      <trkpt lat="45.95427" lon="4.66325">
        <ele>265.811951</ele>
        <time>2016-09-11T06:40:21Z</time>
      </trkpt>
      <trkpt lat="45.95427" lon="4.66321">
        <ele>266.162445</ele>
        <time>2016-09-11T06:40:23Z</time>
      </trkpt>
      <trkpt lat="45.95429" lon="4.66317">
        <ele>266.611572</ele>
        <time>2016-09-11T06:40:25Z</time>
      </trkpt>
      <trkpt lat="45.9543" lon="4.66313">
        <ele>267.174561</ele>
        <time>2016-09-11T06:40:27Z</time>
      </trkpt>
      <trkpt lat="45.95431" lon="4.66309">
        <ele>267.633881</ele>
        <time>2016-09-11T06:40:29Z</time>
      </trkpt>
      <trkpt lat="45.95432" lon="4.66305">
        <ele>268.04187</ele>
        <time>2016-09-11T06:40:31Z</time>
      </trkpt>
      <trkpt lat="45.95433" lon="4.66302">
        <ele>268.486664</ele>
        <time>2016-09-11T06:40:33Z</time>
      </trkpt>
      <trkpt lat="45.95433" lon="4.66297">
        <ele>268.9711</ele>
        <time>2016-09-11T06:40:35Z</time>
      </trkpt>
      <trkpt lat="45.95435" lon="4.66294">
        <ele>269.417969</ele>
        <time>2016-09-11T06:40:37Z</time>
      </trkpt>
      <trkpt lat="45.95436" lon="4.6629">
        <ele>269.855408</ele>
        <time>2016-09-11T06:40:39Z</time>
      </trkpt>
      <trkpt lat="45.95437" lon="4.66285">
        <ele>270.210785</ele>
        <time>2016-09-11T06:40:41Z</time>
      </trkpt>
      <trkpt lat="45.95438" lon="4.66282">
        <ele>270.623108</ele>
        <time>2016-09-11T06:40:43Z</time>
      </trkpt>
      <trkpt lat="45.9544" lon="4.66277">
        <ele>271.158752</ele>
        <time>2016-09-11T06:40:45Z</time>
      </trkpt>
      <trkpt lat="45.95441" lon="4.66273">
        <ele>271.575378</ele>
        <time>2016-09-11T06:40:47Z</time>
      </trkpt>
      <trkpt lat="45.95443" lon="4.66269">
        <ele>271.865631</ele>
        <time>2016-09-11T06:40:49Z</time>
      </trkpt>
      <trkpt lat="45.95443" lon="4.66265">
        <ele>272.184509</ele>
        <time>2016-09-11T06:40:51Z</time>
      </trkpt>
      <trkpt lat="45.95444" lon="4.66261">
        <ele>272.572754</ele>
        <time>2016-09-11T06:40:53Z</time>
      </trkpt>
      <trkpt lat="45.95445" lon="4.66256">
        <ele>272.699066</ele>
        <time>2016-09-11T06:40:55Z</time>
      </trkpt>
      <trkpt lat="45.95445" lon="4.66252">
        <ele>273.073242</ele>
        <time>2016-09-11T06:40:57Z</time>
      </trkpt>
      <trkpt lat="45.95446" lon="4.66247">
        <ele>273.296204</ele>
        <time>2016-09-11T06:40:59Z</time>
      </trkpt>
      <trkpt lat="45.95446" lon="4.66242">
        <ele>273.602386</ele>
        <time>2016-09-11T06:41:01Z</time>
      </trkpt>
      <trkpt lat="45.95446" lon="4.66238">
        <ele>273.889465</ele>
        <time>2016-09-11T06:41:03Z</time>
      </trkpt>
      <trkpt lat="45.95446" lon="4.66235">
        <ele>274.231873</ele>
        <time>2016-09-11T06:41:05Z</time>
      </trkpt>
      <trkpt lat="45.95446" lon="4.6623">
        <ele>274.538086</ele>
        <time>2016-09-11T06:41:07Z</time>
      </trkpt>
      <trkpt lat="45.95445" lon="4.66226">
        <ele>274.88678</ele>
        <time>2016-09-11T06:41:09Z</time>
      </trkpt>
      <trkpt lat="45.95445" lon="4.66221">
        <ele>275.346039</ele>
        <time>2016-09-11T06:41:11Z</time>
      </trkpt>
      <trkpt lat="45.95445" lon="4.66217">
        <ele>275.694122</ele>
        <time>2016-09-11T06:41:13Z</time>
      </trkpt>
      <trkpt lat="45.95445" lon="4.66213">
        <ele>276.085419</ele>
        <time>2016-09-11T06:41:15Z</time>
      </trkpt>
      <trkpt lat="45.95444" lon="4.66208">
        <ele>276.572449</ele>
        <time>2016-09-11T06:41:17Z</time>
      </trkpt>
      <trkpt lat="45.95443" lon="4.66204">
        <ele>276.806396</ele>
        <time>2016-09-11T06:41:19Z</time>
      </trkpt>
      <trkpt lat="45.95441" lon="4.66201">
        <ele>277.23407</ele>
        <time>2016-09-11T06:41:21Z</time>
      </trkpt>
      <trkpt lat="45.95438" lon="4.66197">
        <ele>277.595215</ele>
        <time>2016-09-11T06:41:23Z</time>
      </trkpt>
      <trkpt lat="45.95435" lon="4.66195">
        <ele>278.084473</ele>
        <time>2016-09-11T06:41:25Z</time>
      </trkpt>
      <trkpt lat="45.95432" lon="4.66192">
        <ele>278.407837</ele>
        <time>2016-09-11T06:41:27Z</time>
      </trkpt>
      <trkpt lat="45.9543" lon="4.66187">
        <ele>278.78653</ele>
        <time>2016-09-11T06:41:29Z</time>
      </trkpt>
      <trkpt lat="45.9543" lon="4.66181">
        <ele>279.078308</ele>
        <time>2016-09-11T06:41:31Z</time>
      </trkpt>
      <trkpt lat="45.9543" lon="4.66174">
        <ele>279.376129</ele>
        <time>2016-09-11T06:41:33Z</time>
      </trkpt>
      <trkpt lat="45.95429" lon="4.66168">
        <ele>279.865479</ele>
        <time>2016-09-11T06:41:35Z</time>
      </trkpt>
      <trkpt lat="45.95429" lon="4.66162">
        <ele>280.285828</ele>
        <time>2016-09-11T06:41:37Z</time>
      </trkpt>
      <trkpt lat="45.95429" lon="4.66155">
        <ele>280.592163</ele>
        <time>2016-09-11T06:41:39Z</time>
      </trkpt>
      <trkpt lat="45.95428" lon="4.66149">
        <ele>280.952026</ele>
        <time>2016-09-11T06:41:41Z</time>
      </trkpt>
      <trkpt lat="45.95428" lon="4.66142">
        <ele>281.359009</ele>
        <time>2016-09-11T06:41:43Z</time>
      </trkpt>
      <trkpt lat="45.95427" lon="4.66135">
        <ele>281.795258</ele>
        <time>2016-09-11T06:41:45Z</time>
      </trkpt>
      <trkpt lat="45.95425" lon="4.66127">
        <ele>282.045471</ele>
        <time>2016-09-11T06:41:47Z</time>
      </trkpt>
      <trkpt lat="45.95424" lon="4.66119">
        <ele>282.290131</ele>
        <time>2016-09-11T06:41:49Z</time>
      </trkpt>
      <trkpt lat="45.95422" lon="4.66111">
        <ele>282.626404</ele>
        <time>2016-09-11T06:41:51Z</time>
      </trkpt>
      <trkpt lat="45.95421" lon="4.66103">
        <ele>282.983948</ele>
        <time>2016-09-11T06:41:53Z</time>
      </trkpt>
      <trkpt lat="45.95419" lon="4.66095">
        <ele>283.407471</ele>
        <time>2016-09-11T06:41:55Z</time>
      </trkpt>
      <trkpt lat="45.95418" lon="4.66086">
        <ele>283.645081</ele>
        <time>2016-09-11T06:41:57Z</time>
      </trkpt>
      <trkpt lat="45.95417" lon="4.66077">
        <ele>284.068665</ele>
        <time>2016-09-11T06:41:59Z</time>
      </trkpt>
      <trkpt lat="45.95415" lon="4.66068">
        <ele>284.369812</ele>
        <time>2016-09-11T06:42:01Z</time>
      </trkpt>
      <trkpt lat="45.95414" lon="4.66059">
        <ele>284.671722</ele>
        <time>2016-09-11T06:42:03Z</time>
      </trkpt>
      <trkpt lat="45.95412" lon="4.66049">
        <ele>284.712158</ele>
        <time>2016-09-11T06:42:05Z</time>
      </trkpt>
      <trkpt lat="45.9541" lon="4.66041">
        <ele>285.103027</ele>
        <time>2016-09-11T06:42:07Z</time>
      </trkpt>
      <trkpt lat="45.95408" lon="4.66032">
        <ele>285.35553</ele>
        <time>2016-09-11T06:42:09Z</time>
      </trkpt>
      <trkpt lat="45.95406" lon="4.66023">
        <ele>285.621521</ele>
        <time>2016-09-11T06:42:11Z</time>
      </trkpt>
      <trkpt lat="45.95404" lon="4.66013">
        <ele>285.797821</ele>
        <time>2016-09-11T06:42:13Z</time>
      </trkpt>
      <trkpt lat="45.95403" lon="4.66004">
        <ele>286.283844</ele>
        <time>2016-09-11T06:42:15Z</time>
      </trkpt>
      <trkpt lat="45.95401" lon="4.65995">
        <ele>286.690552</ele>
        <time>2016-09-11T06:42:17Z</time>
      </trkpt>
      <trkpt lat="45.95399" lon="4.65987">
        <ele>287.020569</ele>
        <time>2016-09-11T06:42:19Z</time>
      </trkpt>
      <trkpt lat="45.95398" lon="4.65977">
        <ele>287.348389</ele>
        <time>2016-09-11T06:42:21Z</time>
      </trkpt>
      <trkpt lat="45.95396" lon="4.65968">
        <ele>287.52301</ele>
        <time>2016-09-11T06:42:23Z</time>
      </trkpt>
      <trkpt lat="45.95395" lon="4.65958">
        <ele>287.53949</ele>
        <time>2016-09-11T06:42:25Z</time>
      </trkpt>
      <trkpt lat="45.95393" lon="4.65949">
        <ele>287.694458</ele>
        <time>2016-09-11T06:42:27Z</time>
      </trkpt>
      <trkpt lat="45.95391" lon="4.6594">
        <ele>287.907349</ele>
        <time>2016-09-11T06:42:29Z</time>
      </trkpt>
      <trkpt lat="45.95389" lon="4.6593">
        <ele>288.269257</ele>
        <time>2016-09-11T06:42:31Z</time>
      </trkpt>
      <trkpt lat="45.95387" lon="4.65921">
        <ele>288.648346</ele>
        <time>2016-09-11T06:42:33Z</time>
      </trkpt>
      <trkpt lat="45.95385" lon="4.65912">
        <ele>288.536682</ele>
        <time>2016-09-11T06:42:35Z</time>
      </trkpt>
      <trkpt lat="45.95384" lon="4.65903">
        <ele>289.06897</ele>
        <time>2016-09-11T06:42:37Z</time>
      </trkpt>
      <trkpt lat="45.95382" lon="4.65894">
        <ele>289.178345</ele>
        <time>2016-09-11T06:42:39Z</time>
      </trkpt>
      <trkpt lat="45.9538" lon="4.65885">
        <ele>289.250763</ele>
        <time>2016-09-11T06:42:41Z</time>
      </trkpt>
      <trkpt lat="45.95379" lon="4.65876">
        <ele>289.633698</ele>
        <time>2016-09-11T06:42:43Z</time>
      </trkpt>
      <trkpt lat="45.95377" lon="4.65867">
        <ele>289.932159</ele>
        <time>2016-09-11T06:42:45Z</time>
      </trkpt>
      <trkpt lat="45.95375" lon="4.65859">
        <ele>290.600983</ele>
        <time>2016-09-11T06:42:47Z</time>
      </trkpt>
      <trkpt lat="45.95374" lon="4.65851">
        <ele>290.689148</ele>
        <time>2016-09-11T06:42:49Z</time>
      </trkpt>
      <trkpt lat="45.95374" lon="4.65843">
        <ele>291.02359</ele>
        <time>2016-09-11T06:42:51Z</time>
      </trkpt>
      <trkpt lat="45.95379" lon="4.65837">
        <ele>291.549652</ele>
        <time>2016-09-11T06:42:53Z</time>
      </trkpt>
      <trkpt lat="45.95385" lon="4.65833">
        <ele>291.721375</ele>
        <time>2016-09-11T06:42:55Z</time>
      </trkpt>
      <trkpt lat="45.95391" lon="4.65828">
        <ele>291.734589</ele>
        <time>2016-09-11T06:42:57Z</time>
      </trkpt>
      <trkpt lat="45.95397" lon="4.65824">
        <ele>291.734589</ele>
        <time>2016-09-11T06:42:59Z</time>
      </trkpt>
      <trkpt lat="45.95404" lon="4.6582">
        <ele>292.052094</ele>
        <time>2016-09-11T06:43:01Z</time>
      </trkpt>
      <trkpt lat="45.9541" lon="4.65819">
        <ele>292.267273</ele>
        <time>2016-09-11T06:43:03Z</time>
      </trkpt>
      <trkpt lat="45.95417" lon="4.65818">
        <ele>292.73996</ele>
        <time>2016-09-11T06:43:05Z</time>
      </trkpt>
      <trkpt lat="45.95423" lon="4.65816">
        <ele>293.315033</ele>
        <time>2016-09-11T06:43:07Z</time>
      </trkpt>
      <trkpt lat="45.95429" lon="4.65815">
        <ele>293.47525</ele>
        <time>2016-09-11T06:43:09Z</time>
      </trkpt>
      <trkpt lat="45.95435" lon="4.65814">
        <ele>293.810303</ele>
        <time>2016-09-11T06:43:11Z</time>
      </trkpt>
      <trkpt lat="45.95441" lon="4.65815">
        <ele>294.287506</ele>
        <time>2016-09-11T06:43:13Z</time>
      </trkpt>
      <trkpt lat="45.95448" lon="4.65816">
        <ele>294.525452</ele>
        <time>2016-09-11T06:43:15Z</time>
      </trkpt>
      <trkpt lat="45.95455" lon="4.65817">
        <ele>295.073822</ele>
        <time>2016-09-11T06:43:17Z</time>
      </trkpt>
      <trkpt lat="45.95462" lon="4.65819">
        <ele>295.231506</ele>
        <time>2016-09-11T06:43:19Z</time>
      </trkpt>
      <trkpt lat="45.95469" lon="4.65821">
        <ele>295.446655</ele>
        <time>2016-09-11T06:43:21Z</time>
      </trkpt>
      <trkpt lat="45.95476" lon="4.65821">
        <ele>295.73175</ele>
        <time>2016-09-11T06:43:23Z</time>
      </trkpt>
      <trkpt lat="45.95483" lon="4.65817">
        <ele>295.638</ele>
        <time>2016-09-11T06:43:25Z</time>
      </trkpt>
      <trkpt lat="45.95488" lon="4.6581">
        <ele>295.846771</ele>
        <time>2016-09-11T06:43:27Z</time>
      </trkpt>
      <trkpt lat="45.95493" lon="4.65802">
        <ele>296.059631</ele>
        <time>2016-09-11T06:43:29Z</time>
      </trkpt>
      <trkpt lat="45.95497" lon="4.65795">
        <ele>296.189606</ele>
        <time>2016-09-11T06:43:31Z</time>
      </trkpt>
      <trkpt lat="45.955" lon="4.65786">
        <ele>296.422607</ele>
        <time>2016-09-11T06:43:33Z</time>
      </trkpt>
      <trkpt lat="45.95499" lon="4.65777">
        <ele>296.348053</ele>
        <time>2016-09-11T06:43:35Z</time>
      </trkpt>
      <trkpt lat="45.95499" lon="4.65768">
        <ele>296.193787</ele>
        <time>2016-09-11T06:43:37Z</time>
      </trkpt>
      <trkpt lat="45.95497" lon="4.65759">
        <ele>296.442535</ele>
        <time>2016-09-11T06:43:39Z</time>
      </trkpt>
      <trkpt lat="45.95496" lon="4.6575">
        <ele>296.585266</ele>
        <time>2016-09-11T06:43:41Z</time>
      </trkpt>
      <trkpt lat="45.95495" lon="4.6574">
        <ele>296.762024</ele>
        <time>2016-09-11T06:43:43Z</time>
      </trkpt>
      <trkpt lat="45.95493" lon="4.65731">
        <ele>296.981537</ele>
        <time>2016-09-11T06:43:45Z</time>
      </trkpt>
      <trkpt lat="45.95492" lon="4.65721">
        <ele>297.120026</ele>
        <time>2016-09-11T06:43:47Z</time>
      </trkpt>
      <trkpt lat="45.9549" lon="4.65711">
        <ele>297.23941</ele>
        <time>2016-09-11T06:43:49Z</time>
      </trkpt>
      <trkpt lat="45.95489" lon="4.65701">
        <ele>297.318207</ele>
        <time>2016-09-11T06:43:51Z</time>
      </trkpt>
      <trkpt lat="45.95487" lon="4.65692">
        <ele>297.605469</ele>
        <time>2016-09-11T06:43:53Z</time>
      </trkpt>
      <trkpt lat="45.95485" lon="4.65682">
        <ele>297.704193</ele>
        <time>2016-09-11T06:43:55Z</time>
      </trkpt>
      <trkpt lat="45.95483" lon="4.65673">
        <ele>297.789459</ele>
        <time>2016-09-11T06:43:57Z</time>
      </trkpt>
      <trkpt lat="45.95482" lon="4.65663">
        <ele>298.139008</ele>
        <time>2016-09-11T06:43:59Z</time>
      </trkpt>
      <trkpt lat="45.95481" lon="4.65653">
        <ele>298.217834</ele>
        <time>2016-09-11T06:44:01Z</time>
      </trkpt>
      <trkpt lat="45.9548" lon="4.65644">
        <ele>298.367035</ele>
        <time>2016-09-11T06:44:03Z</time>
      </trkpt>
      <trkpt lat="45.95478" lon="4.65634">
        <ele>297.904602</ele>
        <time>2016-09-11T06:44:05Z</time>
      </trkpt>
      <trkpt lat="45.95477" lon="4.65624">
        <ele>298.331818</ele>
        <time>2016-09-11T06:44:07Z</time>
      </trkpt>
      <trkpt lat="45.95476" lon="4.65614">
        <ele>298.481018</ele>
        <time>2016-09-11T06:44:09Z</time>
      </trkpt>
      <trkpt lat="45.95476" lon="4.65604">
        <ele>298.66217</ele>
        <time>2016-09-11T06:44:11Z</time>
      </trkpt>
      <trkpt lat="45.95475" lon="4.65594">
        <ele>298.760223</ele>
        <time>2016-09-11T06:44:13Z</time>
      </trkpt>
      <trkpt lat="45.95474" lon="4.65584">
        <ele>299.009979</ele>
        <time>2016-09-11T06:44:15Z</time>
      </trkpt>
      <trkpt lat="45.95472" lon="4.65574">
        <ele>299.109833</ele>
        <time>2016-09-11T06:44:17Z</time>
      </trkpt>
      <trkpt lat="45.95469" lon="4.65565">
        <ele>299.699036</ele>
        <time>2016-09-11T06:44:19Z</time>
      </trkpt>
      <trkpt lat="45.95467" lon="4.65556">
        <ele>300.115204</ele>
        <time>2016-09-11T06:44:21Z</time>
      </trkpt>
      <trkpt lat="45.95464" lon="4.65547">
        <ele>300.501099</ele>
        <time>2016-09-11T06:44:23Z</time>
      </trkpt>
      <trkpt lat="45.95461" lon="4.65539">
        <ele>300.948792</ele>
        <time>2016-09-11T06:44:25Z</time>
      </trkpt>
      <trkpt lat="45.95457" lon="4.65531">
        <ele>301.085236</ele>
        <time>2016-09-11T06:44:27Z</time>
      </trkpt>
      <trkpt lat="45.95453" lon="4.65522">
        <ele>301.266418</ele>
        <time>2016-09-11T06:44:29Z</time>
      </trkpt>
      <trkpt lat="45.95449" lon="4.65513">
        <ele>301.492706</ele>
        <time>2016-09-11T06:44:31Z</time>
      </trkpt>
      <trkpt lat="45.95445" lon="4.65503">
        <ele>301.904175</ele>
        <time>2016-09-11T06:44:33Z</time>
      </trkpt>
      <trkpt lat="45.95442" lon="4.65494">
        <ele>302.027802</ele>
        <time>2016-09-11T06:44:35Z</time>
      </trkpt>
      <trkpt lat="45.95439" lon="4.65484">
        <ele>302.26828</ele>
        <time>2016-09-11T06:44:37Z</time>
      </trkpt>
      <trkpt lat="45.95437" lon="4.65473">
        <ele>302.53833</ele>
        <time>2016-09-11T06:44:39Z</time>
      </trkpt>
      <trkpt lat="45.95435" lon="4.65463">
        <ele>302.63858</ele>
        <time>2016-09-11T06:44:41Z</time>
      </trkpt>
      <trkpt lat="45.95433" lon="4.65452">
        <ele>303.118225</ele>
        <time>2016-09-11T06:44:43Z</time>
      </trkpt>
      <trkpt lat="45.95432" lon="4.65441">
        <ele>303.378662</ele>
        <time>2016-09-11T06:44:45Z</time>
      </trkpt>
      <trkpt lat="45.95431" lon="4.6543">
        <ele>304.302399</ele>
        <time>2016-09-11T06:44:47Z</time>
      </trkpt>
      <trkpt lat="45.95432" lon="4.65419">
        <ele>304.368469</ele>
        <time>2016-09-11T06:44:49Z</time>
      </trkpt>
      <trkpt lat="45.95432" lon="4.65409">
        <ele>304.66275</ele>
        <time>2016-09-11T06:44:51Z</time>
      </trkpt>
      <trkpt lat="45.95433" lon="4.65398">
        <ele>304.976166</ele>
        <time>2016-09-11T06:44:53Z</time>
      </trkpt>
      <trkpt lat="45.95433" lon="4.65388">
        <ele>305.238464</ele>
        <time>2016-09-11T06:44:55Z</time>
      </trkpt>
      <trkpt lat="45.95434" lon="4.65377">
        <ele>305.54953</ele>
        <time>2016-09-11T06:44:57Z</time>
      </trkpt>
      <trkpt lat="45.95435" lon="4.65367">
        <ele>306.025421</ele>
        <time>2016-09-11T06:44:59Z</time>
      </trkpt>
      <trkpt lat="45.95437" lon="4.65356">
        <ele>306.012634</ele>
        <time>2016-09-11T06:45:00Z</time>
      </trkpt>
      <trkpt lat="45.95438" lon="4.65346">
        <ele>305.996582</ele>
        <time>2016-09-11T06:45:03Z</time>
      </trkpt>
      <trkpt lat="45.9544" lon="4.65335">
        <ele>306.081879</ele>
        <time>2016-09-11T06:45:05Z</time>
      </trkpt>
      <trkpt lat="45.9544" lon="4.65324">
        <ele>306.207733</ele>
        <time>2016-09-11T06:45:07Z</time>
      </trkpt>
      <trkpt lat="45.95441" lon="4.65313">
        <ele>306.425232</ele>
        <time>2016-09-11T06:45:09Z</time>
      </trkpt>
      <trkpt lat="45.95443" lon="4.65302">
        <ele>306.263</ele>
        <time>2016-09-11T06:45:11Z</time>
      </trkpt>
      <trkpt lat="45.95443" lon="4.65292">
        <ele>306.461945</ele>
        <time>2016-09-11T06:45:13Z</time>
      </trkpt>
      <trkpt lat="45.95444" lon="4.65281">
        <ele>306.560059</ele>
        <time>2016-09-11T06:45:15Z</time>
      </trkpt>
      <trkpt lat="45.95445" lon="4.6527">
        <ele>306.64801</ele>
        <time>2016-09-11T06:45:17Z</time>
      </trkpt>
      <trkpt lat="45.95445" lon="4.65259">
        <ele>306.798645</ele>
        <time>2016-09-11T06:45:19Z</time>
      </trkpt>
      <trkpt lat="45.95445" lon="4.65247">
        <ele>306.894684</ele>
        <time>2016-09-11T06:45:21Z</time>
      </trkpt>
      <trkpt lat="45.95446" lon="4.65236">
        <ele>307.235931</ele>
        <time>2016-09-11T06:45:23Z</time>
      </trkpt>
      <trkpt lat="45.95448" lon="4.65225">
        <ele>307.262421</ele>
        <time>2016-09-11T06:45:25Z</time>
      </trkpt>
      <trkpt lat="45.95449" lon="4.65214">
        <ele>307.278351</ele>
        <time>2016-09-11T06:45:27Z</time>
      </trkpt>
      <trkpt lat="45.95451" lon="4.65203">
        <ele>307.489075</ele>
        <time>2016-09-11T06:45:29Z</time>
      </trkpt>
      <trkpt lat="45.95454" lon="4.65192">
        <ele>307.704529</ele>
        <time>2016-09-11T06:45:31Z</time>
      </trkpt>
      <trkpt lat="45.95458" lon="4.65181">
        <ele>307.911438</ele>
        <time>2016-09-11T06:45:33Z</time>
      </trkpt>
      <trkpt lat="45.95462" lon="4.65171">
        <ele>308.186676</ele>
        <time>2016-09-11T06:45:35Z</time>
      </trkpt>
      <trkpt lat="45.95466" lon="4.6516">
        <ele>308.304016</ele>
        <time>2016-09-11T06:45:37Z</time>
      </trkpt>
      <trkpt lat="45.95471" lon="4.65151">
        <ele>308.19519</ele>
        <time>2016-09-11T06:45:39Z</time>
      </trkpt>
      <trkpt lat="45.95476" lon="4.65142">
        <ele>308.199585</ele>
        <time>2016-09-11T06:45:41Z</time>
      </trkpt>
      <trkpt lat="45.95483" lon="4.65136">
        <ele>308.469025</ele>
        <time>2016-09-11T06:45:43Z</time>
      </trkpt>
      <trkpt lat="45.9549" lon="4.6513">
        <ele>308.744202</ele>
        <time>2016-09-11T06:45:45Z</time>
      </trkpt>
      <trkpt lat="45.95496" lon="4.65124">
        <ele>308.91275</ele>
        <time>2016-09-11T06:45:47Z</time>
      </trkpt>
      <trkpt lat="45.95503" lon="4.65116">
        <ele>309.11969</ele>
        <time>2016-09-11T06:45:49Z</time>
      </trkpt>
      <trkpt lat="45.95509" lon="4.65106">
        <ele>309.567566</ele>
        <time>2016-09-11T06:45:51Z</time>
      </trkpt>
      <trkpt lat="45.95514" lon="4.65096">
        <ele>309.829407</ele>
        <time>2016-09-11T06:45:53Z</time>
      </trkpt>
      <trkpt lat="45.95518" lon="4.65084">
        <ele>309.837067</ele>
        <time>2016-09-11T06:45:55Z</time>
      </trkpt>
      <trkpt lat="45.95522" lon="4.65072">
        <ele>310.001343</ele>
        <time>2016-09-11T06:45:57Z</time>
      </trkpt>
      <trkpt lat="45.95523" lon="4.65059">
        <ele>310.223267</ele>
        <time>2016-09-11T06:45:59Z</time>
      </trkpt>
      <trkpt lat="45.95524" lon="4.65045">
        <ele>310.380615</ele>
        <time>2016-09-11T06:46:01Z</time>
      </trkpt>
      <trkpt lat="45.95524" lon="4.65032">
        <ele>310.468811</ele>
        <time>2016-09-11T06:46:03Z</time>
      </trkpt>
      <trkpt lat="45.95524" lon="4.6502">
        <ele>310.558441</ele>
        <time>2016-09-11T06:46:05Z</time>
      </trkpt>
      <trkpt lat="45.95523" lon="4.65007">
        <ele>310.741058</ele>
        <time>2016-09-11T06:46:07Z</time>
      </trkpt>
      <trkpt lat="45.95521" lon="4.64995">
        <ele>310.719299</ele>
        <time>2016-09-11T06:46:09Z</time>
      </trkpt>
      <trkpt lat="45.9552" lon="4.64982">
        <ele>310.907501</ele>
        <time>2016-09-11T06:46:11Z</time>
      </trkpt>
      <trkpt lat="45.95519" lon="4.6497">
        <ele>310.948059</ele>
        <time>2016-09-11T06:46:13Z</time>
      </trkpt>
      <trkpt lat="45.95515" lon="4.64958">
        <ele>311.079529</ele>
        <time>2016-09-11T06:46:15Z</time>
      </trkpt>
      <trkpt lat="45.95512" lon="4.64946">
        <ele>311.26944</ele>
        <time>2016-09-11T06:46:17Z</time>
      </trkpt>
      <trkpt lat="45.95508" lon="4.64934">
        <ele>311.446564</ele>
        <time>2016-09-11T06:46:19Z</time>
      </trkpt>
      <trkpt lat="45.95503" lon="4.64923">
        <ele>311.702576</ele>
        <time>2016-09-11T06:46:21Z</time>
      </trkpt>
      <trkpt lat="45.95499" lon="4.64911">
        <ele>311.979858</ele>
        <time>2016-09-11T06:46:23Z</time>
      </trkpt>
      <trkpt lat="45.95493" lon="4.64899">
        <ele>312.046021</ele>
        <time>2016-09-11T06:46:25Z</time>
      </trkpt>
      <trkpt lat="45.95488" lon="4.64887">
        <ele>312.131378</ele>
        <time>2016-09-11T06:46:27Z</time>
      </trkpt>
      <trkpt lat="45.95485" lon="4.64874">
        <ele>312.297821</ele>
        <time>2016-09-11T06:46:29Z</time>
      </trkpt>
      <trkpt lat="45.95483" lon="4.6486">
        <ele>312.33197</ele>
        <time>2016-09-11T06:46:31Z</time>
      </trkpt>
      <trkpt lat="45.95483" lon="4.64847">
        <ele>312.340515</ele>
        <time>2016-09-11T06:46:33Z</time>
      </trkpt>
      <trkpt lat="45.95486" lon="4.64834">
        <ele>312.400269</ele>
        <time>2016-09-11T06:46:35Z</time>
      </trkpt>
      <trkpt lat="45.9549" lon="4.64824">
        <ele>312.469421</ele>
        <time>2016-09-11T06:46:37Z</time>
      </trkpt>
      <trkpt lat="45.95492" lon="4.64813">
        <ele>312.516388</ele>
        <time>2016-09-11T06:46:39Z</time>
      </trkpt>
      <trkpt lat="45.95485" lon="4.64807">
        <ele>312.30304</ele>
        <time>2016-09-11T06:46:41Z</time>
      </trkpt>
      <trkpt lat="45.95475" lon="4.64805">
        <ele>312.307312</ele>
        <time>2016-09-11T06:46:43Z</time>
      </trkpt>
      <trkpt lat="45.95463" lon="4.64803">
        <ele>312.321533</ele>
        <time>2016-09-11T06:46:45Z</time>
      </trkpt>
      <trkpt lat="45.95449" lon="4.64801">
        <ele>312.23407</ele>
        <time>2016-09-11T06:46:47Z</time>
      </trkpt>
      <trkpt lat="45.95434" lon="4.64801">
        <ele>312.15976</ele>
        <time>2016-09-11T06:46:49Z</time>
      </trkpt>
      <trkpt lat="45.95419" lon="4.64798">
        <ele>311.886139</ele>
        <time>2016-09-11T06:46:51Z</time>
      </trkpt>
      <trkpt lat="45.95405" lon="4.64791">
        <ele>311.574707</ele>
        <time>2016-09-11T06:46:53Z</time>
      </trkpt>
      <trkpt lat="45.95389" lon="4.64782">
        <ele>311.087067</ele>
        <time>2016-09-11T06:46:55Z</time>
      </trkpt>
      <trkpt lat="45.95372" lon="4.64772">
        <ele>310.442871</ele>
        <time>2016-09-11T06:46:57Z</time>
      </trkpt>
      <trkpt lat="45.95353" lon="4.64763">
        <ele>309.545074</ele>
        <time>2016-09-11T06:46:59Z</time>
      </trkpt>
      <trkpt lat="45.95334" lon="4.64756">
        <ele>308.826324</ele>
        <time>2016-09-11T06:47:01Z</time>
      </trkpt>
      <trkpt lat="45.9532" lon="4.64752">
        <ele>308.425354</ele>
        <time>2016-09-11T06:47:03Z</time>
      </trkpt>
      <trkpt lat="45.9531" lon="4.64757">
        <ele>307.501404</ele>
        <time>2016-09-11T06:47:05Z</time>
      </trkpt>
      <trkpt lat="45.95301" lon="4.64764">
        <ele>306.842468</ele>
        <time>2016-09-11T06:47:07Z</time>
      </trkpt>
      <trkpt lat="45.95288" lon="4.64766">
        <ele>305.744568</ele>
        <time>2016-09-11T06:47:09Z</time>
      </trkpt>
      <trkpt lat="45.95273" lon="4.64764">
        <ele>304.653412</ele>
        <time>2016-09-11T06:47:11Z</time>
      </trkpt>
      <trkpt lat="45.95257" lon="4.64762">
        <ele>303.366058</ele>
        <time>2016-09-11T06:47:13Z</time>
      </trkpt>
      <trkpt lat="45.95239" lon="4.6476">
        <ele>302.246826</ele>
        <time>2016-09-11T06:47:15Z</time>
      </trkpt>
      <trkpt lat="45.95219" lon="4.64757">
        <ele>301.01059</ele>
        <time>2016-09-11T06:47:17Z</time>
      </trkpt>
      <trkpt lat="45.952" lon="4.64755">
        <ele>298.848969</ele>
        <time>2016-09-11T06:47:19Z</time>
      </trkpt>
      <trkpt lat="45.95181" lon="4.64758">
        <ele>297.591736</ele>
        <time>2016-09-11T06:47:21Z</time>
      </trkpt>
      <trkpt lat="45.95163" lon="4.64767">
        <ele>295.775055</ele>
        <time>2016-09-11T06:47:23Z</time>
      </trkpt>
      <trkpt lat="45.95147" lon="4.64781">
        <ele>294.34491</ele>
        <time>2016-09-11T06:47:25Z</time>
      </trkpt>
      <trkpt lat="45.95133" lon="4.64795">
        <ele>292.95755</ele>
        <time>2016-09-11T06:47:27Z</time>
      </trkpt>
      <trkpt lat="45.9512" lon="4.64807">
        <ele>291.572632</ele>
        <time>2016-09-11T06:47:29Z</time>
      </trkpt>
      <trkpt lat="45.9511" lon="4.64818">
        <ele>290.0383</ele>
        <time>2016-09-11T06:47:31Z</time>
      </trkpt>
      <trkpt lat="45.951" lon="4.64827">
        <ele>289.520691</ele>
        <time>2016-09-11T06:47:33Z</time>
      </trkpt>
      <trkpt lat="45.9509" lon="4.64834">
        <ele>288.607056</ele>
        <time>2016-09-11T06:47:35Z</time>
      </trkpt>
      <trkpt lat="45.9508" lon="4.6484">
        <ele>287.891174</ele>
        <time>2016-09-11T06:47:37Z</time>
      </trkpt>
      <trkpt lat="45.95072" lon="4.64844">
        <ele>287.081726</ele>
        <time>2016-09-11T06:47:39Z</time>
      </trkpt>
      <trkpt lat="45.95063" lon="4.64848">
        <ele>286.36438</ele>
        <time>2016-09-11T06:47:41Z</time>
      </trkpt>
      <trkpt lat="45.95055" lon="4.64852">
        <ele>285.822388</ele>
        <time>2016-09-11T06:47:43Z</time>
      </trkpt>
      <trkpt lat="45.95047" lon="4.64855">
        <ele>285.307434</ele>
        <time>2016-09-11T06:47:45Z</time>
      </trkpt>
      <trkpt lat="45.95039" lon="4.64857">
        <ele>285.173279</ele>
        <time>2016-09-11T06:47:47Z</time>
      </trkpt>
      <trkpt lat="45.95031" lon="4.6486">
        <ele>284.779083</ele>
        <time>2016-09-11T06:47:49Z</time>
      </trkpt>
      <trkpt lat="45.95023" lon="4.64864">
        <ele>284.686951</ele>
        <time>2016-09-11T06:47:51Z</time>
      </trkpt>
      <trkpt lat="45.95012" lon="4.64868">
        <ele>284.965942</ele>
        <time>2016-09-11T06:47:53Z</time>
      </trkpt>
      <trkpt lat="45.95001" lon="4.64872">
        <ele>285.049103</ele>
        <time>2016-09-11T06:47:55Z</time>
      </trkpt>
      <trkpt lat="45.94989" lon="4.64876">
        <ele>284.997986</ele>
        <time>2016-09-11T06:47:57Z</time>
      </trkpt>
      <trkpt lat="45.94977" lon="4.6488">
        <ele>284.34729</ele>
        <time>2016-09-11T06:47:59Z</time>
      </trkpt>
      <trkpt lat="45.94967" lon="4.64882">
        <ele>285.30246</ele>
        <time>2016-09-11T06:48:01Z</time>
      </trkpt>
      <trkpt lat="45.9496" lon="4.64876">
        <ele>285.162079</ele>
        <time>2016-09-11T06:48:03Z</time>
      </trkpt>
      <trkpt lat="45.94957" lon="4.64866">
        <ele>285.891815</ele>
        <time>2016-09-11T06:48:05Z</time>
      </trkpt>
      <trkpt lat="45.94954" lon="4.64854">
        <ele>285.749207</ele>
        <time>2016-09-11T06:48:07Z</time>
      </trkpt>
      <trkpt lat="45.94951" lon="4.64842">
        <ele>285.691772</ele>
        <time>2016-09-11T06:48:09Z</time>
      </trkpt>
      <trkpt lat="45.94948" lon="4.64829">
        <ele>285.742828</ele>
        <time>2016-09-11T06:48:11Z</time>
      </trkpt>
      <trkpt lat="45.94946" lon="4.64816">
        <ele>285.895935</ele>
        <time>2016-09-11T06:48:13Z</time>
      </trkpt>
      <trkpt lat="45.94944" lon="4.64804">
        <ele>285.93631</ele>
        <time>2016-09-11T06:48:15Z</time>
      </trkpt>
      <trkpt lat="45.94941" lon="4.64791">
        <ele>285.724396</ele>
        <time>2016-09-11T06:48:17Z</time>
      </trkpt>
      <trkpt lat="45.9494" lon="4.64779">
        <ele>285.707336</ele>
        <time>2016-09-11T06:48:19Z</time>
      </trkpt>
      <trkpt lat="45.94939" lon="4.64766">
        <ele>286.213776</ele>
        <time>2016-09-11T06:48:21Z</time>
      </trkpt>
      <trkpt lat="45.94938" lon="4.64753">
        <ele>286.531281</ele>
        <time>2016-09-11T06:48:23Z</time>
      </trkpt>
      <trkpt lat="45.94936" lon="4.64741">
        <ele>286.503754</ele>
        <time>2016-09-11T06:48:25Z</time>
      </trkpt>
      <trkpt lat="45.94934" lon="4.64728">
        <ele>286.373871</ele>
        <time>2016-09-11T06:48:27Z</time>
      </trkpt>
      <trkpt lat="45.94932" lon="4.64715">
        <ele>286.59967</ele>
        <time>2016-09-11T06:48:29Z</time>
      </trkpt>
      <trkpt lat="45.9493" lon="4.64702">
        <ele>286.405914</ele>
        <time>2016-09-11T06:48:31Z</time>
      </trkpt>
      <trkpt lat="45.94928" lon="4.6469">
        <ele>286.397369</ele>
        <time>2016-09-11T06:48:33Z</time>
      </trkpt>
      <trkpt lat="45.94928" lon="4.64677">
        <ele>286.152466</ele>
        <time>2016-09-11T06:48:35Z</time>
      </trkpt>
      <trkpt lat="45.94928" lon="4.64664">
        <ele>285.964996</ele>
        <time>2016-09-11T06:48:37Z</time>
      </trkpt>
      <trkpt lat="45.94928" lon="4.64651">
        <ele>286.396759</ele>
        <time>2016-09-11T06:48:39Z</time>
      </trkpt>
      <trkpt lat="45.94928" lon="4.64639">
        <ele>286.3797</ele>
        <time>2016-09-11T06:48:41Z</time>
      </trkpt>
      <trkpt lat="45.9493" lon="4.64627">
        <ele>286.381836</ele>
        <time>2016-09-11T06:48:43Z</time>
      </trkpt>
      <trkpt lat="45.94931" lon="4.64616">
        <ele>286.663696</ele>
        <time>2016-09-11T06:48:45Z</time>
      </trkpt>
      <trkpt lat="45.94934" lon="4.64607">
        <ele>287.008514</ele>
        <time>2016-09-11T06:48:47Z</time>
      </trkpt>
      <trkpt lat="45.94939" lon="4.64602">
        <ele>287.306488</ele>
        <time>2016-09-11T06:48:49Z</time>
      </trkpt>
      <trkpt lat="45.94945" lon="4.64601">
        <ele>287.451294</ele>
        <time>2016-09-11T06:48:51Z</time>
      </trkpt>
      <trkpt lat="45.94951" lon="4.64601">
        <ele>287.800995</ele>
        <time>2016-09-11T06:48:53Z</time>
      </trkpt>
      <trkpt lat="45.94958" lon="4.64601">
        <ele>287.96283</ele>
        <time>2016-09-11T06:48:55Z</time>
      </trkpt>
      <trkpt lat="45.94964" lon="4.64601">
        <ele>288.37323</ele>
        <time>2016-09-11T06:48:57Z</time>
      </trkpt>
      <trkpt lat="45.9497" lon="4.646">
        <ele>288.362823</ele>
        <time>2016-09-11T06:48:59Z</time>
      </trkpt>
      <trkpt lat="45.94976" lon="4.64599">
        <ele>288.326355</ele>
        <time>2016-09-11T06:49:01Z</time>
      </trkpt>
      <trkpt lat="45.94981" lon="4.64597">
        <ele>288.4328</ele>
        <time>2016-09-11T06:49:03Z</time>
      </trkpt>
      <trkpt lat="45.94986" lon="4.64592">
        <ele>288.307739</ele>
        <time>2016-09-11T06:49:05Z</time>
      </trkpt>
      <trkpt lat="45.9499" lon="4.64585">
        <ele>288.801941</ele>
        <time>2016-09-11T06:49:07Z</time>
      </trkpt>
      <trkpt lat="45.94991" lon="4.64576">
        <ele>288.85083</ele>
        <time>2016-09-11T06:49:09Z</time>
      </trkpt>
      <trkpt lat="45.9499" lon="4.64568">
        <ele>289.362122</ele>
        <time>2016-09-11T06:49:11Z</time>
      </trkpt>
      <trkpt lat="45.94989" lon="4.64559">
        <ele>289.600647</ele>
        <time>2016-09-11T06:49:13Z</time>
      </trkpt>
      <trkpt lat="45.94988" lon="4.6455">
        <ele>289.790222</ele>
        <time>2016-09-11T06:49:15Z</time>
      </trkpt>
      <trkpt lat="45.94988" lon="4.64542">
        <ele>290.177063</ele>
        <time>2016-09-11T06:49:17Z</time>
      </trkpt>
      <trkpt lat="45.94986" lon="4.64533">
        <ele>290.592316</ele>
        <time>2016-09-11T06:49:19Z</time>
      </trkpt>
      <trkpt lat="45.94986" lon="4.64524">
        <ele>290.874939</ele>
        <time>2016-09-11T06:49:21Z</time>
      </trkpt>
      <trkpt lat="45.94986" lon="4.64515">
        <ele>291.158264</ele>
        <time>2016-09-11T06:49:23Z</time>
      </trkpt>
      <trkpt lat="45.94986" lon="4.64506">
        <ele>291.589539</ele>
        <time>2016-09-11T06:49:25Z</time>
      </trkpt>
      <trkpt lat="45.94986" lon="4.64497">
        <ele>291.883148</ele>
        <time>2016-09-11T06:49:27Z</time>
      </trkpt>
      <trkpt lat="45.94985" lon="4.64489">
        <ele>292.498901</ele>
        <time>2016-09-11T06:49:29Z</time>
      </trkpt>
      <trkpt lat="45.94985" lon="4.6448">
        <ele>292.886536</ele>
        <time>2016-09-11T06:49:31Z</time>
      </trkpt>
      <trkpt lat="45.94985" lon="4.64472">
        <ele>293.118103</ele>
        <time>2016-09-11T06:49:33Z</time>
      </trkpt>
      <trkpt lat="45.94985" lon="4.64463">
        <ele>293.275757</ele>
        <time>2016-09-11T06:49:35Z</time>
      </trkpt>
      <trkpt lat="45.94986" lon="4.64455">
        <ele>293.883362</ele>
        <time>2016-09-11T06:49:37Z</time>
      </trkpt>
      <trkpt lat="45.94986" lon="4.64446">
        <ele>294.122192</ele>
        <time>2016-09-11T06:49:39Z</time>
      </trkpt>
      <trkpt lat="45.94986" lon="4.64437">
        <ele>294.838806</ele>
        <time>2016-09-11T06:49:41Z</time>
      </trkpt>
      <trkpt lat="45.94986" lon="4.64428">
        <ele>295.403503</ele>
        <time>2016-09-11T06:49:43Z</time>
      </trkpt>
      <trkpt lat="45.94987" lon="4.64419">
        <ele>295.76355</ele>
        <time>2016-09-11T06:49:45Z</time>
      </trkpt>
      <trkpt lat="45.94988" lon="4.64409">
        <ele>296.033508</ele>
        <time>2016-09-11T06:49:47Z</time>
      </trkpt>
      <trkpt lat="45.94989" lon="4.644">
        <ele>295.846008</ele>
        <time>2016-09-11T06:49:49Z</time>
      </trkpt>
      <trkpt lat="45.9499" lon="4.64392">
        <ele>296.103821</ele>
        <time>2016-09-11T06:49:51Z</time>
      </trkpt>
      <trkpt lat="45.94992" lon="4.64383">
        <ele>296.133667</ele>
        <time>2016-09-11T06:49:53Z</time>
      </trkpt>
      <trkpt lat="45.94993" lon="4.64374">
        <ele>296.365936</ele>
        <time>2016-09-11T06:49:55Z</time>
      </trkpt>
      <trkpt lat="45.94994" lon="4.64365">
        <ele>296.626587</ele>
        <time>2016-09-11T06:49:57Z</time>
      </trkpt>
      <trkpt lat="45.94994" lon="4.64355">
        <ele>297.031555</ele>
        <time>2016-09-11T06:49:59Z</time>
      </trkpt>
      <trkpt lat="45.94994" lon="4.64346">
        <ele>297.628357</ele>
        <time>2016-09-11T06:50:01Z</time>
      </trkpt>
      <trkpt lat="45.94994" lon="4.64337">
        <ele>298.043915</ele>
        <time>2016-09-11T06:50:03Z</time>
      </trkpt>
      <trkpt lat="45.94993" lon="4.64327">
        <ele>298.350861</ele>
        <time>2016-09-11T06:50:05Z</time>
      </trkpt>
      <trkpt lat="45.94993" lon="4.64318">
        <ele>298.552216</ele>
        <time>2016-09-11T06:50:07Z</time>
      </trkpt>
      <trkpt lat="45.94993" lon="4.6431">
        <ele>299.109863</ele>
        <time>2016-09-11T06:50:09Z</time>
      </trkpt>
      <trkpt lat="45.94993" lon="4.64301">
        <ele>298.954315</ele>
        <time>2016-09-11T06:50:11Z</time>
      </trkpt>
      <trkpt lat="45.94993" lon="4.64292">
        <ele>299.303894</ele>
        <time>2016-09-11T06:50:13Z</time>
      </trkpt>
      <trkpt lat="45.94993" lon="4.64283">
        <ele>299.627869</ele>
        <time>2016-09-11T06:50:15Z</time>
      </trkpt>
      <trkpt lat="45.94993" lon="4.64275">
        <ele>299.94696</ele>
        <time>2016-09-11T06:50:17Z</time>
      </trkpt>
      <trkpt lat="45.94992" lon="4.64267">
        <ele>300.125824</ele>
        <time>2016-09-11T06:50:19Z</time>
      </trkpt>
      <trkpt lat="45.94992" lon="4.64258">
        <ele>300.26651</ele>
        <time>2016-09-11T06:50:21Z</time>
      </trkpt>
      <trkpt lat="45.94991" lon="4.64249">
        <ele>300.70575</ele>
        <time>2016-09-11T06:50:23Z</time>
      </trkpt>
      <trkpt lat="45.94991" lon="4.64241">
        <ele>300.884827</ele>
        <time>2016-09-11T06:50:25Z</time>
      </trkpt>
      <trkpt lat="45.9499" lon="4.64231">
        <ele>301.027649</ele>
        <time>2016-09-11T06:50:27Z</time>
      </trkpt>
      <trkpt lat="45.9499" lon="4.6422">
        <ele>301.181763</ele>
        <time>2016-09-11T06:50:29Z</time>
      </trkpt>
      <trkpt lat="45.9499" lon="4.64211">
        <ele>301.799927</ele>
        <time>2016-09-11T06:50:31Z</time>
      </trkpt>
      <trkpt lat="45.94989" lon="4.64201">
        <ele>302.038666</ele>
        <time>2016-09-11T06:50:33Z</time>
      </trkpt>
      <trkpt lat="45.94988" lon="4.64191">
        <ele>302.410217</ele>
        <time>2016-09-11T06:50:35Z</time>
      </trkpt>
      <trkpt lat="45.94987" lon="4.6418">
        <ele>302.629761</ele>
        <time>2016-09-11T06:50:37Z</time>
      </trkpt>
      <trkpt lat="45.94987" lon="4.6417">
        <ele>302.727844</ele>
        <time>2016-09-11T06:50:39Z</time>
      </trkpt>
      <trkpt lat="45.94986" lon="4.6416">
        <ele>302.798157</ele>
        <time>2016-09-11T06:50:41Z</time>
      </trkpt>
      <trkpt lat="45.94986" lon="4.6415">
        <ele>302.614746</ele>
        <time>2016-09-11T06:50:43Z</time>
      </trkpt>
      <trkpt lat="45.94986" lon="4.6414">
        <ele>302.791718</ele>
        <time>2016-09-11T06:50:45Z</time>
      </trkpt>
      <trkpt lat="45.94986" lon="4.6413">
        <ele>302.977234</ele>
        <time>2016-09-11T06:50:47Z</time>
      </trkpt>
      <trkpt lat="45.94986" lon="4.64119">
        <ele>303.111572</ele>
        <time>2016-09-11T06:50:49Z</time>
      </trkpt>
      <trkpt lat="45.94987" lon="4.64109">
        <ele>303.653137</ele>
        <time>2016-09-11T06:50:51Z</time>
      </trkpt>
      <trkpt lat="45.94987" lon="4.64098">
        <ele>303.755493</ele>
        <time>2016-09-11T06:50:53Z</time>
      </trkpt>
      <trkpt lat="45.94987" lon="4.64088">
        <ele>303.689423</ele>
        <time>2016-09-11T06:50:55Z</time>
      </trkpt>
      <trkpt lat="45.94987" lon="4.64077">
        <ele>303.802246</ele>
        <time>2016-09-11T06:50:57Z</time>
      </trkpt>
      <trkpt lat="45.94987" lon="4.64066">
        <ele>303.934479</ele>
        <time>2016-09-11T06:50:59Z</time>
      </trkpt>
      <trkpt lat="45.94987" lon="4.64054">
        <ele>304.079163</ele>
        <time>2016-09-11T06:51:01Z</time>
      </trkpt>
      <trkpt lat="45.94987" lon="4.64043">
        <ele>304.30307</ele>
        <time>2016-09-11T06:51:03Z</time>
      </trkpt>
      <trkpt lat="45.94987" lon="4.64032">
        <ele>304.260437</ele>
        <time>2016-09-11T06:51:05Z</time>
      </trkpt>
      <trkpt lat="45.94987" lon="4.64022">
        <ele>305.009064</ele>
        <time>2016-09-11T06:51:07Z</time>
      </trkpt>
      <trkpt lat="45.94986" lon="4.64013">
        <ele>305.358826</ele>
        <time>2016-09-11T06:51:09Z</time>
      </trkpt>
      <trkpt lat="45.94986" lon="4.64003">
        <ele>305.687347</ele>
        <time>2016-09-11T06:51:11Z</time>
      </trkpt>
      <trkpt lat="45.94986" lon="4.63993">
        <ele>305.730042</ele>
        <time>2016-09-11T06:51:13Z</time>
      </trkpt>
      <trkpt lat="45.94986" lon="4.63985">
        <ele>306.19873</ele>
        <time>2016-09-11T06:51:15Z</time>
      </trkpt>
      <trkpt lat="45.94986" lon="4.63976">
        <ele>306.467529</ele>
        <time>2016-09-11T06:51:17Z</time>
      </trkpt>
      <trkpt lat="45.94986" lon="4.63967">
        <ele>306.738403</ele>
        <time>2016-09-11T06:51:19Z</time>
      </trkpt>
      <trkpt lat="45.94986" lon="4.63959">
        <ele>307.036987</ele>
        <time>2016-09-11T06:51:21Z</time>
      </trkpt>
      <trkpt lat="45.94986" lon="4.6395">
        <ele>307.207611</ele>
        <time>2016-09-11T06:51:23Z</time>
      </trkpt>
      <trkpt lat="45.94986" lon="4.63941">
        <ele>307.71991</ele>
        <time>2016-09-11T06:51:25Z</time>
      </trkpt>
      <trkpt lat="45.94986" lon="4.63932">
        <ele>308.035675</ele>
        <time>2016-09-11T06:51:27Z</time>
      </trkpt>
      <trkpt lat="45.94986" lon="4.63923">
        <ele>308.234039</ele>
        <time>2016-09-11T06:51:29Z</time>
      </trkpt>
      <trkpt lat="45.94986" lon="4.63914">
        <ele>308.391907</ele>
        <time>2016-09-11T06:51:31Z</time>
      </trkpt>
      <trkpt lat="45.94986" lon="4.63905">
        <ele>308.499329</ele>
        <time>2016-09-11T06:51:33Z</time>
      </trkpt>
      <trkpt lat="45.94985" lon="4.63897">
        <ele>308.638</ele>
        <time>2016-09-11T06:51:35Z</time>
      </trkpt>
      <trkpt lat="45.94985" lon="4.63888">
        <ele>309.084534</ele>
        <time>2016-09-11T06:51:37Z</time>
      </trkpt>
      <trkpt lat="45.94985" lon="4.6388">
        <ele>309.415405</ele>
        <time>2016-09-11T06:51:39Z</time>
      </trkpt>
      <trkpt lat="45.94984" lon="4.63871">
        <ele>309.758667</ele>
        <time>2016-09-11T06:51:41Z</time>
      </trkpt>
      <trkpt lat="45.94984" lon="4.63862">
        <ele>310.12558</ele>
        <time>2016-09-11T06:51:43Z</time>
      </trkpt>
      <trkpt lat="45.94984" lon="4.63853">
        <ele>310.426392</ele>
        <time>2016-09-11T06:51:45Z</time>
      </trkpt>
      <trkpt lat="45.94984" lon="4.63844">
        <ele>310.464081</ele>
        <time>2016-09-11T06:51:47Z</time>
      </trkpt>
      <trkpt lat="45.94984" lon="4.63835">
        <ele>310.630554</ele>
        <time>2016-09-11T06:51:49Z</time>
      </trkpt>
      <trkpt lat="45.94983" lon="4.63826">
        <ele>310.502136</ele>
        <time>2016-09-11T06:51:51Z</time>
      </trkpt>
      <trkpt lat="45.94983" lon="4.63817">
        <ele>310.790192</ele>
        <time>2016-09-11T06:51:53Z</time>
      </trkpt>
      <trkpt lat="45.94983" lon="4.63809">
        <ele>310.8414</ele>
        <time>2016-09-11T06:51:55Z</time>
      </trkpt>
      <trkpt lat="45.94983" lon="4.638">
        <ele>311.048401</ele>
        <time>2016-09-11T06:51:57Z</time>
      </trkpt>
      <trkpt lat="45.94983" lon="4.63791">
        <ele>311.148743</ele>
        <time>2016-09-11T06:51:59Z</time>
      </trkpt>
      <trkpt lat="45.94983" lon="4.63783">
        <ele>311.443512</ele>
        <time>2016-09-11T06:52:01Z</time>
      </trkpt>
      <trkpt lat="45.94983" lon="4.63775">
        <ele>311.772156</ele>
        <time>2016-09-11T06:52:03Z</time>
      </trkpt>
      <trkpt lat="45.94981" lon="4.6377">
        <ele>311.98941</ele>
        <time>2016-09-11T06:52:05Z</time>
      </trkpt>
      <trkpt lat="45.9498" lon="4.63766">
        <ele>312.130249</ele>
        <time>2016-09-11T06:52:07Z</time>
      </trkpt>
      <trkpt lat="45.94981" lon="4.63761">
        <ele>312.418335</ele>
        <time>2016-09-11T06:52:09Z</time>
      </trkpt>
      <trkpt lat="45.94981" lon="4.63754">
        <ele>312.759766</ele>
        <time>2016-09-11T06:52:11Z</time>
      </trkpt>
      <trkpt lat="45.94981" lon="4.63746">
        <ele>312.837524</ele>
        <time>2016-09-11T06:52:13Z</time>
      </trkpt>
      <trkpt lat="45.94981" lon="4.63738">
        <ele>312.997589</ele>
        <time>2016-09-11T06:52:15Z</time>
      </trkpt>
      <trkpt lat="45.94981" lon="4.63731">
        <ele>313.417999</ele>
        <time>2016-09-11T06:52:17Z</time>
      </trkpt>
      <trkpt lat="45.94981" lon="4.63724">
        <ele>313.728821</ele>
        <time>2016-09-11T06:52:19Z</time>
      </trkpt>
      <trkpt lat="45.94981" lon="4.63717">
        <ele>313.775787</ele>
        <time>2016-09-11T06:52:21Z</time>
      </trkpt>
      <trkpt lat="45.94981" lon="4.6371">
        <ele>313.874451</ele>
        <time>2016-09-11T06:52:23Z</time>
      </trkpt>
      <trkpt lat="45.94981" lon="4.63703">
        <ele>314.068695</ele>
        <time>2016-09-11T06:52:25Z</time>
      </trkpt>
      <trkpt lat="45.94981" lon="4.63697">
        <ele>314.446594</ele>
        <time>2016-09-11T06:52:27Z</time>
      </trkpt>
      <trkpt lat="45.94981" lon="4.6369">
        <ele>314.773865</ele>
        <time>2016-09-11T06:52:29Z</time>
      </trkpt>
      <trkpt lat="45.94981" lon="4.63684">
        <ele>314.953217</ele>
        <time>2016-09-11T06:52:31Z</time>
      </trkpt>
      <trkpt lat="45.94981" lon="4.63677">
        <ele>315.421051</ele>
        <time>2016-09-11T06:52:33Z</time>
      </trkpt>
      <trkpt lat="45.94981" lon="4.63671">
        <ele>315.816071</ele>
        <time>2016-09-11T06:52:35Z</time>
      </trkpt>
      <trkpt lat="45.94981" lon="4.63664">
        <ele>316.144775</ele>
        <time>2016-09-11T06:52:37Z</time>
      </trkpt>
      <trkpt lat="45.9498" lon="4.63658">
        <ele>316.524902</ele>
        <time>2016-09-11T06:52:39Z</time>
      </trkpt>
      <trkpt lat="45.9498" lon="4.63652">
        <ele>316.902435</ele>
        <time>2016-09-11T06:52:41Z</time>
      </trkpt>
      <trkpt lat="45.9498" lon="4.63647">
        <ele>317.376465</ele>
        <time>2016-09-11T06:52:43Z</time>
      </trkpt>
      <trkpt lat="45.94979" lon="4.63641">
        <ele>317.587891</ele>
        <time>2016-09-11T06:52:45Z</time>
      </trkpt>
      <trkpt lat="45.94979" lon="4.63636">
        <ele>318.021393</ele>
        <time>2016-09-11T06:52:47Z</time>
      </trkpt>
      <trkpt lat="45.94978" lon="4.63631">
        <ele>318.331055</ele>
        <time>2016-09-11T06:52:49Z</time>
      </trkpt>
      <trkpt lat="45.94978" lon="4.63626">
        <ele>318.548828</ele>
        <time>2016-09-11T06:52:51Z</time>
      </trkpt>
      <trkpt lat="45.94978" lon="4.63621">
        <ele>318.986664</ele>
        <time>2016-09-11T06:52:53Z</time>
      </trkpt>
      <trkpt lat="45.94977" lon="4.63616">
        <ele>319.597839</ele>
        <time>2016-09-11T06:52:55Z</time>
      </trkpt>
      <trkpt lat="45.94977" lon="4.63611">
        <ele>320.127441</ele>
        <time>2016-09-11T06:52:57Z</time>
      </trkpt>
      <trkpt lat="45.94977" lon="4.63605">
        <ele>320.565277</ele>
        <time>2016-09-11T06:52:59Z</time>
      </trkpt>
      <trkpt lat="45.94977" lon="4.636">
        <ele>320.966827</ele>
        <time>2016-09-11T06:53:01Z</time>
      </trkpt>
      <trkpt lat="45.94977" lon="4.63595">
        <ele>321.453918</ele>
        <time>2016-09-11T06:53:03Z</time>
      </trkpt>
      <trkpt lat="45.94977" lon="4.6359">
        <ele>321.898926</ele>
        <time>2016-09-11T06:53:05Z</time>
      </trkpt>
      <trkpt lat="45.94976" lon="4.63577">
        <ele>322.167328</ele>
        <time>2016-09-11T06:53:10Z</time>
      </trkpt>
      <trkpt lat="45.94976" lon="4.63572">
        <ele>322.350494</ele>
        <time>2016-09-11T06:53:12Z</time>
      </trkpt>
      <trkpt lat="45.94976" lon="4.63567">
        <ele>322.647919</ele>
        <time>2016-09-11T06:53:14Z</time>
      </trkpt>
      <trkpt lat="45.94976" lon="4.63562">
        <ele>323.190308</ele>
        <time>2016-09-11T06:53:16Z</time>
      </trkpt>
      <trkpt lat="45.94976" lon="4.63557">
        <ele>323.865417</ele>
        <time>2016-09-11T06:53:18Z</time>
      </trkpt>
      <trkpt lat="45.94976" lon="4.63552">
        <ele>324.148224</ele>
        <time>2016-09-11T06:53:20Z</time>
      </trkpt>
      <trkpt lat="45.94975" lon="4.63547">
        <ele>324.714752</ele>
        <time>2016-09-11T06:53:22Z</time>
      </trkpt>
      <trkpt lat="45.94975" lon="4.63542">
        <ele>325.272491</ele>
        <time>2016-09-11T06:53:24Z</time>
      </trkpt>
      <trkpt lat="45.94975" lon="4.63536">
        <ele>325.695618</ele>
        <time>2016-09-11T06:53:26Z</time>
      </trkpt>
      <trkpt lat="45.94975" lon="4.63531">
        <ele>326.231995</ele>
        <time>2016-09-11T06:53:28Z</time>
      </trkpt>
      <trkpt lat="45.94975" lon="4.63526">
        <ele>326.702179</ele>
        <time>2016-09-11T06:53:30Z</time>
      </trkpt>
      <trkpt lat="45.94975" lon="4.63521">
        <ele>327.189423</ele>
        <time>2016-09-11T06:53:32Z</time>
      </trkpt>
      <trkpt lat="45.94975" lon="4.63516">
        <ele>327.428802</ele>
        <time>2016-09-11T06:53:34Z</time>
      </trkpt>
      <trkpt lat="45.94975" lon="4.6351">
        <ele>327.980347</ele>
        <time>2016-09-11T06:53:36Z</time>
      </trkpt>
      <trkpt lat="45.94974" lon="4.63506">
        <ele>328.49762</ele>
        <time>2016-09-11T06:53:38Z</time>
      </trkpt>
      <trkpt lat="45.94976" lon="4.63504">
        <ele>328.982849</ele>
        <time>2016-09-11T06:53:40Z</time>
      </trkpt>
      <trkpt lat="45.94979" lon="4.63504">
        <ele>329.35907</ele>
        <time>2016-09-11T06:53:42Z</time>
      </trkpt>
      <trkpt lat="45.94984" lon="4.63505">
        <ele>329.897705</ele>
        <time>2016-09-11T06:53:44Z</time>
      </trkpt>
      <trkpt lat="45.94989" lon="4.63506">
        <ele>330.246185</ele>
        <time>2016-09-11T06:53:46Z</time>
      </trkpt>
      <trkpt lat="45.94995" lon="4.63506">
        <ele>330.667358</ele>
        <time>2016-09-11T06:53:48Z</time>
      </trkpt>
      <trkpt lat="45.95001" lon="4.63507">
        <ele>331.08847</ele>
        <time>2016-09-11T06:53:50Z</time>
      </trkpt>
      <trkpt lat="45.95008" lon="4.63508">
        <ele>331.389801</ele>
        <time>2016-09-11T06:53:52Z</time>
      </trkpt>
      <trkpt lat="45.95015" lon="4.63509">
        <ele>331.711029</ele>
        <time>2016-09-11T06:53:54Z</time>
      </trkpt>
      <trkpt lat="45.95022" lon="4.63509">
        <ele>331.985992</ele>
        <time>2016-09-11T06:53:56Z</time>
      </trkpt>
      <trkpt lat="45.95029" lon="4.63511">
        <ele>332.163635</ele>
        <time>2016-09-11T06:53:58Z</time>
      </trkpt>
      <trkpt lat="45.95035" lon="4.63511">
        <ele>332.360352</ele>
        <time>2016-09-11T06:54:00Z</time>
      </trkpt>
      <trkpt lat="45.95042" lon="4.63512">
        <ele>332.615875</ele>
        <time>2016-09-11T06:54:02Z</time>
      </trkpt>
      <trkpt lat="45.95049" lon="4.63512">
        <ele>332.728485</ele>
        <time>2016-09-11T06:54:04Z</time>
      </trkpt>
      <trkpt lat="45.95056" lon="4.63513">
        <ele>332.953033</ele>
        <time>2016-09-11T06:54:06Z</time>
      </trkpt>
      <trkpt lat="45.95064" lon="4.63514">
        <ele>332.957306</ele>
        <time>2016-09-11T06:54:08Z</time>
      </trkpt>
      <trkpt lat="45.9507" lon="4.63516">
        <ele>333.104675</ele>
        <time>2016-09-11T06:54:10Z</time>
      </trkpt>
      <trkpt lat="45.95078" lon="4.63517">
        <ele>333.072601</ele>
        <time>2016-09-11T06:54:12Z</time>
      </trkpt>
      <trkpt lat="45.95085" lon="4.63519">
        <ele>333.249573</ele>
        <time>2016-09-11T06:54:14Z</time>
      </trkpt>
      <trkpt lat="45.95094" lon="4.63521">
        <ele>333.290863</ele>
        <time>2016-09-11T06:54:16Z</time>
      </trkpt>
      <trkpt lat="45.95102" lon="4.63525">
        <ele>333.260681</ele>
        <time>2016-09-11T06:54:18Z</time>
      </trkpt>
      <trkpt lat="45.95112" lon="4.63527">
        <ele>333.160217</ele>
        <time>2016-09-11T06:54:20Z</time>
      </trkpt>
      <trkpt lat="45.95121" lon="4.63529">
        <ele>333.179474</ele>
        <time>2016-09-11T06:54:22Z</time>
      </trkpt>
      <trkpt lat="45.9513" lon="4.6353">
        <ele>333.123871</ele>
        <time>2016-09-11T06:54:24Z</time>
      </trkpt>
      <trkpt lat="45.9514" lon="4.63531">
        <ele>333.115295</ele>
        <time>2016-09-11T06:54:26Z</time>
      </trkpt>
      <trkpt lat="45.9515" lon="4.6353">
        <ele>332.954895</ele>
        <time>2016-09-11T06:54:28Z</time>
      </trkpt>
      <trkpt lat="45.95161" lon="4.63531">
        <ele>332.98056</ele>
        <time>2016-09-11T06:54:30Z</time>
      </trkpt>
      <trkpt lat="45.95171" lon="4.63531">
        <ele>332.944214</ele>
        <time>2016-09-11T06:54:32Z</time>
      </trkpt>
      <trkpt lat="45.95181" lon="4.63531">
        <ele>333.006226</ele>
        <time>2016-09-11T06:54:34Z</time>
      </trkpt>
      <trkpt lat="45.95192" lon="4.63532">
        <ele>333.061188</ele>
        <time>2016-09-11T06:54:36Z</time>
      </trkpt>
      <trkpt lat="45.95202" lon="4.63532">
        <ele>333.048737</ele>
        <time>2016-09-11T06:54:38Z</time>
      </trkpt>
      <trkpt lat="45.95213" lon="4.63534">
        <ele>333.044983</ele>
        <time>2016-09-11T06:54:40Z</time>
      </trkpt>
      <trkpt lat="45.95224" lon="4.63535">
        <ele>332.963715</ele>
        <time>2016-09-11T06:54:42Z</time>
      </trkpt>
      <trkpt lat="45.95235" lon="4.63536">
        <ele>332.950378</ele>
        <time>2016-09-11T06:54:44Z</time>
      </trkpt>
      <trkpt lat="45.95245" lon="4.63537">
        <ele>332.842957</ele>
        <time>2016-09-11T06:54:46Z</time>
      </trkpt>
      <trkpt lat="45.95256" lon="4.63538">
        <ele>332.759552</ele>
        <time>2016-09-11T06:54:48Z</time>
      </trkpt>
      <trkpt lat="45.95266" lon="4.63538">
        <ele>332.627136</ele>
        <time>2016-09-11T06:54:50Z</time>
      </trkpt>
      <trkpt lat="45.95275" lon="4.63538">
        <ele>332.621887</ele>
        <time>2016-09-11T06:54:52Z</time>
      </trkpt>
      <trkpt lat="45.95285" lon="4.63538">
        <ele>332.539063</ele>
        <time>2016-09-11T06:54:54Z</time>
      </trkpt>
      <trkpt lat="45.95295" lon="4.63542">
        <ele>332.237579</ele>
        <time>2016-09-11T06:54:56Z</time>
      </trkpt>
      <trkpt lat="45.95303" lon="4.63552">
        <ele>332.172607</ele>
        <time>2016-09-11T06:54:58Z</time>
      </trkpt>
      <trkpt lat="45.95312" lon="4.63565">
        <ele>332.119385</ele>
        <time>2016-09-11T06:55:00Z</time>
      </trkpt>
      <trkpt lat="45.95321" lon="4.63579">
        <ele>332.114502</ele>
        <time>2016-09-11T06:55:02Z</time>
      </trkpt>
      <trkpt lat="45.95331" lon="4.63593">
        <ele>331.864319</ele>
        <time>2016-09-11T06:55:04Z</time>
      </trkpt>
      <trkpt lat="45.95341" lon="4.63608">
        <ele>331.768127</ele>
        <time>2016-09-11T06:55:06Z</time>
      </trkpt>
      <trkpt lat="45.95352" lon="4.63622">
        <ele>331.542267</ele>
        <time>2016-09-11T06:55:08Z</time>
      </trkpt>
      <trkpt lat="45.95363" lon="4.63634">
        <ele>331.332214</ele>
        <time>2016-09-11T06:55:10Z</time>
      </trkpt>
      <trkpt lat="45.9537" lon="4.63643">
        <ele>330.96405</ele>
        <time>2016-09-11T06:55:12Z</time>
      </trkpt>
      <trkpt lat="45.9538" lon="4.63648">
        <ele>330.613525</ele>
        <time>2016-09-11T06:55:14Z</time>
      </trkpt>
      <trkpt lat="45.95391" lon="4.63654">
        <ele>330.368286</ele>
        <time>2016-09-11T06:55:16Z</time>
      </trkpt>
      <trkpt lat="45.95399" lon="4.63668">
        <ele>329.814667</ele>
        <time>2016-09-11T06:55:18Z</time>
      </trkpt>
      <trkpt lat="45.95404" lon="4.63687">
        <ele>329.4086</ele>
        <time>2016-09-11T06:55:20Z</time>
      </trkpt>
      <trkpt lat="45.95409" lon="4.63701">
        <ele>328.799072</ele>
        <time>2016-09-11T06:55:22Z</time>
      </trkpt>
      <trkpt lat="45.95413" lon="4.63706">
        <ele>328.236938</ele>
        <time>2016-09-11T06:55:24Z</time>
      </trkpt>
      <trkpt lat="45.95417" lon="4.63701">
        <ele>327.993835</ele>
        <time>2016-09-11T06:55:26Z</time>
      </trkpt>
      <trkpt lat="45.95417" lon="4.63692">
        <ele>327.460358</ele>
        <time>2016-09-11T06:55:28Z</time>
      </trkpt>
      <trkpt lat="45.95418" lon="4.63681">
        <ele>326.925995</ele>
        <time>2016-09-11T06:55:30Z</time>
      </trkpt>
      <trkpt lat="45.9542" lon="4.6367">
        <ele>326.413147</ele>
        <time>2016-09-11T06:55:32Z</time>
      </trkpt>
      <trkpt lat="45.95423" lon="4.63657">
        <ele>325.948181</ele>
        <time>2016-09-11T06:55:34Z</time>
      </trkpt>
      <trkpt lat="45.95427" lon="4.63644">
        <ele>325.465637</ele>
        <time>2016-09-11T06:55:36Z</time>
      </trkpt>
      <trkpt lat="45.95432" lon="4.63633">
        <ele>325.235107</ele>
        <time>2016-09-11T06:55:38Z</time>
      </trkpt>
      <trkpt lat="45.95438" lon="4.63621">
        <ele>324.702942</ele>
        <time>2016-09-11T06:55:40Z</time>
      </trkpt>
      <trkpt lat="45.95442" lon="4.6361">
        <ele>324.247345</ele>
        <time>2016-09-11T06:55:42Z</time>
      </trkpt>
      <trkpt lat="45.95448" lon="4.63602">
        <ele>323.988739</ele>
        <time>2016-09-11T06:55:44Z</time>
      </trkpt>
      <trkpt lat="45.95453" lon="4.63595">
        <ele>323.657501</ele>
        <time>2016-09-11T06:55:46Z</time>
      </trkpt>
      <trkpt lat="45.95459" lon="4.63588">
        <ele>323.490784</ele>
        <time>2016-09-11T06:55:48Z</time>
      </trkpt>
      <trkpt lat="45.95464" lon="4.6358">
        <ele>323.421692</ele>
        <time>2016-09-11T06:55:50Z</time>
      </trkpt>
      <trkpt lat="45.9547" lon="4.63572">
        <ele>323.140106</ele>
        <time>2016-09-11T06:55:52Z</time>
      </trkpt>
      <trkpt lat="45.95477" lon="4.63564">
        <ele>322.84787</ele>
        <time>2016-09-11T06:55:54Z</time>
      </trkpt>
      <trkpt lat="45.95484" lon="4.63555">
        <ele>322.812408</ele>
        <time>2016-09-11T06:55:56Z</time>
      </trkpt>
      <trkpt lat="45.9549" lon="4.63547">
        <ele>322.643585</ele>
        <time>2016-09-11T06:55:58Z</time>
      </trkpt>
      <trkpt lat="45.95495" lon="4.63543">
        <ele>322.690613</ele>
        <time>2016-09-11T06:56:00Z</time>
      </trkpt>
      <trkpt lat="45.95499" lon="4.63539">
        <ele>322.744019</ele>
        <time>2016-09-11T06:56:02Z</time>
      </trkpt>
      <trkpt lat="45.95508" lon="4.6353">
        <ele>323.075256</ele>
        <time>2016-09-11T06:56:04Z</time>
      </trkpt>
      <trkpt lat="45.95517" lon="4.6352">
        <ele>323.15387</ele>
        <time>2016-09-11T06:56:06Z</time>
      </trkpt>
      <trkpt lat="45.95526" lon="4.63508">
        <ele>323.092865</ele>
        <time>2016-09-11T06:56:08Z</time>
      </trkpt>
      <trkpt lat="45.95533" lon="4.63496">
        <ele>323.114105</ele>
        <time>2016-09-11T06:56:10Z</time>
      </trkpt>
      <trkpt lat="45.95539" lon="4.63485">
        <ele>322.78125</ele>
        <time>2016-09-11T06:56:12Z</time>
      </trkpt>
      <trkpt lat="45.95544" lon="4.63474">
        <ele>322.708618</ele>
        <time>2016-09-11T06:56:14Z</time>
      </trkpt>
      <trkpt lat="45.95549" lon="4.63463">
        <ele>322.674438</ele>
        <time>2016-09-11T06:56:16Z</time>
      </trkpt>
      <trkpt lat="45.95555" lon="4.63449">
        <ele>322.706116</ele>
        <time>2016-09-11T06:56:18Z</time>
      </trkpt>
      <trkpt lat="45.95562" lon="4.63434">
        <ele>322.609772</ele>
        <time>2016-09-11T06:56:20Z</time>
      </trkpt>
      <trkpt lat="45.95568" lon="4.63419">
        <ele>321.756165</ele>
        <time>2016-09-11T06:56:22Z</time>
      </trkpt>
      <trkpt lat="45.95573" lon="4.63404">
        <ele>321.592865</ele>
        <time>2016-09-11T06:56:24Z</time>
      </trkpt>
      <trkpt lat="45.95578" lon="4.63391">
        <ele>321.127258</ele>
        <time>2016-09-11T06:56:26Z</time>
      </trkpt>
      <trkpt lat="45.95582" lon="4.63374">
        <ele>320.52948</ele>
        <time>2016-09-11T06:56:28Z</time>
      </trkpt>
      <trkpt lat="45.95588" lon="4.63356">
        <ele>320.001892</ele>
        <time>2016-09-11T06:56:30Z</time>
      </trkpt>
      <trkpt lat="45.95594" lon="4.63342">
        <ele>318.533752</ele>
        <time>2016-09-11T06:56:32Z</time>
      </trkpt>
      <trkpt lat="45.956" lon="4.63331">
        <ele>317.379547</ele>
        <time>2016-09-11T06:56:34Z</time>
      </trkpt>
      <trkpt lat="45.95608" lon="4.63328">
        <ele>316.058289</ele>
        <time>2016-09-11T06:56:36Z</time>
      </trkpt>
      <trkpt lat="45.95618" lon="4.63331">
        <ele>314.432617</ele>
        <time>2016-09-11T06:56:38Z</time>
      </trkpt>
      <trkpt lat="45.95626" lon="4.6333">
        <ele>313.261139</ele>
        <time>2016-09-11T06:56:40Z</time>
      </trkpt>
      <trkpt lat="45.95629" lon="4.63328">
        <ele>312.431061</ele>
        <time>2016-09-11T06:56:42Z</time>
      </trkpt>
      <trkpt lat="45.95631" lon="4.63323">
        <ele>311.129974</ele>
        <time>2016-09-11T06:56:44Z</time>
      </trkpt>
      <trkpt lat="45.95632" lon="4.63318">
        <ele>306.702789</ele>
        <time>2016-09-11T06:56:50Z</time>
      </trkpt>
      <trkpt lat="45.95632" lon="4.63314">
        <ele>305.408051</ele>
        <time>2016-09-11T06:56:52Z</time>
      </trkpt>
      <trkpt lat="45.95633" lon="4.6331">
        <ele>304.45874</ele>
        <time>2016-09-11T06:56:54Z</time>
      </trkpt>
      <trkpt lat="45.95634" lon="4.63303">
        <ele>303.214935</ele>
        <time>2016-09-11T06:56:56Z</time>
      </trkpt>
      <trkpt lat="45.95635" lon="4.63295">
        <ele>301.900818</ele>
        <time>2016-09-11T06:56:58Z</time>
      </trkpt>
      <trkpt lat="45.95636" lon="4.63286">
        <ele>300.445862</ele>
        <time>2016-09-11T06:57:00Z</time>
      </trkpt>
      <trkpt lat="45.95638" lon="4.63276">
        <ele>299.507385</ele>
        <time>2016-09-11T06:57:02Z</time>
      </trkpt>
      <trkpt lat="45.95638" lon="4.63267">
        <ele>298.67569</ele>
        <time>2016-09-11T06:57:04Z</time>
      </trkpt>
      <trkpt lat="45.95641" lon="4.63257">
        <ele>297.905762</ele>
        <time>2016-09-11T06:57:06Z</time>
      </trkpt>
      <trkpt lat="45.95643" lon="4.63247">
        <ele>296.692657</ele>
        <time>2016-09-11T06:57:08Z</time>
      </trkpt>
      <trkpt lat="45.95647" lon="4.63238">
        <ele>295.773743</ele>
        <time>2016-09-11T06:57:10Z</time>
      </trkpt>
      <trkpt lat="45.9565" lon="4.63227">
        <ele>295.389954</ele>
        <time>2016-09-11T06:57:12Z</time>
      </trkpt>
      <trkpt lat="45.95652" lon="4.63217">
        <ele>295.400513</ele>
        <time>2016-09-11T06:57:14Z</time>
      </trkpt>
      <trkpt lat="45.95655" lon="4.6321">
        <ele>295.310974</ele>
        <time>2016-09-11T06:57:16Z</time>
      </trkpt>
      <trkpt lat="45.95657" lon="4.63205">
        <ele>295.338501</ele>
        <time>2016-09-11T06:57:18Z</time>
      </trkpt>
      <trkpt lat="45.9566" lon="4.63197">
        <ele>295.513214</ele>
        <time>2016-09-11T06:57:20Z</time>
      </trkpt>
      <trkpt lat="45.95661" lon="4.63189">
        <ele>295.240448</ele>
        <time>2016-09-11T06:57:22Z</time>
      </trkpt>
      <trkpt lat="45.95663" lon="4.6318">
        <ele>295.15509</ele>
        <time>2016-09-11T06:57:24Z</time>
      </trkpt>
      <trkpt lat="45.95665" lon="4.63173">
        <ele>295.059204</ele>
        <time>2016-09-11T06:57:26Z</time>
      </trkpt>
      <trkpt lat="45.95668" lon="4.63164">
        <ele>295.129517</ele>
        <time>2016-09-11T06:57:28Z</time>
      </trkpt>
      <trkpt lat="45.9567" lon="4.63155">
        <ele>295.237122</ele>
        <time>2016-09-11T06:57:30Z</time>
      </trkpt>
      <trkpt lat="45.95672" lon="4.63144">
        <ele>295.38974</ele>
        <time>2016-09-11T06:57:32Z</time>
      </trkpt>
      <trkpt lat="45.95673" lon="4.63132">
        <ele>295.419586</ele>
        <time>2016-09-11T06:57:34Z</time>
      </trkpt>
      <trkpt lat="45.95678" lon="4.63122">
        <ele>295.389587</ele>
        <time>2016-09-11T06:57:36Z</time>
      </trkpt>
      <trkpt lat="45.95685" lon="4.63118">
        <ele>295.342712</ele>
        <time>2016-09-11T06:57:38Z</time>
      </trkpt>
      <trkpt lat="45.95692" lon="4.63115">
        <ele>295.438751</ele>
        <time>2016-09-11T06:57:40Z</time>
      </trkpt>
      <trkpt lat="45.957" lon="4.63114">
        <ele>295.272461</ele>
        <time>2016-09-11T06:57:42Z</time>
      </trkpt>
      <trkpt lat="45.95709" lon="4.63114">
        <ele>295.246033</ele>
        <time>2016-09-11T06:57:44Z</time>
      </trkpt>
      <trkpt lat="45.95717" lon="4.63114">
        <ele>295.419189</ele>
        <time>2016-09-11T06:57:46Z</time>
      </trkpt>
      <trkpt lat="45.95724" lon="4.63113">
        <ele>295.3414</ele>
        <time>2016-09-11T06:57:48Z</time>
      </trkpt>
      <trkpt lat="45.9573" lon="4.63113">
        <ele>295.733398</ele>
        <time>2016-09-11T06:57:50Z</time>
      </trkpt>
      <trkpt lat="45.95735" lon="4.63113">
        <ele>295.891083</ele>
        <time>2016-09-11T06:57:52Z</time>
      </trkpt>
      <trkpt lat="45.95739" lon="4.63113">
        <ele>296.132019</ele>
        <time>2016-09-11T06:57:54Z</time>
      </trkpt>
      <trkpt lat="45.95742" lon="4.6311">
        <ele>296.285461</ele>
        <time>2016-09-11T06:57:56Z</time>
      </trkpt>
      <trkpt lat="45.95742" lon="4.63104">
        <ele>296.460236</ele>
        <time>2016-09-11T06:57:58Z</time>
      </trkpt>
      <trkpt lat="45.95739" lon="4.63096">
        <ele>296.679718</ele>
        <time>2016-09-11T06:58:00Z</time>
      </trkpt>
      <trkpt lat="45.95736" lon="4.63087">
        <ele>296.882141</ele>
        <time>2016-09-11T06:58:02Z</time>
      </trkpt>
      <trkpt lat="45.95733" lon="4.63078">
        <ele>296.992981</ele>
        <time>2016-09-11T06:58:04Z</time>
      </trkpt>
      <trkpt lat="45.95729" lon="4.63069">
        <ele>297.178955</ele>
        <time>2016-09-11T06:58:06Z</time>
      </trkpt>
      <trkpt lat="45.95726" lon="4.6306">
        <ele>297.546082</ele>
        <time>2016-09-11T06:58:08Z</time>
      </trkpt>
      <trkpt lat="45.95722" lon="4.6305">
        <ele>297.902039</ele>
        <time>2016-09-11T06:58:10Z</time>
      </trkpt>
      <trkpt lat="45.95719" lon="4.63041">
        <ele>297.881866</ele>
        <time>2016-09-11T06:58:12Z</time>
      </trkpt>
      <trkpt lat="45.95715" lon="4.63031">
        <ele>298.085144</ele>
        <time>2016-09-11T06:58:14Z</time>
      </trkpt>
      <trkpt lat="45.95711" lon="4.63022">
        <ele>298.353699</ele>
        <time>2016-09-11T06:58:16Z</time>
      </trkpt>
      <trkpt lat="45.95707" lon="4.63012">
        <ele>298.618164</ele>
        <time>2016-09-11T06:58:18Z</time>
      </trkpt>
      <trkpt lat="45.95704" lon="4.63003">
        <ele>298.918152</ele>
        <time>2016-09-11T06:58:20Z</time>
      </trkpt>
      <trkpt lat="45.95701" lon="4.62995">
        <ele>299.267548</ele>
        <time>2016-09-11T06:58:22Z</time>
      </trkpt>
      <trkpt lat="45.95702" lon="4.62989">
        <ele>299.410339</ele>
        <time>2016-09-11T06:58:24Z</time>
      </trkpt>
      <trkpt lat="45.95705" lon="4.62986">
        <ele>299.466644</ele>
        <time>2016-09-11T06:58:26Z</time>
      </trkpt>
      <trkpt lat="45.95709" lon="4.62984">
        <ele>299.725647</ele>
        <time>2016-09-11T06:58:28Z</time>
      </trkpt>
      <trkpt lat="45.95712" lon="4.62981">
        <ele>299.993134</ele>
        <time>2016-09-11T06:58:30Z</time>
      </trkpt>
      <trkpt lat="45.95715" lon="4.62978">
        <ele>299.993134</ele>
        <time>2016-09-11T06:58:32Z</time>
      </trkpt>
      <trkpt lat="45.95718" lon="4.62975">
        <ele>300.250092</ele>
        <time>2016-09-11T06:58:34Z</time>
      </trkpt>
      <trkpt lat="45.95721" lon="4.62972">
        <ele>300.34668</ele>
        <time>2016-09-11T06:58:36Z</time>
      </trkpt>
      <trkpt lat="45.95724" lon="4.6297">
        <ele>300.536407</ele>
        <time>2016-09-11T06:58:38Z</time>
      </trkpt>
      <trkpt lat="45.95726" lon="4.62967">
        <ele>300.783691</ele>
        <time>2016-09-11T06:58:40Z</time>
      </trkpt>
      <trkpt lat="45.95729" lon="4.62964">
        <ele>301.026764</ele>
        <time>2016-09-11T06:58:42Z</time>
      </trkpt>
      <trkpt lat="45.95731" lon="4.62961">
        <ele>301.352966</ele>
        <time>2016-09-11T06:58:44Z</time>
      </trkpt>
      <trkpt lat="45.95734" lon="4.62959">
        <ele>301.638641</ele>
        <time>2016-09-11T06:58:46Z</time>
      </trkpt>
      <trkpt lat="45.95736" lon="4.62956">
        <ele>301.907776</ele>
        <time>2016-09-11T06:58:48Z</time>
      </trkpt>
      <trkpt lat="45.95739" lon="4.62953">
        <ele>302.093323</ele>
        <time>2016-09-11T06:58:50Z</time>
      </trkpt>
      <trkpt lat="45.95742" lon="4.6295">
        <ele>302.24472</ele>
        <time>2016-09-11T06:58:52Z</time>
      </trkpt>
      <trkpt lat="45.95744" lon="4.62948">
        <ele>302.807465</ele>
        <time>2016-09-11T06:58:54Z</time>
      </trkpt>
      <trkpt lat="45.95747" lon="4.62946">
        <ele>303.121368</ele>
        <time>2016-09-11T06:58:56Z</time>
      </trkpt>
      <trkpt lat="45.95749" lon="4.62944">
        <ele>303.452087</ele>
        <time>2016-09-11T06:58:58Z</time>
      </trkpt>
      <trkpt lat="45.95752" lon="4.62944">
        <ele>303.889252</ele>
        <time>2016-09-11T06:59:00Z</time>
      </trkpt>
      <trkpt lat="45.95755" lon="4.62942">
        <ele>304.326843</ele>
        <time>2016-09-11T06:59:02Z</time>
      </trkpt>
      <trkpt lat="45.95757" lon="4.6294">
        <ele>304.860321</ele>
        <time>2016-09-11T06:59:04Z</time>
      </trkpt>
      <trkpt lat="45.9576" lon="4.62938">
        <ele>305.428497</ele>
        <time>2016-09-11T06:59:06Z</time>
      </trkpt>
      <trkpt lat="45.95762" lon="4.62936">
        <ele>306.00531</ele>
        <time>2016-09-11T06:59:08Z</time>
      </trkpt>
      <trkpt lat="45.95764" lon="4.62934">
        <ele>306.514038</ele>
        <time>2016-09-11T06:59:10Z</time>
      </trkpt>
      <trkpt lat="45.95766" lon="4.62932">
        <ele>306.927826</ele>
        <time>2016-09-11T06:59:12Z</time>
      </trkpt>
      <trkpt lat="45.95768" lon="4.6293">
        <ele>307.551575</ele>
        <time>2016-09-11T06:59:14Z</time>
      </trkpt>
      <trkpt lat="45.95771" lon="4.62928">
        <ele>308.045837</ele>
        <time>2016-09-11T06:59:16Z</time>
      </trkpt>
      <trkpt lat="45.95773" lon="4.62927">
        <ele>308.551422</ele>
        <time>2016-09-11T06:59:18Z</time>
      </trkpt>
      <trkpt lat="45.95775" lon="4.62925">
        <ele>308.99942</ele>
        <time>2016-09-11T06:59:20Z</time>
      </trkpt>
      <trkpt lat="45.95777" lon="4.62923">
        <ele>309.526428</ele>
        <time>2016-09-11T06:59:22Z</time>
      </trkpt>
      <trkpt lat="45.95779" lon="4.62922">
        <ele>309.803802</ele>
        <time>2016-09-11T06:59:24Z</time>
      </trkpt>
      <trkpt lat="45.95781" lon="4.62921">
        <ele>310.32666</ele>
        <time>2016-09-11T06:59:26Z</time>
      </trkpt>
      <trkpt lat="45.95784" lon="4.6292">
        <ele>310.885681</ele>
        <time>2016-09-11T06:59:28Z</time>
      </trkpt>
      <trkpt lat="45.95787" lon="4.6292">
        <ele>311.540863</ele>
        <time>2016-09-11T06:59:30Z</time>
      </trkpt>
      <trkpt lat="45.95789" lon="4.62919">
        <ele>312.055176</ele>
        <time>2016-09-11T06:59:32Z</time>
      </trkpt>
      <trkpt lat="45.95791" lon="4.62918">
        <ele>312.55191</ele>
        <time>2016-09-11T06:59:34Z</time>
      </trkpt>
      <trkpt lat="45.95794" lon="4.62917">
        <ele>313.098206</ele>
        <time>2016-09-11T06:59:36Z</time>
      </trkpt>
      <trkpt lat="45.95797" lon="4.62915">
        <ele>313.62677</ele>
        <time>2016-09-11T06:59:38Z</time>
      </trkpt>
      <trkpt lat="45.958" lon="4.62914">
        <ele>314.113434</ele>
        <time>2016-09-11T06:59:40Z</time>
      </trkpt>
      <trkpt lat="45.95802" lon="4.62913">
        <ele>314.552551</ele>
        <time>2016-09-11T06:59:42Z</time>
      </trkpt>
      <trkpt lat="45.95805" lon="4.62913">
        <ele>315.075592</ele>
        <time>2016-09-11T06:59:44Z</time>
      </trkpt>
      <trkpt lat="45.95807" lon="4.62912">
        <ele>315.658051</ele>
        <time>2016-09-11T06:59:46Z</time>
      </trkpt>
      <trkpt lat="45.9581" lon="4.62911">
        <ele>316.206848</ele>
        <time>2016-09-11T06:59:48Z</time>
      </trkpt>
      <trkpt lat="45.95813" lon="4.6291">
        <ele>316.756653</ele>
        <time>2016-09-11T06:59:50Z</time>
      </trkpt>
      <trkpt lat="45.95815" lon="4.6291">
        <ele>317.008606</ele>
        <time>2016-09-11T06:59:52Z</time>
      </trkpt>
      <trkpt lat="45.95818" lon="4.6291">
        <ele>317.5755</ele>
        <time>2016-09-11T06:59:54Z</time>
      </trkpt>
      <trkpt lat="45.95821" lon="4.62909">
        <ele>318.134949</ele>
        <time>2016-09-11T06:59:56Z</time>
      </trkpt>
      <trkpt lat="45.95824" lon="4.62909">
        <ele>318.604675</ele>
        <time>2016-09-11T06:59:58Z</time>
      </trkpt>
      <trkpt lat="45.95828" lon="4.62908">
        <ele>319.047058</ele>
        <time>2016-09-11T07:00:00Z</time>
      </trkpt>
      <trkpt lat="45.95831" lon="4.62908">
        <ele>319.580902</ele>
        <time>2016-09-11T07:00:02Z</time>
      </trkpt>
      <trkpt lat="45.95835" lon="4.62907">
        <ele>319.90976</ele>
        <time>2016-09-11T07:00:04Z</time>
      </trkpt>
      <trkpt lat="45.95838" lon="4.62906">
        <ele>320.338409</ele>
        <time>2016-09-11T07:00:06Z</time>
      </trkpt>
      <trkpt lat="45.95841" lon="4.62908">
        <ele>320.748505</ele>
        <time>2016-09-11T07:00:08Z</time>
      </trkpt>
      <trkpt lat="45.95845" lon="4.6291">
        <ele>320.99762</ele>
        <time>2016-09-11T07:00:10Z</time>
      </trkpt>
      <trkpt lat="45.9585" lon="4.62912">
        <ele>321.347931</ele>
        <time>2016-09-11T07:00:12Z</time>
      </trkpt>
      <trkpt lat="45.95853" lon="4.62913">
        <ele>321.738831</ele>
        <time>2016-09-11T07:00:14Z</time>
      </trkpt>
      <trkpt lat="45.95857" lon="4.62913">
        <ele>322.264923</ele>
        <time>2016-09-11T07:00:16Z</time>
      </trkpt>
      <trkpt lat="45.9586" lon="4.62912">
        <ele>322.614807</ele>
        <time>2016-09-11T07:00:18Z</time>
      </trkpt>
      <trkpt lat="45.95863" lon="4.6291">
        <ele>323.039642</ele>
        <time>2016-09-11T07:00:20Z</time>
      </trkpt>
      <trkpt lat="45.95866" lon="4.6291">
        <ele>323.448303</ele>
        <time>2016-09-11T07:00:22Z</time>
      </trkpt>
      <trkpt lat="45.9587" lon="4.62909">
        <ele>323.589081</ele>
        <time>2016-09-11T07:00:24Z</time>
      </trkpt>
      <trkpt lat="45.95873" lon="4.62908">
        <ele>323.879669</ele>
        <time>2016-09-11T07:00:26Z</time>
      </trkpt>
      <trkpt lat="45.95877" lon="4.62907">
        <ele>324.172363</ele>
        <time>2016-09-11T07:00:28Z</time>
      </trkpt>
      <trkpt lat="45.95879" lon="4.62905">
        <ele>324.497131</ele>
        <time>2016-09-11T07:00:30Z</time>
      </trkpt>
      <trkpt lat="45.95882" lon="4.62903">
        <ele>324.751404</ele>
        <time>2016-09-11T07:00:32Z</time>
      </trkpt>
      <trkpt lat="45.95885" lon="4.62902">
        <ele>325.096619</ele>
        <time>2016-09-11T07:00:34Z</time>
      </trkpt>
      <trkpt lat="45.95888" lon="4.629">
        <ele>325.420532</ele>
        <time>2016-09-11T07:00:36Z</time>
      </trkpt>
      <trkpt lat="45.9589" lon="4.62899">
        <ele>325.689819</ele>
        <time>2016-09-11T07:00:38Z</time>
      </trkpt>
      <trkpt lat="45.95894" lon="4.62898">
        <ele>326.084747</ele>
        <time>2016-09-11T07:00:40Z</time>
      </trkpt>
      <trkpt lat="45.95897" lon="4.62897">
        <ele>326.484375</ele>
        <time>2016-09-11T07:00:42Z</time>
      </trkpt>
      <trkpt lat="45.959" lon="4.62896">
        <ele>326.847687</ele>
        <time>2016-09-11T07:00:44Z</time>
      </trkpt>
      <trkpt lat="45.95903" lon="4.62895">
        <ele>327.305084</ele>
        <time>2016-09-11T07:00:46Z</time>
      </trkpt>
      <trkpt lat="45.95907" lon="4.62895">
        <ele>327.658264</ele>
        <time>2016-09-11T07:00:48Z</time>
      </trkpt>
      <trkpt lat="45.9591" lon="4.62894">
        <ele>327.799316</ele>
        <time>2016-09-11T07:00:50Z</time>
      </trkpt>
      <trkpt lat="45.95913" lon="4.62892">
        <ele>328.332275</ele>
        <time>2016-09-11T07:00:52Z</time>
      </trkpt>
      <trkpt lat="45.95916" lon="4.62892">
        <ele>328.69989</ele>
        <time>2016-09-11T07:00:54Z</time>
      </trkpt>
      <trkpt lat="45.9592" lon="4.62891">
        <ele>329.084656</ele>
        <time>2016-09-11T07:00:56Z</time>
      </trkpt>
      <trkpt lat="45.95923" lon="4.6289">
        <ele>329.347595</ele>
        <time>2016-09-11T07:00:58Z</time>
      </trkpt>
      <trkpt lat="45.95927" lon="4.6289">
        <ele>329.619049</ele>
        <time>2016-09-11T07:01:00Z</time>
      </trkpt>
      <trkpt lat="45.95931" lon="4.6289">
        <ele>329.99408</ele>
        <time>2016-09-11T07:01:02Z</time>
      </trkpt>
      <trkpt lat="45.95934" lon="4.6289">
        <ele>330.361755</ele>
        <time>2016-09-11T07:01:04Z</time>
      </trkpt>
      <trkpt lat="45.95938" lon="4.6289">
        <ele>330.840881</ele>
        <time>2016-09-11T07:01:06Z</time>
      </trkpt>
      <trkpt lat="45.95942" lon="4.6289">
        <ele>331.155121</ele>
        <time>2016-09-11T07:01:08Z</time>
      </trkpt>
      <trkpt lat="45.95946" lon="4.62892">
        <ele>331.616943</ele>
        <time>2016-09-11T07:01:10Z</time>
      </trkpt>
      <trkpt lat="45.9595" lon="4.62894">
        <ele>331.991119</ele>
        <time>2016-09-11T07:01:12Z</time>
      </trkpt>
      <trkpt lat="45.95954" lon="4.62896">
        <ele>332.44873</ele>
        <time>2016-09-11T07:01:14Z</time>
      </trkpt>
      <trkpt lat="45.95959" lon="4.62899">
        <ele>332.858215</ele>
        <time>2016-09-11T07:01:16Z</time>
      </trkpt>
      <trkpt lat="45.95964" lon="4.62901">
        <ele>333.155457</ele>
        <time>2016-09-11T07:01:18Z</time>
      </trkpt>
      <trkpt lat="45.95968" lon="4.62904">
        <ele>333.53183</ele>
        <time>2016-09-11T07:01:20Z</time>
      </trkpt>
      <trkpt lat="45.95972" lon="4.62908">
        <ele>333.724274</ele>
        <time>2016-09-11T07:01:22Z</time>
      </trkpt>
      <trkpt lat="45.95977" lon="4.62911">
        <ele>334.015869</ele>
        <time>2016-09-11T07:01:24Z</time>
      </trkpt>
      <trkpt lat="45.95982" lon="4.62914">
        <ele>334.479584</ele>
        <time>2016-09-11T07:01:26Z</time>
      </trkpt>
      <trkpt lat="45.95987" lon="4.62917">
        <ele>334.838928</ele>
        <time>2016-09-11T07:01:28Z</time>
      </trkpt>
      <trkpt lat="45.95992" lon="4.62919">
        <ele>335.200378</ele>
        <time>2016-09-11T07:01:30Z</time>
      </trkpt>
      <trkpt lat="45.95996" lon="4.62921">
        <ele>335.437805</ele>
        <time>2016-09-11T07:01:32Z</time>
      </trkpt>
      <trkpt lat="45.96001" lon="4.62923">
        <ele>335.705383</ele>
        <time>2016-09-11T07:01:34Z</time>
      </trkpt>
      <trkpt lat="45.96006" lon="4.62926">
        <ele>336.015564</ele>
        <time>2016-09-11T07:01:36Z</time>
      </trkpt>
      <trkpt lat="45.96011" lon="4.62928">
        <ele>336.263672</ele>
        <time>2016-09-11T07:01:38Z</time>
      </trkpt>
      <trkpt lat="45.96016" lon="4.62931">
        <ele>336.496796</ele>
        <time>2016-09-11T07:01:40Z</time>
      </trkpt>
      <trkpt lat="45.96021" lon="4.62934">
        <ele>336.824524</ele>
        <time>2016-09-11T07:01:42Z</time>
      </trkpt>
      <trkpt lat="45.96025" lon="4.62939">
        <ele>337.091919</ele>
        <time>2016-09-11T07:01:44Z</time>
      </trkpt>
      <trkpt lat="45.96029" lon="4.62945">
        <ele>337.3508</ele>
        <time>2016-09-11T07:01:46Z</time>
      </trkpt>
      <trkpt lat="45.96033" lon="4.62951">
        <ele>337.333679</ele>
        <time>2016-09-11T07:01:48Z</time>
      </trkpt>
      <trkpt lat="45.96039" lon="4.62955">
        <ele>337.816345</ele>
        <time>2016-09-11T07:01:50Z</time>
      </trkpt>
      <trkpt lat="45.96046" lon="4.62958">
        <ele>337.754364</ele>
        <time>2016-09-11T07:01:52Z</time>
      </trkpt>
      <trkpt lat="45.96052" lon="4.62962">
        <ele>337.904114</ele>
        <time>2016-09-11T07:01:54Z</time>
      </trkpt>
      <trkpt lat="45.96059" lon="4.62966">
        <ele>337.773651</ele>
        <time>2016-09-11T07:01:56Z</time>
      </trkpt>
      <trkpt lat="45.96066" lon="4.62971">
        <ele>337.773376</ele>
        <time>2016-09-11T07:01:58Z</time>
      </trkpt>
      <trkpt lat="45.96073" lon="4.62976">
        <ele>337.902802</ele>
        <time>2016-09-11T07:02:00Z</time>
      </trkpt>
      <trkpt lat="45.96082" lon="4.62981">
        <ele>337.887848</ele>
        <time>2016-09-11T07:02:02Z</time>
      </trkpt>
      <trkpt lat="45.9609" lon="4.62985">
        <ele>337.739563</ele>
        <time>2016-09-11T07:02:04Z</time>
      </trkpt>
      <trkpt lat="45.96098" lon="4.62988">
        <ele>337.896179</ele>
        <time>2016-09-11T07:02:06Z</time>
      </trkpt>
      <trkpt lat="45.96107" lon="4.62992">
        <ele>337.686523</ele>
        <time>2016-09-11T07:02:08Z</time>
      </trkpt>
      <trkpt lat="45.96116" lon="4.62994">
        <ele>337.714081</ele>
        <time>2016-09-11T07:02:10Z</time>
      </trkpt>
      <trkpt lat="45.96127" lon="4.62997">
        <ele>337.660614</ele>
        <time>2016-09-11T07:02:12Z</time>
      </trkpt>
      <trkpt lat="45.96139" lon="4.62998">
        <ele>337.714111</ele>
        <time>2016-09-11T07:02:14Z</time>
      </trkpt>
      <trkpt lat="45.96153" lon="4.62999">
        <ele>337.934265</ele>
        <time>2016-09-11T07:02:16Z</time>
      </trkpt>
      <trkpt lat="45.96167" lon="4.62997">
        <ele>337.933105</ele>
        <time>2016-09-11T07:02:18Z</time>
      </trkpt>
      <trkpt lat="45.96182" lon="4.62992">
        <ele>337.755554</ele>
        <time>2016-09-11T07:02:20Z</time>
      </trkpt>
      <trkpt lat="45.96196" lon="4.62983">
        <ele>337.266083</ele>
        <time>2016-09-11T07:02:22Z</time>
      </trkpt>
      <trkpt lat="45.96211" lon="4.62972">
        <ele>336.739563</ele>
        <time>2016-09-11T07:02:24Z</time>
      </trkpt>
      <trkpt lat="45.96224" lon="4.6296">
        <ele>336.222107</ele>
        <time>2016-09-11T07:02:26Z</time>
      </trkpt>
      <trkpt lat="45.96237" lon="4.62945">
        <ele>335.638336</ele>
        <time>2016-09-11T07:02:28Z</time>
      </trkpt>
      <trkpt lat="45.96249" lon="4.62928">
        <ele>335.329529</ele>
        <time>2016-09-11T07:02:30Z</time>
      </trkpt>
      <trkpt lat="45.96263" lon="4.62909">
        <ele>333.946655</ele>
        <time>2016-09-11T07:02:32Z</time>
      </trkpt>
      <trkpt lat="45.96275" lon="4.62888">
        <ele>333.50769</ele>
        <time>2016-09-11T07:02:34Z</time>
      </trkpt>
      <trkpt lat="45.9628" lon="4.62862">
        <ele>332.770264</ele>
        <time>2016-09-11T07:02:36Z</time>
      </trkpt>
      <trkpt lat="45.96282" lon="4.62839">
        <ele>331.825378</ele>
        <time>2016-09-11T07:02:38Z</time>
      </trkpt>
      <trkpt lat="45.96284" lon="4.62818">
        <ele>331.16272</ele>
        <time>2016-09-11T07:02:40Z</time>
      </trkpt>
      <trkpt lat="45.96286" lon="4.62797">
        <ele>330.227539</ele>
        <time>2016-09-11T07:02:42Z</time>
      </trkpt>
      <trkpt lat="45.96287" lon="4.62778">
        <ele>329.48584</ele>
        <time>2016-09-11T07:02:44Z</time>
      </trkpt>
      <trkpt lat="45.96288" lon="4.62763">
        <ele>328.85083</ele>
        <time>2016-09-11T07:02:46Z</time>
      </trkpt>
      <trkpt lat="45.96288" lon="4.62753">
        <ele>328.510925</ele>
        <time>2016-09-11T07:02:48Z</time>
      </trkpt>
      <trkpt lat="45.96287" lon="4.62745">
        <ele>327.898987</ele>
        <time>2016-09-11T07:02:50Z</time>
      </trkpt>
      <trkpt lat="45.96288" lon="4.62736">
        <ele>327.242767</ele>
        <time>2016-09-11T07:02:52Z</time>
      </trkpt>
      <trkpt lat="45.96289" lon="4.62727">
        <ele>326.866852</ele>
        <time>2016-09-11T07:02:54Z</time>
      </trkpt>
      <trkpt lat="45.96289" lon="4.62719">
        <ele>326.389893</ele>
        <time>2016-09-11T07:02:56Z</time>
      </trkpt>
      <trkpt lat="45.96292" lon="4.62715">
        <ele>325.818695</ele>
        <time>2016-09-11T07:02:58Z</time>
      </trkpt>
      <trkpt lat="45.96296" lon="4.62716">
        <ele>325.525482</ele>
        <time>2016-09-11T07:03:00Z</time>
      </trkpt>
      <trkpt lat="45.96302" lon="4.62717">
        <ele>325.329895</ele>
        <time>2016-09-11T07:03:02Z</time>
      </trkpt>
      <trkpt lat="45.96309" lon="4.6272">
        <ele>325.573395</ele>
        <time>2016-09-11T07:03:04Z</time>
      </trkpt>
      <trkpt lat="45.96317" lon="4.62723">
        <ele>325.594666</ele>
        <time>2016-09-11T07:03:06Z</time>
      </trkpt>
      <trkpt lat="45.96326" lon="4.62726">
        <ele>325.568939</ele>
        <time>2016-09-11T07:03:07Z</time>
      </trkpt>
      <trkpt lat="45.96337" lon="4.6273">
        <ele>325.452576</ele>
        <time>2016-09-11T07:03:10Z</time>
      </trkpt>
      <trkpt lat="45.96347" lon="4.62734">
        <ele>326.21283</ele>
        <time>2016-09-11T07:03:12Z</time>
      </trkpt>
      <trkpt lat="45.96359" lon="4.62737">
        <ele>326.539795</ele>
        <time>2016-09-11T07:03:14Z</time>
      </trkpt>
      <trkpt lat="45.96371" lon="4.62735">
        <ele>326.645264</ele>
        <time>2016-09-11T07:03:16Z</time>
      </trkpt>
      <trkpt lat="45.96382" lon="4.62728">
        <ele>327.032837</ele>
        <time>2016-09-11T07:03:18Z</time>
      </trkpt>
      <trkpt lat="45.9639" lon="4.62721">
        <ele>327.482635</ele>
        <time>2016-09-11T07:03:20Z</time>
      </trkpt>
      <trkpt lat="45.96396" lon="4.62715">
        <ele>327.805298</ele>
        <time>2016-09-11T07:03:22Z</time>
      </trkpt>
      <trkpt lat="45.964" lon="4.6271">
        <ele>328.095764</ele>
        <time>2016-09-11T07:03:24Z</time>
      </trkpt>
      <trkpt lat="45.96402" lon="4.62708">
        <ele>328.337799</ele>
        <time>2016-09-11T07:03:26Z</time>
      </trkpt>
      <trkpt lat="45.96404" lon="4.62709">
        <ele>328.442444</ele>
        <time>2016-09-11T07:03:28Z</time>
      </trkpt>
      <trkpt lat="45.96406" lon="4.62711">
        <ele>327.832611</ele>
        <time>2016-09-11T07:03:42Z</time>
      </trkpt>
      <trkpt lat="45.96406" lon="4.62713">
        <ele>327.533447</ele>
        <time>2016-09-11T07:03:44Z</time>
      </trkpt>
      <trkpt lat="45.96406" lon="4.62715">
        <ele>327.329254</ele>
        <time>2016-09-11T07:03:46Z</time>
      </trkpt>
      <trkpt lat="45.96407" lon="4.62717">
        <ele>327.136902</ele>
        <time>2016-09-11T07:03:48Z</time>
      </trkpt>
      <trkpt lat="45.96407" lon="4.62718">
        <ele>326.942444</ele>
        <time>2016-09-11T07:03:50Z</time>
      </trkpt>
      <trkpt lat="45.96411" lon="4.62715">
        <ele>325.69281</ele>
        <time>2016-09-11T07:03:58Z</time>
      </trkpt>
      <trkpt lat="45.96417" lon="4.62711">
        <ele>325.476318</ele>
        <time>2016-09-11T07:04:00Z</time>
      </trkpt>
      <trkpt lat="45.96427" lon="4.62704">
        <ele>325.256256</ele>
        <time>2016-09-11T07:04:02Z</time>
      </trkpt>
      <trkpt lat="45.96439" lon="4.62695">
        <ele>324.903809</ele>
        <time>2016-09-11T07:04:04Z</time>
      </trkpt>
      <trkpt lat="45.96444" lon="4.62692">
        <ele>324.305817</ele>
        <time>2016-09-11T07:04:06Z</time>
      </trkpt>
      <trkpt lat="45.96445" lon="4.62697">
        <ele>323.745667</ele>
        <time>2016-09-11T07:04:08Z</time>
      </trkpt>
      <trkpt lat="45.96443" lon="4.62704">
        <ele>323.134918</ele>
        <time>2016-09-11T07:04:10Z</time>
      </trkpt>
      <trkpt lat="45.96441" lon="4.62711">
        <ele>322.614197</ele>
        <time>2016-09-11T07:04:12Z</time>
      </trkpt>
      <trkpt lat="45.96438" lon="4.62717">
        <ele>321.785583</ele>
        <time>2016-09-11T07:04:14Z</time>
      </trkpt>
      <trkpt lat="45.96442" lon="4.62725">
        <ele>321.01947</ele>
        <time>2016-09-11T07:04:16Z</time>
      </trkpt>
      <trkpt lat="45.9645" lon="4.62733">
        <ele>320.213562</ele>
        <time>2016-09-11T07:04:18Z</time>
      </trkpt>
      <trkpt lat="45.96454" lon="4.62737">
        <ele>319.210205</ele>
        <time>2016-09-11T07:04:20Z</time>
      </trkpt>
      <trkpt lat="45.96456" lon="4.62735">
        <ele>318.153473</ele>
        <time>2016-09-11T07:04:22Z</time>
      </trkpt>
      <trkpt lat="45.96461" lon="4.62735">
        <ele>317.187744</ele>
        <time>2016-09-11T07:04:24Z</time>
      </trkpt>
      <trkpt lat="45.96466" lon="4.6274">
        <ele>316.099304</ele>
        <time>2016-09-11T07:04:26Z</time>
      </trkpt>
      <trkpt lat="45.96472" lon="4.62749">
        <ele>315.544342</ele>
        <time>2016-09-11T07:04:28Z</time>
      </trkpt>
      <trkpt lat="45.96479" lon="4.62757">
        <ele>314.662537</ele>
        <time>2016-09-11T07:04:30Z</time>
      </trkpt>
      <trkpt lat="45.96487" lon="4.62762">
        <ele>313.770172</ele>
        <time>2016-09-11T07:04:32Z</time>
      </trkpt>
      <trkpt lat="45.96494" lon="4.62764">
        <ele>313.005035</ele>
        <time>2016-09-11T07:04:34Z</time>
      </trkpt>
      <trkpt lat="45.965" lon="4.62766">
        <ele>312.139893</ele>
        <time>2016-09-11T07:04:36Z</time>
      </trkpt>
      <trkpt lat="45.96507" lon="4.6277">
        <ele>311.375671</ele>
        <time>2016-09-11T07:04:38Z</time>
      </trkpt>
      <trkpt lat="45.96512" lon="4.62773">
        <ele>310.600677</ele>
        <time>2016-09-11T07:04:40Z</time>
      </trkpt>
      <trkpt lat="45.96516" lon="4.62775">
        <ele>309.844421</ele>
        <time>2016-09-11T07:04:42Z</time>
      </trkpt>
      <trkpt lat="45.96519" lon="4.62778">
        <ele>309.137634</ele>
        <time>2016-09-11T07:04:44Z</time>
      </trkpt>
      <trkpt lat="45.96522" lon="4.6278">
        <ele>308.898682</ele>
        <time>2016-09-11T07:04:46Z</time>
      </trkpt>
      <trkpt lat="45.96526" lon="4.62784">
        <ele>308.636169</ele>
        <time>2016-09-11T07:04:48Z</time>
      </trkpt>
      <trkpt lat="45.96529" lon="4.62788">
        <ele>308.464508</ele>
        <time>2016-09-11T07:04:50Z</time>
      </trkpt>
      <trkpt lat="45.96532" lon="4.62791">
        <ele>308.453827</ele>
        <time>2016-09-11T07:04:52Z</time>
      </trkpt>
      <trkpt lat="45.96534" lon="4.62794">
        <ele>308.316772</ele>
        <time>2016-09-11T07:04:54Z</time>
      </trkpt>
      <trkpt lat="45.96537" lon="4.62798">
        <ele>308.382904</ele>
        <time>2016-09-11T07:04:56Z</time>
      </trkpt>
      <trkpt lat="45.9654" lon="4.62801">
        <ele>308.493378</ele>
        <time>2016-09-11T07:04:58Z</time>
      </trkpt>
      <trkpt lat="45.96543" lon="4.62804">
        <ele>308.643646</ele>
        <time>2016-09-11T07:05:00Z</time>
      </trkpt>
      <trkpt lat="45.96545" lon="4.62807">
        <ele>309.042664</ele>
        <time>2016-09-11T07:05:02Z</time>
      </trkpt>
      <trkpt lat="45.96547" lon="4.62811">
        <ele>309.556885</ele>
        <time>2016-09-11T07:05:04Z</time>
      </trkpt>
      <trkpt lat="45.96548" lon="4.62815">
        <ele>309.973328</ele>
        <time>2016-09-11T07:05:06Z</time>
      </trkpt>
      <trkpt lat="45.96549" lon="4.62819">
        <ele>310.344543</ele>
        <time>2016-09-11T07:05:08Z</time>
      </trkpt>
      <trkpt lat="45.9655" lon="4.62823">
        <ele>310.910034</ele>
        <time>2016-09-11T07:05:10Z</time>
      </trkpt>
      <trkpt lat="45.96552" lon="4.62827">
        <ele>311.315491</ele>
        <time>2016-09-11T07:05:12Z</time>
      </trkpt>
      <trkpt lat="45.96553" lon="4.62831">
        <ele>311.82428</ele>
        <time>2016-09-11T07:05:14Z</time>
      </trkpt>
      <trkpt lat="45.96554" lon="4.62835">
        <ele>312.340454</ele>
        <time>2016-09-11T07:05:16Z</time>
      </trkpt>
      <trkpt lat="45.96555" lon="4.62839">
        <ele>312.615784</ele>
        <time>2016-09-11T07:05:18Z</time>
      </trkpt>
      <trkpt lat="45.96556" lon="4.62843">
        <ele>313.160706</ele>
        <time>2016-09-11T07:05:20Z</time>
      </trkpt>
      <trkpt lat="45.96557" lon="4.62847">
        <ele>313.728485</ele>
        <time>2016-09-11T07:05:22Z</time>
      </trkpt>
      <trkpt lat="45.96558" lon="4.62851">
        <ele>314.289886</ele>
        <time>2016-09-11T07:05:24Z</time>
      </trkpt>
      <trkpt lat="45.96559" lon="4.62855">
        <ele>314.793701</ele>
        <time>2016-09-11T07:05:26Z</time>
      </trkpt>
      <trkpt lat="45.9656" lon="4.62859">
        <ele>315.42981</ele>
        <time>2016-09-11T07:05:28Z</time>
      </trkpt>
      <trkpt lat="45.96561" lon="4.62863">
        <ele>316.001953</ele>
        <time>2016-09-11T07:05:30Z</time>
      </trkpt>
      <trkpt lat="45.96563" lon="4.62866">
        <ele>316.583588</ele>
        <time>2016-09-11T07:05:32Z</time>
      </trkpt>
      <trkpt lat="45.96565" lon="4.6287">
        <ele>317.096069</ele>
        <time>2016-09-11T07:05:34Z</time>
      </trkpt>
      <trkpt lat="45.96566" lon="4.62874">
        <ele>317.668304</ele>
        <time>2016-09-11T07:05:36Z</time>
      </trkpt>
      <trkpt lat="45.96568" lon="4.62877">
        <ele>318.207336</ele>
        <time>2016-09-11T07:05:38Z</time>
      </trkpt>
      <trkpt lat="45.96571" lon="4.6288">
        <ele>318.790314</ele>
        <time>2016-09-11T07:05:40Z</time>
      </trkpt>
      <trkpt lat="45.96573" lon="4.62884">
        <ele>319.104218</ele>
        <time>2016-09-11T07:05:42Z</time>
      </trkpt>
      <trkpt lat="45.96574" lon="4.62887">
        <ele>319.719299</ele>
        <time>2016-09-11T07:05:44Z</time>
      </trkpt>
      <trkpt lat="45.96579" lon="4.62894">
        <ele>324.613098</ele>
        <time>2016-09-11T07:11:58Z</time>
      </trkpt>
      <trkpt lat="45.96581" lon="4.62893">
        <ele>324.674866</ele>
        <time>2016-09-11T07:12:00Z</time>
      </trkpt>
      <trkpt lat="45.96583" lon="4.62888">
        <ele>325.063965</ele>
        <time>2016-09-11T07:12:13Z</time>
      </trkpt>
      <trkpt lat="45.96584" lon="4.62882">
        <ele>325.190063</ele>
        <time>2016-09-11T07:12:15Z</time>
      </trkpt>
      <trkpt lat="45.96584" lon="4.62878">
        <ele>325.256287</ele>
        <time>2016-09-11T07:12:17Z</time>
      </trkpt>
      <trkpt lat="45.96586" lon="4.62874">
        <ele>325.382843</ele>
        <time>2016-09-11T07:12:19Z</time>
      </trkpt>
      <trkpt lat="45.96586" lon="4.62869">
        <ele>325.441345</ele>
        <time>2016-09-11T07:12:21Z</time>
      </trkpt>
      <trkpt lat="45.96586" lon="4.62864">
        <ele>325.608032</ele>
        <time>2016-09-11T07:12:23Z</time>
      </trkpt>
      <trkpt lat="45.96587" lon="4.62859">
        <ele>325.666382</ele>
        <time>2016-09-11T07:12:25Z</time>
      </trkpt>
      <trkpt lat="45.96589" lon="4.62852">
        <ele>325.674927</ele>
        <time>2016-09-11T07:12:27Z</time>
      </trkpt>
      <trkpt lat="45.96592" lon="4.62844">
        <ele>325.843719</ele>
        <time>2016-09-11T07:12:29Z</time>
      </trkpt>
      <trkpt lat="45.96594" lon="4.62836">
        <ele>325.944977</ele>
        <time>2016-09-11T07:12:31Z</time>
      </trkpt>
      <trkpt lat="45.96595" lon="4.62828">
        <ele>326.495575</ele>
        <time>2016-09-11T07:12:33Z</time>
      </trkpt>
      <trkpt lat="45.96596" lon="4.6282">
        <ele>326.527649</ele>
        <time>2016-09-11T07:12:35Z</time>
      </trkpt>
      <trkpt lat="45.96597" lon="4.62812">
        <ele>326.498596</ele>
        <time>2016-09-11T07:12:37Z</time>
      </trkpt>
      <trkpt lat="45.96599" lon="4.62804">
        <ele>326.669556</ele>
        <time>2016-09-11T07:12:39Z</time>
      </trkpt>
      <trkpt lat="45.96601" lon="4.62797">
        <ele>326.798004</ele>
        <time>2016-09-11T07:12:41Z</time>
      </trkpt>
      <trkpt lat="45.96602" lon="4.6279">
        <ele>326.861816</ele>
        <time>2016-09-11T07:12:43Z</time>
      </trkpt>
      <trkpt lat="45.96603" lon="4.62782">
        <ele>327.060608</ele>
        <time>2016-09-11T07:12:45Z</time>
      </trkpt>
      <trkpt lat="45.96604" lon="4.62774">
        <ele>327.156799</ele>
        <time>2016-09-11T07:12:47Z</time>
      </trkpt>
      <trkpt lat="45.96605" lon="4.62767">
        <ele>327.390869</ele>
        <time>2016-09-11T07:12:49Z</time>
      </trkpt>
      <trkpt lat="45.96607" lon="4.62759">
        <ele>327.536194</ele>
        <time>2016-09-11T07:12:51Z</time>
      </trkpt>
      <trkpt lat="45.96609" lon="4.62751">
        <ele>327.799133</ele>
        <time>2016-09-11T07:12:53Z</time>
      </trkpt>
      <trkpt lat="45.96611" lon="4.62742">
        <ele>327.961578</ele>
        <time>2016-09-11T07:12:55Z</time>
      </trkpt>
      <trkpt lat="45.96613" lon="4.62733">
        <ele>328.079163</ele>
        <time>2016-09-11T07:12:57Z</time>
      </trkpt>
      <trkpt lat="45.96614" lon="4.62725">
        <ele>328.215912</ele>
        <time>2016-09-11T07:12:59Z</time>
      </trkpt>
      <trkpt lat="45.96615" lon="4.62717">
        <ele>328.50592</ele>
        <time>2016-09-11T07:13:01Z</time>
      </trkpt>
      <trkpt lat="45.96616" lon="4.6271">
        <ele>328.80304</ele>
        <time>2016-09-11T07:13:03Z</time>
      </trkpt>
      <trkpt lat="45.96618" lon="4.62702">
        <ele>329.043091</ele>
        <time>2016-09-11T07:13:05Z</time>
      </trkpt>
      <trkpt lat="45.96619" lon="4.62693">
        <ele>329.387268</ele>
        <time>2016-09-11T07:13:07Z</time>
      </trkpt>
      <trkpt lat="45.96621" lon="4.62685">
        <ele>329.695038</ele>
        <time>2016-09-11T07:13:09Z</time>
      </trkpt>
      <trkpt lat="45.96623" lon="4.62677">
        <ele>329.970856</ele>
        <time>2016-09-11T07:13:11Z</time>
      </trkpt>
      <trkpt lat="45.96624" lon="4.62668">
        <ele>330.306122</ele>
        <time>2016-09-11T07:13:13Z</time>
      </trkpt>
      <trkpt lat="45.96626" lon="4.6266">
        <ele>330.532745</ele>
        <time>2016-09-11T07:13:15Z</time>
      </trkpt>
      <trkpt lat="45.96627" lon="4.62651">
        <ele>330.778595</ele>
        <time>2016-09-11T07:13:17Z</time>
      </trkpt>
      <trkpt lat="45.96629" lon="4.62643">
        <ele>331.177307</ele>
        <time>2016-09-11T07:13:19Z</time>
      </trkpt>
      <trkpt lat="45.96631" lon="4.62634">
        <ele>331.405518</ele>
        <time>2016-09-11T07:13:21Z</time>
      </trkpt>
      <trkpt lat="45.96632" lon="4.62625">
        <ele>331.644958</ele>
        <time>2016-09-11T07:13:23Z</time>
      </trkpt>
      <trkpt lat="45.96635" lon="4.62616">
        <ele>332.086578</ele>
        <time>2016-09-11T07:13:25Z</time>
      </trkpt>
      <trkpt lat="45.96638" lon="4.62608">
        <ele>332.095154</ele>
        <time>2016-09-11T07:13:27Z</time>
      </trkpt>
      <trkpt lat="45.96641" lon="4.626">
        <ele>332.382751</ele>
        <time>2016-09-11T07:13:29Z</time>
      </trkpt>
      <trkpt lat="45.96644" lon="4.62591">
        <ele>332.350739</ele>
        <time>2016-09-11T07:13:31Z</time>
      </trkpt>
      <trkpt lat="45.96647" lon="4.62583">
        <ele>332.662933</ele>
        <time>2016-09-11T07:13:33Z</time>
      </trkpt>
      <trkpt lat="45.96649" lon="4.62576">
        <ele>332.724945</ele>
        <time>2016-09-11T07:13:35Z</time>
      </trkpt>
      <trkpt lat="45.96652" lon="4.62569">
        <ele>333.049133</ele>
        <time>2016-09-11T07:13:37Z</time>
      </trkpt>
      <trkpt lat="45.96654" lon="4.62562">
        <ele>332.903778</ele>
        <time>2016-09-11T07:13:39Z</time>
      </trkpt>
      <trkpt lat="45.96656" lon="4.62555">
        <ele>333.225891</ele>
        <time>2016-09-11T07:13:41Z</time>
      </trkpt>
      <trkpt lat="45.96658" lon="4.62547">
        <ele>333.429138</ele>
        <time>2016-09-11T07:13:43Z</time>
      </trkpt>
      <trkpt lat="45.96661" lon="4.62539">
        <ele>333.628052</ele>
        <time>2016-09-11T07:13:45Z</time>
      </trkpt>
      <trkpt lat="45.96663" lon="4.62531">
        <ele>333.540375</ele>
        <time>2016-09-11T07:13:47Z</time>
      </trkpt>
      <trkpt lat="45.96665" lon="4.62524">
        <ele>333.782227</ele>
        <time>2016-09-11T07:13:49Z</time>
      </trkpt>
      <trkpt lat="45.96668" lon="4.62516">
        <ele>333.972595</ele>
        <time>2016-09-11T07:13:51Z</time>
      </trkpt>
      <trkpt lat="45.96671" lon="4.62509">
        <ele>334.058136</ele>
        <time>2016-09-11T07:13:53Z</time>
      </trkpt>
      <trkpt lat="45.96674" lon="4.62503">
        <ele>334.19696</ele>
        <time>2016-09-11T07:13:55Z</time>
      </trkpt>
      <trkpt lat="45.96677" lon="4.62496">
        <ele>334.50705</ele>
        <time>2016-09-11T07:13:57Z</time>
      </trkpt>
      <trkpt lat="45.96681" lon="4.62489">
        <ele>334.683624</ele>
        <time>2016-09-11T07:13:59Z</time>
      </trkpt>
      <trkpt lat="45.96684" lon="4.62483">
        <ele>334.900208</ele>
        <time>2016-09-11T07:14:01Z</time>
      </trkpt>
      <trkpt lat="45.96687" lon="4.62477">
        <ele>335.306702</ele>
        <time>2016-09-11T07:14:03Z</time>
      </trkpt>
      <trkpt lat="45.96692" lon="4.62471">
        <ele>335.716278</ele>
        <time>2016-09-11T07:14:05Z</time>
      </trkpt>
      <trkpt lat="45.96696" lon="4.62465">
        <ele>335.842316</ele>
        <time>2016-09-11T07:14:07Z</time>
      </trkpt>
      <trkpt lat="45.967" lon="4.62458">
        <ele>335.8591</ele>
        <time>2016-09-11T07:14:09Z</time>
      </trkpt>
      <trkpt lat="45.96703" lon="4.62451">
        <ele>336.156128</ele>
        <time>2016-09-11T07:14:11Z</time>
      </trkpt>
      <trkpt lat="45.96707" lon="4.62443">
        <ele>336.48114</ele>
        <time>2016-09-11T07:14:13Z</time>
      </trkpt>
      <trkpt lat="45.96709" lon="4.62436">
        <ele>336.562378</ele>
        <time>2016-09-11T07:14:15Z</time>
      </trkpt>
      <trkpt lat="45.96711" lon="4.6243">
        <ele>336.846863</ele>
        <time>2016-09-11T07:14:17Z</time>
      </trkpt>
      <trkpt lat="45.96713" lon="4.62422">
        <ele>337.185577</ele>
        <time>2016-09-11T07:14:19Z</time>
      </trkpt>
      <trkpt lat="45.96714" lon="4.62415">
        <ele>337.560608</ele>
        <time>2016-09-11T07:14:21Z</time>
      </trkpt>
      <trkpt lat="45.96716" lon="4.62406">
        <ele>337.490021</ele>
        <time>2016-09-11T07:14:23Z</time>
      </trkpt>
      <trkpt lat="45.96718" lon="4.62397">
        <ele>337.497986</ele>
        <time>2016-09-11T07:14:25Z</time>
      </trkpt>
      <trkpt lat="45.96719" lon="4.62387">
        <ele>337.607086</ele>
        <time>2016-09-11T07:14:27Z</time>
      </trkpt>
      <trkpt lat="45.96721" lon="4.62378">
        <ele>338.041565</ele>
        <time>2016-09-11T07:14:29Z</time>
      </trkpt>
      <trkpt lat="45.96723" lon="4.62368">
        <ele>337.964417</ele>
        <time>2016-09-11T07:14:31Z</time>
      </trkpt>
      <trkpt lat="45.96726" lon="4.62359">
        <ele>337.970825</ele>
        <time>2016-09-11T07:14:33Z</time>
      </trkpt>
      <trkpt lat="45.96728" lon="4.6235">
        <ele>338.236755</ele>
        <time>2016-09-11T07:14:35Z</time>
      </trkpt>
      <trkpt lat="45.96731" lon="4.6234">
        <ele>338.228424</ele>
        <time>2016-09-11T07:14:37Z</time>
      </trkpt>
      <trkpt lat="45.96734" lon="4.6233">
        <ele>338.423035</ele>
        <time>2016-09-11T07:14:39Z</time>
      </trkpt>
      <trkpt lat="45.96736" lon="4.6232">
        <ele>338.594208</ele>
        <time>2016-09-11T07:14:41Z</time>
      </trkpt>
      <trkpt lat="45.96738" lon="4.6231">
        <ele>338.562073</ele>
        <time>2016-09-11T07:14:43Z</time>
      </trkpt>
      <trkpt lat="45.96739" lon="4.62302">
        <ele>338.602722</ele>
        <time>2016-09-11T07:14:45Z</time>
      </trkpt>
      <trkpt lat="45.96742" lon="4.62293">
        <ele>338.836121</ele>
        <time>2016-09-11T07:14:47Z</time>
      </trkpt>
      <trkpt lat="45.96744" lon="4.62284">
        <ele>338.93277</ele>
        <time>2016-09-11T07:14:49Z</time>
      </trkpt>
      <trkpt lat="45.96747" lon="4.62276">
        <ele>338.911377</ele>
        <time>2016-09-11T07:14:51Z</time>
      </trkpt>
      <trkpt lat="45.9675" lon="4.62267">
        <ele>338.824005</ele>
        <time>2016-09-11T07:14:53Z</time>
      </trkpt>
      <trkpt lat="45.96752" lon="4.62258">
        <ele>338.986603</ele>
        <time>2016-09-11T07:14:55Z</time>
      </trkpt>
      <trkpt lat="45.96755" lon="4.62248">
        <ele>338.881866</ele>
        <time>2016-09-11T07:14:57Z</time>
      </trkpt>
      <trkpt lat="45.96758" lon="4.62239">
        <ele>339.038055</ele>
        <time>2016-09-11T07:14:59Z</time>
      </trkpt>
      <trkpt lat="45.9676" lon="4.6223">
        <ele>339.399719</ele>
        <time>2016-09-11T07:15:01Z</time>
      </trkpt>
      <trkpt lat="45.96763" lon="4.62221">
        <ele>339.517456</ele>
        <time>2016-09-11T07:15:03Z</time>
      </trkpt>
      <trkpt lat="45.96766" lon="4.62213">
        <ele>339.686523</ele>
        <time>2016-09-11T07:15:05Z</time>
      </trkpt>
      <trkpt lat="45.96769" lon="4.62205">
        <ele>339.931946</ele>
        <time>2016-09-11T07:15:07Z</time>
      </trkpt>
      <trkpt lat="45.96772" lon="4.62197">
        <ele>340.177795</ele>
        <time>2016-09-11T07:15:09Z</time>
      </trkpt>
      <trkpt lat="45.96774" lon="4.62189">
        <ele>340.488098</ele>
        <time>2016-09-11T07:15:11Z</time>
      </trkpt>
      <trkpt lat="45.96777" lon="4.6218">
        <ele>340.935486</ele>
        <time>2016-09-11T07:15:13Z</time>
      </trkpt>
      <trkpt lat="45.9678" lon="4.62173">
        <ele>341.145203</ele>
        <time>2016-09-11T07:15:15Z</time>
      </trkpt>
      <trkpt lat="45.96783" lon="4.62165">
        <ele>341.123108</ele>
        <time>2016-09-11T07:15:17Z</time>
      </trkpt>
      <trkpt lat="45.96787" lon="4.62158">
        <ele>341.345703</ele>
        <time>2016-09-11T07:15:19Z</time>
      </trkpt>
      <trkpt lat="45.96792" lon="4.62152">
        <ele>341.49765</ele>
        <time>2016-09-11T07:15:21Z</time>
      </trkpt>
      <trkpt lat="45.96795" lon="4.62145">
        <ele>341.808044</ele>
        <time>2016-09-11T07:15:23Z</time>
      </trkpt>
      <trkpt lat="45.96798" lon="4.62138">
        <ele>341.960022</ele>
        <time>2016-09-11T07:15:25Z</time>
      </trkpt>
      <trkpt lat="45.96801" lon="4.62131">
        <ele>342.04895</ele>
        <time>2016-09-11T07:15:27Z</time>
      </trkpt>
      <trkpt lat="45.96805" lon="4.62124">
        <ele>342.213806</ele>
        <time>2016-09-11T07:15:29Z</time>
      </trkpt>
      <trkpt lat="45.96809" lon="4.62117">
        <ele>342.515656</ele>
        <time>2016-09-11T07:15:31Z</time>
      </trkpt>
      <trkpt lat="45.96814" lon="4.62111">
        <ele>343.065582</ele>
        <time>2016-09-11T07:15:33Z</time>
      </trkpt>
      <trkpt lat="45.96818" lon="4.62103">
        <ele>343.328918</ele>
        <time>2016-09-11T07:15:35Z</time>
      </trkpt>
      <trkpt lat="45.96822" lon="4.62095">
        <ele>343.947357</ele>
        <time>2016-09-11T07:15:37Z</time>
      </trkpt>
      <trkpt lat="45.96826" lon="4.62088">
        <ele>344.345642</ele>
        <time>2016-09-11T07:15:39Z</time>
      </trkpt>
      <trkpt lat="45.9683" lon="4.62083">
        <ele>344.632538</ele>
        <time>2016-09-11T07:15:41Z</time>
      </trkpt>
      <trkpt lat="45.96833" lon="4.62075">
        <ele>344.598297</ele>
        <time>2016-09-11T07:15:43Z</time>
      </trkpt>
      <trkpt lat="45.96837" lon="4.62069">
        <ele>344.861542</ele>
        <time>2016-09-11T07:15:45Z</time>
      </trkpt>
      <trkpt lat="45.96841" lon="4.62065">
        <ele>345.236115</ele>
        <time>2016-09-11T07:15:47Z</time>
      </trkpt>
      <trkpt lat="45.96844" lon="4.6206">
        <ele>345.522156</ele>
        <time>2016-09-11T07:15:49Z</time>
      </trkpt>
      <trkpt lat="45.96847" lon="4.62053">
        <ele>345.941956</ele>
        <time>2016-09-11T07:15:51Z</time>
      </trkpt>
      <trkpt lat="45.96851" lon="4.62046">
        <ele>346.419586</ele>
        <time>2016-09-11T07:15:53Z</time>
      </trkpt>
      <trkpt lat="45.96854" lon="4.62039">
        <ele>346.530334</ele>
        <time>2016-09-11T07:15:55Z</time>
      </trkpt>
      <trkpt lat="45.96858" lon="4.62031">
        <ele>346.865875</ele>
        <time>2016-09-11T07:15:57Z</time>
      </trkpt>
      <trkpt lat="45.96862" lon="4.62024">
        <ele>346.987976</ele>
        <time>2016-09-11T07:15:59Z</time>
      </trkpt>
      <trkpt lat="45.96866" lon="4.62017">
        <ele>347.118591</ele>
        <time>2016-09-11T07:16:01Z</time>
      </trkpt>
      <trkpt lat="45.96869" lon="4.62011">
        <ele>347.459076</ele>
        <time>2016-09-11T07:16:03Z</time>
      </trkpt>
      <trkpt lat="45.96873" lon="4.62004">
        <ele>347.628235</ele>
        <time>2016-09-11T07:16:05Z</time>
      </trkpt>
      <trkpt lat="45.96876" lon="4.61998">
        <ele>348.00293</ele>
        <time>2016-09-11T07:16:07Z</time>
      </trkpt>
      <trkpt lat="45.96879" lon="4.6199">
        <ele>348.13028</ele>
        <time>2016-09-11T07:16:09Z</time>
      </trkpt>
      <trkpt lat="45.96882" lon="4.61982">
        <ele>348.374359</ele>
        <time>2016-09-11T07:16:11Z</time>
      </trkpt>
      <trkpt lat="45.96884" lon="4.61975">
        <ele>348.648499</ele>
        <time>2016-09-11T07:16:13Z</time>
      </trkpt>
      <trkpt lat="45.96887" lon="4.61967">
        <ele>348.772705</ele>
        <time>2016-09-11T07:16:15Z</time>
      </trkpt>
      <trkpt lat="45.96888" lon="4.61959">
        <ele>349.080994</ele>
        <time>2016-09-11T07:16:17Z</time>
      </trkpt>
      <trkpt lat="45.96891" lon="4.61952">
        <ele>349.303772</ele>
        <time>2016-09-11T07:16:19Z</time>
      </trkpt>
      <trkpt lat="45.96895" lon="4.61944">
        <ele>349.577942</ele>
        <time>2016-09-11T07:16:21Z</time>
      </trkpt>
      <trkpt lat="45.96898" lon="4.61935">
        <ele>349.548004</ele>
        <time>2016-09-11T07:16:23Z</time>
      </trkpt>
      <trkpt lat="45.96901" lon="4.61928">
        <ele>349.981201</ele>
        <time>2016-09-11T07:16:25Z</time>
      </trkpt>
      <trkpt lat="45.96903" lon="4.6192">
        <ele>350.293945</ele>
        <time>2016-09-11T07:16:27Z</time>
      </trkpt>
      <trkpt lat="45.96906" lon="4.61911">
        <ele>350.238251</ele>
        <time>2016-09-11T07:16:29Z</time>
      </trkpt>
      <trkpt lat="45.96909" lon="4.61902">
        <ele>350.503815</ele>
        <time>2016-09-11T07:16:31Z</time>
      </trkpt>
      <trkpt lat="45.96911" lon="4.61895">
        <ele>350.604492</ele>
        <time>2016-09-11T07:16:33Z</time>
      </trkpt>
      <trkpt lat="45.96914" lon="4.61887">
        <ele>350.536499</ele>
        <time>2016-09-11T07:16:35Z</time>
      </trkpt>
      <trkpt lat="45.96915" lon="4.61879">
        <ele>350.667175</ele>
        <time>2016-09-11T07:16:37Z</time>
      </trkpt>
      <trkpt lat="45.96919" lon="4.61871">
        <ele>350.989594</ele>
        <time>2016-09-11T07:16:39Z</time>
      </trkpt>
      <trkpt lat="45.96921" lon="4.61863">
        <ele>351.539886</ele>
        <time>2016-09-11T07:16:41Z</time>
      </trkpt>
      <trkpt lat="45.96923" lon="4.61853">
        <ele>351.833344</ele>
        <time>2016-09-11T07:16:43Z</time>
      </trkpt>
      <trkpt lat="45.96925" lon="4.61844">
        <ele>351.781921</ele>
        <time>2016-09-11T07:16:45Z</time>
      </trkpt>
      <trkpt lat="45.96926" lon="4.61836">
        <ele>352.049713</ele>
        <time>2016-09-11T07:16:47Z</time>
      </trkpt>
      <trkpt lat="45.96929" lon="4.61828">
        <ele>352.163086</ele>
        <time>2016-09-11T07:16:49Z</time>
      </trkpt>
      <trkpt lat="45.96931" lon="4.6182">
        <ele>352.409821</ele>
        <time>2016-09-11T07:16:51Z</time>
      </trkpt>
      <trkpt lat="45.96933" lon="4.61812">
        <ele>352.559814</ele>
        <time>2016-09-11T07:16:53Z</time>
      </trkpt>
      <trkpt lat="45.96936" lon="4.61804">
        <ele>352.979736</ele>
        <time>2016-09-11T07:16:55Z</time>
      </trkpt>
      <trkpt lat="45.96938" lon="4.61797">
        <ele>353.68927</ele>
        <time>2016-09-11T07:16:57Z</time>
      </trkpt>
      <trkpt lat="45.9694" lon="4.61789">
        <ele>354.037262</ele>
        <time>2016-09-11T07:16:59Z</time>
      </trkpt>
      <trkpt lat="45.96943" lon="4.61782">
        <ele>354.176575</ele>
        <time>2016-09-11T07:17:01Z</time>
      </trkpt>
      <trkpt lat="45.96945" lon="4.61775">
        <ele>354.276367</ele>
        <time>2016-09-11T07:17:03Z</time>
      </trkpt>
      <trkpt lat="45.96948" lon="4.61768">
        <ele>354.691956</ele>
        <time>2016-09-11T07:17:05Z</time>
      </trkpt>
      <trkpt lat="45.9695" lon="4.6176">
        <ele>354.860748</ele>
        <time>2016-09-11T07:17:07Z</time>
      </trkpt>
      <trkpt lat="45.96953" lon="4.61745">
        <ele>354.975037</ele>
        <time>2016-09-11T07:17:11Z</time>
      </trkpt>
      <trkpt lat="45.96956" lon="4.61738">
        <ele>355.202332</ele>
        <time>2016-09-11T07:17:13Z</time>
      </trkpt>
      <trkpt lat="45.96957" lon="4.61731">
        <ele>354.930359</ele>
        <time>2016-09-11T07:17:15Z</time>
      </trkpt>
      <trkpt lat="45.9696" lon="4.61723">
        <ele>355.046478</ele>
        <time>2016-09-11T07:17:17Z</time>
      </trkpt>
      <trkpt lat="45.96962" lon="4.61716">
        <ele>355.369537</ele>
        <time>2016-09-11T07:17:19Z</time>
      </trkpt>
      <trkpt lat="45.96965" lon="4.61708">
        <ele>355.557556</ele>
        <time>2016-09-11T07:17:21Z</time>
      </trkpt>
      <trkpt lat="45.96968" lon="4.617">
        <ele>355.742767</ele>
        <time>2016-09-11T07:17:23Z</time>
      </trkpt>
      <trkpt lat="45.96971" lon="4.61694">
        <ele>355.967834</ele>
        <time>2016-09-11T07:17:25Z</time>
      </trkpt>
      <trkpt lat="45.96975" lon="4.61687">
        <ele>356.047119</ele>
        <time>2016-09-11T07:17:27Z</time>
      </trkpt>
      <trkpt lat="45.96978" lon="4.6168">
        <ele>356.304199</ele>
        <time>2016-09-11T07:17:29Z</time>
      </trkpt>
      <trkpt lat="45.96981" lon="4.61673">
        <ele>356.539948</ele>
        <time>2016-09-11T07:17:31Z</time>
      </trkpt>
      <trkpt lat="45.96983" lon="4.61665">
        <ele>356.825134</ele>
        <time>2016-09-11T07:17:33Z</time>
      </trkpt>
      <trkpt lat="45.96986" lon="4.61657">
        <ele>357.067047</ele>
        <time>2016-09-11T07:17:35Z</time>
      </trkpt>
      <trkpt lat="45.9699" lon="4.61647">
        <ele>357.356384</ele>
        <time>2016-09-11T07:17:37Z</time>
      </trkpt>
      <trkpt lat="45.96993" lon="4.61637">
        <ele>357.515045</ele>
        <time>2016-09-11T07:17:39Z</time>
      </trkpt>
      <trkpt lat="45.96996" lon="4.61627">
        <ele>357.392273</ele>
        <time>2016-09-11T07:17:41Z</time>
      </trkpt>
      <trkpt lat="45.96999" lon="4.61618">
        <ele>357.547546</ele>
        <time>2016-09-11T07:17:43Z</time>
      </trkpt>
      <trkpt lat="45.97002" lon="4.61609">
        <ele>357.651428</ele>
        <time>2016-09-11T07:17:45Z</time>
      </trkpt>
      <trkpt lat="45.97005" lon="4.616">
        <ele>357.861511</ele>
        <time>2016-09-11T07:17:47Z</time>
      </trkpt>
      <trkpt lat="45.97009" lon="4.6159">
        <ele>358.243164</ele>
        <time>2016-09-11T07:17:49Z</time>
      </trkpt>
      <trkpt lat="45.97012" lon="4.61581">
        <ele>358.371094</ele>
        <time>2016-09-11T07:17:51Z</time>
      </trkpt>
      <trkpt lat="45.97015" lon="4.61572">
        <ele>358.716156</ele>
        <time>2016-09-11T07:17:53Z</time>
      </trkpt>
      <trkpt lat="45.97018" lon="4.61563">
        <ele>359.294495</ele>
        <time>2016-09-11T07:17:55Z</time>
      </trkpt>
      <trkpt lat="45.97021" lon="4.61554">
        <ele>359.723145</ele>
        <time>2016-09-11T07:17:57Z</time>
      </trkpt>
      <trkpt lat="45.97023" lon="4.61546">
        <ele>359.883545</ele>
        <time>2016-09-11T07:17:59Z</time>
      </trkpt>
      <trkpt lat="45.97026" lon="4.61537">
        <ele>360.169281</ele>
        <time>2016-09-11T07:18:01Z</time>
      </trkpt>
      <trkpt lat="45.97029" lon="4.61529">
        <ele>360.398712</ele>
        <time>2016-09-11T07:18:03Z</time>
      </trkpt>
      <trkpt lat="45.97032" lon="4.6152">
        <ele>360.568237</ele>
        <time>2016-09-11T07:18:05Z</time>
      </trkpt>
      <trkpt lat="45.97035" lon="4.61511">
        <ele>360.713989</ele>
        <time>2016-09-11T07:18:07Z</time>
      </trkpt>
      <trkpt lat="45.97038" lon="4.61503">
        <ele>361.203827</ele>
        <time>2016-09-11T07:18:09Z</time>
      </trkpt>
      <trkpt lat="45.9704" lon="4.61496">
        <ele>361.422546</ele>
        <time>2016-09-11T07:18:11Z</time>
      </trkpt>
      <trkpt lat="45.97043" lon="4.61487">
        <ele>361.613342</ele>
        <time>2016-09-11T07:18:13Z</time>
      </trkpt>
      <trkpt lat="45.97046" lon="4.61477">
        <ele>362.458801</ele>
        <time>2016-09-11T07:18:15Z</time>
      </trkpt>
      <trkpt lat="45.97047" lon="4.61468">
        <ele>362.51297</ele>
        <time>2016-09-11T07:18:17Z</time>
      </trkpt>
      <trkpt lat="45.97049" lon="4.61459">
        <ele>362.924744</ele>
        <time>2016-09-11T07:18:19Z</time>
      </trkpt>
      <trkpt lat="45.97052" lon="4.6145">
        <ele>363.094208</ele>
        <time>2016-09-11T07:18:21Z</time>
      </trkpt>
      <trkpt lat="45.97054" lon="4.61441">
        <ele>363.283508</ele>
        <time>2016-09-11T07:18:23Z</time>
      </trkpt>
      <trkpt lat="45.97055" lon="4.61432">
        <ele>363.440369</ele>
        <time>2016-09-11T07:18:25Z</time>
      </trkpt>
      <trkpt lat="45.97059" lon="4.61423">
        <ele>364.071228</ele>
        <time>2016-09-11T07:18:27Z</time>
      </trkpt>
      <trkpt lat="45.9706" lon="4.61414">
        <ele>364.457275</ele>
        <time>2016-09-11T07:18:29Z</time>
      </trkpt>
      <trkpt lat="45.97062" lon="4.61405">
        <ele>364.633209</ele>
        <time>2016-09-11T07:18:31Z</time>
      </trkpt>
      <trkpt lat="45.97064" lon="4.61396">
        <ele>365.003448</ele>
        <time>2016-09-11T07:18:33Z</time>
      </trkpt>
      <trkpt lat="45.97067" lon="4.61387">
        <ele>365.47467</ele>
        <time>2016-09-11T07:18:35Z</time>
      </trkpt>
      <trkpt lat="45.97069" lon="4.61379">
        <ele>365.736389</ele>
        <time>2016-09-11T07:18:37Z</time>
      </trkpt>
      <trkpt lat="45.97071" lon="4.61371">
        <ele>366.137634</ele>
        <time>2016-09-11T07:18:39Z</time>
      </trkpt>
      <trkpt lat="45.97073" lon="4.61363">
        <ele>366.357147</ele>
        <time>2016-09-11T07:18:41Z</time>
      </trkpt>
      <trkpt lat="45.97075" lon="4.61355">
        <ele>366.73053</ele>
        <time>2016-09-11T07:18:43Z</time>
      </trkpt>
      <trkpt lat="45.97077" lon="4.61348">
        <ele>367.256195</ele>
        <time>2016-09-11T07:18:45Z</time>
      </trkpt>
      <trkpt lat="45.97079" lon="4.6134">
        <ele>367.413971</ele>
        <time>2016-09-11T07:18:47Z</time>
      </trkpt>
      <trkpt lat="45.97081" lon="4.61333">
        <ele>367.853699</ele>
        <time>2016-09-11T07:18:49Z</time>
      </trkpt>
      <trkpt lat="45.97083" lon="4.61325">
        <ele>368.088684</ele>
        <time>2016-09-11T07:18:51Z</time>
      </trkpt>
      <trkpt lat="45.97085" lon="4.61316">
        <ele>368.326813</ele>
        <time>2016-09-11T07:18:53Z</time>
      </trkpt>
      <trkpt lat="45.97086" lon="4.61306">
        <ele>368.680756</ele>
        <time>2016-09-11T07:18:55Z</time>
      </trkpt>
      <trkpt lat="45.97088" lon="4.61297">
        <ele>368.418701</ele>
        <time>2016-09-11T07:18:57Z</time>
      </trkpt>
      <trkpt lat="45.97089" lon="4.61288">
        <ele>368.791443</ele>
        <time>2016-09-11T07:18:59Z</time>
      </trkpt>
      <trkpt lat="45.97091" lon="4.61279">
        <ele>368.965271</ele>
        <time>2016-09-11T07:19:01Z</time>
      </trkpt>
      <trkpt lat="45.97092" lon="4.61269">
        <ele>369.121826</ele>
        <time>2016-09-11T07:19:03Z</time>
      </trkpt>
      <trkpt lat="45.97094" lon="4.6126">
        <ele>369.042419</ele>
        <time>2016-09-11T07:19:05Z</time>
      </trkpt>
      <trkpt lat="45.97096" lon="4.6125">
        <ele>369.134674</ele>
        <time>2016-09-11T07:19:07Z</time>
      </trkpt>
      <trkpt lat="45.97097" lon="4.61241">
        <ele>368.973145</ele>
        <time>2016-09-11T07:19:09Z</time>
      </trkpt>
      <trkpt lat="45.97098" lon="4.61232">
        <ele>369.140228</ele>
        <time>2016-09-11T07:19:11Z</time>
      </trkpt>
      <trkpt lat="45.97099" lon="4.61223">
        <ele>369.348389</ele>
        <time>2016-09-11T07:19:13Z</time>
      </trkpt>
      <trkpt lat="45.97099" lon="4.61213">
        <ele>369.619629</ele>
        <time>2016-09-11T07:19:15Z</time>
      </trkpt>
      <trkpt lat="45.971" lon="4.61203">
        <ele>369.80899</ele>
        <time>2016-09-11T07:19:17Z</time>
      </trkpt>
      <trkpt lat="45.97102" lon="4.61194">
        <ele>370.068359</ele>
        <time>2016-09-11T07:19:19Z</time>
      </trkpt>
      <trkpt lat="45.97103" lon="4.61184">
        <ele>370.2229</ele>
        <time>2016-09-11T07:19:21Z</time>
      </trkpt>
      <trkpt lat="45.97104" lon="4.61174">
        <ele>370.512115</ele>
        <time>2016-09-11T07:19:23Z</time>
      </trkpt>
      <trkpt lat="45.97104" lon="4.61164">
        <ele>370.539642</ele>
        <time>2016-09-11T07:19:25Z</time>
      </trkpt>
      <trkpt lat="45.97104" lon="4.61154">
        <ele>370.507446</ele>
        <time>2016-09-11T07:19:27Z</time>
      </trkpt>
      <trkpt lat="45.97103" lon="4.61144">
        <ele>370.728546</ele>
        <time>2016-09-11T07:19:29Z</time>
      </trkpt>
      <trkpt lat="45.97101" lon="4.61134">
        <ele>370.797211</ele>
        <time>2016-09-11T07:19:31Z</time>
      </trkpt>
      <trkpt lat="45.97099" lon="4.61124">
        <ele>371.104156</ele>
        <time>2016-09-11T07:19:33Z</time>
      </trkpt>
      <trkpt lat="45.97096" lon="4.61113">
        <ele>371.187836</ele>
        <time>2016-09-11T07:19:35Z</time>
      </trkpt>
      <trkpt lat="45.9709" lon="4.61103">
        <ele>371.430573</ele>
        <time>2016-09-11T07:19:37Z</time>
      </trkpt>
      <trkpt lat="45.97085" lon="4.61096">
        <ele>371.552216</ele>
        <time>2016-09-11T07:19:39Z</time>
      </trkpt>
      <trkpt lat="45.97079" lon="4.61089">
        <ele>371.678619</ele>
        <time>2016-09-11T07:19:41Z</time>
      </trkpt>
      <trkpt lat="45.97073" lon="4.61082">
        <ele>371.706543</ele>
        <time>2016-09-11T07:19:43Z</time>
      </trkpt>
      <trkpt lat="45.97066" lon="4.61076">
        <ele>372.067169</ele>
        <time>2016-09-11T07:19:45Z</time>
      </trkpt>
      <trkpt lat="45.97058" lon="4.6107">
        <ele>372.485596</ele>
        <time>2016-09-11T07:19:47Z</time>
      </trkpt>
      <trkpt lat="45.97052" lon="4.61061">
        <ele>372.528442</ele>
        <time>2016-09-11T07:19:49Z</time>
      </trkpt>
      <trkpt lat="45.97052" lon="4.61052">
        <ele>372.609497</ele>
        <time>2016-09-11T07:19:51Z</time>
      </trkpt>
      <trkpt lat="45.97053" lon="4.61044">
        <ele>372.547241</ele>
        <time>2016-09-11T07:19:53Z</time>
      </trkpt>
      <trkpt lat="45.97054" lon="4.61036">
        <ele>372.540833</ele>
        <time>2016-09-11T07:19:55Z</time>
      </trkpt>
      <trkpt lat="45.97055" lon="4.61029">
        <ele>372.53009</ele>
        <time>2016-09-11T07:19:57Z</time>
      </trkpt>
      <trkpt lat="45.97055" lon="4.61022">
        <ele>372.608215</ele>
        <time>2016-09-11T07:19:59Z</time>
      </trkpt>
      <trkpt lat="45.97056" lon="4.61014">
        <ele>372.627747</ele>
        <time>2016-09-11T07:20:01Z</time>
      </trkpt>
      <trkpt lat="45.97057" lon="4.61007">
        <ele>372.590546</ele>
        <time>2016-09-11T07:20:03Z</time>
      </trkpt>
      <trkpt lat="45.97058" lon="4.61">
        <ele>372.583893</ele>
        <time>2016-09-11T07:20:05Z</time>
      </trkpt>
      <trkpt lat="45.97059" lon="4.60992">
        <ele>372.725983</ele>
        <time>2016-09-11T07:20:07Z</time>
      </trkpt>
      <trkpt lat="45.9706" lon="4.60986">
        <ele>372.829041</ele>
        <time>2016-09-11T07:20:09Z</time>
      </trkpt>
      <trkpt lat="45.9706" lon="4.60978">
        <ele>372.876251</ele>
        <time>2016-09-11T07:20:11Z</time>
      </trkpt>
      <trkpt lat="45.97061" lon="4.60971">
        <ele>373.078064</ele>
        <time>2016-09-11T07:20:13Z</time>
      </trkpt>
      <trkpt lat="45.97062" lon="4.60964">
        <ele>373.100647</ele>
        <time>2016-09-11T07:20:15Z</time>
      </trkpt>
      <trkpt lat="45.97063" lon="4.60956">
        <ele>373.316223</ele>
        <time>2016-09-11T07:20:17Z</time>
      </trkpt>
      <trkpt lat="45.97064" lon="4.60949">
        <ele>373.472931</ele>
        <time>2016-09-11T07:20:19Z</time>
      </trkpt>
      <trkpt lat="45.97065" lon="4.60942">
        <ele>373.574768</ele>
        <time>2016-09-11T07:20:21Z</time>
      </trkpt>
      <trkpt lat="45.97066" lon="4.60935">
        <ele>373.916138</ele>
        <time>2016-09-11T07:20:23Z</time>
      </trkpt>
      <trkpt lat="45.97068" lon="4.60928">
        <ele>374.010681</ele>
        <time>2016-09-11T07:20:25Z</time>
      </trkpt>
      <trkpt lat="45.97069" lon="4.60922">
        <ele>374.21463</ele>
        <time>2016-09-11T07:20:27Z</time>
      </trkpt>
      <trkpt lat="45.97071" lon="4.60916">
        <ele>374.495056</ele>
        <time>2016-09-11T07:20:29Z</time>
      </trkpt>
      <trkpt lat="45.97073" lon="4.6091">
        <ele>374.946014</ele>
        <time>2016-09-11T07:20:31Z</time>
      </trkpt>
      <trkpt lat="45.97075" lon="4.60904">
        <ele>375.308075</ele>
        <time>2016-09-11T07:20:33Z</time>
      </trkpt>
      <trkpt lat="45.97075" lon="4.60898">
        <ele>375.718201</ele>
        <time>2016-09-11T07:20:35Z</time>
      </trkpt>
      <trkpt lat="45.97076" lon="4.60892">
        <ele>376.052795</ele>
        <time>2016-09-11T07:20:37Z</time>
      </trkpt>
      <trkpt lat="45.97076" lon="4.60887">
        <ele>376.559601</ele>
        <time>2016-09-11T07:20:39Z</time>
      </trkpt>
      <trkpt lat="45.97076" lon="4.60883">
        <ele>376.968964</ele>
        <time>2016-09-11T07:20:41Z</time>
      </trkpt>
      <trkpt lat="45.97074" lon="4.60878">
        <ele>377.526001</ele>
        <time>2016-09-11T07:20:43Z</time>
      </trkpt>
      <trkpt lat="45.97072" lon="4.60874">
        <ele>377.945618</ele>
        <time>2016-09-11T07:20:45Z</time>
      </trkpt>
      <trkpt lat="45.97071" lon="4.60871">
        <ele>378.330048</ele>
        <time>2016-09-11T07:20:47Z</time>
      </trkpt>
      <trkpt lat="45.9707" lon="4.60869">
        <ele>378.557709</ele>
        <time>2016-09-11T07:20:49Z</time>
      </trkpt>
      <trkpt lat="45.97068" lon="4.60866">
        <ele>379.004456</ele>
        <time>2016-09-11T07:20:51Z</time>
      </trkpt>
      <trkpt lat="45.97067" lon="4.60863">
        <ele>379.425476</ele>
        <time>2016-09-11T07:20:53Z</time>
      </trkpt>
      <trkpt lat="45.97065" lon="4.6086">
        <ele>379.877594</ele>
        <time>2016-09-11T07:20:55Z</time>
      </trkpt>
      <trkpt lat="45.97063" lon="4.60857">
        <ele>380.248138</ele>
        <time>2016-09-11T07:20:57Z</time>
      </trkpt>
      <trkpt lat="45.97061" lon="4.60855">
        <ele>380.548889</ele>
        <time>2016-09-11T07:20:59Z</time>
      </trkpt>
      <trkpt lat="45.9706" lon="4.60853">
        <ele>380.758453</ele>
        <time>2016-09-11T07:21:01Z</time>
      </trkpt>
      <trkpt lat="45.97058" lon="4.6085">
        <ele>381.160187</ele>
        <time>2016-09-11T07:21:03Z</time>
      </trkpt>
      <trkpt lat="45.97056" lon="4.60847">
        <ele>381.581268</ele>
        <time>2016-09-11T07:21:05Z</time>
      </trkpt>
      <trkpt lat="45.97055" lon="4.60845">
        <ele>382.036804</ele>
        <time>2016-09-11T07:21:07Z</time>
      </trkpt>
      <trkpt lat="45.97054" lon="4.60842">
        <ele>382.443726</ele>
        <time>2016-09-11T07:21:09Z</time>
      </trkpt>
      <trkpt lat="45.97053" lon="4.6084">
        <ele>382.903625</ele>
        <time>2016-09-11T07:21:11Z</time>
      </trkpt>
      <trkpt lat="45.97052" lon="4.60838">
        <ele>383.050293</ele>
        <time>2016-09-11T07:21:13Z</time>
      </trkpt>
      <trkpt lat="45.9705" lon="4.60835">
        <ele>383.531677</ele>
        <time>2016-09-11T07:21:15Z</time>
      </trkpt>
      <trkpt lat="45.97048" lon="4.60834">
        <ele>384.125214</ele>
        <time>2016-09-11T07:21:17Z</time>
      </trkpt>
      <trkpt lat="45.97046" lon="4.60832">
        <ele>384.591614</ele>
        <time>2016-09-11T07:21:19Z</time>
      </trkpt>
      <trkpt lat="45.97045" lon="4.60829">
        <ele>385.571716</ele>
        <time>2016-09-11T07:21:23Z</time>
      </trkpt>
      <trkpt lat="45.97044" lon="4.60827">
        <ele>385.858948</ele>
        <time>2016-09-11T07:21:25Z</time>
      </trkpt>
      <trkpt lat="45.97043" lon="4.60824">
        <ele>385.994324</ele>
        <time>2016-09-11T07:21:27Z</time>
      </trkpt>
      <trkpt lat="45.97042" lon="4.60822">
        <ele>386.523499</ele>
        <time>2016-09-11T07:21:29Z</time>
      </trkpt>
      <trkpt lat="45.97041" lon="4.6082">
        <ele>387.260681</ele>
        <time>2016-09-11T07:21:31Z</time>
      </trkpt>
      <trkpt lat="45.97038" lon="4.60816">
        <ele>389.234314</ele>
        <time>2016-09-11T07:21:39Z</time>
      </trkpt>
      <trkpt lat="45.97037" lon="4.60813">
        <ele>389.836304</ele>
        <time>2016-09-11T07:21:41Z</time>
      </trkpt>
      <trkpt lat="45.97036" lon="4.60811">
        <ele>390.368317</ele>
        <time>2016-09-11T07:21:43Z</time>
      </trkpt>
      <trkpt lat="45.97036" lon="4.60809">
        <ele>390.849426</ele>
        <time>2016-09-11T07:21:45Z</time>
      </trkpt>
      <trkpt lat="45.97036" lon="4.60807">
        <ele>391.262787</ele>
        <time>2016-09-11T07:21:47Z</time>
      </trkpt>
      <trkpt lat="45.97036" lon="4.60805">
        <ele>391.815491</ele>
        <time>2016-09-11T07:21:49Z</time>
      </trkpt>
      <trkpt lat="45.97035" lon="4.60803">
        <ele>392.297211</ele>
        <time>2016-09-11T07:21:51Z</time>
      </trkpt>
      <trkpt lat="45.97035" lon="4.608">
        <ele>392.739746</ele>
        <time>2016-09-11T07:21:53Z</time>
      </trkpt>
      <trkpt lat="45.97035" lon="4.60797">
        <ele>393.394928</ele>
        <time>2016-09-11T07:21:55Z</time>
      </trkpt>
      <trkpt lat="45.97035" lon="4.60795">
        <ele>393.822998</ele>
        <time>2016-09-11T07:21:57Z</time>
      </trkpt>
      <trkpt lat="45.97035" lon="4.60792">
        <ele>394.010162</ele>
        <time>2016-09-11T07:21:59Z</time>
      </trkpt>
      <trkpt lat="45.97035" lon="4.6079">
        <ele>394.511383</ele>
        <time>2016-09-11T07:22:01Z</time>
      </trkpt>
      <trkpt lat="45.97035" lon="4.60787">
        <ele>394.87265</ele>
        <time>2016-09-11T07:22:03Z</time>
      </trkpt>
      <trkpt lat="45.97036" lon="4.60785">
        <ele>395.287872</ele>
        <time>2016-09-11T07:22:05Z</time>
      </trkpt>
      <trkpt lat="45.97036" lon="4.60783">
        <ele>395.687958</ele>
        <time>2016-09-11T07:22:07Z</time>
      </trkpt>
      <trkpt lat="45.97036" lon="4.60781">
        <ele>396.199554</ele>
        <time>2016-09-11T07:22:09Z</time>
      </trkpt>
      <trkpt lat="45.97037" lon="4.6078">
        <ele>396.548645</ele>
        <time>2016-09-11T07:22:11Z</time>
      </trkpt>
      <trkpt lat="45.97038" lon="4.60778">
        <ele>396.959625</ele>
        <time>2016-09-11T07:22:13Z</time>
      </trkpt>
      <trkpt lat="45.97038" lon="4.60775">
        <ele>397.323273</ele>
        <time>2016-09-11T07:22:15Z</time>
      </trkpt>
      <trkpt lat="45.97039" lon="4.60773">
        <ele>397.749329</ele>
        <time>2016-09-11T07:22:17Z</time>
      </trkpt>
      <trkpt lat="45.9704" lon="4.6077">
        <ele>398.124817</ele>
        <time>2016-09-11T07:22:19Z</time>
      </trkpt>
      <trkpt lat="45.9704" lon="4.60768">
        <ele>398.477753</ele>
        <time>2016-09-11T07:22:21Z</time>
      </trkpt>
      <trkpt lat="45.97041" lon="4.60766">
        <ele>398.819916</ele>
        <time>2016-09-11T07:22:23Z</time>
      </trkpt>
      <trkpt lat="45.97043" lon="4.60764">
        <ele>399.05661</ele>
        <time>2016-09-11T07:22:25Z</time>
      </trkpt>
      <trkpt lat="45.97043" lon="4.60761">
        <ele>399.42511</ele>
        <time>2016-09-11T07:22:27Z</time>
      </trkpt>
      <trkpt lat="45.97044" lon="4.60759">
        <ele>399.822845</ele>
        <time>2016-09-11T07:22:29Z</time>
      </trkpt>
      <trkpt lat="45.97046" lon="4.60757">
        <ele>400.126312</ele>
        <time>2016-09-11T07:22:31Z</time>
      </trkpt>
      <trkpt lat="45.97046" lon="4.60755">
        <ele>400.469299</ele>
        <time>2016-09-11T07:22:33Z</time>
      </trkpt>
      <trkpt lat="45.97047" lon="4.60752">
        <ele>400.749115</ele>
        <time>2016-09-11T07:22:35Z</time>
      </trkpt>
      <trkpt lat="45.97047" lon="4.60749">
        <ele>401.088348</ele>
        <time>2016-09-11T07:22:37Z</time>
      </trkpt>
      <trkpt lat="45.97048" lon="4.60747">
        <ele>401.347778</ele>
        <time>2016-09-11T07:22:39Z</time>
      </trkpt>
      <trkpt lat="45.97051" lon="4.60739">
        <ele>404.106995</ele>
        <time>2016-09-11T07:23:10Z</time>
      </trkpt>
      <trkpt lat="45.97052" lon="4.60735">
        <ele>404.130676</ele>
        <time>2016-09-11T07:23:12Z</time>
      </trkpt>
      <trkpt lat="45.97054" lon="4.60731">
        <ele>404.117004</ele>
        <time>2016-09-11T07:23:14Z</time>
      </trkpt>
      <trkpt lat="45.97056" lon="4.60727">
        <ele>404.259094</ele>
        <time>2016-09-11T07:23:16Z</time>
      </trkpt>
      <trkpt lat="45.97059" lon="4.60722">
        <ele>404.327332</ele>
        <time>2016-09-11T07:23:18Z</time>
      </trkpt>
      <trkpt lat="45.97063" lon="4.60716">
        <ele>404.343445</ele>
        <time>2016-09-11T07:23:20Z</time>
      </trkpt>
      <trkpt lat="45.97066" lon="4.60708">
        <ele>404.339142</ele>
        <time>2016-09-11T07:23:22Z</time>
      </trkpt>
      <trkpt lat="45.97068" lon="4.60702">
        <ele>404.302704</ele>
        <time>2016-09-11T07:23:24Z</time>
      </trkpt>
      <trkpt lat="45.97071" lon="4.60697">
        <ele>404.291473</ele>
        <time>2016-09-11T07:23:26Z</time>
      </trkpt>
      <trkpt lat="45.97073" lon="4.60692">
        <ele>404.289337</ele>
        <time>2016-09-11T07:23:28Z</time>
      </trkpt>
      <trkpt lat="45.97075" lon="4.60687">
        <ele>404.246338</ele>
        <time>2016-09-11T07:23:30Z</time>
      </trkpt>
      <trkpt lat="45.97078" lon="4.60681">
        <ele>404.229156</ele>
        <time>2016-09-11T07:23:32Z</time>
      </trkpt>
      <trkpt lat="45.97081" lon="4.60675">
        <ele>404.155945</ele>
        <time>2016-09-11T07:23:34Z</time>
      </trkpt>
      <trkpt lat="45.97083" lon="4.60669">
        <ele>404.196869</ele>
        <time>2016-09-11T07:23:36Z</time>
      </trkpt>
      <trkpt lat="45.97084" lon="4.60663">
        <ele>404.207825</ele>
        <time>2016-09-11T07:23:38Z</time>
      </trkpt>
      <trkpt lat="45.97086" lon="4.60657">
        <ele>404.190613</ele>
        <time>2016-09-11T07:23:40Z</time>
      </trkpt>
      <trkpt lat="45.97088" lon="4.60651">
        <ele>404.258057</ele>
        <time>2016-09-11T07:23:42Z</time>
      </trkpt>
      <trkpt lat="45.97088" lon="4.60645">
        <ele>404.318329</ele>
        <time>2016-09-11T07:23:44Z</time>
      </trkpt>
      <trkpt lat="45.97089" lon="4.60639">
        <ele>404.408783</ele>
        <time>2016-09-11T07:23:46Z</time>
      </trkpt>
      <trkpt lat="45.9709" lon="4.60632">
        <ele>404.540161</ele>
        <time>2016-09-11T07:23:48Z</time>
      </trkpt>
      <trkpt lat="45.97092" lon="4.60626">
        <ele>404.553589</ele>
        <time>2016-09-11T07:23:50Z</time>
      </trkpt>
      <trkpt lat="45.97092" lon="4.60619">
        <ele>404.607422</ele>
        <time>2016-09-11T07:23:52Z</time>
      </trkpt>
      <trkpt lat="45.97093" lon="4.60613">
        <ele>404.816284</ele>
        <time>2016-09-11T07:23:54Z</time>
      </trkpt>
      <trkpt lat="45.97094" lon="4.60607">
        <ele>405.003632</ele>
        <time>2016-09-11T07:23:56Z</time>
      </trkpt>
      <trkpt lat="45.97095" lon="4.60601">
        <ele>405.107605</ele>
        <time>2016-09-11T07:23:58Z</time>
      </trkpt>
      <trkpt lat="45.97096" lon="4.60594">
        <ele>405.305756</ele>
        <time>2016-09-11T07:24:00Z</time>
      </trkpt>
      <trkpt lat="45.97097" lon="4.60588">
        <ele>405.482727</ele>
        <time>2016-09-11T07:24:02Z</time>
      </trkpt>
      <trkpt lat="45.97098" lon="4.60582">
        <ele>405.667908</ele>
        <time>2016-09-11T07:24:04Z</time>
      </trkpt>
      <trkpt lat="45.97099" lon="4.60575">
        <ele>405.990967</ele>
        <time>2016-09-11T07:24:06Z</time>
      </trkpt>
      <trkpt lat="45.971" lon="4.60569">
        <ele>406.172333</ele>
        <time>2016-09-11T07:24:08Z</time>
      </trkpt>
      <trkpt lat="45.97102" lon="4.60563">
        <ele>406.394073</ele>
        <time>2016-09-11T07:24:10Z</time>
      </trkpt>
      <trkpt lat="45.97103" lon="4.60556">
        <ele>406.749359</ele>
        <time>2016-09-11T07:24:12Z</time>
      </trkpt>
      <trkpt lat="45.97105" lon="4.60549">
        <ele>406.94751</ele>
        <time>2016-09-11T07:24:14Z</time>
      </trkpt>
      <trkpt lat="45.97106" lon="4.60542">
        <ele>407.242584</ele>
        <time>2016-09-11T07:24:16Z</time>
      </trkpt>
      <trkpt lat="45.97108" lon="4.60534">
        <ele>407.51825</ele>
        <time>2016-09-11T07:24:18Z</time>
      </trkpt>
      <trkpt lat="45.97109" lon="4.60527">
        <ele>407.724884</ele>
        <time>2016-09-11T07:24:20Z</time>
      </trkpt>
      <trkpt lat="45.97111" lon="4.60518">
        <ele>407.875641</ele>
        <time>2016-09-11T07:24:22Z</time>
      </trkpt>
      <trkpt lat="45.97113" lon="4.6051">
        <ele>408.002014</ele>
        <time>2016-09-11T07:24:24Z</time>
      </trkpt>
      <trkpt lat="45.97114" lon="4.60502">
        <ele>408.23468</ele>
        <time>2016-09-11T07:24:26Z</time>
      </trkpt>
      <trkpt lat="45.97115" lon="4.60494">
        <ele>408.432831</ele>
        <time>2016-09-11T07:24:28Z</time>
      </trkpt>
      <trkpt lat="45.97117" lon="4.60487">
        <ele>408.516815</ele>
        <time>2016-09-11T07:24:30Z</time>
      </trkpt>
      <trkpt lat="45.97118" lon="4.6048">
        <ele>408.770996</ele>
        <time>2016-09-11T07:24:32Z</time>
      </trkpt>
      <trkpt lat="45.97119" lon="4.60474">
        <ele>408.911926</ele>
        <time>2016-09-11T07:24:34Z</time>
      </trkpt>
      <trkpt lat="45.9712" lon="4.60469">
        <ele>409.056244</ele>
        <time>2016-09-11T07:24:36Z</time>
      </trkpt>
      <trkpt lat="45.9712" lon="4.60466">
        <ele>409.153198</ele>
        <time>2016-09-11T07:24:38Z</time>
      </trkpt>
      <trkpt lat="45.97117" lon="4.6046">
        <ele>409.908508</ele>
        <time>2016-09-11T07:27:44Z</time>
      </trkpt>
      <trkpt lat="45.97115" lon="4.60454">
        <ele>409.95459</ele>
        <time>2016-09-11T07:27:46Z</time>
      </trkpt>
      <trkpt lat="45.97117" lon="4.6045">
        <ele>409.917969</ele>
        <time>2016-09-11T07:27:48Z</time>
      </trkpt>
      <trkpt lat="45.9712" lon="4.60446">
        <ele>410.081726</ele>
        <time>2016-09-11T07:27:50Z</time>
      </trkpt>
      <trkpt lat="45.97123" lon="4.6044">
        <ele>410.109711</ele>
        <time>2016-09-11T07:27:52Z</time>
      </trkpt>
      <trkpt lat="45.97123" lon="4.60434">
        <ele>410.175537</ele>
        <time>2016-09-11T07:27:54Z</time>
      </trkpt>
      <trkpt lat="45.97121" lon="4.60428">
        <ele>410.373779</ele>
        <time>2016-09-11T07:27:56Z</time>
      </trkpt>
      <trkpt lat="45.97117" lon="4.60425">
        <ele>410.61734</ele>
        <time>2016-09-11T07:27:58Z</time>
      </trkpt>
      <trkpt lat="45.97114" lon="4.60422">
        <ele>410.679779</ele>
        <time>2016-09-11T07:28:00Z</time>
      </trkpt>
      <trkpt lat="45.9711" lon="4.60418">
        <ele>410.868011</ele>
        <time>2016-09-11T07:28:02Z</time>
      </trkpt>
      <trkpt lat="45.97106" lon="4.60415">
        <ele>411.029602</ele>
        <time>2016-09-11T07:28:04Z</time>
      </trkpt>
      <trkpt lat="45.97103" lon="4.60412">
        <ele>411.158875</ele>
        <time>2016-09-11T07:28:06Z</time>
      </trkpt>
      <trkpt lat="45.97099" lon="4.60408">
        <ele>411.351471</ele>
        <time>2016-09-11T07:28:08Z</time>
      </trkpt>
      <trkpt lat="45.97096" lon="4.60405">
        <ele>411.60141</ele>
        <time>2016-09-11T07:28:10Z</time>
      </trkpt>
      <trkpt lat="45.97092" lon="4.60403">
        <ele>411.804626</ele>
        <time>2016-09-11T07:28:12Z</time>
      </trkpt>
      <trkpt lat="45.97089" lon="4.604">
        <ele>411.955475</ele>
        <time>2016-09-11T07:28:14Z</time>
      </trkpt>
      <trkpt lat="45.97085" lon="4.60397">
        <ele>412.22052</ele>
        <time>2016-09-11T07:28:16Z</time>
      </trkpt>
      <trkpt lat="45.97083" lon="4.60393">
        <ele>412.511475</ele>
        <time>2016-09-11T07:28:18Z</time>
      </trkpt>
      <trkpt lat="45.9708" lon="4.6039">
        <ele>412.683899</ele>
        <time>2016-09-11T07:28:20Z</time>
      </trkpt>
      <trkpt lat="45.97077" lon="4.60387">
        <ele>412.979187</ele>
        <time>2016-09-11T07:28:22Z</time>
      </trkpt>
      <trkpt lat="45.97073" lon="4.60385">
        <ele>413.289551</ele>
        <time>2016-09-11T07:28:24Z</time>
      </trkpt>
      <trkpt lat="45.9707" lon="4.60381">
        <ele>413.617523</ele>
        <time>2016-09-11T07:28:26Z</time>
      </trkpt>
      <trkpt lat="45.9707" lon="4.60377">
        <ele>413.992493</ele>
        <time>2016-09-11T07:28:28Z</time>
      </trkpt>
      <trkpt lat="45.97071" lon="4.60373">
        <ele>414.419342</ele>
        <time>2016-09-11T07:28:30Z</time>
      </trkpt>
      <trkpt lat="45.97075" lon="4.60369">
        <ele>414.820313</ele>
        <time>2016-09-11T07:28:32Z</time>
      </trkpt>
      <trkpt lat="45.9708" lon="4.60364">
        <ele>415.166107</ele>
        <time>2016-09-11T07:28:34Z</time>
      </trkpt>
      <trkpt lat="45.97084" lon="4.60359">
        <ele>415.433411</ele>
        <time>2016-09-11T07:28:36Z</time>
      </trkpt>
      <trkpt lat="45.97089" lon="4.60355">
        <ele>415.684265</ele>
        <time>2016-09-11T07:28:38Z</time>
      </trkpt>
      <trkpt lat="45.97094" lon="4.6035">
        <ele>415.757568</ele>
        <time>2016-09-11T07:28:40Z</time>
      </trkpt>
      <trkpt lat="45.97098" lon="4.60343">
        <ele>416.104584</ele>
        <time>2016-09-11T07:28:42Z</time>
      </trkpt>
      <trkpt lat="45.97102" lon="4.60336">
        <ele>416.356781</ele>
        <time>2016-09-11T07:28:44Z</time>
      </trkpt>
      <trkpt lat="45.97105" lon="4.60329">
        <ele>416.675934</ele>
        <time>2016-09-11T07:28:46Z</time>
      </trkpt>
      <trkpt lat="45.97109" lon="4.60321">
        <ele>416.879944</ele>
        <time>2016-09-11T07:28:48Z</time>
      </trkpt>
      <trkpt lat="45.97113" lon="4.60314">
        <ele>417.087952</ele>
        <time>2016-09-11T07:28:50Z</time>
      </trkpt>
      <trkpt lat="45.97117" lon="4.60306">
        <ele>417.275482</ele>
        <time>2016-09-11T07:28:52Z</time>
      </trkpt>
      <trkpt lat="45.9712" lon="4.60299">
        <ele>417.60318</ele>
        <time>2016-09-11T07:28:54Z</time>
      </trkpt>
      <trkpt lat="45.97123" lon="4.60292">
        <ele>417.687256</ele>
        <time>2016-09-11T07:28:56Z</time>
      </trkpt>
      <trkpt lat="45.97126" lon="4.60286">
        <ele>417.982605</ele>
        <time>2016-09-11T07:28:58Z</time>
      </trkpt>
      <trkpt lat="45.9713" lon="4.60279">
        <ele>418.256989</ele>
        <time>2016-09-11T07:29:00Z</time>
      </trkpt>
      <trkpt lat="45.97134" lon="4.60273">
        <ele>418.63208</ele>
        <time>2016-09-11T07:29:02Z</time>
      </trkpt>
      <trkpt lat="45.97139" lon="4.60269">
        <ele>418.675201</ele>
        <time>2016-09-11T07:29:04Z</time>
      </trkpt>
      <trkpt lat="45.97144" lon="4.60263">
        <ele>418.617004</ele>
        <time>2016-09-11T07:29:06Z</time>
      </trkpt>
      <trkpt lat="45.97149" lon="4.60258">
        <ele>418.774231</ele>
        <time>2016-09-11T07:29:08Z</time>
      </trkpt>
      <trkpt lat="45.97153" lon="4.60253">
        <ele>418.582458</ele>
        <time>2016-09-11T07:29:10Z</time>
      </trkpt>
      <trkpt lat="45.97158" lon="4.60248">
        <ele>418.634216</ele>
        <time>2016-09-11T07:29:12Z</time>
      </trkpt>
      <trkpt lat="45.97163" lon="4.60244">
        <ele>418.70752</ele>
        <time>2016-09-11T07:29:14Z</time>
      </trkpt>
      <trkpt lat="45.97167" lon="4.6024">
        <ele>418.921051</ele>
        <time>2016-09-11T07:29:16Z</time>
      </trkpt>
      <trkpt lat="45.97172" lon="4.60237">
        <ele>419.116455</ele>
        <time>2016-09-11T07:29:18Z</time>
      </trkpt>
      <trkpt lat="45.97176" lon="4.60234">
        <ele>419.381683</ele>
        <time>2016-09-11T07:29:20Z</time>
      </trkpt>
      <trkpt lat="45.97181" lon="4.60232">
        <ele>419.586578</ele>
        <time>2016-09-11T07:29:22Z</time>
      </trkpt>
      <trkpt lat="45.97186" lon="4.6023">
        <ele>419.728912</ele>
        <time>2016-09-11T07:29:24Z</time>
      </trkpt>
      <trkpt lat="45.97191" lon="4.60228">
        <ele>419.996674</ele>
        <time>2016-09-11T07:29:26Z</time>
      </trkpt>
      <trkpt lat="45.97196" lon="4.60227">
        <ele>420.306335</ele>
        <time>2016-09-11T07:29:28Z</time>
      </trkpt>
      <trkpt lat="45.97201" lon="4.60225">
        <ele>420.673004</ele>
        <time>2016-09-11T07:29:30Z</time>
      </trkpt>
      <trkpt lat="45.97206" lon="4.60224">
        <ele>420.829407</ele>
        <time>2016-09-11T07:29:32Z</time>
      </trkpt>
      <trkpt lat="45.9721" lon="4.60223">
        <ele>421.226227</ele>
        <time>2016-09-11T07:29:34Z</time>
      </trkpt>
      <trkpt lat="45.97212" lon="4.60222">
        <ele>421.708313</ele>
        <time>2016-09-11T07:29:38Z</time>
      </trkpt>
      <trkpt lat="45.97215" lon="4.60222">
        <ele>422.303162</ele>
        <time>2016-09-11T07:29:43Z</time>
      </trkpt>
      <trkpt lat="45.97217" lon="4.60222">
        <ele>422.539215</ele>
        <time>2016-09-11T07:29:45Z</time>
      </trkpt>
      <trkpt lat="45.97221" lon="4.60222">
        <ele>423.137604</ele>
        <time>2016-09-11T07:29:47Z</time>
      </trkpt>
      <trkpt lat="45.97224" lon="4.60222">
        <ele>423.5065</ele>
        <time>2016-09-11T07:29:49Z</time>
      </trkpt>
      <trkpt lat="45.97228" lon="4.60222">
        <ele>423.812103</ele>
        <time>2016-09-11T07:29:51Z</time>
      </trkpt>
      <trkpt lat="45.97232" lon="4.60223">
        <ele>424.539886</ele>
        <time>2016-09-11T07:29:53Z</time>
      </trkpt>
      <trkpt lat="45.97236" lon="4.60224">
        <ele>424.768616</ele>
        <time>2016-09-11T07:29:55Z</time>
      </trkpt>
      <trkpt lat="45.97239" lon="4.60226">
        <ele>425.146179</ele>
        <time>2016-09-11T07:29:57Z</time>
      </trkpt>
      <trkpt lat="45.97242" lon="4.60228">
        <ele>425.415924</ele>
        <time>2016-09-11T07:29:59Z</time>
      </trkpt>
      <trkpt lat="45.97245" lon="4.6023">
        <ele>425.700745</ele>
        <time>2016-09-11T07:30:01Z</time>
      </trkpt>
      <trkpt lat="45.97249" lon="4.60232">
        <ele>426.121582</ele>
        <time>2016-09-11T07:30:03Z</time>
      </trkpt>
      <trkpt lat="45.97252" lon="4.60235">
        <ele>426.727966</ele>
        <time>2016-09-11T07:30:05Z</time>
      </trkpt>
      <trkpt lat="45.97255" lon="4.60238">
        <ele>426.926178</ele>
        <time>2016-09-11T07:30:07Z</time>
      </trkpt>
      <trkpt lat="45.97258" lon="4.6024">
        <ele>427.375061</ele>
        <time>2016-09-11T07:30:09Z</time>
      </trkpt>
      <trkpt lat="45.97262" lon="4.60242">
        <ele>427.621155</ele>
        <time>2016-09-11T07:30:11Z</time>
      </trkpt>
      <trkpt lat="45.97265" lon="4.60245">
        <ele>428.10675</ele>
        <time>2016-09-11T07:30:13Z</time>
      </trkpt>
      <trkpt lat="45.97268" lon="4.60247">
        <ele>428.594482</ele>
        <time>2016-09-11T07:30:15Z</time>
      </trkpt>
      <trkpt lat="45.97271" lon="4.60248">
        <ele>428.952148</ele>
        <time>2016-09-11T07:30:17Z</time>
      </trkpt>
      <trkpt lat="45.97274" lon="4.6025">
        <ele>429.393372</ele>
        <time>2016-09-11T07:30:19Z</time>
      </trkpt>
      <trkpt lat="45.97278" lon="4.60251">
        <ele>429.846619</ele>
        <time>2016-09-11T07:30:21Z</time>
      </trkpt>
      <trkpt lat="45.97282" lon="4.60252">
        <ele>430.229431</ele>
        <time>2016-09-11T07:30:23Z</time>
      </trkpt>
      <trkpt lat="45.97286" lon="4.60253">
        <ele>430.636475</ele>
        <time>2016-09-11T07:30:25Z</time>
      </trkpt>
      <trkpt lat="45.97289" lon="4.60255">
        <ele>431.109222</ele>
        <time>2016-09-11T07:30:27Z</time>
      </trkpt>
      <trkpt lat="45.97292" lon="4.60255">
        <ele>431.621979</ele>
        <time>2016-09-11T07:30:29Z</time>
      </trkpt>
      <trkpt lat="45.97295" lon="4.60256">
        <ele>432.082428</ele>
        <time>2016-09-11T07:30:31Z</time>
      </trkpt>
      <trkpt lat="45.97298" lon="4.60257">
        <ele>432.287933</ele>
        <time>2016-09-11T07:30:33Z</time>
      </trkpt>
      <trkpt lat="45.97301" lon="4.60259">
        <ele>432.734711</ele>
        <time>2016-09-11T07:30:35Z</time>
      </trkpt>
      <trkpt lat="45.97303" lon="4.60259">
        <ele>433.155701</ele>
        <time>2016-09-11T07:30:37Z</time>
      </trkpt>
      <trkpt lat="45.97306" lon="4.6026">
        <ele>433.619965</ele>
        <time>2016-09-11T07:30:39Z</time>
      </trkpt>
      <trkpt lat="45.97309" lon="4.60261">
        <ele>434.140381</ele>
        <time>2016-09-11T07:30:41Z</time>
      </trkpt>
      <trkpt lat="45.97312" lon="4.60262">
        <ele>434.578674</ele>
        <time>2016-09-11T07:30:43Z</time>
      </trkpt>
      <trkpt lat="45.97315" lon="4.60263">
        <ele>434.954498</ele>
        <time>2016-09-11T07:30:45Z</time>
      </trkpt>
      <trkpt lat="45.97318" lon="4.60264">
        <ele>435.250397</ele>
        <time>2016-09-11T07:30:47Z</time>
      </trkpt>
      <trkpt lat="45.97321" lon="4.60265">
        <ele>435.645355</ele>
        <time>2016-09-11T07:30:49Z</time>
      </trkpt>
      <trkpt lat="45.97324" lon="4.60266">
        <ele>436.036316</ele>
        <time>2016-09-11T07:30:51Z</time>
      </trkpt>
      <trkpt lat="45.97327" lon="4.60267">
        <ele>436.448914</ele>
        <time>2016-09-11T07:30:53Z</time>
      </trkpt>
      <trkpt lat="45.97331" lon="4.60268">
        <ele>436.902588</ele>
        <time>2016-09-11T07:30:55Z</time>
      </trkpt>
      <trkpt lat="45.97333" lon="4.60269">
        <ele>437.431824</ele>
        <time>2016-09-11T07:30:57Z</time>
      </trkpt>
      <trkpt lat="45.97336" lon="4.6027">
        <ele>437.789642</ele>
        <time>2016-09-11T07:30:59Z</time>
      </trkpt>
      <trkpt lat="45.97339" lon="4.6027">
        <ele>438.042328</ele>
        <time>2016-09-11T07:31:01Z</time>
      </trkpt>
      <trkpt lat="45.97342" lon="4.60271">
        <ele>438.169769</ele>
        <time>2016-09-11T07:31:03Z</time>
      </trkpt>
      <trkpt lat="45.97344" lon="4.60271">
        <ele>438.56012</ele>
        <time>2016-09-11T07:31:05Z</time>
      </trkpt>
      <trkpt lat="45.97347" lon="4.60272">
        <ele>438.957611</ele>
        <time>2016-09-11T07:31:07Z</time>
      </trkpt>
      <trkpt lat="45.97349" lon="4.60272">
        <ele>439.360779</ele>
        <time>2016-09-11T07:31:09Z</time>
      </trkpt>
      <trkpt lat="45.97352" lon="4.60272">
        <ele>439.736755</ele>
        <time>2016-09-11T07:31:11Z</time>
      </trkpt>
      <trkpt lat="45.97355" lon="4.60272">
        <ele>440.189789</ele>
        <time>2016-09-11T07:31:13Z</time>
      </trkpt>
      <trkpt lat="45.97357" lon="4.60272">
        <ele>440.623596</ele>
        <time>2016-09-11T07:31:15Z</time>
      </trkpt>
      <trkpt lat="45.9736" lon="4.60273">
        <ele>441.003906</ele>
        <time>2016-09-11T07:31:17Z</time>
      </trkpt>
      <trkpt lat="45.97363" lon="4.60273">
        <ele>441.405823</ele>
        <time>2016-09-11T07:31:19Z</time>
      </trkpt>
      <trkpt lat="45.97366" lon="4.60274">
        <ele>441.775391</ele>
        <time>2016-09-11T07:31:21Z</time>
      </trkpt>
      <trkpt lat="45.97368" lon="4.60274">
        <ele>442.173035</ele>
        <time>2016-09-11T07:31:23Z</time>
      </trkpt>
      <trkpt lat="45.97371" lon="4.60274">
        <ele>442.55127</ele>
        <time>2016-09-11T07:31:25Z</time>
      </trkpt>
      <trkpt lat="45.97374" lon="4.60275">
        <ele>442.750153</ele>
        <time>2016-09-11T07:31:27Z</time>
      </trkpt>
      <trkpt lat="45.97377" lon="4.60275">
        <ele>443.053711</ele>
        <time>2016-09-11T07:31:29Z</time>
      </trkpt>
      <trkpt lat="45.97379" lon="4.60276">
        <ele>443.404114</ele>
        <time>2016-09-11T07:31:31Z</time>
      </trkpt>
      <trkpt lat="45.97382" lon="4.60277">
        <ele>443.775818</ele>
        <time>2016-09-11T07:31:33Z</time>
      </trkpt>
      <trkpt lat="45.97385" lon="4.60277">
        <ele>444.008057</ele>
        <time>2016-09-11T07:31:35Z</time>
      </trkpt>
      <trkpt lat="45.97388" lon="4.60277">
        <ele>444.351807</ele>
        <time>2016-09-11T07:31:37Z</time>
      </trkpt>
      <trkpt lat="45.97391" lon="4.60277">
        <ele>444.676086</ele>
        <time>2016-09-11T07:31:39Z</time>
      </trkpt>
      <trkpt lat="45.97395" lon="4.60276">
        <ele>445.10791</ele>
        <time>2016-09-11T07:31:41Z</time>
      </trkpt>
      <trkpt lat="45.974" lon="4.60275">
        <ele>445.555328</ele>
        <time>2016-09-11T07:31:43Z</time>
      </trkpt>
      <trkpt lat="45.97404" lon="4.60274">
        <ele>445.974762</ele>
        <time>2016-09-11T07:31:45Z</time>
      </trkpt>
      <trkpt lat="45.9741" lon="4.60273">
        <ele>446.327087</ele>
        <time>2016-09-11T07:31:47Z</time>
      </trkpt>
      <trkpt lat="45.97416" lon="4.6027">
        <ele>446.645691</ele>
        <time>2016-09-11T07:31:49Z</time>
      </trkpt>
      <trkpt lat="45.97422" lon="4.60266">
        <ele>446.848938</ele>
        <time>2016-09-11T07:31:51Z</time>
      </trkpt>
      <trkpt lat="45.97429" lon="4.60262">
        <ele>447.039124</ele>
        <time>2016-09-11T07:31:53Z</time>
      </trkpt>
      <trkpt lat="45.97437" lon="4.60258">
        <ele>447.199066</ele>
        <time>2016-09-11T07:31:55Z</time>
      </trkpt>
      <trkpt lat="45.97445" lon="4.60253">
        <ele>447.337067</ele>
        <time>2016-09-11T07:31:57Z</time>
      </trkpt>
      <trkpt lat="45.97452" lon="4.60247">
        <ele>447.453918</ele>
        <time>2016-09-11T07:31:59Z</time>
      </trkpt>
      <trkpt lat="45.97459" lon="4.60241">
        <ele>447.566315</ele>
        <time>2016-09-11T07:32:01Z</time>
      </trkpt>
      <trkpt lat="45.97465" lon="4.60233">
        <ele>447.647614</ele>
        <time>2016-09-11T07:32:03Z</time>
      </trkpt>
      <trkpt lat="45.97471" lon="4.60225">
        <ele>447.563324</ele>
        <time>2016-09-11T07:32:05Z</time>
      </trkpt>
      <trkpt lat="45.97477" lon="4.60217">
        <ele>447.659821</ele>
        <time>2016-09-11T07:32:07Z</time>
      </trkpt>
      <trkpt lat="45.97483" lon="4.60209">
        <ele>447.600403</ele>
        <time>2016-09-11T07:32:09Z</time>
      </trkpt>
      <trkpt lat="45.97488" lon="4.602">
        <ele>447.735443</ele>
        <time>2016-09-11T07:32:11Z</time>
      </trkpt>
      <trkpt lat="45.9749" lon="4.60189">
        <ele>447.740906</ele>
        <time>2016-09-11T07:32:13Z</time>
      </trkpt>
      <trkpt lat="45.97489" lon="4.60179">
        <ele>447.672943</ele>
        <time>2016-09-11T07:32:15Z</time>
      </trkpt>
      <trkpt lat="45.97488" lon="4.60172">
        <ele>447.717926</ele>
        <time>2016-09-11T07:32:17Z</time>
      </trkpt>
      <trkpt lat="45.97487" lon="4.60164">
        <ele>447.575195</ele>
        <time>2016-09-11T07:32:19Z</time>
      </trkpt>
      <trkpt lat="45.97489" lon="4.60158">
        <ele>447.527344</ele>
        <time>2016-09-11T07:32:21Z</time>
      </trkpt>
      <trkpt lat="45.97491" lon="4.60154">
        <ele>447.505676</ele>
        <time>2016-09-11T07:32:23Z</time>
      </trkpt>
      <trkpt lat="45.97493" lon="4.6015">
        <ele>447.857727</ele>
        <time>2016-09-11T07:32:37Z</time>
      </trkpt>
      <trkpt lat="45.97492" lon="4.60149">
        <ele>447.987854</ele>
        <time>2016-09-11T07:32:39Z</time>
      </trkpt>
      <trkpt lat="45.9749" lon="4.6015">
        <ele>448.102356</ele>
        <time>2016-09-11T07:32:41Z</time>
      </trkpt>
      <trkpt lat="45.97489" lon="4.60152">
        <ele>448.270355</ele>
        <time>2016-09-11T07:32:45Z</time>
      </trkpt>
      <trkpt lat="45.97488" lon="4.60154">
        <ele>448.459381</ele>
        <time>2016-09-11T07:32:47Z</time>
      </trkpt>
      <trkpt lat="45.97487" lon="4.60155">
        <ele>448.576965</ele>
        <time>2016-09-11T07:32:49Z</time>
      </trkpt>
      <trkpt lat="45.97486" lon="4.60157">
        <ele>448.793213</ele>
        <time>2016-09-11T07:32:51Z</time>
      </trkpt>
      <trkpt lat="45.97485" lon="4.60158">
        <ele>448.984619</ele>
        <time>2016-09-11T07:32:53Z</time>
      </trkpt>
      <trkpt lat="45.97484" lon="4.60159">
        <ele>449.264465</ele>
        <time>2016-09-11T07:32:58Z</time>
      </trkpt>
      <trkpt lat="45.97483" lon="4.60161">
        <ele>449.496429</ele>
        <time>2016-09-11T07:33:02Z</time>
      </trkpt>
      <trkpt lat="45.97482" lon="4.60162">
        <ele>449.721741</ele>
        <time>2016-09-11T07:33:04Z</time>
      </trkpt>
      <trkpt lat="45.9748" lon="4.60164">
        <ele>449.823425</ele>
        <time>2016-09-11T07:33:06Z</time>
      </trkpt>
      <trkpt lat="45.97477" lon="4.60166">
        <ele>449.932922</ele>
        <time>2016-09-11T07:33:08Z</time>
      </trkpt>
      <trkpt lat="45.97475" lon="4.60168">
        <ele>450.086487</ele>
        <time>2016-09-11T07:33:10Z</time>
      </trkpt>
      <trkpt lat="45.97472" lon="4.6017">
        <ele>450.266418</ele>
        <time>2016-09-11T07:33:12Z</time>
      </trkpt>
      <trkpt lat="45.97469" lon="4.60172">
        <ele>450.450256</ele>
        <time>2016-09-11T07:33:14Z</time>
      </trkpt>
      <trkpt lat="45.97466" lon="4.60174">
        <ele>450.766052</ele>
        <time>2016-09-11T07:33:16Z</time>
      </trkpt>
      <trkpt lat="45.97463" lon="4.60175">
        <ele>451.010498</ele>
        <time>2016-09-11T07:33:18Z</time>
      </trkpt>
      <trkpt lat="45.97459" lon="4.60177">
        <ele>451.298248</ele>
        <time>2016-09-11T07:33:20Z</time>
      </trkpt>
      <trkpt lat="45.97456" lon="4.60179">
        <ele>451.464783</ele>
        <time>2016-09-11T07:33:22Z</time>
      </trkpt>
      <trkpt lat="45.97453" lon="4.6018">
        <ele>451.785706</ele>
        <time>2016-09-11T07:33:24Z</time>
      </trkpt>
      <trkpt lat="45.9745" lon="4.60182">
        <ele>452.334564</ele>
        <time>2016-09-11T07:33:26Z</time>
      </trkpt>
      <trkpt lat="45.97446" lon="4.60184">
        <ele>452.745667</ele>
        <time>2016-09-11T07:33:28Z</time>
      </trkpt>
      <trkpt lat="45.97443" lon="4.60185">
        <ele>453.05191</ele>
        <time>2016-09-11T07:33:30Z</time>
      </trkpt>
      <trkpt lat="45.9744" lon="4.60187">
        <ele>453.47168</ele>
        <time>2016-09-11T07:33:32Z</time>
      </trkpt>
      <trkpt lat="45.97437" lon="4.60189">
        <ele>453.822205</ele>
        <time>2016-09-11T07:33:34Z</time>
      </trkpt>
      <trkpt lat="45.97434" lon="4.6019">
        <ele>454.28363</ele>
        <time>2016-09-11T07:33:36Z</time>
      </trkpt>
      <trkpt lat="45.97431" lon="4.60192">
        <ele>454.701324</ele>
        <time>2016-09-11T07:33:38Z</time>
      </trkpt>
      <trkpt lat="45.97428" lon="4.60193">
        <ele>455.110199</ele>
        <time>2016-09-11T07:33:40Z</time>
      </trkpt>
      <trkpt lat="45.97425" lon="4.60195">
        <ele>455.60733</ele>
        <time>2016-09-11T07:33:42Z</time>
      </trkpt>
      <trkpt lat="45.97422" lon="4.60196">
        <ele>456.059631</ele>
        <time>2016-09-11T07:33:44Z</time>
      </trkpt>
      <trkpt lat="45.97419" lon="4.60196">
        <ele>456.498932</ele>
        <time>2016-09-11T07:33:46Z</time>
      </trkpt>
      <trkpt lat="45.97416" lon="4.60197">
        <ele>456.944733</ele>
        <time>2016-09-11T07:33:48Z</time>
      </trkpt>
      <trkpt lat="45.97414" lon="4.60198">
        <ele>457.443359</ele>
        <time>2016-09-11T07:33:50Z</time>
      </trkpt>
      <trkpt lat="45.97412" lon="4.60198">
        <ele>457.935791</ele>
        <time>2016-09-11T07:33:52Z</time>
      </trkpt>
      <trkpt lat="45.9741" lon="4.60198">
        <ele>459.381775</ele>
        <time>2016-09-11T07:34:00Z</time>
      </trkpt>
      <trkpt lat="45.97408" lon="4.60197">
        <ele>460.093262</ele>
        <time>2016-09-11T07:34:04Z</time>
      </trkpt>
      <trkpt lat="45.97407" lon="4.60196">
        <ele>460.400726</ele>
        <time>2016-09-11T07:34:06Z</time>
      </trkpt>
      <trkpt lat="45.97405" lon="4.60196">
        <ele>460.695221</ele>
        <time>2016-09-11T07:34:08Z</time>
      </trkpt>
      <trkpt lat="45.97404" lon="4.60195">
        <ele>461.060394</ele>
        <time>2016-09-11T07:34:10Z</time>
      </trkpt>
      <trkpt lat="45.97402" lon="4.60194">
        <ele>461.708252</ele>
        <time>2016-09-11T07:34:14Z</time>
      </trkpt>
      <trkpt lat="45.97401" lon="4.60193">
        <ele>462.130463</ele>
        <time>2016-09-11T07:34:16Z</time>
      </trkpt>
      <trkpt lat="45.974" lon="4.60193">
        <ele>462.476959</ele>
        <time>2016-09-11T07:34:18Z</time>
      </trkpt>
      <trkpt lat="45.97398" lon="4.60192">
        <ele>463.223938</ele>
        <time>2016-09-11T07:34:22Z</time>
      </trkpt>
      <trkpt lat="45.97397" lon="4.60191">
        <ele>463.297516</ele>
        <time>2016-09-11T07:34:24Z</time>
      </trkpt>
      <trkpt lat="45.97396" lon="4.6019">
        <ele>463.618011</ele>
        <time>2016-09-11T07:34:26Z</time>
      </trkpt>
      <trkpt lat="45.97394" lon="4.60189">
        <ele>464.247253</ele>
        <time>2016-09-11T07:34:30Z</time>
      </trkpt>
      <trkpt lat="45.97393" lon="4.60188">
        <ele>464.576508</ele>
        <time>2016-09-11T07:34:32Z</time>
      </trkpt>
      <trkpt lat="45.97392" lon="4.60187">
        <ele>464.803864</ele>
        <time>2016-09-11T07:34:34Z</time>
      </trkpt>
      <trkpt lat="45.9739" lon="4.60185">
        <ele>465.392975</ele>
        <time>2016-09-11T07:34:38Z</time>
      </trkpt>
      <trkpt lat="45.97389" lon="4.60184">
        <ele>465.541016</ele>
        <time>2016-09-11T07:34:40Z</time>
      </trkpt>
      <trkpt lat="45.97388" lon="4.60183">
        <ele>466.22113</ele>
        <time>2016-09-11T07:34:44Z</time>
      </trkpt>
      <trkpt lat="45.97387" lon="4.60182">
        <ele>466.539612</ele>
        <time>2016-09-11T07:34:46Z</time>
      </trkpt>
      <trkpt lat="45.97386" lon="4.60181">
        <ele>466.862366</ele>
        <time>2016-09-11T07:34:48Z</time>
      </trkpt>
      <trkpt lat="45.97385" lon="4.6018">
        <ele>467.15918</ele>
        <time>2016-09-11T07:34:50Z</time>
      </trkpt>
      <trkpt lat="45.97384" lon="4.60179">
        <ele>467.504333</ele>
        <time>2016-09-11T07:34:52Z</time>
      </trkpt>
      <trkpt lat="45.97383" lon="4.60179">
        <ele>467.796814</ele>
        <time>2016-09-11T07:34:54Z</time>
      </trkpt>
      <trkpt lat="45.97382" lon="4.60178">
        <ele>468.173279</ele>
        <time>2016-09-11T07:34:56Z</time>
      </trkpt>
      <trkpt lat="45.97381" lon="4.60177">
        <ele>468.444153</ele>
        <time>2016-09-11T07:34:58Z</time>
      </trkpt>
      <trkpt lat="45.97378" lon="4.60175">
        <ele>469.356354</ele>
        <time>2016-09-11T07:35:04Z</time>
      </trkpt>
      <trkpt lat="45.97377" lon="4.60174">
        <ele>469.696533</ele>
        <time>2016-09-11T07:35:06Z</time>
      </trkpt>
      <trkpt lat="45.97376" lon="4.60173">
        <ele>470.011566</ele>
        <time>2016-09-11T07:35:08Z</time>
      </trkpt>
      <trkpt lat="45.97376" lon="4.60172">
        <ele>470.321472</ele>
        <time>2016-09-11T07:35:10Z</time>
      </trkpt>
      <trkpt lat="45.97374" lon="4.60171">
        <ele>470.524078</ele>
        <time>2016-09-11T07:35:12Z</time>
      </trkpt>
      <trkpt lat="45.97374" lon="4.60169">
        <ele>470.835846</ele>
        <time>2016-09-11T07:35:14Z</time>
      </trkpt>
      <trkpt lat="45.97368" lon="4.60163">
        <ele>472.96991</ele>
        <time>2016-09-11T07:35:26Z</time>
      </trkpt>
      <trkpt lat="45.97367" lon="4.60162">
        <ele>473.247406</ele>
        <time>2016-09-11T07:35:28Z</time>
      </trkpt>
      <trkpt lat="45.97366" lon="4.6016">
        <ele>473.588043</ele>
        <time>2016-09-11T07:35:30Z</time>
      </trkpt>
      <trkpt lat="45.97365" lon="4.60159">
        <ele>473.876312</ele>
        <time>2016-09-11T07:35:32Z</time>
      </trkpt>
      <trkpt lat="45.97365" lon="4.60156">
        <ele>474.364105</ele>
        <time>2016-09-11T07:35:36Z</time>
      </trkpt>
      <trkpt lat="45.97365" lon="4.60154">
        <ele>474.660645</ele>
        <time>2016-09-11T07:35:38Z</time>
      </trkpt>
      <trkpt lat="45.97367" lon="4.60151">
        <ele>477.12735</ele>
        <time>2016-09-11T07:36:02Z</time>
      </trkpt>
      <trkpt lat="45.97368" lon="4.60149">
        <ele>477.334229</ele>
        <time>2016-09-11T07:36:04Z</time>
      </trkpt>
      <trkpt lat="45.97369" lon="4.60144">
        <ele>477.767517</ele>
        <time>2016-09-11T07:36:11Z</time>
      </trkpt>
      <trkpt lat="45.97369" lon="4.60142">
        <ele>477.921478</ele>
        <time>2016-09-11T07:36:13Z</time>
      </trkpt>
      <trkpt lat="45.9737" lon="4.60139">
        <ele>478.01767</ele>
        <time>2016-09-11T07:36:15Z</time>
      </trkpt>
      <trkpt lat="45.97371" lon="4.60137">
        <ele>478.115295</ele>
        <time>2016-09-11T07:36:17Z</time>
      </trkpt>
      <trkpt lat="45.97371" lon="4.60135">
        <ele>478.313171</ele>
        <time>2016-09-11T07:36:19Z</time>
      </trkpt>
      <trkpt lat="45.97372" lon="4.60132">
        <ele>478.4086</ele>
        <time>2016-09-11T07:36:21Z</time>
      </trkpt>
      <trkpt lat="45.97373" lon="4.60129">
        <ele>478.497559</ele>
        <time>2016-09-11T07:36:23Z</time>
      </trkpt>
      <trkpt lat="45.97374" lon="4.60126">
        <ele>478.664734</ele>
        <time>2016-09-11T07:36:25Z</time>
      </trkpt>
      <trkpt lat="45.97374" lon="4.60124">
        <ele>478.884277</ele>
        <time>2016-09-11T07:36:27Z</time>
      </trkpt>
      <trkpt lat="45.97375" lon="4.60121">
        <ele>479.091858</ele>
        <time>2016-09-11T07:36:29Z</time>
      </trkpt>
      <trkpt lat="45.97376" lon="4.60119">
        <ele>479.310455</ele>
        <time>2016-09-11T07:36:31Z</time>
      </trkpt>
      <trkpt lat="45.97377" lon="4.60116">
        <ele>479.570465</ele>
        <time>2016-09-11T07:36:33Z</time>
      </trkpt>
      <trkpt lat="45.97377" lon="4.60114">
        <ele>479.869812</ele>
        <time>2016-09-11T07:36:35Z</time>
      </trkpt>
      <trkpt lat="45.97378" lon="4.60112">
        <ele>480.160492</ele>
        <time>2016-09-11T07:36:37Z</time>
      </trkpt>
      <trkpt lat="45.97379" lon="4.6011">
        <ele>480.458832</ele>
        <time>2016-09-11T07:36:39Z</time>
      </trkpt>
      <trkpt lat="45.97379" lon="4.60107">
        <ele>480.724548</ele>
        <time>2016-09-11T07:36:41Z</time>
      </trkpt>
      <trkpt lat="45.9738" lon="4.60105">
        <ele>481.188782</ele>
        <time>2016-09-11T07:36:43Z</time>
      </trkpt>
      <trkpt lat="45.9738" lon="4.60103">
        <ele>481.506744</ele>
        <time>2016-09-11T07:36:45Z</time>
      </trkpt>
      <trkpt lat="45.97381" lon="4.60101">
        <ele>481.908112</ele>
        <time>2016-09-11T07:36:47Z</time>
      </trkpt>
      <trkpt lat="45.97382" lon="4.60099">
        <ele>482.104645</ele>
        <time>2016-09-11T07:36:49Z</time>
      </trkpt>
      <trkpt lat="45.97383" lon="4.60097">
        <ele>482.426453</ele>
        <time>2016-09-11T07:36:51Z</time>
      </trkpt>
      <trkpt lat="45.97384" lon="4.60095">
        <ele>482.815125</ele>
        <time>2016-09-11T07:36:53Z</time>
      </trkpt>
      <trkpt lat="45.97385" lon="4.60093">
        <ele>483.066803</ele>
        <time>2016-09-11T07:36:55Z</time>
      </trkpt>
      <trkpt lat="45.97385" lon="4.60091">
        <ele>483.374084</ele>
        <time>2016-09-11T07:36:57Z</time>
      </trkpt>
      <trkpt lat="45.97386" lon="4.60088">
        <ele>483.779846</ele>
        <time>2016-09-11T07:36:59Z</time>
      </trkpt>
      <trkpt lat="45.97387" lon="4.60086">
        <ele>484.131409</ele>
        <time>2016-09-11T07:37:01Z</time>
      </trkpt>
      <trkpt lat="45.97389" lon="4.60084">
        <ele>484.579742</ele>
        <time>2016-09-11T07:37:03Z</time>
      </trkpt>
      <trkpt lat="45.9739" lon="4.60082">
        <ele>484.959534</ele>
        <time>2016-09-11T07:37:05Z</time>
      </trkpt>
      <trkpt lat="45.9739" lon="4.6008">
        <ele>485.356018</ele>
        <time>2016-09-11T07:37:07Z</time>
      </trkpt>
      <trkpt lat="45.97391" lon="4.60078">
        <ele>485.772644</ele>
        <time>2016-09-11T07:37:09Z</time>
      </trkpt>
      <trkpt lat="45.97392" lon="4.60076">
        <ele>486.122131</ele>
        <time>2016-09-11T07:37:11Z</time>
      </trkpt>
      <trkpt lat="45.97393" lon="4.60074">
        <ele>486.436829</ele>
        <time>2016-09-11T07:37:13Z</time>
      </trkpt>
      <trkpt lat="45.97394" lon="4.60072">
        <ele>486.621582</ele>
        <time>2016-09-11T07:37:15Z</time>
      </trkpt>
      <trkpt lat="45.97395" lon="4.6007">
        <ele>486.921082</ele>
        <time>2016-09-11T07:37:17Z</time>
      </trkpt>
      <trkpt lat="45.97396" lon="4.60068">
        <ele>487.294189</ele>
        <time>2016-09-11T07:37:19Z</time>
      </trkpt>
      <trkpt lat="45.97397" lon="4.60066">
        <ele>487.638123</ele>
        <time>2016-09-11T07:37:21Z</time>
      </trkpt>
      <trkpt lat="45.97398" lon="4.60064">
        <ele>488.012543</ele>
        <time>2016-09-11T07:37:23Z</time>
      </trkpt>
      <trkpt lat="45.97398" lon="4.60062">
        <ele>488.279602</ele>
        <time>2016-09-11T07:37:25Z</time>
      </trkpt>
      <trkpt lat="45.974" lon="4.60058">
        <ele>488.921478</ele>
        <time>2016-09-11T07:37:29Z</time>
      </trkpt>
      <trkpt lat="45.97401" lon="4.60056">
        <ele>489.26236</ele>
        <time>2016-09-11T07:37:31Z</time>
      </trkpt>
      <trkpt lat="45.97401" lon="4.60053">
        <ele>489.724762</ele>
        <time>2016-09-11T07:37:33Z</time>
      </trkpt>
      <trkpt lat="45.97402" lon="4.60051">
        <ele>490.117767</ele>
        <time>2016-09-11T07:37:35Z</time>
      </trkpt>
      <trkpt lat="45.97403" lon="4.60048">
        <ele>490.721375</ele>
        <time>2016-09-11T07:37:37Z</time>
      </trkpt>
      <trkpt lat="45.97403" lon="4.60045">
        <ele>491.133942</ele>
        <time>2016-09-11T07:37:39Z</time>
      </trkpt>
      <trkpt lat="45.97403" lon="4.60043">
        <ele>491.51178</ele>
        <time>2016-09-11T07:37:41Z</time>
      </trkpt>
      <trkpt lat="45.97403" lon="4.6004">
        <ele>491.585602</ele>
        <time>2016-09-11T07:37:43Z</time>
      </trkpt>
      <trkpt lat="45.97403" lon="4.60038">
        <ele>491.959961</ele>
        <time>2016-09-11T07:37:45Z</time>
      </trkpt>
      <trkpt lat="45.97403" lon="4.60035">
        <ele>492.416077</ele>
        <time>2016-09-11T07:37:47Z</time>
      </trkpt>
      <trkpt lat="45.97404" lon="4.60033">
        <ele>492.898254</ele>
        <time>2016-09-11T07:37:49Z</time>
      </trkpt>
      <trkpt lat="45.97404" lon="4.6003">
        <ele>493.215332</ele>
        <time>2016-09-11T07:37:51Z</time>
      </trkpt>
      <trkpt lat="45.97405" lon="4.60028">
        <ele>493.571472</ele>
        <time>2016-09-11T07:37:53Z</time>
      </trkpt>
      <trkpt lat="45.97405" lon="4.60026">
        <ele>494.01239</ele>
        <time>2016-09-11T07:37:55Z</time>
      </trkpt>
      <trkpt lat="45.97405" lon="4.60023">
        <ele>494.4104</ele>
        <time>2016-09-11T07:37:57Z</time>
      </trkpt>
      <trkpt lat="45.97405" lon="4.60021">
        <ele>494.871155</ele>
        <time>2016-09-11T07:37:59Z</time>
      </trkpt>
      <trkpt lat="45.97403" lon="4.6002">
        <ele>495.236084</ele>
        <time>2016-09-11T07:38:01Z</time>
      </trkpt>
      <trkpt lat="45.97402" lon="4.60019">
        <ele>495.629242</ele>
        <time>2016-09-11T07:38:03Z</time>
      </trkpt>
      <trkpt lat="45.97401" lon="4.60019">
        <ele>496.064545</ele>
        <time>2016-09-11T07:38:05Z</time>
      </trkpt>
      <trkpt lat="45.97399" lon="4.60019">
        <ele>496.438232</ele>
        <time>2016-09-11T07:38:07Z</time>
      </trkpt>
      <trkpt lat="45.97397" lon="4.60018">
        <ele>496.849518</ele>
        <time>2016-09-11T07:38:09Z</time>
      </trkpt>
      <trkpt lat="45.97396" lon="4.60019">
        <ele>497.018982</ele>
        <time>2016-09-11T07:38:11Z</time>
      </trkpt>
      <trkpt lat="45.97395" lon="4.60019">
        <ele>497.355896</ele>
        <time>2016-09-11T07:38:13Z</time>
      </trkpt>
      <trkpt lat="45.97393" lon="4.60019">
        <ele>497.72113</ele>
        <time>2016-09-11T07:38:15Z</time>
      </trkpt>
      <trkpt lat="45.97392" lon="4.60019">
        <ele>498.097076</ele>
        <time>2016-09-11T07:38:17Z</time>
      </trkpt>
      <trkpt lat="45.9739" lon="4.60019">
        <ele>498.409576</ele>
        <time>2016-09-11T07:38:19Z</time>
      </trkpt>
      <trkpt lat="45.97389" lon="4.60019">
        <ele>498.798523</ele>
        <time>2016-09-11T07:38:21Z</time>
      </trkpt>
      <trkpt lat="45.97387" lon="4.60019">
        <ele>499.163483</ele>
        <time>2016-09-11T07:38:23Z</time>
      </trkpt>
      <trkpt lat="45.97386" lon="4.60019">
        <ele>499.630707</ele>
        <time>2016-09-11T07:38:25Z</time>
      </trkpt>
      <trkpt lat="45.97384" lon="4.60019">
        <ele>499.950195</ele>
        <time>2016-09-11T07:38:27Z</time>
      </trkpt>
      <trkpt lat="45.97382" lon="4.60019">
        <ele>500.21759</ele>
        <time>2016-09-11T07:38:29Z</time>
      </trkpt>
      <trkpt lat="45.9738" lon="4.60019">
        <ele>500.630554</ele>
        <time>2016-09-11T07:38:31Z</time>
      </trkpt>
      <trkpt lat="45.97379" lon="4.60018">
        <ele>501.069641</ele>
        <time>2016-09-11T07:38:33Z</time>
      </trkpt>
      <trkpt lat="45.97377" lon="4.60017">
        <ele>501.27179</ele>
        <time>2016-09-11T07:38:35Z</time>
      </trkpt>
      <trkpt lat="45.97376" lon="4.60015">
        <ele>501.595764</ele>
        <time>2016-09-11T07:38:37Z</time>
      </trkpt>
      <trkpt lat="45.97375" lon="4.60013">
        <ele>501.944519</ele>
        <time>2016-09-11T07:38:39Z</time>
      </trkpt>
      <trkpt lat="45.97374" lon="4.60011">
        <ele>502.294525</ele>
        <time>2016-09-11T07:38:41Z</time>
      </trkpt>
      <trkpt lat="45.97372" lon="4.6001">
        <ele>502.718445</ele>
        <time>2016-09-11T07:38:43Z</time>
      </trkpt>
      <trkpt lat="45.97371" lon="4.60008">
        <ele>503.094543</ele>
        <time>2016-09-11T07:38:45Z</time>
      </trkpt>
      <trkpt lat="45.9737" lon="4.60005">
        <ele>503.458893</ele>
        <time>2016-09-11T07:38:47Z</time>
      </trkpt>
      <trkpt lat="45.97369" lon="4.60003">
        <ele>503.865326</ele>
        <time>2016-09-11T07:38:49Z</time>
      </trkpt>
      <trkpt lat="45.97368" lon="4.60001">
        <ele>504.259094</ele>
        <time>2016-09-11T07:38:51Z</time>
      </trkpt>
      <trkpt lat="45.97367" lon="4.59999">
        <ele>504.682861</ele>
        <time>2016-09-11T07:38:53Z</time>
      </trkpt>
      <trkpt lat="45.97363" lon="4.59996">
        <ele>507.739502</ele>
        <time>2016-09-11T07:41:34Z</time>
      </trkpt>
      <trkpt lat="45.97355" lon="4.59984">
        <ele>507.787933</ele>
        <time>2016-09-11T07:41:37Z</time>
      </trkpt>
      <trkpt lat="45.97352" lon="4.59976">
        <ele>507.744324</ele>
        <time>2016-09-11T07:41:39Z</time>
      </trkpt>
      <trkpt lat="45.97347" lon="4.59967">
        <ele>507.69696</ele>
        <time>2016-09-11T07:41:41Z</time>
      </trkpt>
      <trkpt lat="45.97343" lon="4.59957">
        <ele>507.792664</ele>
        <time>2016-09-11T07:41:43Z</time>
      </trkpt>
      <trkpt lat="45.97337" lon="4.59945">
        <ele>507.646973</ele>
        <time>2016-09-11T07:41:45Z</time>
      </trkpt>
      <trkpt lat="45.97332" lon="4.59933">
        <ele>507.353424</ele>
        <time>2016-09-11T07:41:47Z</time>
      </trkpt>
      <trkpt lat="45.97326" lon="4.59919">
        <ele>507.31427</ele>
        <time>2016-09-11T07:41:49Z</time>
      </trkpt>
      <trkpt lat="45.97321" lon="4.59905">
        <ele>507.226501</ele>
        <time>2016-09-11T07:41:51Z</time>
      </trkpt>
      <trkpt lat="45.97316" lon="4.59892">
        <ele>507.008118</ele>
        <time>2016-09-11T07:41:53Z</time>
      </trkpt>
      <trkpt lat="45.97311" lon="4.59878">
        <ele>506.968994</ele>
        <time>2016-09-11T07:41:55Z</time>
      </trkpt>
      <trkpt lat="45.97304" lon="4.59865">
        <ele>506.916809</ele>
        <time>2016-09-11T07:41:57Z</time>
      </trkpt>
      <trkpt lat="45.97295" lon="4.59853">
        <ele>506.836334</ele>
        <time>2016-09-11T07:41:59Z</time>
      </trkpt>
      <trkpt lat="45.97283" lon="4.5984">
        <ele>506.440613</ele>
        <time>2016-09-11T07:42:01Z</time>
      </trkpt>
      <trkpt lat="45.97273" lon="4.59827">
        <ele>506.212311</ele>
        <time>2016-09-11T07:42:03Z</time>
      </trkpt>
      <trkpt lat="45.97265" lon="4.59814">
        <ele>506.031982</ele>
        <time>2016-09-11T07:42:05Z</time>
      </trkpt>
      <trkpt lat="45.9726" lon="4.59801">
        <ele>505.741699</ele>
        <time>2016-09-11T07:42:07Z</time>
      </trkpt>
      <trkpt lat="45.97259" lon="4.59791">
        <ele>505.572113</ele>
        <time>2016-09-11T07:42:09Z</time>
      </trkpt>
      <trkpt lat="45.97257" lon="4.59783">
        <ele>505.578613</ele>
        <time>2016-09-11T07:42:11Z</time>
      </trkpt>
      <trkpt lat="45.97255" lon="4.59775">
        <ele>505.478577</ele>
        <time>2016-09-11T07:42:13Z</time>
      </trkpt>
      <trkpt lat="45.97252" lon="4.59767">
        <ele>505.37262</ele>
        <time>2016-09-11T07:42:15Z</time>
      </trkpt>
      <trkpt lat="45.97248" lon="4.59759">
        <ele>505.766052</ele>
        <time>2016-09-11T07:42:17Z</time>
      </trkpt>
      <trkpt lat="45.97245" lon="4.59751">
        <ele>505.752747</ele>
        <time>2016-09-11T07:42:19Z</time>
      </trkpt>
      <trkpt lat="45.97242" lon="4.59743">
        <ele>505.886627</ele>
        <time>2016-09-11T07:42:21Z</time>
      </trkpt>
      <trkpt lat="45.9724" lon="4.59735">
        <ele>505.955872</ele>
        <time>2016-09-11T07:42:23Z</time>
      </trkpt>
      <trkpt lat="45.97237" lon="4.59728">
        <ele>506.008057</ele>
        <time>2016-09-11T07:42:25Z</time>
      </trkpt>
      <trkpt lat="45.97234" lon="4.5972">
        <ele>506.118958</ele>
        <time>2016-09-11T07:42:27Z</time>
      </trkpt>
      <trkpt lat="45.97231" lon="4.59714">
        <ele>506.308105</ele>
        <time>2016-09-11T07:42:29Z</time>
      </trkpt>
      <trkpt lat="45.97228" lon="4.59708">
        <ele>506.408142</ele>
        <time>2016-09-11T07:42:31Z</time>
      </trkpt>
      <trkpt lat="45.97223" lon="4.59702">
        <ele>506.586609</ele>
        <time>2016-09-11T07:42:33Z</time>
      </trkpt>
      <trkpt lat="45.9722" lon="4.59696">
        <ele>506.982483</ele>
        <time>2016-09-11T07:42:35Z</time>
      </trkpt>
      <trkpt lat="45.97216" lon="4.59691">
        <ele>507.167389</ele>
        <time>2016-09-11T07:42:37Z</time>
      </trkpt>
      <trkpt lat="45.97212" lon="4.59687">
        <ele>507.482819</ele>
        <time>2016-09-11T07:42:39Z</time>
      </trkpt>
      <trkpt lat="45.97207" lon="4.59682">
        <ele>507.741638</ele>
        <time>2016-09-11T07:42:41Z</time>
      </trkpt>
      <trkpt lat="45.97202" lon="4.59675">
        <ele>508.375153</ele>
        <time>2016-09-11T07:42:43Z</time>
      </trkpt>
      <trkpt lat="45.97197" lon="4.59668">
        <ele>508.85611</ele>
        <time>2016-09-11T07:42:45Z</time>
      </trkpt>
      <trkpt lat="45.97193" lon="4.59661">
        <ele>509.188873</ele>
        <time>2016-09-11T07:42:47Z</time>
      </trkpt>
      <trkpt lat="45.97189" lon="4.59654">
        <ele>509.648743</ele>
        <time>2016-09-11T07:42:49Z</time>
      </trkpt>
      <trkpt lat="45.97185" lon="4.59647">
        <ele>509.981506</ele>
        <time>2016-09-11T07:42:51Z</time>
      </trkpt>
      <trkpt lat="45.97181" lon="4.5964">
        <ele>510.286041</ele>
        <time>2016-09-11T07:42:53Z</time>
      </trkpt>
      <trkpt lat="45.97178" lon="4.59635">
        <ele>510.560883</ele>
        <time>2016-09-11T07:42:55Z</time>
      </trkpt>
      <trkpt lat="45.97175" lon="4.59629">
        <ele>510.469574</ele>
        <time>2016-09-11T07:42:57Z</time>
      </trkpt>
      <trkpt lat="45.97172" lon="4.59625">
        <ele>510.650146</ele>
        <time>2016-09-11T07:42:59Z</time>
      </trkpt>
      <trkpt lat="45.9717" lon="4.59621">
        <ele>510.856506</ele>
        <time>2016-09-11T07:43:01Z</time>
      </trkpt>
      <trkpt lat="45.97166" lon="4.59619">
        <ele>510.879639</ele>
        <time>2016-09-11T07:43:03Z</time>
      </trkpt>
      <trkpt lat="45.97158" lon="4.59618">
        <ele>510.997498</ele>
        <time>2016-09-11T07:43:05Z</time>
      </trkpt>
      <trkpt lat="45.97147" lon="4.5962">
        <ele>510.923492</ele>
        <time>2016-09-11T07:43:07Z</time>
      </trkpt>
      <trkpt lat="45.97135" lon="4.59622">
        <ele>511.075836</ele>
        <time>2016-09-11T07:43:09Z</time>
      </trkpt>
      <trkpt lat="45.97122" lon="4.59628">
        <ele>511.199768</ele>
        <time>2016-09-11T07:43:11Z</time>
      </trkpt>
      <trkpt lat="45.97107" lon="4.59633">
        <ele>511.142242</ele>
        <time>2016-09-11T07:43:13Z</time>
      </trkpt>
      <trkpt lat="45.97092" lon="4.59635">
        <ele>510.954834</ele>
        <time>2016-09-11T07:43:15Z</time>
      </trkpt>
      <trkpt lat="45.97079" lon="4.59631">
        <ele>510.624176</ele>
        <time>2016-09-11T07:43:17Z</time>
      </trkpt>
      <trkpt lat="45.97068" lon="4.59633">
        <ele>510.404449</ele>
        <time>2016-09-11T07:43:19Z</time>
      </trkpt>
      <trkpt lat="45.9706" lon="4.59636">
        <ele>510.241272</ele>
        <time>2016-09-11T07:43:21Z</time>
      </trkpt>
      <trkpt lat="45.97054" lon="4.5964">
        <ele>510.215179</ele>
        <time>2016-09-11T07:43:23Z</time>
      </trkpt>
      <trkpt lat="45.97048" lon="4.59643">
        <ele>510.110413</ele>
        <time>2016-09-11T07:43:25Z</time>
      </trkpt>
      <trkpt lat="45.97042" lon="4.59646">
        <ele>509.953461</ele>
        <time>2016-09-11T07:43:27Z</time>
      </trkpt>
      <trkpt lat="45.97036" lon="4.5965">
        <ele>509.825043</ele>
        <time>2016-09-11T07:43:29Z</time>
      </trkpt>
      <trkpt lat="45.9703" lon="4.59654">
        <ele>509.69574</ele>
        <time>2016-09-11T07:43:31Z</time>
      </trkpt>
      <trkpt lat="45.97023" lon="4.59659">
        <ele>509.60376</ele>
        <time>2016-09-11T07:43:33Z</time>
      </trkpt>
      <trkpt lat="45.97018" lon="4.59664">
        <ele>509.392731</ele>
        <time>2016-09-11T07:43:35Z</time>
      </trkpt>
      <trkpt lat="45.97012" lon="4.59669">
        <ele>509.328857</ele>
        <time>2016-09-11T07:43:37Z</time>
      </trkpt>
      <trkpt lat="45.97007" lon="4.59673">
        <ele>509.496277</ele>
        <time>2016-09-11T07:43:39Z</time>
      </trkpt>
      <trkpt lat="45.97004" lon="4.59678">
        <ele>509.378754</ele>
        <time>2016-09-11T07:43:41Z</time>
      </trkpt>
      <trkpt lat="45.97" lon="4.59682">
        <ele>509.250397</ele>
        <time>2016-09-11T07:43:43Z</time>
      </trkpt>
      <trkpt lat="45.96996" lon="4.59688">
        <ele>509.237366</ele>
        <time>2016-09-11T07:43:45Z</time>
      </trkpt>
      <trkpt lat="45.96992" lon="4.59695">
        <ele>509.019836</ele>
        <time>2016-09-11T07:43:47Z</time>
      </trkpt>
      <trkpt lat="45.96989" lon="4.59703">
        <ele>508.963287</ele>
        <time>2016-09-11T07:43:49Z</time>
      </trkpt>
      <trkpt lat="45.96986" lon="4.59713">
        <ele>508.824036</ele>
        <time>2016-09-11T07:43:51Z</time>
      </trkpt>
      <trkpt lat="45.96985" lon="4.59723">
        <ele>508.893646</ele>
        <time>2016-09-11T07:43:53Z</time>
      </trkpt>
      <trkpt lat="45.96987" lon="4.59734">
        <ele>509.017487</ele>
        <time>2016-09-11T07:43:55Z</time>
      </trkpt>
      <trkpt lat="45.96991" lon="4.59745">
        <ele>509.265472</ele>
        <time>2016-09-11T07:43:57Z</time>
      </trkpt>
      <trkpt lat="45.96999" lon="4.59755">
        <ele>509.581238</ele>
        <time>2016-09-11T07:43:59Z</time>
      </trkpt>
      <trkpt lat="45.97007" lon="4.59764">
        <ele>509.829254</ele>
        <time>2016-09-11T07:44:01Z</time>
      </trkpt>
      <trkpt lat="45.97015" lon="4.59773">
        <ele>509.955414</ele>
        <time>2016-09-11T07:44:03Z</time>
      </trkpt>
      <trkpt lat="45.97023" lon="4.59782">
        <ele>509.687897</ele>
        <time>2016-09-11T07:44:05Z</time>
      </trkpt>
      <trkpt lat="45.97029" lon="4.59792">
        <ele>509.769196</ele>
        <time>2016-09-11T07:44:07Z</time>
      </trkpt>
      <trkpt lat="45.97031" lon="4.59801">
        <ele>509.703949</ele>
        <time>2016-09-11T07:44:09Z</time>
      </trkpt>
      <trkpt lat="45.97028" lon="4.59806">
        <ele>509.627838</ele>
        <time>2016-09-11T07:44:11Z</time>
      </trkpt>
      <trkpt lat="45.97024" lon="4.59806">
        <ele>509.510406</ele>
        <time>2016-09-11T07:44:13Z</time>
      </trkpt>
      <trkpt lat="45.9702" lon="4.59807">
        <ele>509.495789</ele>
        <time>2016-09-11T07:44:15Z</time>
      </trkpt>
      <trkpt lat="45.97016" lon="4.59808">
        <ele>509.535065</ele>
        <time>2016-09-11T07:44:17Z</time>
      </trkpt>
      <trkpt lat="45.97012" lon="4.5981">
        <ele>509.537262</ele>
        <time>2016-09-11T07:44:19Z</time>
      </trkpt>
      <trkpt lat="45.97009" lon="4.59812">
        <ele>509.395844</ele>
        <time>2016-09-11T07:44:21Z</time>
      </trkpt>
      <trkpt lat="45.97005" lon="4.59813">
        <ele>509.298004</ele>
        <time>2016-09-11T07:44:23Z</time>
      </trkpt>
      <trkpt lat="45.97001" lon="4.59813">
        <ele>509.402435</ele>
        <time>2016-09-11T07:44:25Z</time>
      </trkpt>
      <trkpt lat="45.96998" lon="4.59813">
        <ele>509.467712</ele>
        <time>2016-09-11T07:44:27Z</time>
      </trkpt>
      <trkpt lat="45.96994" lon="4.59813">
        <ele>509.722229</ele>
        <time>2016-09-11T07:44:29Z</time>
      </trkpt>
      <trkpt lat="45.96991" lon="4.59813">
        <ele>510.015869</ele>
        <time>2016-09-11T07:44:31Z</time>
      </trkpt>
      <trkpt lat="45.96988" lon="4.59814">
        <ele>510.253021</ele>
        <time>2016-09-11T07:44:33Z</time>
      </trkpt>
      <trkpt lat="45.96984" lon="4.59814">
        <ele>510.326996</ele>
        <time>2016-09-11T07:44:35Z</time>
      </trkpt>
      <trkpt lat="45.96981" lon="4.59814">
        <ele>510.257385</ele>
        <time>2016-09-11T07:44:37Z</time>
      </trkpt>
      <trkpt lat="45.96978" lon="4.59814">
        <ele>510.356384</ele>
        <time>2016-09-11T07:44:39Z</time>
      </trkpt>
      <trkpt lat="45.96974" lon="4.59815">
        <ele>510.314636</ele>
        <time>2016-09-11T07:44:41Z</time>
      </trkpt>
      <trkpt lat="45.96972" lon="4.59815">
        <ele>510.301605</ele>
        <time>2016-09-11T07:44:43Z</time>
      </trkpt>
      <trkpt lat="45.96969" lon="4.59815">
        <ele>510.43988</ele>
        <time>2016-09-11T07:44:45Z</time>
      </trkpt>
      <trkpt lat="45.96965" lon="4.59816">
        <ele>510.841553</ele>
        <time>2016-09-11T07:44:47Z</time>
      </trkpt>
      <trkpt lat="45.96962" lon="4.59817">
        <ele>511.164642</ele>
        <time>2016-09-11T07:44:49Z</time>
      </trkpt>
      <trkpt lat="45.9696" lon="4.59818">
        <ele>511.486633</ele>
        <time>2016-09-11T07:44:51Z</time>
      </trkpt>
      <trkpt lat="45.96957" lon="4.5982">
        <ele>511.938904</ele>
        <time>2016-09-11T07:44:53Z</time>
      </trkpt>
      <trkpt lat="45.96954" lon="4.59821">
        <ele>512.253723</ele>
        <time>2016-09-11T07:44:55Z</time>
      </trkpt>
      <trkpt lat="45.96952" lon="4.59823">
        <ele>512.586548</ele>
        <time>2016-09-11T07:44:57Z</time>
      </trkpt>
      <trkpt lat="45.96949" lon="4.59825">
        <ele>512.84552</ele>
        <time>2016-09-11T07:44:59Z</time>
      </trkpt>
      <trkpt lat="45.96946" lon="4.59826">
        <ele>513.220398</ele>
        <time>2016-09-11T07:45:01Z</time>
      </trkpt>
      <trkpt lat="45.96944" lon="4.59828">
        <ele>513.588074</ele>
        <time>2016-09-11T07:45:03Z</time>
      </trkpt>
      <trkpt lat="45.96941" lon="4.59828">
        <ele>513.847046</ele>
        <time>2016-09-11T07:45:05Z</time>
      </trkpt>
      <trkpt lat="45.96938" lon="4.59829">
        <ele>514.19519</ele>
        <time>2016-09-11T07:45:07Z</time>
      </trkpt>
      <trkpt lat="45.96935" lon="4.5983">
        <ele>514.335938</ele>
        <time>2016-09-11T07:45:09Z</time>
      </trkpt>
      <trkpt lat="45.96933" lon="4.59831">
        <ele>514.668945</ele>
        <time>2016-09-11T07:45:11Z</time>
      </trkpt>
      <trkpt lat="45.9693" lon="4.59832">
        <ele>514.958435</ele>
        <time>2016-09-11T07:45:13Z</time>
      </trkpt>
      <trkpt lat="45.96928" lon="4.59833">
        <ele>515.147827</ele>
        <time>2016-09-11T07:45:15Z</time>
      </trkpt>
      <trkpt lat="45.96925" lon="4.59835">
        <ele>515.557678</ele>
        <time>2016-09-11T07:45:17Z</time>
      </trkpt>
      <trkpt lat="45.96923" lon="4.59836">
        <ele>515.971313</ele>
        <time>2016-09-11T07:45:19Z</time>
      </trkpt>
      <trkpt lat="45.9692" lon="4.59837">
        <ele>516.320679</ele>
        <time>2016-09-11T07:45:21Z</time>
      </trkpt>
      <trkpt lat="45.96917" lon="4.59838">
        <ele>516.815125</ele>
        <time>2016-09-11T07:45:23Z</time>
      </trkpt>
      <trkpt lat="45.96915" lon="4.59839">
        <ele>517.323669</ele>
        <time>2016-09-11T07:45:25Z</time>
      </trkpt>
      <trkpt lat="45.96912" lon="4.59841">
        <ele>517.831787</ele>
        <time>2016-09-11T07:45:27Z</time>
      </trkpt>
      <trkpt lat="45.9691" lon="4.59842">
        <ele>518.217163</ele>
        <time>2016-09-11T07:45:29Z</time>
      </trkpt>
      <trkpt lat="45.96907" lon="4.59843">
        <ele>518.665771</ele>
        <time>2016-09-11T07:45:31Z</time>
      </trkpt>
      <trkpt lat="45.96905" lon="4.59844">
        <ele>519.247192</ele>
        <time>2016-09-11T07:45:33Z</time>
      </trkpt>
      <trkpt lat="45.96903" lon="4.59845">
        <ele>519.526062</ele>
        <time>2016-09-11T07:45:35Z</time>
      </trkpt>
      <trkpt lat="45.96901" lon="4.59845">
        <ele>520.099487</ele>
        <time>2016-09-11T07:45:37Z</time>
      </trkpt>
      <trkpt lat="45.96899" lon="4.59846">
        <ele>520.715759</ele>
        <time>2016-09-11T07:45:39Z</time>
      </trkpt>
      <trkpt lat="45.96897" lon="4.59847">
        <ele>521.225342</ele>
        <time>2016-09-11T07:45:41Z</time>
      </trkpt>
      <trkpt lat="45.96896" lon="4.59848">
        <ele>521.77356</ele>
        <time>2016-09-11T07:45:43Z</time>
      </trkpt>
      <trkpt lat="45.96894" lon="4.5985">
        <ele>522.403992</ele>
        <time>2016-09-11T07:45:45Z</time>
      </trkpt>
      <trkpt lat="45.96892" lon="4.59851">
        <ele>522.849121</ele>
        <time>2016-09-11T07:45:47Z</time>
      </trkpt>
      <trkpt lat="45.9689" lon="4.59851">
        <ele>523.357727</ele>
        <time>2016-09-11T07:45:49Z</time>
      </trkpt>
      <trkpt lat="45.96883" lon="4.59856">
        <ele>528.321045</ele>
        <time>2016-09-11T07:46:15Z</time>
      </trkpt>
      <trkpt lat="45.96881" lon="4.59857">
        <ele>528.51062</ele>
        <time>2016-09-11T07:46:17Z</time>
      </trkpt>
      <trkpt lat="45.9688" lon="4.59857">
        <ele>528.652527</ele>
        <time>2016-09-11T07:46:19Z</time>
      </trkpt>
      <trkpt lat="45.96878" lon="4.59858">
        <ele>528.831177</ele>
        <time>2016-09-11T07:46:21Z</time>
      </trkpt>
      <trkpt lat="45.96877" lon="4.59858">
        <ele>529.07959</ele>
        <time>2016-09-11T07:46:23Z</time>
      </trkpt>
      <trkpt lat="45.96875" lon="4.59859">
        <ele>529.274048</ele>
        <time>2016-09-11T07:46:25Z</time>
      </trkpt>
      <trkpt lat="45.96874" lon="4.59859">
        <ele>529.520569</ele>
        <time>2016-09-11T07:46:27Z</time>
      </trkpt>
      <trkpt lat="45.96871" lon="4.59861">
        <ele>530.094849</ele>
        <time>2016-09-11T07:46:33Z</time>
      </trkpt>
      <trkpt lat="45.9687" lon="4.59862">
        <ele>530.29071</ele>
        <time>2016-09-11T07:46:35Z</time>
      </trkpt>
      <trkpt lat="45.96868" lon="4.59862">
        <ele>530.480408</ele>
        <time>2016-09-11T07:46:37Z</time>
      </trkpt>
      <trkpt lat="45.96867" lon="4.59862">
        <ele>530.677063</ele>
        <time>2016-09-11T07:46:39Z</time>
      </trkpt>
      <trkpt lat="45.96866" lon="4.59863">
        <ele>530.901611</ele>
        <time>2016-09-11T07:46:41Z</time>
      </trkpt>
      <trkpt lat="45.96864" lon="4.59864">
        <ele>531.165405</ele>
        <time>2016-09-11T07:46:43Z</time>
      </trkpt>
      <trkpt lat="45.96863" lon="4.59864">
        <ele>531.439392</ele>
        <time>2016-09-11T07:46:45Z</time>
      </trkpt>
      <trkpt lat="45.96862" lon="4.59865">
        <ele>531.760864</ele>
        <time>2016-09-11T07:46:47Z</time>
      </trkpt>
      <trkpt lat="45.9686" lon="4.59866">
        <ele>532.061646</ele>
        <time>2016-09-11T07:46:49Z</time>
      </trkpt>
      <trkpt lat="45.96858" lon="4.59867">
        <ele>532.430115</ele>
        <time>2016-09-11T07:46:51Z</time>
      </trkpt>
      <trkpt lat="45.96857" lon="4.59868">
        <ele>532.744019</ele>
        <time>2016-09-11T07:46:53Z</time>
      </trkpt>
      <trkpt lat="45.96855" lon="4.59868">
        <ele>532.999146</ele>
        <time>2016-09-11T07:46:55Z</time>
      </trkpt>
      <trkpt lat="45.96854" lon="4.59868">
        <ele>533.328308</ele>
        <time>2016-09-11T07:46:57Z</time>
      </trkpt>
      <trkpt lat="45.96853" lon="4.59869">
        <ele>533.664063</ele>
        <time>2016-09-11T07:46:59Z</time>
      </trkpt>
      <trkpt lat="45.96851" lon="4.59869">
        <ele>534.006226</ele>
        <time>2016-09-11T07:47:01Z</time>
      </trkpt>
      <trkpt lat="45.9685" lon="4.5987">
        <ele>534.1521</ele>
        <time>2016-09-11T07:47:03Z</time>
      </trkpt>
      <trkpt lat="45.96849" lon="4.59871">
        <ele>534.411621</ele>
        <time>2016-09-11T07:47:05Z</time>
      </trkpt>
      <trkpt lat="45.96848" lon="4.59872">
        <ele>534.718628</ele>
        <time>2016-09-11T07:47:07Z</time>
      </trkpt>
      <trkpt lat="45.96846" lon="4.59873">
        <ele>534.98468</ele>
        <time>2016-09-11T07:47:09Z</time>
      </trkpt>
      <trkpt lat="45.96845" lon="4.59874">
        <ele>535.311829</ele>
        <time>2016-09-11T07:47:11Z</time>
      </trkpt>
      <trkpt lat="45.96843" lon="4.59876">
        <ele>535.614929</ele>
        <time>2016-09-11T07:47:13Z</time>
      </trkpt>
      <trkpt lat="45.96842" lon="4.59877">
        <ele>535.975098</ele>
        <time>2016-09-11T07:47:15Z</time>
      </trkpt>
      <trkpt lat="45.9684" lon="4.59878">
        <ele>536.287598</ele>
        <time>2016-09-11T07:47:17Z</time>
      </trkpt>
      <trkpt lat="45.96839" lon="4.59879">
        <ele>536.558655</ele>
        <time>2016-09-11T07:47:19Z</time>
      </trkpt>
      <trkpt lat="45.96837" lon="4.59879">
        <ele>536.82782</ele>
        <time>2016-09-11T07:47:21Z</time>
      </trkpt>
      <trkpt lat="45.96836" lon="4.5988">
        <ele>537.165955</ele>
        <time>2016-09-11T07:47:23Z</time>
      </trkpt>
      <trkpt lat="45.96835" lon="4.59881">
        <ele>537.486572</ele>
        <time>2016-09-11T07:47:25Z</time>
      </trkpt>
      <trkpt lat="45.96833" lon="4.59881">
        <ele>537.801392</ele>
        <time>2016-09-11T07:47:27Z</time>
      </trkpt>
      <trkpt lat="45.96832" lon="4.59882">
        <ele>538.150452</ele>
        <time>2016-09-11T07:47:29Z</time>
      </trkpt>
      <trkpt lat="45.96831" lon="4.59882">
        <ele>538.307495</ele>
        <time>2016-09-11T07:47:31Z</time>
      </trkpt>
      <trkpt lat="45.9683" lon="4.59883">
        <ele>538.61731</ele>
        <time>2016-09-11T07:47:33Z</time>
      </trkpt>
      <trkpt lat="45.96829" lon="4.59884">
        <ele>538.981628</ele>
        <time>2016-09-11T07:47:35Z</time>
      </trkpt>
      <trkpt lat="45.96827" lon="4.59885">
        <ele>539.326294</ele>
        <time>2016-09-11T07:47:37Z</time>
      </trkpt>
      <trkpt lat="45.96826" lon="4.59886">
        <ele>539.623047</ele>
        <time>2016-09-11T07:47:39Z</time>
      </trkpt>
      <trkpt lat="45.96824" lon="4.59887">
        <ele>539.972168</ele>
        <time>2016-09-11T07:47:41Z</time>
      </trkpt>
      <trkpt lat="45.96823" lon="4.59887">
        <ele>540.314697</ele>
        <time>2016-09-11T07:47:43Z</time>
      </trkpt>
      <trkpt lat="45.96822" lon="4.59888">
        <ele>540.669678</ele>
        <time>2016-09-11T07:47:45Z</time>
      </trkpt>
      <trkpt lat="45.9682" lon="4.59888">
        <ele>540.98822</ele>
        <time>2016-09-11T07:47:47Z</time>
      </trkpt>
      <trkpt lat="45.96819" lon="4.59889">
        <ele>541.295898</ele>
        <time>2016-09-11T07:47:49Z</time>
      </trkpt>
      <trkpt lat="45.96814" lon="4.59888">
        <ele>542.78363</ele>
        <time>2016-09-11T07:47:59Z</time>
      </trkpt>
      <trkpt lat="45.96809" lon="4.59888">
        <ele>545.115356</ele>
        <time>2016-09-11T07:48:19Z</time>
      </trkpt>
      <trkpt lat="45.96807" lon="4.59889">
        <ele>545.490784</ele>
        <time>2016-09-11T07:48:23Z</time>
      </trkpt>
      <trkpt lat="45.96805" lon="4.59889">
        <ele>545.730896</ele>
        <time>2016-09-11T07:48:25Z</time>
      </trkpt>
      <trkpt lat="45.96804" lon="4.59889">
        <ele>545.947937</ele>
        <time>2016-09-11T07:48:27Z</time>
      </trkpt>
      <trkpt lat="45.96803" lon="4.5989">
        <ele>546.181519</ele>
        <time>2016-09-11T07:48:29Z</time>
      </trkpt>
      <trkpt lat="45.96801" lon="4.59889">
        <ele>546.301636</ele>
        <time>2016-09-11T07:48:31Z</time>
      </trkpt>
      <trkpt lat="45.968" lon="4.5989">
        <ele>546.582031</ele>
        <time>2016-09-11T07:48:33Z</time>
      </trkpt>
      <trkpt lat="45.96798" lon="4.5989">
        <ele>546.796997</ele>
        <time>2016-09-11T07:48:35Z</time>
      </trkpt>
      <trkpt lat="45.96797" lon="4.5989">
        <ele>547.045898</ele>
        <time>2016-09-11T07:48:37Z</time>
      </trkpt>
      <trkpt lat="45.96795" lon="4.5989">
        <ele>547.334473</ele>
        <time>2016-09-11T07:48:39Z</time>
      </trkpt>
      <trkpt lat="45.96793" lon="4.5989">
        <ele>547.592163</ele>
        <time>2016-09-11T07:48:41Z</time>
      </trkpt>
      <trkpt lat="45.96792" lon="4.5989">
        <ele>547.858521</ele>
        <time>2016-09-11T07:48:43Z</time>
      </trkpt>
      <trkpt lat="45.96789" lon="4.59891">
        <ele>548.500549</ele>
        <time>2016-09-11T07:48:47Z</time>
      </trkpt>
      <trkpt lat="45.96788" lon="4.59891">
        <ele>548.799683</ele>
        <time>2016-09-11T07:48:49Z</time>
      </trkpt>
      <trkpt lat="45.96783" lon="4.59895">
        <ele>549.699219</ele>
        <time>2016-09-11T07:48:57Z</time>
      </trkpt>
      <trkpt lat="45.96781" lon="4.59895">
        <ele>550.024048</ele>
        <time>2016-09-11T07:48:59Z</time>
      </trkpt>
      <trkpt lat="45.96779" lon="4.59896">
        <ele>550.225525</ele>
        <time>2016-09-11T07:49:01Z</time>
      </trkpt>
      <trkpt lat="45.96778" lon="4.59897">
        <ele>550.560791</ele>
        <time>2016-09-11T07:49:03Z</time>
      </trkpt>
      <trkpt lat="45.96776" lon="4.59898">
        <ele>550.772583</ele>
        <time>2016-09-11T07:49:05Z</time>
      </trkpt>
      <trkpt lat="45.96774" lon="4.59899">
        <ele>550.923279</ele>
        <time>2016-09-11T07:49:07Z</time>
      </trkpt>
      <trkpt lat="45.96771" lon="4.599">
        <ele>551.489868</ele>
        <time>2016-09-11T07:49:11Z</time>
      </trkpt>
      <trkpt lat="45.9677" lon="4.599">
        <ele>551.757568</ele>
        <time>2016-09-11T07:49:13Z</time>
      </trkpt>
      <trkpt lat="45.96762" lon="4.59905">
        <ele>553.219727</ele>
        <time>2016-09-11T07:49:33Z</time>
      </trkpt>
      <trkpt lat="45.96759" lon="4.59907">
        <ele>553.289917</ele>
        <time>2016-09-11T07:49:35Z</time>
      </trkpt>
      <trkpt lat="45.96756" lon="4.59907">
        <ele>553.654297</ele>
        <time>2016-09-11T07:49:39Z</time>
      </trkpt>
      <trkpt lat="45.96753" lon="4.59908">
        <ele>554.055481</ele>
        <time>2016-09-11T07:49:45Z</time>
      </trkpt>
      <trkpt lat="45.96751" lon="4.59907">
        <ele>554.323425</ele>
        <time>2016-09-11T07:49:47Z</time>
      </trkpt>
      <trkpt lat="45.96749" lon="4.59908">
        <ele>554.406372</ele>
        <time>2016-09-11T07:49:49Z</time>
      </trkpt>
      <trkpt lat="45.96747" lon="4.59907">
        <ele>554.467834</ele>
        <time>2016-09-11T07:49:51Z</time>
      </trkpt>
      <trkpt lat="45.96744" lon="4.59907">
        <ele>554.445007</ele>
        <time>2016-09-11T07:49:53Z</time>
      </trkpt>
      <trkpt lat="45.96742" lon="4.59907">
        <ele>554.547729</ele>
        <time>2016-09-11T07:49:55Z</time>
      </trkpt>
      <trkpt lat="45.96738" lon="4.59906">
        <ele>554.560913</ele>
        <time>2016-09-11T07:49:57Z</time>
      </trkpt>
      <trkpt lat="45.96736" lon="4.59906">
        <ele>554.646118</ele>
        <time>2016-09-11T07:49:59Z</time>
      </trkpt>
      <trkpt lat="45.96733" lon="4.59905">
        <ele>554.806152</ele>
        <time>2016-09-11T07:50:01Z</time>
      </trkpt>
      <trkpt lat="45.9673" lon="4.59905">
        <ele>554.941589</ele>
        <time>2016-09-11T07:50:03Z</time>
      </trkpt>
      <trkpt lat="45.96726" lon="4.59904">
        <ele>555.037537</ele>
        <time>2016-09-11T07:50:05Z</time>
      </trkpt>
      <trkpt lat="45.96723" lon="4.59904">
        <ele>555.190491</ele>
        <time>2016-09-11T07:50:07Z</time>
      </trkpt>
      <trkpt lat="45.9672" lon="4.59904">
        <ele>555.365295</ele>
        <time>2016-09-11T07:50:09Z</time>
      </trkpt>
      <trkpt lat="45.96718" lon="4.59903">
        <ele>555.55658</ele>
        <time>2016-09-11T07:50:11Z</time>
      </trkpt>
      <trkpt lat="45.96715" lon="4.59903">
        <ele>555.783813</ele>
        <time>2016-09-11T07:50:13Z</time>
      </trkpt>
      <trkpt lat="45.96711" lon="4.59902">
        <ele>556.0896</ele>
        <time>2016-09-11T07:50:15Z</time>
      </trkpt>
      <trkpt lat="45.96708" lon="4.59901">
        <ele>556.408691</ele>
        <time>2016-09-11T07:50:17Z</time>
      </trkpt>
      <trkpt lat="45.96706" lon="4.599">
        <ele>556.598022</ele>
        <time>2016-09-11T07:50:19Z</time>
      </trkpt>
      <trkpt lat="45.96702" lon="4.59899">
        <ele>556.67981</ele>
        <time>2016-09-11T07:50:21Z</time>
      </trkpt>
      <trkpt lat="45.967" lon="4.59898">
        <ele>556.878723</ele>
        <time>2016-09-11T07:50:23Z</time>
      </trkpt>
      <trkpt lat="45.96696" lon="4.59896">
        <ele>557.136597</ele>
        <time>2016-09-11T07:50:25Z</time>
      </trkpt>
      <trkpt lat="45.96693" lon="4.59894">
        <ele>557.348267</ele>
        <time>2016-09-11T07:50:27Z</time>
      </trkpt>
      <trkpt lat="45.9669" lon="4.59895">
        <ele>557.563232</ele>
        <time>2016-09-11T07:50:29Z</time>
      </trkpt>
      <trkpt lat="45.96688" lon="4.59896">
        <ele>557.722778</ele>
        <time>2016-09-11T07:50:31Z</time>
      </trkpt>
      <trkpt lat="45.96685" lon="4.59894">
        <ele>557.94696</ele>
        <time>2016-09-11T07:50:33Z</time>
      </trkpt>
      <trkpt lat="45.96684" lon="4.59892">
        <ele>558.449707</ele>
        <time>2016-09-11T07:50:35Z</time>
      </trkpt>
      <trkpt lat="45.96682" lon="4.59889">
        <ele>558.707642</ele>
        <time>2016-09-11T07:50:37Z</time>
      </trkpt>
      <trkpt lat="45.9668" lon="4.59886">
        <ele>559.042847</ele>
        <time>2016-09-11T07:50:39Z</time>
      </trkpt>
      <trkpt lat="45.96677" lon="4.59884">
        <ele>559.351318</ele>
        <time>2016-09-11T07:50:41Z</time>
      </trkpt>
      <trkpt lat="45.96674" lon="4.59882">
        <ele>559.666138</ele>
        <time>2016-09-11T07:50:43Z</time>
      </trkpt>
      <trkpt lat="45.96672" lon="4.5988">
        <ele>559.860962</ele>
        <time>2016-09-11T07:50:45Z</time>
      </trkpt>
      <trkpt lat="45.96669" lon="4.59878">
        <ele>560.263123</ele>
        <time>2016-09-11T07:50:47Z</time>
      </trkpt>
      <trkpt lat="45.96666" lon="4.59875">
        <ele>560.606323</ele>
        <time>2016-09-11T07:50:49Z</time>
      </trkpt>
      <trkpt lat="45.96663" lon="4.59873">
        <ele>560.807495</ele>
        <time>2016-09-11T07:50:51Z</time>
      </trkpt>
      <trkpt lat="45.9666" lon="4.5987">
        <ele>561.083069</ele>
        <time>2016-09-11T07:50:53Z</time>
      </trkpt>
      <trkpt lat="45.96658" lon="4.59867">
        <ele>561.338989</ele>
        <time>2016-09-11T07:50:55Z</time>
      </trkpt>
      <trkpt lat="45.96655" lon="4.59864">
        <ele>561.515198</ele>
        <time>2016-09-11T07:50:57Z</time>
      </trkpt>
      <trkpt lat="45.96653" lon="4.5986">
        <ele>561.70105</ele>
        <time>2016-09-11T07:50:59Z</time>
      </trkpt>
      <trkpt lat="45.96651" lon="4.59857">
        <ele>561.927002</ele>
        <time>2016-09-11T07:51:01Z</time>
      </trkpt>
      <trkpt lat="45.9665" lon="4.59852">
        <ele>562.224304</ele>
        <time>2016-09-11T07:51:03Z</time>
      </trkpt>
      <trkpt lat="45.96648" lon="4.59848">
        <ele>562.580872</ele>
        <time>2016-09-11T07:51:05Z</time>
      </trkpt>
      <trkpt lat="45.96647" lon="4.59844">
        <ele>562.974487</ele>
        <time>2016-09-11T07:51:07Z</time>
      </trkpt>
      <trkpt lat="45.96645" lon="4.59841">
        <ele>563.368103</ele>
        <time>2016-09-11T07:51:09Z</time>
      </trkpt>
      <trkpt lat="45.96643" lon="4.59837">
        <ele>563.733276</ele>
        <time>2016-09-11T07:51:11Z</time>
      </trkpt>
      <trkpt lat="45.96642" lon="4.59833">
        <ele>564.075134</ele>
        <time>2016-09-11T07:51:13Z</time>
      </trkpt>
      <trkpt lat="45.9664" lon="4.59829">
        <ele>564.376953</ele>
        <time>2016-09-11T07:51:15Z</time>
      </trkpt>
      <trkpt lat="45.96639" lon="4.59824">
        <ele>564.604431</ele>
        <time>2016-09-11T07:51:17Z</time>
      </trkpt>
      <trkpt lat="45.96637" lon="4.5982">
        <ele>564.941772</ele>
        <time>2016-09-11T07:51:19Z</time>
      </trkpt>
      <trkpt lat="45.96635" lon="4.59816">
        <ele>565.343323</ele>
        <time>2016-09-11T07:51:21Z</time>
      </trkpt>
      <trkpt lat="45.96634" lon="4.59813">
        <ele>565.778259</ele>
        <time>2016-09-11T07:51:23Z</time>
      </trkpt>
      <trkpt lat="45.96633" lon="4.59811">
        <ele>566.053833</ele>
        <time>2016-09-11T07:51:25Z</time>
      </trkpt>
      <trkpt lat="45.96631" lon="4.59809">
        <ele>566.430054</ele>
        <time>2016-09-11T07:51:27Z</time>
      </trkpt>
      <trkpt lat="45.9663" lon="4.59807">
        <ele>566.720337</ele>
        <time>2016-09-11T07:51:29Z</time>
      </trkpt>
      <trkpt lat="45.96628" lon="4.59804">
        <ele>566.992981</ele>
        <time>2016-09-11T07:51:31Z</time>
      </trkpt>
      <trkpt lat="45.96627" lon="4.59801">
        <ele>567.290955</ele>
        <time>2016-09-11T07:51:33Z</time>
      </trkpt>
      <trkpt lat="45.96626" lon="4.59798">
        <ele>567.511841</ele>
        <time>2016-09-11T07:51:35Z</time>
      </trkpt>
      <trkpt lat="45.96624" lon="4.59796">
        <ele>567.818054</ele>
        <time>2016-09-11T07:51:37Z</time>
      </trkpt>
      <trkpt lat="45.96623" lon="4.59794">
        <ele>568.106812</ele>
        <time>2016-09-11T07:51:39Z</time>
      </trkpt>
      <trkpt lat="45.96622" lon="4.59793">
        <ele>568.498352</ele>
        <time>2016-09-11T07:51:41Z</time>
      </trkpt>
      <trkpt lat="45.96618" lon="4.59789">
        <ele>569.889893</ele>
        <time>2016-09-11T07:51:55Z</time>
      </trkpt>
      <trkpt lat="45.96615" lon="4.59786">
        <ele>569.887695</ele>
        <time>2016-09-11T07:51:57Z</time>
      </trkpt>
      <trkpt lat="45.96613" lon="4.59782">
        <ele>569.979004</ele>
        <time>2016-09-11T07:51:59Z</time>
      </trkpt>
      <trkpt lat="45.96611" lon="4.59779">
        <ele>570.149658</ele>
        <time>2016-09-11T07:52:01Z</time>
      </trkpt>
      <trkpt lat="45.96609" lon="4.59775">
        <ele>570.274475</ele>
        <time>2016-09-11T07:52:03Z</time>
      </trkpt>
      <trkpt lat="45.96607" lon="4.59772">
        <ele>570.512939</ele>
        <time>2016-09-11T07:52:05Z</time>
      </trkpt>
      <trkpt lat="45.96606" lon="4.5977">
        <ele>570.740601</ele>
        <time>2016-09-11T07:52:07Z</time>
      </trkpt>
      <trkpt lat="45.96603" lon="4.59767">
        <ele>570.911499</ele>
        <time>2016-09-11T07:52:09Z</time>
      </trkpt>
      <trkpt lat="45.966" lon="4.59764">
        <ele>571.100342</ele>
        <time>2016-09-11T07:52:11Z</time>
      </trkpt>
      <trkpt lat="45.96598" lon="4.5976">
        <ele>571.289429</ele>
        <time>2016-09-11T07:52:13Z</time>
      </trkpt>
      <trkpt lat="45.96595" lon="4.59757">
        <ele>571.367615</ele>
        <time>2016-09-11T07:52:15Z</time>
      </trkpt>
      <trkpt lat="45.96592" lon="4.59754">
        <ele>571.599548</ele>
        <time>2016-09-11T07:52:17Z</time>
      </trkpt>
      <trkpt lat="45.9659" lon="4.5975">
        <ele>571.934448</ele>
        <time>2016-09-11T07:52:19Z</time>
      </trkpt>
      <trkpt lat="45.96587" lon="4.59747">
        <ele>572.184021</ele>
        <time>2016-09-11T07:52:21Z</time>
      </trkpt>
      <trkpt lat="45.96584" lon="4.59743">
        <ele>572.490479</ele>
        <time>2016-09-11T07:52:23Z</time>
      </trkpt>
      <trkpt lat="45.96582" lon="4.59739">
        <ele>572.814392</ele>
        <time>2016-09-11T07:52:25Z</time>
      </trkpt>
      <trkpt lat="45.96579" lon="4.59735">
        <ele>573.002563</ele>
        <time>2016-09-11T07:52:27Z</time>
      </trkpt>
      <trkpt lat="45.96576" lon="4.59732">
        <ele>573.396606</ele>
        <time>2016-09-11T07:52:29Z</time>
      </trkpt>
      <trkpt lat="45.96573" lon="4.59728">
        <ele>573.755432</ele>
        <time>2016-09-11T07:52:31Z</time>
      </trkpt>
      <trkpt lat="45.96571" lon="4.59724">
        <ele>574.149475</ele>
        <time>2016-09-11T07:52:33Z</time>
      </trkpt>
      <trkpt lat="45.96568" lon="4.59719">
        <ele>574.655151</ele>
        <time>2016-09-11T07:52:35Z</time>
      </trkpt>
      <trkpt lat="45.96566" lon="4.59715">
        <ele>574.86969</ele>
        <time>2016-09-11T07:52:37Z</time>
      </trkpt>
      <trkpt lat="45.96565" lon="4.5971">
        <ele>575.408142</ele>
        <time>2016-09-11T07:52:39Z</time>
      </trkpt>
      <trkpt lat="45.96562" lon="4.59704">
        <ele>575.793518</ele>
        <time>2016-09-11T07:52:41Z</time>
      </trkpt>
      <trkpt lat="45.9656" lon="4.59697">
        <ele>576.113159</ele>
        <time>2016-09-11T07:52:43Z</time>
      </trkpt>
      <trkpt lat="45.96559" lon="4.59691">
        <ele>576.478882</ele>
        <time>2016-09-11T07:52:45Z</time>
      </trkpt>
      <trkpt lat="45.96558" lon="4.59685">
        <ele>576.695557</ele>
        <time>2016-09-11T07:52:47Z</time>
      </trkpt>
      <trkpt lat="45.96557" lon="4.59677">
        <ele>576.964905</ele>
        <time>2016-09-11T07:52:49Z</time>
      </trkpt>
      <trkpt lat="45.96556" lon="4.5967">
        <ele>577.336853</ele>
        <time>2016-09-11T07:52:51Z</time>
      </trkpt>
      <trkpt lat="45.96555" lon="4.59664">
        <ele>577.614868</ele>
        <time>2016-09-11T07:52:53Z</time>
      </trkpt>
      <trkpt lat="45.96555" lon="4.59658">
        <ele>577.844849</ele>
        <time>2016-09-11T07:52:55Z</time>
      </trkpt>
      <trkpt lat="45.96554" lon="4.59652">
        <ele>578.276978</ele>
        <time>2016-09-11T07:52:57Z</time>
      </trkpt>
      <trkpt lat="45.96553" lon="4.59646">
        <ele>578.445679</ele>
        <time>2016-09-11T07:52:59Z</time>
      </trkpt>
      <trkpt lat="45.96551" lon="4.5964">
        <ele>578.69574</ele>
        <time>2016-09-11T07:53:01Z</time>
      </trkpt>
      <trkpt lat="45.96548" lon="4.59633">
        <ele>579.018433</ele>
        <time>2016-09-11T07:53:03Z</time>
      </trkpt>
      <trkpt lat="45.96545" lon="4.59626">
        <ele>579.303101</ele>
        <time>2016-09-11T07:53:05Z</time>
      </trkpt>
      <trkpt lat="45.96542" lon="4.59619">
        <ele>579.553101</ele>
        <time>2016-09-11T07:53:07Z</time>
      </trkpt>
      <trkpt lat="45.96539" lon="4.59612">
        <ele>579.953857</ele>
        <time>2016-09-11T07:53:09Z</time>
      </trkpt>
      <trkpt lat="45.96536" lon="4.59604">
        <ele>580.227661</ele>
        <time>2016-09-11T07:53:11Z</time>
      </trkpt>
      <trkpt lat="45.96534" lon="4.59597">
        <ele>580.407288</ele>
        <time>2016-09-11T07:53:13Z</time>
      </trkpt>
      <trkpt lat="45.96532" lon="4.5959">
        <ele>580.589111</ele>
        <time>2016-09-11T07:53:15Z</time>
      </trkpt>
      <trkpt lat="45.96529" lon="4.59585">
        <ele>580.733765</ele>
        <time>2016-09-11T07:53:17Z</time>
      </trkpt>
      <trkpt lat="45.96525" lon="4.5958">
        <ele>580.990051</ele>
        <time>2016-09-11T07:53:19Z</time>
      </trkpt>
      <trkpt lat="45.96522" lon="4.59574">
        <ele>581.082031</ele>
        <time>2016-09-11T07:53:21Z</time>
      </trkpt>
      <trkpt lat="45.96519" lon="4.59569">
        <ele>581.317444</ele>
        <time>2016-09-11T07:53:23Z</time>
      </trkpt>
      <trkpt lat="45.96516" lon="4.59564">
        <ele>581.562744</ele>
        <time>2016-09-11T07:53:25Z</time>
      </trkpt>
      <trkpt lat="45.96512" lon="4.5956">
        <ele>581.856323</ele>
        <time>2016-09-11T07:53:27Z</time>
      </trkpt>
      <trkpt lat="45.96508" lon="4.59556">
        <ele>582.228699</ele>
        <time>2016-09-11T07:53:29Z</time>
      </trkpt>
      <trkpt lat="45.96505" lon="4.59551">
        <ele>582.467529</ele>
        <time>2016-09-11T07:53:31Z</time>
      </trkpt>
      <trkpt lat="45.96501" lon="4.59547">
        <ele>582.716431</ele>
        <time>2016-09-11T07:53:33Z</time>
      </trkpt>
      <trkpt lat="45.96498" lon="4.59543">
        <ele>582.970581</ele>
        <time>2016-09-11T07:53:35Z</time>
      </trkpt>
      <trkpt lat="45.96495" lon="4.59539">
        <ele>583.253296</ele>
        <time>2016-09-11T07:53:37Z</time>
      </trkpt>
      <trkpt lat="45.96491" lon="4.59535">
        <ele>583.651184</ele>
        <time>2016-09-11T07:53:39Z</time>
      </trkpt>
      <trkpt lat="45.96488" lon="4.59532">
        <ele>583.977173</ele>
        <time>2016-09-11T07:53:41Z</time>
      </trkpt>
      <trkpt lat="45.96484" lon="4.5953">
        <ele>584.261292</ele>
        <time>2016-09-11T07:53:43Z</time>
      </trkpt>
      <trkpt lat="45.96481" lon="4.59526">
        <ele>584.410278</ele>
        <time>2016-09-11T07:53:45Z</time>
      </trkpt>
      <trkpt lat="45.96479" lon="4.59523">
        <ele>584.719238</ele>
        <time>2016-09-11T07:53:47Z</time>
      </trkpt>
      <trkpt lat="45.96475" lon="4.5952">
        <ele>585.098145</ele>
        <time>2016-09-11T07:53:49Z</time>
      </trkpt>
      <trkpt lat="45.96473" lon="4.59516">
        <ele>585.396179</ele>
        <time>2016-09-11T07:53:51Z</time>
      </trkpt>
      <trkpt lat="45.96471" lon="4.59513">
        <ele>585.586853</ele>
        <time>2016-09-11T07:53:53Z</time>
      </trkpt>
      <trkpt lat="45.9647" lon="4.59509">
        <ele>586.037964</ele>
        <time>2016-09-11T07:53:55Z</time>
      </trkpt>
      <trkpt lat="45.9647" lon="4.59505">
        <ele>586.522278</ele>
        <time>2016-09-11T07:53:57Z</time>
      </trkpt>
      <trkpt lat="45.9647" lon="4.59502">
        <ele>586.931519</ele>
        <time>2016-09-11T07:53:59Z</time>
      </trkpt>
      <trkpt lat="45.96468" lon="4.59499">
        <ele>587.400574</ele>
        <time>2016-09-11T07:54:01Z</time>
      </trkpt>
      <trkpt lat="45.96465" lon="4.59497">
        <ele>587.884094</ele>
        <time>2016-09-11T07:54:03Z</time>
      </trkpt>
      <trkpt lat="45.96463" lon="4.59495">
        <ele>588.333435</ele>
        <time>2016-09-11T07:54:05Z</time>
      </trkpt>
      <trkpt lat="45.96461" lon="4.59493">
        <ele>588.837646</ele>
        <time>2016-09-11T07:54:07Z</time>
      </trkpt>
      <trkpt lat="45.96459" lon="4.59491">
        <ele>589.289307</ele>
        <time>2016-09-11T07:54:09Z</time>
      </trkpt>
      <trkpt lat="45.96457" lon="4.59488">
        <ele>589.559021</ele>
        <time>2016-09-11T07:54:11Z</time>
      </trkpt>
      <trkpt lat="45.96455" lon="4.59486">
        <ele>590.115601</ele>
        <time>2016-09-11T07:54:13Z</time>
      </trkpt>
      <trkpt lat="45.96452" lon="4.59484">
        <ele>590.640381</ele>
        <time>2016-09-11T07:54:15Z</time>
      </trkpt>
      <trkpt lat="45.9645" lon="4.59482">
        <ele>591.237</ele>
        <time>2016-09-11T07:54:17Z</time>
      </trkpt>
      <trkpt lat="45.96448" lon="4.5948">
        <ele>591.725952</ele>
        <time>2016-09-11T07:54:19Z</time>
      </trkpt>
      <trkpt lat="45.96446" lon="4.59478">
        <ele>592.179871</ele>
        <time>2016-09-11T07:54:21Z</time>
      </trkpt>
      <trkpt lat="45.96444" lon="4.59476">
        <ele>592.728149</ele>
        <time>2016-09-11T07:54:23Z</time>
      </trkpt>
      <trkpt lat="45.96441" lon="4.59473">
        <ele>593.252197</ele>
        <time>2016-09-11T07:54:25Z</time>
      </trkpt>
      <trkpt lat="45.96439" lon="4.59471">
        <ele>593.834839</ele>
        <time>2016-09-11T07:54:27Z</time>
      </trkpt>
      <trkpt lat="45.96436" lon="4.59469">
        <ele>594.216431</ele>
        <time>2016-09-11T07:54:29Z</time>
      </trkpt>
      <trkpt lat="45.96433" lon="4.59467">
        <ele>594.672607</ele>
        <time>2016-09-11T07:54:31Z</time>
      </trkpt>
      <trkpt lat="45.9643" lon="4.59465">
        <ele>595.135376</ele>
        <time>2016-09-11T07:54:33Z</time>
      </trkpt>
      <trkpt lat="45.96428" lon="4.59463">
        <ele>595.694641</ele>
        <time>2016-09-11T07:54:35Z</time>
      </trkpt>
      <trkpt lat="45.96425" lon="4.59461">
        <ele>595.942871</ele>
        <time>2016-09-11T07:54:37Z</time>
      </trkpt>
      <trkpt lat="45.96422" lon="4.59459">
        <ele>596.386963</ele>
        <time>2016-09-11T07:54:39Z</time>
      </trkpt>
      <trkpt lat="45.9642" lon="4.59458">
        <ele>596.878967</ele>
        <time>2016-09-11T07:54:41Z</time>
      </trkpt>
      <trkpt lat="45.96417" lon="4.59457">
        <ele>597.289185</ele>
        <time>2016-09-11T07:54:43Z</time>
      </trkpt>
      <trkpt lat="45.96415" lon="4.59455">
        <ele>597.633667</ele>
        <time>2016-09-11T07:54:45Z</time>
      </trkpt>
      <trkpt lat="45.96412" lon="4.59453">
        <ele>598.105347</ele>
        <time>2016-09-11T07:54:47Z</time>
      </trkpt>
      <trkpt lat="45.9641" lon="4.59451">
        <ele>598.534851</ele>
        <time>2016-09-11T07:54:49Z</time>
      </trkpt>
      <trkpt lat="45.96407" lon="4.5945">
        <ele>598.846436</ele>
        <time>2016-09-11T07:54:51Z</time>
      </trkpt>
      <trkpt lat="45.96405" lon="4.59448">
        <ele>599.307922</ele>
        <time>2016-09-11T07:54:53Z</time>
      </trkpt>
      <trkpt lat="45.96403" lon="4.59447">
        <ele>599.689758</ele>
        <time>2016-09-11T07:54:55Z</time>
      </trkpt>
      <trkpt lat="45.96401" lon="4.59444">
        <ele>600.09314</ele>
        <time>2016-09-11T07:54:57Z</time>
      </trkpt>
      <trkpt lat="45.96399" lon="4.59443">
        <ele>600.439941</ele>
        <time>2016-09-11T07:54:59Z</time>
      </trkpt>
      <trkpt lat="45.96397" lon="4.59442">
        <ele>600.848083</ele>
        <time>2016-09-11T07:55:01Z</time>
      </trkpt>
      <trkpt lat="45.96395" lon="4.59441">
        <ele>601.056641</ele>
        <time>2016-09-11T07:55:03Z</time>
      </trkpt>
      <trkpt lat="45.96392" lon="4.5944">
        <ele>601.425354</ele>
        <time>2016-09-11T07:55:05Z</time>
      </trkpt>
      <trkpt lat="45.9639" lon="4.59439">
        <ele>601.873169</ele>
        <time>2016-09-11T07:55:07Z</time>
      </trkpt>
      <trkpt lat="45.96388" lon="4.59439">
        <ele>602.249329</ele>
        <time>2016-09-11T07:55:09Z</time>
      </trkpt>
      <trkpt lat="45.96386" lon="4.59438">
        <ele>602.690491</ele>
        <time>2016-09-11T07:55:11Z</time>
      </trkpt>
      <trkpt lat="45.96384" lon="4.59437">
        <ele>603.065796</ele>
        <time>2016-09-11T07:55:13Z</time>
      </trkpt>
      <trkpt lat="45.96382" lon="4.59436">
        <ele>603.361206</ele>
        <time>2016-09-11T07:55:15Z</time>
      </trkpt>
      <trkpt lat="45.9638" lon="4.59435">
        <ele>603.828796</ele>
        <time>2016-09-11T07:55:17Z</time>
      </trkpt>
      <trkpt lat="45.96378" lon="4.59433">
        <ele>604.213013</ele>
        <time>2016-09-11T07:55:19Z</time>
      </trkpt>
      <trkpt lat="45.96376" lon="4.59432">
        <ele>604.580933</ele>
        <time>2016-09-11T07:55:21Z</time>
      </trkpt>
      <trkpt lat="45.96373" lon="4.5943">
        <ele>604.995972</ele>
        <time>2016-09-11T07:55:23Z</time>
      </trkpt>
      <trkpt lat="45.96371" lon="4.59429">
        <ele>605.450439</ele>
        <time>2016-09-11T07:55:25Z</time>
      </trkpt>
      <trkpt lat="45.96368" lon="4.59427">
        <ele>605.849976</ele>
        <time>2016-09-11T07:55:27Z</time>
      </trkpt>
      <trkpt lat="45.96366" lon="4.59426">
        <ele>605.983948</ele>
        <time>2016-09-11T07:55:29Z</time>
      </trkpt>
      <trkpt lat="45.96363" lon="4.59425">
        <ele>606.325073</ele>
        <time>2016-09-11T07:55:31Z</time>
      </trkpt>
      <trkpt lat="45.9636" lon="4.59424">
        <ele>606.744263</ele>
        <time>2016-09-11T07:55:33Z</time>
      </trkpt>
      <trkpt lat="45.96357" lon="4.59423">
        <ele>607.078613</ele>
        <time>2016-09-11T07:55:35Z</time>
      </trkpt>
      <trkpt lat="45.96355" lon="4.59422">
        <ele>607.51123</ele>
        <time>2016-09-11T07:55:37Z</time>
      </trkpt>
      <trkpt lat="45.96352" lon="4.5942">
        <ele>607.875122</ele>
        <time>2016-09-11T07:55:39Z</time>
      </trkpt>
      <trkpt lat="45.96349" lon="4.59419">
        <ele>608.310181</ele>
        <time>2016-09-11T07:55:41Z</time>
      </trkpt>
      <trkpt lat="45.96347" lon="4.59417">
        <ele>608.654968</ele>
        <time>2016-09-11T07:55:43Z</time>
      </trkpt>
      <trkpt lat="45.96344" lon="4.59416">
        <ele>609.017395</ele>
        <time>2016-09-11T07:55:45Z</time>
      </trkpt>
      <trkpt lat="45.96341" lon="4.59414">
        <ele>609.353455</ele>
        <time>2016-09-11T07:55:47Z</time>
      </trkpt>
      <trkpt lat="45.96339" lon="4.59412">
        <ele>609.69397</ele>
        <time>2016-09-11T07:55:49Z</time>
      </trkpt>
      <trkpt lat="45.96336" lon="4.5941">
        <ele>609.931213</ele>
        <time>2016-09-11T07:55:51Z</time>
      </trkpt>
      <trkpt lat="45.96334" lon="4.59408">
        <ele>610.368286</ele>
        <time>2016-09-11T07:55:53Z</time>
      </trkpt>
      <trkpt lat="45.96332" lon="4.59406">
        <ele>610.568237</ele>
        <time>2016-09-11T07:55:55Z</time>
      </trkpt>
      <trkpt lat="45.9633" lon="4.59404">
        <ele>611.032715</ele>
        <time>2016-09-11T07:55:57Z</time>
      </trkpt>
      <trkpt lat="45.96327" lon="4.59402">
        <ele>611.327148</ele>
        <time>2016-09-11T07:55:59Z</time>
      </trkpt>
      <trkpt lat="45.96325" lon="4.594">
        <ele>611.641296</ele>
        <time>2016-09-11T07:56:01Z</time>
      </trkpt>
      <trkpt lat="45.96324" lon="4.59398">
        <ele>612.001648</ele>
        <time>2016-09-11T07:56:03Z</time>
      </trkpt>
      <trkpt lat="45.96322" lon="4.59395">
        <ele>612.268738</ele>
        <time>2016-09-11T07:56:05Z</time>
      </trkpt>
      <trkpt lat="45.9632" lon="4.59393">
        <ele>612.590698</ele>
        <time>2016-09-11T07:56:07Z</time>
      </trkpt>
      <trkpt lat="45.96318" lon="4.59391">
        <ele>612.970825</ele>
        <time>2016-09-11T07:56:09Z</time>
      </trkpt>
      <trkpt lat="45.96316" lon="4.59389">
        <ele>613.313416</ele>
        <time>2016-09-11T07:56:11Z</time>
      </trkpt>
      <trkpt lat="45.96314" lon="4.59387">
        <ele>613.709106</ele>
        <time>2016-09-11T07:56:13Z</time>
      </trkpt>
      <trkpt lat="45.96313" lon="4.59385">
        <ele>614.027771</ele>
        <time>2016-09-11T07:56:15Z</time>
      </trkpt>
      <trkpt lat="45.96311" lon="4.59383">
        <ele>614.374146</ele>
        <time>2016-09-11T07:56:17Z</time>
      </trkpt>
      <trkpt lat="45.96309" lon="4.59381">
        <ele>614.541199</ele>
        <time>2016-09-11T07:56:19Z</time>
      </trkpt>
      <trkpt lat="45.96307" lon="4.59378">
        <ele>614.886292</ele>
        <time>2016-09-11T07:56:21Z</time>
      </trkpt>
      <trkpt lat="45.96306" lon="4.59376">
        <ele>615.246521</ele>
        <time>2016-09-11T07:56:23Z</time>
      </trkpt>
      <trkpt lat="45.96303" lon="4.59373">
        <ele>615.691101</ele>
        <time>2016-09-11T07:56:25Z</time>
      </trkpt>
      <trkpt lat="45.96301" lon="4.59372">
        <ele>616.060425</ele>
        <time>2016-09-11T07:56:27Z</time>
      </trkpt>
      <trkpt lat="45.96299" lon="4.5937">
        <ele>616.572571</ele>
        <time>2016-09-11T07:56:29Z</time>
      </trkpt>
      <trkpt lat="45.96298" lon="4.59369">
        <ele>616.889099</ele>
        <time>2016-09-11T07:56:31Z</time>
      </trkpt>
      <trkpt lat="45.96295" lon="4.59367">
        <ele>617.390259</ele>
        <time>2016-09-11T07:56:33Z</time>
      </trkpt>
      <trkpt lat="45.96293" lon="4.59365">
        <ele>617.823364</ele>
        <time>2016-09-11T07:56:35Z</time>
      </trkpt>
      <trkpt lat="45.96291" lon="4.59363">
        <ele>618.260803</ele>
        <time>2016-09-11T07:56:37Z</time>
      </trkpt>
      <trkpt lat="45.96289" lon="4.59361">
        <ele>618.658752</ele>
        <time>2016-09-11T07:56:39Z</time>
      </trkpt>
      <trkpt lat="45.96286" lon="4.59359">
        <ele>619.008301</ele>
        <time>2016-09-11T07:56:41Z</time>
      </trkpt>
      <trkpt lat="45.96283" lon="4.59356">
        <ele>619.397461</ele>
        <time>2016-09-11T07:56:43Z</time>
      </trkpt>
      <trkpt lat="45.96281" lon="4.59354">
        <ele>619.601868</ele>
        <time>2016-09-11T07:56:45Z</time>
      </trkpt>
      <trkpt lat="45.96278" lon="4.59353">
        <ele>620.041138</ele>
        <time>2016-09-11T07:56:47Z</time>
      </trkpt>
      <trkpt lat="45.96275" lon="4.59351">
        <ele>620.448181</ele>
        <time>2016-09-11T07:56:49Z</time>
      </trkpt>
      <trkpt lat="45.96273" lon="4.5935">
        <ele>620.826416</ele>
        <time>2016-09-11T07:56:51Z</time>
      </trkpt>
      <trkpt lat="45.9627" lon="4.59348">
        <ele>621.277161</ele>
        <time>2016-09-11T07:56:53Z</time>
      </trkpt>
      <trkpt lat="45.96268" lon="4.59346">
        <ele>621.640259</ele>
        <time>2016-09-11T07:56:55Z</time>
      </trkpt>
      <trkpt lat="45.96265" lon="4.59345">
        <ele>622.004395</ele>
        <time>2016-09-11T07:56:57Z</time>
      </trkpt>
      <trkpt lat="45.96263" lon="4.59343">
        <ele>622.43103</ele>
        <time>2016-09-11T07:56:59Z</time>
      </trkpt>
      <trkpt lat="45.96261" lon="4.59342">
        <ele>622.797852</ele>
        <time>2016-09-11T07:57:01Z</time>
      </trkpt>
      <trkpt lat="45.96258" lon="4.5934">
        <ele>623.193665</ele>
        <time>2016-09-11T07:57:03Z</time>
      </trkpt>
      <trkpt lat="45.96256" lon="4.59338">
        <ele>623.576355</ele>
        <time>2016-09-11T07:57:05Z</time>
      </trkpt>
      <trkpt lat="45.96253" lon="4.59336">
        <ele>624.026672</ele>
        <time>2016-09-11T07:57:07Z</time>
      </trkpt>
      <trkpt lat="45.9625" lon="4.59334">
        <ele>624.334656</ele>
        <time>2016-09-11T07:57:09Z</time>
      </trkpt>
      <trkpt lat="45.96248" lon="4.59332">
        <ele>624.541382</ele>
        <time>2016-09-11T07:57:11Z</time>
      </trkpt>
      <trkpt lat="45.96245" lon="4.5933">
        <ele>624.930969</ele>
        <time>2016-09-11T07:57:13Z</time>
      </trkpt>
      <trkpt lat="45.96243" lon="4.59329">
        <ele>625.353333</ele>
        <time>2016-09-11T07:57:15Z</time>
      </trkpt>
      <trkpt lat="45.9624" lon="4.59328">
        <ele>625.648132</ele>
        <time>2016-09-11T07:57:17Z</time>
      </trkpt>
      <trkpt lat="45.96238" lon="4.59327">
        <ele>626.05304</ele>
        <time>2016-09-11T07:57:19Z</time>
      </trkpt>
      <trkpt lat="45.96235" lon="4.59326">
        <ele>626.431458</ele>
        <time>2016-09-11T07:57:21Z</time>
      </trkpt>
      <trkpt lat="45.96232" lon="4.59324">
        <ele>626.783508</ele>
        <time>2016-09-11T07:57:23Z</time>
      </trkpt>
      <trkpt lat="45.9623" lon="4.59324">
        <ele>627.054077</ele>
        <time>2016-09-11T07:57:25Z</time>
      </trkpt>
      <trkpt lat="45.96228" lon="4.59323">
        <ele>627.436646</ele>
        <time>2016-09-11T07:57:27Z</time>
      </trkpt>
      <trkpt lat="45.96225" lon="4.59322">
        <ele>627.751526</ele>
        <time>2016-09-11T07:57:29Z</time>
      </trkpt>
      <trkpt lat="45.96222" lon="4.5932">
        <ele>628.053833</ele>
        <time>2016-09-11T07:57:31Z</time>
      </trkpt>
      <trkpt lat="45.96219" lon="4.59318">
        <ele>628.353149</ele>
        <time>2016-09-11T07:57:33Z</time>
      </trkpt>
      <trkpt lat="45.96216" lon="4.59317">
        <ele>628.615601</ele>
        <time>2016-09-11T07:57:35Z</time>
      </trkpt>
      <trkpt lat="45.96213" lon="4.59316">
        <ele>628.86615</ele>
        <time>2016-09-11T07:57:37Z</time>
      </trkpt>
      <trkpt lat="45.96211" lon="4.59314">
        <ele>629.080566</ele>
        <time>2016-09-11T07:57:39Z</time>
      </trkpt>
      <trkpt lat="45.96209" lon="4.59313">
        <ele>629.177795</ele>
        <time>2016-09-11T07:57:41Z</time>
      </trkpt>
      <trkpt lat="45.96206" lon="4.59311">
        <ele>629.464294</ele>
        <time>2016-09-11T07:57:43Z</time>
      </trkpt>
      <trkpt lat="45.96203" lon="4.59308">
        <ele>629.724731</ele>
        <time>2016-09-11T07:57:45Z</time>
      </trkpt>
      <trkpt lat="45.962" lon="4.59306">
        <ele>629.929443</ele>
        <time>2016-09-11T07:57:47Z</time>
      </trkpt>
      <trkpt lat="45.96197" lon="4.59304">
        <ele>630.160522</ele>
        <time>2016-09-11T07:57:49Z</time>
      </trkpt>
      <trkpt lat="45.96194" lon="4.59302">
        <ele>630.329712</ele>
        <time>2016-09-11T07:57:51Z</time>
      </trkpt>
      <trkpt lat="45.96191" lon="4.593">
        <ele>630.448364</ele>
        <time>2016-09-11T07:57:53Z</time>
      </trkpt>
      <trkpt lat="45.96189" lon="4.59298">
        <ele>630.617798</ele>
        <time>2016-09-11T07:57:55Z</time>
      </trkpt>
      <trkpt lat="45.96187" lon="4.59297">
        <ele>630.793884</ele>
        <time>2016-09-11T07:57:57Z</time>
      </trkpt>
      <trkpt lat="45.96185" lon="4.59296">
        <ele>630.886353</ele>
        <time>2016-09-11T07:57:59Z</time>
      </trkpt>
      <trkpt lat="45.96183" lon="4.59295">
        <ele>630.934753</ele>
        <time>2016-09-11T07:58:01Z</time>
      </trkpt>
      <trkpt lat="45.96181" lon="4.59294">
        <ele>631.106445</ele>
        <time>2016-09-11T07:58:03Z</time>
      </trkpt>
      <trkpt lat="45.96179" lon="4.59293">
        <ele>631.229675</ele>
        <time>2016-09-11T07:58:05Z</time>
      </trkpt>
      <trkpt lat="45.96176" lon="4.59292">
        <ele>631.33313</ele>
        <time>2016-09-11T07:58:07Z</time>
      </trkpt>
      <trkpt lat="45.96174" lon="4.59291">
        <ele>631.419006</ele>
        <time>2016-09-11T07:58:09Z</time>
      </trkpt>
      <trkpt lat="45.9617" lon="4.59289">
        <ele>631.473999</ele>
        <time>2016-09-11T07:58:11Z</time>
      </trkpt>
      <trkpt lat="45.96166" lon="4.59287">
        <ele>631.540771</ele>
        <time>2016-09-11T07:58:13Z</time>
      </trkpt>
      <trkpt lat="45.96161" lon="4.59285">
        <ele>631.649597</ele>
        <time>2016-09-11T07:58:15Z</time>
      </trkpt>
      <trkpt lat="45.96156" lon="4.59284">
        <ele>631.741394</ele>
        <time>2016-09-11T07:58:17Z</time>
      </trkpt>
      <trkpt lat="45.96151" lon="4.59282">
        <ele>631.64679</ele>
        <time>2016-09-11T07:58:19Z</time>
      </trkpt>
      <trkpt lat="45.96145" lon="4.5928">
        <ele>631.726379</ele>
        <time>2016-09-11T07:58:21Z</time>
      </trkpt>
      <trkpt lat="45.96139" lon="4.59278">
        <ele>631.735474</ele>
        <time>2016-09-11T07:58:23Z</time>
      </trkpt>
      <trkpt lat="45.96132" lon="4.59275">
        <ele>631.709106</ele>
        <time>2016-09-11T07:58:25Z</time>
      </trkpt>
      <trkpt lat="45.96125" lon="4.59274">
        <ele>631.84552</ele>
        <time>2016-09-11T07:58:27Z</time>
      </trkpt>
      <trkpt lat="45.96117" lon="4.59272">
        <ele>631.671692</ele>
        <time>2016-09-11T07:58:29Z</time>
      </trkpt>
      <trkpt lat="45.96109" lon="4.59272">
        <ele>631.539551</ele>
        <time>2016-09-11T07:58:31Z</time>
      </trkpt>
      <trkpt lat="45.961" lon="4.59271">
        <ele>631.469421</ele>
        <time>2016-09-11T07:58:33Z</time>
      </trkpt>
      <trkpt lat="45.9609" lon="4.59269">
        <ele>631.427734</ele>
        <time>2016-09-11T07:58:35Z</time>
      </trkpt>
      <trkpt lat="45.9608" lon="4.59265">
        <ele>631.443176</ele>
        <time>2016-09-11T07:58:37Z</time>
      </trkpt>
      <trkpt lat="45.96071" lon="4.59261">
        <ele>631.198608</ele>
        <time>2016-09-11T07:58:39Z</time>
      </trkpt>
      <trkpt lat="45.96063" lon="4.59257">
        <ele>631.10614</ele>
        <time>2016-09-11T07:58:41Z</time>
      </trkpt>
      <trkpt lat="45.96055" lon="4.59253">
        <ele>631.48938</ele>
        <time>2016-09-11T07:58:43Z</time>
      </trkpt>
      <trkpt lat="45.96047" lon="4.59249">
        <ele>631.319946</ele>
        <time>2016-09-11T07:58:45Z</time>
      </trkpt>
      <trkpt lat="45.9604" lon="4.59244">
        <ele>631.212097</ele>
        <time>2016-09-11T07:58:47Z</time>
      </trkpt>
      <trkpt lat="45.96032" lon="4.59238">
        <ele>631.253052</ele>
        <time>2016-09-11T07:58:49Z</time>
      </trkpt>
      <trkpt lat="45.96025" lon="4.59232">
        <ele>631.387024</ele>
        <time>2016-09-11T07:58:51Z</time>
      </trkpt>
      <trkpt lat="45.96019" lon="4.59226">
        <ele>631.224121</ele>
        <time>2016-09-11T07:58:53Z</time>
      </trkpt>
      <trkpt lat="45.96011" lon="4.59219">
        <ele>630.728638</ele>
        <time>2016-09-11T07:58:55Z</time>
      </trkpt>
      <trkpt lat="45.96005" lon="4.59211">
        <ele>630.499756</ele>
        <time>2016-09-11T07:58:57Z</time>
      </trkpt>
      <trkpt lat="45.95998" lon="4.59204">
        <ele>630.671753</ele>
        <time>2016-09-11T07:58:59Z</time>
      </trkpt>
      <trkpt lat="45.95989" lon="4.59197">
        <ele>630.491272</ele>
        <time>2016-09-11T07:59:01Z</time>
      </trkpt>
      <trkpt lat="45.95979" lon="4.59186">
        <ele>630.438416</ele>
        <time>2016-09-11T07:59:03Z</time>
      </trkpt>
      <trkpt lat="45.9597" lon="4.59177">
        <ele>630.184692</ele>
        <time>2016-09-11T07:59:05Z</time>
      </trkpt>
      <trkpt lat="45.9596" lon="4.59171">
        <ele>629.938354</ele>
        <time>2016-09-11T07:59:07Z</time>
      </trkpt>
      <trkpt lat="45.9595" lon="4.59171">
        <ele>629.456299</ele>
        <time>2016-09-11T07:59:09Z</time>
      </trkpt>
      <trkpt lat="45.95943" lon="4.59173">
        <ele>629.376892</ele>
        <time>2016-09-11T07:59:11Z</time>
      </trkpt>
      <trkpt lat="45.95937" lon="4.59177">
        <ele>628.947998</ele>
        <time>2016-09-11T07:59:13Z</time>
      </trkpt>
      <trkpt lat="45.95932" lon="4.5918">
        <ele>628.731384</ele>
        <time>2016-09-11T07:59:15Z</time>
      </trkpt>
      <trkpt lat="45.95927" lon="4.59185">
        <ele>628.306702</ele>
        <time>2016-09-11T07:59:17Z</time>
      </trkpt>
      <trkpt lat="45.95922" lon="4.5919">
        <ele>627.945923</ele>
        <time>2016-09-11T07:59:19Z</time>
      </trkpt>
      <trkpt lat="45.95917" lon="4.59195">
        <ele>627.983337</ele>
        <time>2016-09-11T07:59:21Z</time>
      </trkpt>
      <trkpt lat="45.95912" lon="4.592">
        <ele>627.794067</ele>
        <time>2016-09-11T07:59:23Z</time>
      </trkpt>
      <trkpt lat="45.95906" lon="4.59204">
        <ele>627.358154</ele>
        <time>2016-09-11T07:59:25Z</time>
      </trkpt>
      <trkpt lat="45.95901" lon="4.5921">
        <ele>627.457092</ele>
        <time>2016-09-11T07:59:27Z</time>
      </trkpt>
      <trkpt lat="45.95894" lon="4.59214">
        <ele>627.276611</ele>
        <time>2016-09-11T07:59:29Z</time>
      </trkpt>
      <trkpt lat="45.95887" lon="4.59218">
        <ele>626.971619</ele>
        <time>2016-09-11T07:59:31Z</time>
      </trkpt>
      <trkpt lat="45.9588" lon="4.59221">
        <ele>626.674744</ele>
        <time>2016-09-11T07:59:33Z</time>
      </trkpt>
      <trkpt lat="45.95873" lon="4.59224">
        <ele>626.727661</ele>
        <time>2016-09-11T07:59:35Z</time>
      </trkpt>
      <trkpt lat="45.95865" lon="4.59227">
        <ele>627.170044</ele>
        <time>2016-09-11T07:59:37Z</time>
      </trkpt>
      <trkpt lat="45.95858" lon="4.59229">
        <ele>627.159058</ele>
        <time>2016-09-11T07:59:39Z</time>
      </trkpt>
      <trkpt lat="45.9585" lon="4.59231">
        <ele>626.987061</ele>
        <time>2016-09-11T07:59:41Z</time>
      </trkpt>
      <trkpt lat="45.95842" lon="4.59233">
        <ele>627.213501</ele>
        <time>2016-09-11T07:59:43Z</time>
      </trkpt>
      <trkpt lat="45.95833" lon="4.59235">
        <ele>627.440552</ele>
        <time>2016-09-11T07:59:45Z</time>
      </trkpt>
      <trkpt lat="45.95824" lon="4.59237">
        <ele>627.297485</ele>
        <time>2016-09-11T07:59:47Z</time>
      </trkpt>
      <trkpt lat="45.95816" lon="4.59239">
        <ele>627.407532</ele>
        <time>2016-09-11T07:59:49Z</time>
      </trkpt>
      <trkpt lat="45.95808" lon="4.59242">
        <ele>627.481506</ele>
        <time>2016-09-11T07:59:51Z</time>
      </trkpt>
      <trkpt lat="45.95799" lon="4.59245">
        <ele>627.204651</ele>
        <time>2016-09-11T07:59:53Z</time>
      </trkpt>
      <trkpt lat="45.95792" lon="4.59248">
        <ele>627.404785</ele>
        <time>2016-09-11T07:59:55Z</time>
      </trkpt>
      <trkpt lat="45.95785" lon="4.59252">
        <ele>627.572021</ele>
        <time>2016-09-11T07:59:57Z</time>
      </trkpt>
      <trkpt lat="45.95779" lon="4.59254">
        <ele>627.37439</ele>
        <time>2016-09-11T07:59:59Z</time>
      </trkpt>
      <trkpt lat="45.95773" lon="4.59256">
        <ele>627.573853</ele>
        <time>2016-09-11T08:00:01Z</time>
      </trkpt>
      <trkpt lat="45.95768" lon="4.59258">
        <ele>627.815857</ele>
        <time>2016-09-11T08:00:03Z</time>
      </trkpt>
      <trkpt lat="45.95763" lon="4.59261">
        <ele>627.862122</ele>
        <time>2016-09-11T08:00:05Z</time>
      </trkpt>
      <trkpt lat="45.95759" lon="4.59264">
        <ele>628.075684</ele>
        <time>2016-09-11T08:00:07Z</time>
      </trkpt>
      <trkpt lat="45.95754" lon="4.59268">
        <ele>628.220947</ele>
        <time>2016-09-11T08:00:09Z</time>
      </trkpt>
      <trkpt lat="45.95749" lon="4.59272">
        <ele>628.436646</ele>
        <time>2016-09-11T08:00:11Z</time>
      </trkpt>
      <trkpt lat="45.95743" lon="4.59276">
        <ele>628.700745</ele>
        <time>2016-09-11T08:00:13Z</time>
      </trkpt>
      <trkpt lat="45.95737" lon="4.59279">
        <ele>628.920959</ele>
        <time>2016-09-11T08:00:15Z</time>
      </trkpt>
      <trkpt lat="45.95731" lon="4.59282">
        <ele>629.04303</ele>
        <time>2016-09-11T08:00:17Z</time>
      </trkpt>
      <trkpt lat="45.95727" lon="4.59285">
        <ele>629.045105</ele>
        <time>2016-09-11T08:00:19Z</time>
      </trkpt>
      <trkpt lat="45.95723" lon="4.59287">
        <ele>629.373108</ele>
        <time>2016-09-11T08:00:21Z</time>
      </trkpt>
      <trkpt lat="45.95718" lon="4.59289">
        <ele>629.562378</ele>
        <time>2016-09-11T08:00:23Z</time>
      </trkpt>
      <trkpt lat="45.95713" lon="4.59292">
        <ele>629.70105</ele>
        <time>2016-09-11T08:00:25Z</time>
      </trkpt>
      <trkpt lat="45.95709" lon="4.59294">
        <ele>629.821655</ele>
        <time>2016-09-11T08:00:27Z</time>
      </trkpt>
      <trkpt lat="45.95704" lon="4.59297">
        <ele>629.988647</ele>
        <time>2016-09-11T08:00:29Z</time>
      </trkpt>
      <trkpt lat="45.95698" lon="4.59299">
        <ele>630.310791</ele>
        <time>2016-09-11T08:00:31Z</time>
      </trkpt>
      <trkpt lat="45.95693" lon="4.59301">
        <ele>630.766052</ele>
        <time>2016-09-11T08:00:33Z</time>
      </trkpt>
      <trkpt lat="45.95688" lon="4.59304">
        <ele>631.353455</ele>
        <time>2016-09-11T08:00:35Z</time>
      </trkpt>
      <trkpt lat="45.95684" lon="4.59306">
        <ele>631.780396</ele>
        <time>2016-09-11T08:00:37Z</time>
      </trkpt>
      <trkpt lat="45.95678" lon="4.59309">
        <ele>632.540161</ele>
        <time>2016-09-11T08:00:39Z</time>
      </trkpt>
      <trkpt lat="45.95673" lon="4.59311">
        <ele>632.827209</ele>
        <time>2016-09-11T08:00:41Z</time>
      </trkpt>
      <trkpt lat="45.95668" lon="4.59314">
        <ele>633.053894</ele>
        <time>2016-09-11T08:00:43Z</time>
      </trkpt>
      <trkpt lat="45.95663" lon="4.59317">
        <ele>633.602295</ele>
        <time>2016-09-11T08:00:45Z</time>
      </trkpt>
      <trkpt lat="45.95659" lon="4.59321">
        <ele>633.974426</ele>
        <time>2016-09-11T08:00:47Z</time>
      </trkpt>
      <trkpt lat="45.95653" lon="4.59324">
        <ele>633.969299</ele>
        <time>2016-09-11T08:00:49Z</time>
      </trkpt>
      <trkpt lat="45.95648" lon="4.59326">
        <ele>634.08606</ele>
        <time>2016-09-11T08:00:51Z</time>
      </trkpt>
      <trkpt lat="45.95643" lon="4.59328">
        <ele>634.264404</ele>
        <time>2016-09-11T08:00:53Z</time>
      </trkpt>
      <trkpt lat="45.95638" lon="4.5933">
        <ele>634.627747</ele>
        <time>2016-09-11T08:00:55Z</time>
      </trkpt>
      <trkpt lat="45.95632" lon="4.59333">
        <ele>634.723938</ele>
        <time>2016-09-11T08:00:57Z</time>
      </trkpt>
      <trkpt lat="45.95627" lon="4.59335">
        <ele>634.922058</ele>
        <time>2016-09-11T08:00:59Z</time>
      </trkpt>
      <trkpt lat="45.95622" lon="4.59338">
        <ele>635.256165</ele>
        <time>2016-09-11T08:01:01Z</time>
      </trkpt>
      <trkpt lat="45.95617" lon="4.5934">
        <ele>635.568848</ele>
        <time>2016-09-11T08:01:03Z</time>
      </trkpt>
      <trkpt lat="45.95612" lon="4.59343">
        <ele>635.956482</ele>
        <time>2016-09-11T08:01:05Z</time>
      </trkpt>
      <trkpt lat="45.95606" lon="4.59346">
        <ele>636.04895</ele>
        <time>2016-09-11T08:01:07Z</time>
      </trkpt>
      <trkpt lat="45.95601" lon="4.59349">
        <ele>636.553162</ele>
        <time>2016-09-11T08:01:09Z</time>
      </trkpt>
      <trkpt lat="45.95596" lon="4.59351">
        <ele>636.643799</ele>
        <time>2016-09-11T08:01:11Z</time>
      </trkpt>
      <trkpt lat="45.9559" lon="4.59353">
        <ele>636.949951</ele>
        <time>2016-09-11T08:01:13Z</time>
      </trkpt>
      <trkpt lat="45.95584" lon="4.59356">
        <ele>636.987732</ele>
        <time>2016-09-11T08:01:15Z</time>
      </trkpt>
      <trkpt lat="45.95578" lon="4.59358">
        <ele>637.287231</ele>
        <time>2016-09-11T08:01:17Z</time>
      </trkpt>
      <trkpt lat="45.95572" lon="4.59361">
        <ele>637.897461</ele>
        <time>2016-09-11T08:01:19Z</time>
      </trkpt>
      <trkpt lat="45.95566" lon="4.59364">
        <ele>638.214539</ele>
        <time>2016-09-11T08:01:21Z</time>
      </trkpt>
      <trkpt lat="45.9556" lon="4.59368">
        <ele>638.432617</ele>
        <time>2016-09-11T08:01:23Z</time>
      </trkpt>
      <trkpt lat="45.95554" lon="4.59372">
        <ele>638.554382</ele>
        <time>2016-09-11T08:01:25Z</time>
      </trkpt>
      <trkpt lat="45.95548" lon="4.59377">
        <ele>638.583008</ele>
        <time>2016-09-11T08:01:27Z</time>
      </trkpt>
      <trkpt lat="45.95543" lon="4.59382">
        <ele>638.755615</ele>
        <time>2016-09-11T08:01:29Z</time>
      </trkpt>
      <trkpt lat="45.95537" lon="4.59386">
        <ele>639.319275</ele>
        <time>2016-09-11T08:01:31Z</time>
      </trkpt>
      <trkpt lat="45.95531" lon="4.59391">
        <ele>639.64978</ele>
        <time>2016-09-11T08:01:33Z</time>
      </trkpt>
      <trkpt lat="45.95525" lon="4.59395">
        <ele>639.834839</ele>
        <time>2016-09-11T08:01:35Z</time>
      </trkpt>
      <trkpt lat="45.9552" lon="4.59399">
        <ele>639.90094</ele>
        <time>2016-09-11T08:01:37Z</time>
      </trkpt>
      <trkpt lat="45.95514" lon="4.59403">
        <ele>640.088989</ele>
        <time>2016-09-11T08:01:39Z</time>
      </trkpt>
      <trkpt lat="45.95509" lon="4.59407">
        <ele>640.564941</ele>
        <time>2016-09-11T08:01:41Z</time>
      </trkpt>
      <trkpt lat="45.95504" lon="4.59411">
        <ele>640.81897</ele>
        <time>2016-09-11T08:01:43Z</time>
      </trkpt>
      <trkpt lat="45.95499" lon="4.59415">
        <ele>641.175964</ele>
        <time>2016-09-11T08:01:45Z</time>
      </trkpt>
      <trkpt lat="45.95493" lon="4.5942">
        <ele>641.377747</ele>
        <time>2016-09-11T08:01:47Z</time>
      </trkpt>
      <trkpt lat="45.95488" lon="4.59425">
        <ele>641.712036</ele>
        <time>2016-09-11T08:01:49Z</time>
      </trkpt>
      <trkpt lat="45.95483" lon="4.59429">
        <ele>641.959106</ele>
        <time>2016-09-11T08:01:51Z</time>
      </trkpt>
      <trkpt lat="45.95478" lon="4.59434">
        <ele>642.362427</ele>
        <time>2016-09-11T08:01:53Z</time>
      </trkpt>
      <trkpt lat="45.95472" lon="4.59438">
        <ele>642.604736</ele>
        <time>2016-09-11T08:01:55Z</time>
      </trkpt>
      <trkpt lat="45.95467" lon="4.59444">
        <ele>642.615723</ele>
        <time>2016-09-11T08:01:57Z</time>
      </trkpt>
      <trkpt lat="45.95461" lon="4.59451">
        <ele>643.109497</ele>
        <time>2016-09-11T08:01:59Z</time>
      </trkpt>
      <trkpt lat="45.95456" lon="4.59457">
        <ele>642.98822</ele>
        <time>2016-09-11T08:02:01Z</time>
      </trkpt>
      <trkpt lat="45.95451" lon="4.59464">
        <ele>643.096252</ele>
        <time>2016-09-11T08:02:03Z</time>
      </trkpt>
      <trkpt lat="45.95444" lon="4.59469">
        <ele>643.300354</ele>
        <time>2016-09-11T08:02:05Z</time>
      </trkpt>
      <trkpt lat="45.95438" lon="4.59475">
        <ele>643.288696</ele>
        <time>2016-09-11T08:02:07Z</time>
      </trkpt>
      <trkpt lat="45.95431" lon="4.59481">
        <ele>643.484802</ele>
        <time>2016-09-11T08:02:09Z</time>
      </trkpt>
      <trkpt lat="45.95424" lon="4.59487">
        <ele>643.71405</ele>
        <time>2016-09-11T08:02:11Z</time>
      </trkpt>
      <trkpt lat="45.95417" lon="4.59493">
        <ele>643.797791</ele>
        <time>2016-09-11T08:02:13Z</time>
      </trkpt>
      <trkpt lat="45.95411" lon="4.59498">
        <ele>643.759766</ele>
        <time>2016-09-11T08:02:15Z</time>
      </trkpt>
      <trkpt lat="45.95404" lon="4.59505">
        <ele>643.820068</ele>
        <time>2016-09-11T08:02:17Z</time>
      </trkpt>
      <trkpt lat="45.95397" lon="4.59513">
        <ele>643.646973</ele>
        <time>2016-09-11T08:02:19Z</time>
      </trkpt>
      <trkpt lat="45.95391" lon="4.59523">
        <ele>643.59314</ele>
        <time>2016-09-11T08:02:21Z</time>
      </trkpt>
      <trkpt lat="45.95385" lon="4.59532">
        <ele>643.613037</ele>
        <time>2016-09-11T08:02:23Z</time>
      </trkpt>
      <trkpt lat="45.95381" lon="4.59543">
        <ele>643.424561</ele>
        <time>2016-09-11T08:02:25Z</time>
      </trkpt>
      <trkpt lat="45.95377" lon="4.59553">
        <ele>643.142456</ele>
        <time>2016-09-11T08:02:27Z</time>
      </trkpt>
      <trkpt lat="45.95373" lon="4.5956">
        <ele>643.046509</ele>
        <time>2016-09-11T08:02:29Z</time>
      </trkpt>
      <trkpt lat="45.95371" lon="4.59563">
        <ele>642.912964</ele>
        <time>2016-09-11T08:02:31Z</time>
      </trkpt>
      <trkpt lat="45.95369" lon="4.59566">
        <ele>642.741089</ele>
        <time>2016-09-11T08:02:33Z</time>
      </trkpt>
      <trkpt lat="45.95367" lon="4.5957">
        <ele>642.249634</ele>
        <time>2016-09-11T08:02:35Z</time>
      </trkpt>
      <trkpt lat="45.95365" lon="4.59574">
        <ele>642.115234</ele>
        <time>2016-09-11T08:02:37Z</time>
      </trkpt>
      <trkpt lat="45.95363" lon="4.59578">
        <ele>642.033691</ele>
        <time>2016-09-11T08:02:39Z</time>
      </trkpt>
      <trkpt lat="45.9536" lon="4.59584">
        <ele>641.42981</ele>
        <time>2016-09-11T08:02:41Z</time>
      </trkpt>
      <trkpt lat="45.95358" lon="4.59589">
        <ele>641.260132</ele>
        <time>2016-09-11T08:02:43Z</time>
      </trkpt>
      <trkpt lat="45.95355" lon="4.59595">
        <ele>640.85553</ele>
        <time>2016-09-11T08:02:45Z</time>
      </trkpt>
      <trkpt lat="45.95352" lon="4.59602">
        <ele>640.873169</ele>
        <time>2016-09-11T08:02:47Z</time>
      </trkpt>
      <trkpt lat="45.95348" lon="4.5961">
        <ele>640.522766</ele>
        <time>2016-09-11T08:02:49Z</time>
      </trkpt>
      <trkpt lat="45.95344" lon="4.59617">
        <ele>640.200989</ele>
        <time>2016-09-11T08:02:51Z</time>
      </trkpt>
      <trkpt lat="45.9534" lon="4.59625">
        <ele>639.952515</ele>
        <time>2016-09-11T08:02:53Z</time>
      </trkpt>
      <trkpt lat="45.95335" lon="4.59632">
        <ele>639.85199</ele>
        <time>2016-09-11T08:02:55Z</time>
      </trkpt>
      <trkpt lat="45.95332" lon="4.5964">
        <ele>639.319763</ele>
        <time>2016-09-11T08:02:57Z</time>
      </trkpt>
      <trkpt lat="45.9533" lon="4.59646">
        <ele>638.957642</ele>
        <time>2016-09-11T08:02:59Z</time>
      </trkpt>
      <trkpt lat="45.95326" lon="4.59651">
        <ele>638.661255</ele>
        <time>2016-09-11T08:03:01Z</time>
      </trkpt>
      <trkpt lat="45.9532" lon="4.59657">
        <ele>638.482788</ele>
        <time>2016-09-11T08:03:03Z</time>
      </trkpt>
      <trkpt lat="45.95314" lon="4.59667">
        <ele>637.954224</ele>
        <time>2016-09-11T08:03:05Z</time>
      </trkpt>
      <trkpt lat="45.95309" lon="4.59676">
        <ele>637.850708</ele>
        <time>2016-09-11T08:03:07Z</time>
      </trkpt>
      <trkpt lat="45.95304" lon="4.59685">
        <ele>637.58197</ele>
        <time>2016-09-11T08:03:09Z</time>
      </trkpt>
      <trkpt lat="45.953" lon="4.59696">
        <ele>636.976624</ele>
        <time>2016-09-11T08:03:11Z</time>
      </trkpt>
      <trkpt lat="45.95295" lon="4.59707">
        <ele>636.43219</ele>
        <time>2016-09-11T08:03:13Z</time>
      </trkpt>
      <trkpt lat="45.95288" lon="4.59721">
        <ele>635.991821</ele>
        <time>2016-09-11T08:03:15Z</time>
      </trkpt>
      <trkpt lat="45.95282" lon="4.59735">
        <ele>635.646729</ele>
        <time>2016-09-11T08:03:17Z</time>
      </trkpt>
      <trkpt lat="45.95276" lon="4.59751">
        <ele>635.246643</ele>
        <time>2016-09-11T08:03:19Z</time>
      </trkpt>
      <trkpt lat="45.95271" lon="4.59768">
        <ele>635.048462</ele>
        <time>2016-09-11T08:03:21Z</time>
      </trkpt>
      <trkpt lat="45.95268" lon="4.59782">
        <ele>634.716187</ele>
        <time>2016-09-11T08:03:23Z</time>
      </trkpt>
      <trkpt lat="45.95265" lon="4.59793">
        <ele>634.403564</ele>
        <time>2016-09-11T08:03:25Z</time>
      </trkpt>
      <trkpt lat="45.95263" lon="4.59802">
        <ele>634.011841</ele>
        <time>2016-09-11T08:03:27Z</time>
      </trkpt>
      <trkpt lat="45.95261" lon="4.59811">
        <ele>633.738892</ele>
        <time>2016-09-11T08:03:29Z</time>
      </trkpt>
      <trkpt lat="45.9526" lon="4.59821">
        <ele>633.221436</ele>
        <time>2016-09-11T08:03:31Z</time>
      </trkpt>
      <trkpt lat="45.95256" lon="4.59832">
        <ele>632.220093</ele>
        <time>2016-09-11T08:03:33Z</time>
      </trkpt>
      <trkpt lat="45.95252" lon="4.59844">
        <ele>631.772095</ele>
        <time>2016-09-11T08:03:35Z</time>
      </trkpt>
      <trkpt lat="45.95247" lon="4.59857">
        <ele>630.91803</ele>
        <time>2016-09-11T08:03:37Z</time>
      </trkpt>
      <trkpt lat="45.95244" lon="4.59869">
        <ele>630.586914</ele>
        <time>2016-09-11T08:03:39Z</time>
      </trkpt>
      <trkpt lat="45.95241" lon="4.5988">
        <ele>630.150696</ele>
        <time>2016-09-11T08:03:41Z</time>
      </trkpt>
      <trkpt lat="45.95239" lon="4.59889">
        <ele>629.4823</ele>
        <time>2016-09-11T08:03:43Z</time>
      </trkpt>
      <trkpt lat="45.95238" lon="4.59901">
        <ele>628.283264</ele>
        <time>2016-09-11T08:03:45Z</time>
      </trkpt>
      <trkpt lat="45.95236" lon="4.59916">
        <ele>627.479126</ele>
        <time>2016-09-11T08:03:47Z</time>
      </trkpt>
      <trkpt lat="45.95232" lon="4.59932">
        <ele>626.295532</ele>
        <time>2016-09-11T08:03:49Z</time>
      </trkpt>
      <trkpt lat="45.95228" lon="4.5995">
        <ele>625.479309</ele>
        <time>2016-09-11T08:03:51Z</time>
      </trkpt>
      <trkpt lat="45.95223" lon="4.59965">
        <ele>624.512024</ele>
        <time>2016-09-11T08:03:53Z</time>
      </trkpt>
      <trkpt lat="45.95218" lon="4.5998">
        <ele>624.23053</ele>
        <time>2016-09-11T08:03:55Z</time>
      </trkpt>
      <trkpt lat="45.95213" lon="4.59993">
        <ele>623.464844</ele>
        <time>2016-09-11T08:03:57Z</time>
      </trkpt>
      <trkpt lat="45.95208" lon="4.60004">
        <ele>621.817993</ele>
        <time>2016-09-11T08:03:59Z</time>
      </trkpt>
      <trkpt lat="45.95203" lon="4.60014">
        <ele>620.494019</ele>
        <time>2016-09-11T08:04:01Z</time>
      </trkpt>
      <trkpt lat="45.95196" lon="4.60025">
        <ele>619.174988</ele>
        <time>2016-09-11T08:04:03Z</time>
      </trkpt>
      <trkpt lat="45.9519" lon="4.60035">
        <ele>617.638367</ele>
        <time>2016-09-11T08:04:05Z</time>
      </trkpt>
      <trkpt lat="45.95186" lon="4.60046">
        <ele>616.21344</ele>
        <time>2016-09-11T08:04:07Z</time>
      </trkpt>
      <trkpt lat="45.95182" lon="4.60057">
        <ele>614.745789</ele>
        <time>2016-09-11T08:04:09Z</time>
      </trkpt>
      <trkpt lat="45.95178" lon="4.60066">
        <ele>613.383301</ele>
        <time>2016-09-11T08:04:11Z</time>
      </trkpt>
      <trkpt lat="45.95174" lon="4.60074">
        <ele>612.388062</ele>
        <time>2016-09-11T08:04:13Z</time>
      </trkpt>
      <trkpt lat="45.95169" lon="4.60084">
        <ele>611.096313</ele>
        <time>2016-09-11T08:04:15Z</time>
      </trkpt>
      <trkpt lat="45.95163" lon="4.60095">
        <ele>610.348145</ele>
        <time>2016-09-11T08:04:17Z</time>
      </trkpt>
      <trkpt lat="45.95157" lon="4.60105">
        <ele>608.461609</ele>
        <time>2016-09-11T08:04:19Z</time>
      </trkpt>
      <trkpt lat="45.9515" lon="4.60115">
        <ele>606.744751</ele>
        <time>2016-09-11T08:04:21Z</time>
      </trkpt>
      <trkpt lat="45.95144" lon="4.60125">
        <ele>604.423157</ele>
        <time>2016-09-11T08:04:23Z</time>
      </trkpt>
      <trkpt lat="45.95136" lon="4.60136">
        <ele>602.567749</ele>
        <time>2016-09-11T08:04:25Z</time>
      </trkpt>
      <trkpt lat="45.95129" lon="4.60151">
        <ele>601.123718</ele>
        <time>2016-09-11T08:04:27Z</time>
      </trkpt>
      <trkpt lat="45.95121" lon="4.60166">
        <ele>599.628845</ele>
        <time>2016-09-11T08:04:29Z</time>
      </trkpt>
      <trkpt lat="45.95114" lon="4.60179">
        <ele>597.683472</ele>
        <time>2016-09-11T08:04:31Z</time>
      </trkpt>
      <trkpt lat="45.95107" lon="4.60192">
        <ele>594.828979</ele>
        <time>2016-09-11T08:04:33Z</time>
      </trkpt>
      <trkpt lat="45.95097" lon="4.60207">
        <ele>593.184448</ele>
        <time>2016-09-11T08:04:35Z</time>
      </trkpt>
      <trkpt lat="45.95086" lon="4.60221">
        <ele>590.7724</ele>
        <time>2016-09-11T08:04:37Z</time>
      </trkpt>
      <trkpt lat="45.95071" lon="4.60232">
        <ele>589.159058</ele>
        <time>2016-09-11T08:04:39Z</time>
      </trkpt>
      <trkpt lat="45.95055" lon="4.60244">
        <ele>588.711853</ele>
        <time>2016-09-11T08:04:41Z</time>
      </trkpt>
      <trkpt lat="45.95039" lon="4.60255">
        <ele>587.100708</ele>
        <time>2016-09-11T08:04:43Z</time>
      </trkpt>
      <trkpt lat="45.95026" lon="4.60265">
        <ele>585.094666</ele>
        <time>2016-09-11T08:04:45Z</time>
      </trkpt>
      <trkpt lat="45.95016" lon="4.60275">
        <ele>583.527832</ele>
        <time>2016-09-11T08:04:47Z</time>
      </trkpt>
      <trkpt lat="45.95008" lon="4.60285">
        <ele>581.733643</ele>
        <time>2016-09-11T08:04:49Z</time>
      </trkpt>
      <trkpt lat="45.95002" lon="4.60295">
        <ele>580.192993</ele>
        <time>2016-09-11T08:04:51Z</time>
      </trkpt>
      <trkpt lat="45.94997" lon="4.60304">
        <ele>578.680786</ele>
        <time>2016-09-11T08:04:53Z</time>
      </trkpt>
      <trkpt lat="45.94992" lon="4.60311">
        <ele>577.138733</ele>
        <time>2016-09-11T08:04:55Z</time>
      </trkpt>
      <trkpt lat="45.94988" lon="4.60319">
        <ele>575.707581</ele>
        <time>2016-09-11T08:04:57Z</time>
      </trkpt>
      <trkpt lat="45.94982" lon="4.60326">
        <ele>574.620239</ele>
        <time>2016-09-11T08:04:59Z</time>
      </trkpt>
      <trkpt lat="45.94976" lon="4.60334">
        <ele>573.575562</ele>
        <time>2016-09-11T08:05:01Z</time>
      </trkpt>
      <trkpt lat="45.94971" lon="4.60342">
        <ele>573.004028</ele>
        <time>2016-09-11T08:05:03Z</time>
      </trkpt>
      <trkpt lat="45.94966" lon="4.6035">
        <ele>572.75647</ele>
        <time>2016-09-11T08:05:05Z</time>
      </trkpt>
      <trkpt lat="45.9496" lon="4.60357">
        <ele>572.228638</ele>
        <time>2016-09-11T08:05:07Z</time>
      </trkpt>
      <trkpt lat="45.94955" lon="4.60365">
        <ele>571.53009</ele>
        <time>2016-09-11T08:05:09Z</time>
      </trkpt>
      <trkpt lat="45.94949" lon="4.60373">
        <ele>570.564392</ele>
        <time>2016-09-11T08:05:11Z</time>
      </trkpt>
      <trkpt lat="45.94944" lon="4.60382">
        <ele>570.45459</ele>
        <time>2016-09-11T08:05:13Z</time>
      </trkpt>
      <trkpt lat="45.94938" lon="4.6039">
        <ele>571.025513</ele>
        <time>2016-09-11T08:05:15Z</time>
      </trkpt>
      <trkpt lat="45.94931" lon="4.60398">
        <ele>570.861267</ele>
        <time>2016-09-11T08:05:17Z</time>
      </trkpt>
      <trkpt lat="45.94925" lon="4.60407">
        <ele>570.773682</ele>
        <time>2016-09-11T08:05:19Z</time>
      </trkpt>
      <trkpt lat="45.94918" lon="4.60416">
        <ele>570.863403</ele>
        <time>2016-09-11T08:05:21Z</time>
      </trkpt>
      <trkpt lat="45.94912" lon="4.60426">
        <ele>570.65387</ele>
        <time>2016-09-11T08:05:23Z</time>
      </trkpt>
      <trkpt lat="45.94907" lon="4.60435">
        <ele>570.719543</ele>
        <time>2016-09-11T08:05:25Z</time>
      </trkpt>
      <trkpt lat="45.94902" lon="4.60444">
        <ele>570.837708</ele>
        <time>2016-09-11T08:05:27Z</time>
      </trkpt>
      <trkpt lat="45.94896" lon="4.60453">
        <ele>571.008423</ele>
        <time>2016-09-11T08:05:29Z</time>
      </trkpt>
      <trkpt lat="45.9489" lon="4.60462">
        <ele>571.358032</ele>
        <time>2016-09-11T08:05:31Z</time>
      </trkpt>
      <trkpt lat="45.94883" lon="4.60471">
        <ele>571.678711</ele>
        <time>2016-09-11T08:05:33Z</time>
      </trkpt>
      <trkpt lat="45.94877" lon="4.60481">
        <ele>571.796875</ele>
        <time>2016-09-11T08:05:35Z</time>
      </trkpt>
      <trkpt lat="45.94871" lon="4.6049">
        <ele>572.004028</ele>
        <time>2016-09-11T08:05:37Z</time>
      </trkpt>
      <trkpt lat="45.94865" lon="4.60499">
        <ele>572.284302</ele>
        <time>2016-09-11T08:05:39Z</time>
      </trkpt>
      <trkpt lat="45.94859" lon="4.60508">
        <ele>572.266113</ele>
        <time>2016-09-11T08:05:41Z</time>
      </trkpt>
      <trkpt lat="45.94852" lon="4.60517">
        <ele>572.471802</ele>
        <time>2016-09-11T08:05:43Z</time>
      </trkpt>
      <trkpt lat="45.94846" lon="4.60527">
        <ele>572.502502</ele>
        <time>2016-09-11T08:05:45Z</time>
      </trkpt>
      <trkpt lat="45.94841" lon="4.60537">
        <ele>572.857178</ele>
        <time>2016-09-11T08:05:47Z</time>
      </trkpt>
      <trkpt lat="45.94836" lon="4.60547">
        <ele>572.837463</ele>
        <time>2016-09-11T08:05:49Z</time>
      </trkpt>
      <trkpt lat="45.94831" lon="4.60555">
        <ele>572.942505</ele>
        <time>2016-09-11T08:05:51Z</time>
      </trkpt>
      <trkpt lat="45.94827" lon="4.60563">
        <ele>573.360474</ele>
        <time>2016-09-11T08:05:53Z</time>
      </trkpt>
      <trkpt lat="45.94825" lon="4.6057">
        <ele>573.625732</ele>
        <time>2016-09-11T08:05:55Z</time>
      </trkpt>
      <trkpt lat="45.94822" lon="4.60577">
        <ele>573.862244</ele>
        <time>2016-09-11T08:05:57Z</time>
      </trkpt>
      <trkpt lat="45.94821" lon="4.60584">
        <ele>574.25415</ele>
        <time>2016-09-11T08:05:59Z</time>
      </trkpt>
      <trkpt lat="45.94821" lon="4.60591">
        <ele>574.705017</ele>
        <time>2016-09-11T08:06:01Z</time>
      </trkpt>
      <trkpt lat="45.94819" lon="4.606">
        <ele>574.707275</ele>
        <time>2016-09-11T08:06:03Z</time>
      </trkpt>
      <trkpt lat="45.94817" lon="4.60611">
        <ele>575.510498</ele>
        <time>2016-09-11T08:06:05Z</time>
      </trkpt>
      <trkpt lat="45.94815" lon="4.60626">
        <ele>575.401245</ele>
        <time>2016-09-11T08:06:07Z</time>
      </trkpt>
      <trkpt lat="45.94815" lon="4.60643">
        <ele>575.158325</ele>
        <time>2016-09-11T08:06:09Z</time>
      </trkpt>
      <trkpt lat="45.94817" lon="4.60659">
        <ele>575.161011</ele>
        <time>2016-09-11T08:06:11Z</time>
      </trkpt>
      <trkpt lat="45.94821" lon="4.60672">
        <ele>575.101929</ele>
        <time>2016-09-11T08:06:13Z</time>
      </trkpt>
      <trkpt lat="45.94825" lon="4.60685">
        <ele>574.86322</ele>
        <time>2016-09-11T08:06:15Z</time>
      </trkpt>
      <trkpt lat="45.94829" lon="4.60696">
        <ele>574.819458</ele>
        <time>2016-09-11T08:06:17Z</time>
      </trkpt>
      <trkpt lat="45.94833" lon="4.60707">
        <ele>574.574341</ele>
        <time>2016-09-11T08:06:19Z</time>
      </trkpt>
      <trkpt lat="45.94836" lon="4.60717">
        <ele>574.66272</ele>
        <time>2016-09-11T08:06:21Z</time>
      </trkpt>
      <trkpt lat="45.9484" lon="4.60728">
        <ele>574.965088</ele>
        <time>2016-09-11T08:06:23Z</time>
      </trkpt>
      <trkpt lat="45.94843" lon="4.60739">
        <ele>574.973877</ele>
        <time>2016-09-11T08:06:25Z</time>
      </trkpt>
      <trkpt lat="45.94847" lon="4.60751">
        <ele>574.932251</ele>
        <time>2016-09-11T08:06:27Z</time>
      </trkpt>
      <trkpt lat="45.94851" lon="4.60764">
        <ele>574.628052</ele>
        <time>2016-09-11T08:06:29Z</time>
      </trkpt>
      <trkpt lat="45.94854" lon="4.60778">
        <ele>574.667236</ele>
        <time>2016-09-11T08:06:31Z</time>
      </trkpt>
      <trkpt lat="45.94857" lon="4.60792">
        <ele>574.820862</ele>
        <time>2016-09-11T08:06:33Z</time>
      </trkpt>
      <trkpt lat="45.94861" lon="4.60807">
        <ele>574.632446</ele>
        <time>2016-09-11T08:06:35Z</time>
      </trkpt>
      <trkpt lat="45.94865" lon="4.60821">
        <ele>574.406921</ele>
        <time>2016-09-11T08:06:37Z</time>
      </trkpt>
      <trkpt lat="45.94867" lon="4.60835">
        <ele>574.093811</ele>
        <time>2016-09-11T08:06:39Z</time>
      </trkpt>
      <trkpt lat="45.94871" lon="4.60848">
        <ele>574.011841</ele>
        <time>2016-09-11T08:06:41Z</time>
      </trkpt>
      <trkpt lat="45.94874" lon="4.6086">
        <ele>573.915588</ele>
        <time>2016-09-11T08:06:43Z</time>
      </trkpt>
      <trkpt lat="45.94877" lon="4.60872">
        <ele>574.022827</ele>
        <time>2016-09-11T08:06:45Z</time>
      </trkpt>
      <trkpt lat="45.94878" lon="4.60884">
        <ele>573.409424</ele>
        <time>2016-09-11T08:06:47Z</time>
      </trkpt>
      <trkpt lat="45.94878" lon="4.60898">
        <ele>573.503296</ele>
        <time>2016-09-11T08:06:49Z</time>
      </trkpt>
      <trkpt lat="45.94877" lon="4.6091">
        <ele>573.597412</ele>
        <time>2016-09-11T08:06:51Z</time>
      </trkpt>
      <trkpt lat="45.94878" lon="4.60916">
        <ele>573.404602</ele>
        <time>2016-09-11T08:06:53Z</time>
      </trkpt>
      <trkpt lat="45.94881" lon="4.60919">
        <ele>573.111267</ele>
        <time>2016-09-11T08:06:55Z</time>
      </trkpt>
      <trkpt lat="45.94883" lon="4.60924">
        <ele>573.169739</ele>
        <time>2016-09-11T08:06:57Z</time>
      </trkpt>
      <trkpt lat="45.94887" lon="4.6093">
        <ele>572.92688</ele>
        <time>2016-09-11T08:06:59Z</time>
      </trkpt>
      <trkpt lat="45.94892" lon="4.60937">
        <ele>572.955383</ele>
        <time>2016-09-11T08:07:01Z</time>
      </trkpt>
      <trkpt lat="45.94896" lon="4.60941">
        <ele>572.463013</ele>
        <time>2016-09-11T08:07:03Z</time>
      </trkpt>
      <trkpt lat="45.94897" lon="4.60943">
        <ele>571.865234</ele>
        <time>2016-09-11T08:07:05Z</time>
      </trkpt>
      <trkpt lat="45.94898" lon="4.60946">
        <ele>571.548035</ele>
        <time>2016-09-11T08:07:07Z</time>
      </trkpt>
      <trkpt lat="45.94899" lon="4.60948">
        <ele>571.241821</ele>
        <time>2016-09-11T08:07:09Z</time>
      </trkpt>
      <trkpt lat="45.94902" lon="4.60953">
        <ele>570.204956</ele>
        <time>2016-09-11T08:07:13Z</time>
      </trkpt>
      <trkpt lat="45.94907" lon="4.60957">
        <ele>569.415771</ele>
        <time>2016-09-11T08:07:15Z</time>
      </trkpt>
      <trkpt lat="45.94913" lon="4.60966">
        <ele>568.923767</ele>
        <time>2016-09-11T08:07:17Z</time>
      </trkpt>
      <trkpt lat="45.94919" lon="4.60978">
        <ele>568.403198</ele>
        <time>2016-09-11T08:07:19Z</time>
      </trkpt>
      <trkpt lat="45.94927" lon="4.60993">
        <ele>567.574951</ele>
        <time>2016-09-11T08:07:21Z</time>
      </trkpt>
      <trkpt lat="45.94933" lon="4.61006">
        <ele>566.936523</ele>
        <time>2016-09-11T08:07:23Z</time>
      </trkpt>
      <trkpt lat="45.94935" lon="4.61017">
        <ele>565.971375</ele>
        <time>2016-09-11T08:07:25Z</time>
      </trkpt>
      <trkpt lat="45.94938" lon="4.61024">
        <ele>564.843018</ele>
        <time>2016-09-11T08:07:27Z</time>
      </trkpt>
      <trkpt lat="45.94939" lon="4.61031">
        <ele>563.708313</ele>
        <time>2016-09-11T08:07:29Z</time>
      </trkpt>
      <trkpt lat="45.94943" lon="4.61037">
        <ele>562.755127</ele>
        <time>2016-09-11T08:07:31Z</time>
      </trkpt>
      <trkpt lat="45.94945" lon="4.61042">
        <ele>562.000916</ele>
        <time>2016-09-11T08:07:33Z</time>
      </trkpt>
      <trkpt lat="45.94949" lon="4.61051">
        <ele>560.818604</ele>
        <time>2016-09-11T08:07:35Z</time>
      </trkpt>
      <trkpt lat="45.94954" lon="4.61057">
        <ele>559.65625</ele>
        <time>2016-09-11T08:07:37Z</time>
      </trkpt>
      <trkpt lat="45.94956" lon="4.61062">
        <ele>559.066223</ele>
        <time>2016-09-11T08:07:39Z</time>
      </trkpt>
      <trkpt lat="45.94958" lon="4.61066">
        <ele>558.095581</ele>
        <time>2016-09-11T08:07:41Z</time>
      </trkpt>
      <trkpt lat="45.94959" lon="4.6107">
        <ele>556.65271</ele>
        <time>2016-09-11T08:07:43Z</time>
      </trkpt>
      <trkpt lat="45.9496" lon="4.61072">
        <ele>555.592957</ele>
        <time>2016-09-11T08:07:45Z</time>
      </trkpt>
      <trkpt lat="45.94962" lon="4.61075">
        <ele>554.631653</ele>
        <time>2016-09-11T08:07:47Z</time>
      </trkpt>
      <trkpt lat="45.94964" lon="4.61079">
        <ele>553.679077</ele>
        <time>2016-09-11T08:07:49Z</time>
      </trkpt>
      <trkpt lat="45.94965" lon="4.61083">
        <ele>552.739624</ele>
        <time>2016-09-11T08:07:51Z</time>
      </trkpt>
      <trkpt lat="45.94968" lon="4.61088">
        <ele>550.861267</ele>
        <time>2016-09-11T08:07:55Z</time>
      </trkpt>
      <trkpt lat="45.9497" lon="4.6109">
        <ele>549.967468</ele>
        <time>2016-09-11T08:07:57Z</time>
      </trkpt>
      <trkpt lat="45.94972" lon="4.61095">
        <ele>548.685425</ele>
        <time>2016-09-11T08:07:59Z</time>
      </trkpt>
      <trkpt lat="45.94976" lon="4.61101">
        <ele>547.96228</ele>
        <time>2016-09-11T08:08:01Z</time>
      </trkpt>
      <trkpt lat="45.94981" lon="4.6111">
        <ele>547.04187</ele>
        <time>2016-09-11T08:08:03Z</time>
      </trkpt>
      <trkpt lat="45.94984" lon="4.6112">
        <ele>545.552063</ele>
        <time>2016-09-11T08:08:05Z</time>
      </trkpt>
      <trkpt lat="45.94989" lon="4.61127">
        <ele>544.945435</ele>
        <time>2016-09-11T08:08:07Z</time>
      </trkpt>
      <trkpt lat="45.94994" lon="4.61138">
        <ele>544.110596</ele>
        <time>2016-09-11T08:08:09Z</time>
      </trkpt>
      <trkpt lat="45.94998" lon="4.61149">
        <ele>543.348999</ele>
        <time>2016-09-11T08:08:11Z</time>
      </trkpt>
      <trkpt lat="45.95002" lon="4.61159">
        <ele>542.63092</ele>
        <time>2016-09-11T08:08:13Z</time>
      </trkpt>
      <trkpt lat="45.95005" lon="4.61169">
        <ele>541.712158</ele>
        <time>2016-09-11T08:08:15Z</time>
      </trkpt>
      <trkpt lat="45.95009" lon="4.61178">
        <ele>540.929077</ele>
        <time>2016-09-11T08:08:17Z</time>
      </trkpt>
      <trkpt lat="45.95013" lon="4.61188">
        <ele>539.620667</ele>
        <time>2016-09-11T08:08:19Z</time>
      </trkpt>
      <trkpt lat="45.95018" lon="4.612">
        <ele>538.578247</ele>
        <time>2016-09-11T08:08:21Z</time>
      </trkpt>
      <trkpt lat="45.95021" lon="4.61208">
        <ele>537.324646</ele>
        <time>2016-09-11T08:08:23Z</time>
      </trkpt>
      <trkpt lat="45.95022" lon="4.61218">
        <ele>536.234497</ele>
        <time>2016-09-11T08:08:25Z</time>
      </trkpt>
      <trkpt lat="45.95025" lon="4.61226">
        <ele>534.830383</ele>
        <time>2016-09-11T08:08:27Z</time>
      </trkpt>
      <trkpt lat="45.95027" lon="4.61231">
        <ele>533.542236</ele>
        <time>2016-09-11T08:08:29Z</time>
      </trkpt>
      <trkpt lat="45.95029" lon="4.6124">
        <ele>532.090454</ele>
        <time>2016-09-11T08:08:31Z</time>
      </trkpt>
      <trkpt lat="45.95028" lon="4.61249">
        <ele>530.8349</ele>
        <time>2016-09-11T08:08:33Z</time>
      </trkpt>
      <trkpt lat="45.95026" lon="4.61256">
        <ele>529.401489</ele>
        <time>2016-09-11T08:08:35Z</time>
      </trkpt>
      <trkpt lat="45.95022" lon="4.61259">
        <ele>528.695374</ele>
        <time>2016-09-11T08:08:37Z</time>
      </trkpt>
      <trkpt lat="45.95019" lon="4.61262">
        <ele>527.331665</ele>
        <time>2016-09-11T08:08:39Z</time>
      </trkpt>
      <trkpt lat="45.95016" lon="4.61268">
        <ele>526.002808</ele>
        <time>2016-09-11T08:08:41Z</time>
      </trkpt>
      <trkpt lat="45.95012" lon="4.61276">
        <ele>524.349426</ele>
        <time>2016-09-11T08:08:43Z</time>
      </trkpt>
      <trkpt lat="45.95011" lon="4.61283">
        <ele>522.830627</ele>
        <time>2016-09-11T08:08:45Z</time>
      </trkpt>
      <trkpt lat="45.95009" lon="4.61287">
        <ele>521.957031</ele>
        <time>2016-09-11T08:08:47Z</time>
      </trkpt>
      <trkpt lat="45.95007" lon="4.61292">
        <ele>520.65564</ele>
        <time>2016-09-11T08:08:49Z</time>
      </trkpt>
      <trkpt lat="45.95005" lon="4.61298">
        <ele>519.547119</ele>
        <time>2016-09-11T08:08:51Z</time>
      </trkpt>
      <trkpt lat="45.95003" lon="4.61302">
        <ele>518.333984</ele>
        <time>2016-09-11T08:08:53Z</time>
      </trkpt>
      <trkpt lat="45.95001" lon="4.61306">
        <ele>516.927002</ele>
        <time>2016-09-11T08:08:55Z</time>
      </trkpt>
      <trkpt lat="45.95" lon="4.6131">
        <ele>516.227966</ele>
        <time>2016-09-11T08:08:57Z</time>
      </trkpt>
      <trkpt lat="45.94999" lon="4.61318">
        <ele>511.785461</ele>
        <time>2016-09-11T08:09:09Z</time>
      </trkpt>
      <trkpt lat="45.94998" lon="4.61324">
        <ele>511.383301</ele>
        <time>2016-09-11T08:09:11Z</time>
      </trkpt>
      <trkpt lat="45.94997" lon="4.61324">
        <ele>510.856873</ele>
        <time>2016-09-11T08:09:13Z</time>
      </trkpt>
      <trkpt lat="45.94994" lon="4.61325">
        <ele>510.360687</ele>
        <time>2016-09-11T08:09:15Z</time>
      </trkpt>
      <trkpt lat="45.94992" lon="4.61327">
        <ele>509.469879</ele>
        <time>2016-09-11T08:09:21Z</time>
      </trkpt>
      <trkpt lat="45.94989" lon="4.6133">
        <ele>509.395905</ele>
        <time>2016-09-11T08:09:23Z</time>
      </trkpt>
      <trkpt lat="45.94986" lon="4.61333">
        <ele>509.408997</ele>
        <time>2016-09-11T08:09:25Z</time>
      </trkpt>
      <trkpt lat="45.94982" lon="4.61334">
        <ele>509.141449</ele>
        <time>2016-09-11T08:09:27Z</time>
      </trkpt>
      <trkpt lat="45.9498" lon="4.61336">
        <ele>508.896301</ele>
        <time>2016-09-11T08:09:29Z</time>
      </trkpt>
      <trkpt lat="45.94978" lon="4.61339">
        <ele>508.857117</ele>
        <time>2016-09-11T08:09:31Z</time>
      </trkpt>
      <trkpt lat="45.94977" lon="4.61345">
        <ele>508.892181</ele>
        <time>2016-09-11T08:09:33Z</time>
      </trkpt>
      <trkpt lat="45.94976" lon="4.61353">
        <ele>508.788025</ele>
        <time>2016-09-11T08:09:35Z</time>
      </trkpt>
      <trkpt lat="45.94977" lon="4.61366">
        <ele>508.714935</ele>
        <time>2016-09-11T08:09:37Z</time>
      </trkpt>
      <trkpt lat="45.94978" lon="4.61377">
        <ele>508.70694</ele>
        <time>2016-09-11T08:09:39Z</time>
      </trkpt>
      <trkpt lat="45.94976" lon="4.61388">
        <ele>508.419495</ele>
        <time>2016-09-11T08:09:41Z</time>
      </trkpt>
      <trkpt lat="45.94972" lon="4.61402">
        <ele>508.303314</ele>
        <time>2016-09-11T08:09:43Z</time>
      </trkpt>
      <trkpt lat="45.94968" lon="4.61413">
        <ele>507.688141</ele>
        <time>2016-09-11T08:09:45Z</time>
      </trkpt>
      <trkpt lat="45.94969" lon="4.61426">
        <ele>507.062012</ele>
        <time>2016-09-11T08:09:47Z</time>
      </trkpt>
      <trkpt lat="45.9497" lon="4.61441">
        <ele>506.346985</ele>
        <time>2016-09-11T08:09:49Z</time>
      </trkpt>
      <trkpt lat="45.94971" lon="4.61458">
        <ele>505.448639</ele>
        <time>2016-09-11T08:09:51Z</time>
      </trkpt>
      <trkpt lat="45.94969" lon="4.61474">
        <ele>505.092438</ele>
        <time>2016-09-11T08:09:53Z</time>
      </trkpt>
      <trkpt lat="45.94964" lon="4.61488">
        <ele>503.86972</ele>
        <time>2016-09-11T08:09:55Z</time>
      </trkpt>
      <trkpt lat="45.94956" lon="4.61501">
        <ele>503.183258</ele>
        <time>2016-09-11T08:09:57Z</time>
      </trkpt>
      <trkpt lat="45.94947" lon="4.61515">
        <ele>502.357605</ele>
        <time>2016-09-11T08:09:59Z</time>
      </trkpt>
      <trkpt lat="45.94939" lon="4.61531">
        <ele>501.308105</ele>
        <time>2016-09-11T08:10:01Z</time>
      </trkpt>
      <trkpt lat="45.94929" lon="4.61543">
        <ele>500.026123</ele>
        <time>2016-09-11T08:10:03Z</time>
      </trkpt>
      <trkpt lat="45.94918" lon="4.61552">
        <ele>498.87265</ele>
        <time>2016-09-11T08:10:05Z</time>
      </trkpt>
      <trkpt lat="45.94909" lon="4.6156">
        <ele>497.759338</ele>
        <time>2016-09-11T08:10:07Z</time>
      </trkpt>
      <trkpt lat="45.94899" lon="4.61565">
        <ele>496.507172</ele>
        <time>2016-09-11T08:10:09Z</time>
      </trkpt>
      <trkpt lat="45.94891" lon="4.6157">
        <ele>495.264648</ele>
        <time>2016-09-11T08:10:11Z</time>
      </trkpt>
      <trkpt lat="45.94887" lon="4.61574">
        <ele>493.824219</ele>
        <time>2016-09-11T08:10:13Z</time>
      </trkpt>
      <trkpt lat="45.9488" lon="4.61588">
        <ele>481.711609</ele>
        <time>2016-09-11T08:11:32Z</time>
      </trkpt>
      <trkpt lat="45.94865" lon="4.61602">
        <ele>481.825867</ele>
        <time>2016-09-11T08:11:34Z</time>
      </trkpt>
      <trkpt lat="45.94856" lon="4.61605">
        <ele>481.556946</ele>
        <time>2016-09-11T08:11:36Z</time>
      </trkpt>
      <trkpt lat="45.94845" lon="4.61607">
        <ele>481.436829</ele>
        <time>2016-09-11T08:11:38Z</time>
      </trkpt>
      <trkpt lat="45.94832" lon="4.6161">
        <ele>481.547516</ele>
        <time>2016-09-11T08:11:40Z</time>
      </trkpt>
      <trkpt lat="45.94815" lon="4.61615">
        <ele>481.111664</ele>
        <time>2016-09-11T08:11:42Z</time>
      </trkpt>
      <trkpt lat="45.94798" lon="4.61619">
        <ele>480.446106</ele>
        <time>2016-09-11T08:11:44Z</time>
      </trkpt>
      <trkpt lat="45.94781" lon="4.61622">
        <ele>480.383362</ele>
        <time>2016-09-11T08:11:46Z</time>
      </trkpt>
      <trkpt lat="45.94766" lon="4.61627">
        <ele>479.501129</ele>
        <time>2016-09-11T08:11:48Z</time>
      </trkpt>
      <trkpt lat="45.94751" lon="4.61632">
        <ele>479.410004</ele>
        <time>2016-09-11T08:11:50Z</time>
      </trkpt>
      <trkpt lat="45.94742" lon="4.61635">
        <ele>479.068542</ele>
        <time>2016-09-11T08:11:52Z</time>
      </trkpt>
      <trkpt lat="45.94736" lon="4.61636">
        <ele>478.623932</ele>
        <time>2016-09-11T08:11:54Z</time>
      </trkpt>
      <trkpt lat="45.9473" lon="4.61638">
        <ele>478.266174</ele>
        <time>2016-09-11T08:11:56Z</time>
      </trkpt>
      <trkpt lat="45.94724" lon="4.6164">
        <ele>477.856293</ele>
        <time>2016-09-11T08:11:58Z</time>
      </trkpt>
      <trkpt lat="45.94718" lon="4.61641">
        <ele>477.456482</ele>
        <time>2016-09-11T08:12:00Z</time>
      </trkpt>
      <trkpt lat="45.94713" lon="4.61642">
        <ele>476.986267</ele>
        <time>2016-09-11T08:12:02Z</time>
      </trkpt>
      <trkpt lat="45.94708" lon="4.61643">
        <ele>476.66095</ele>
        <time>2016-09-11T08:12:04Z</time>
      </trkpt>
      <trkpt lat="45.94703" lon="4.61646">
        <ele>476.2901</ele>
        <time>2016-09-11T08:12:06Z</time>
      </trkpt>
      <trkpt lat="45.94698" lon="4.61647">
        <ele>475.871399</ele>
        <time>2016-09-11T08:12:08Z</time>
      </trkpt>
      <trkpt lat="45.94693" lon="4.61648">
        <ele>475.418213</ele>
        <time>2016-09-11T08:12:10Z</time>
      </trkpt>
      <trkpt lat="45.94688" lon="4.61649">
        <ele>474.895691</ele>
        <time>2016-09-11T08:12:12Z</time>
      </trkpt>
      <trkpt lat="45.94683" lon="4.61651">
        <ele>474.36084</ele>
        <time>2016-09-11T08:12:14Z</time>
      </trkpt>
      <trkpt lat="45.94678" lon="4.61651">
        <ele>474.037659</ele>
        <time>2016-09-11T08:12:16Z</time>
      </trkpt>
      <trkpt lat="45.94672" lon="4.61652">
        <ele>473.813721</ele>
        <time>2016-09-11T08:12:18Z</time>
      </trkpt>
      <trkpt lat="45.94667" lon="4.61653">
        <ele>473.539124</ele>
        <time>2016-09-11T08:12:20Z</time>
      </trkpt>
      <trkpt lat="45.94663" lon="4.61656">
        <ele>473.005615</ele>
        <time>2016-09-11T08:12:22Z</time>
      </trkpt>
      <trkpt lat="45.94658" lon="4.61658">
        <ele>473.085785</ele>
        <time>2016-09-11T08:12:24Z</time>
      </trkpt>
      <trkpt lat="45.94653" lon="4.61659">
        <ele>473.343658</ele>
        <time>2016-09-11T08:12:26Z</time>
      </trkpt>
      <trkpt lat="45.94648" lon="4.61661">
        <ele>472.89032</ele>
        <time>2016-09-11T08:12:28Z</time>
      </trkpt>
      <trkpt lat="45.94642" lon="4.61663">
        <ele>473.189301</ele>
        <time>2016-09-11T08:12:30Z</time>
      </trkpt>
      <trkpt lat="45.94635" lon="4.61666">
        <ele>472.88681</ele>
        <time>2016-09-11T08:12:32Z</time>
      </trkpt>
      <trkpt lat="45.94628" lon="4.61669">
        <ele>473.025543</ele>
        <time>2016-09-11T08:12:34Z</time>
      </trkpt>
      <trkpt lat="45.9462" lon="4.61672">
        <ele>473.118744</ele>
        <time>2016-09-11T08:12:36Z</time>
      </trkpt>
      <trkpt lat="45.94612" lon="4.61676">
        <ele>473.233643</ele>
        <time>2016-09-11T08:12:38Z</time>
      </trkpt>
      <trkpt lat="45.94603" lon="4.6168">
        <ele>473.101501</ele>
        <time>2016-09-11T08:12:40Z</time>
      </trkpt>
      <trkpt lat="45.94594" lon="4.61684">
        <ele>473.232086</ele>
        <time>2016-09-11T08:12:42Z</time>
      </trkpt>
      <trkpt lat="45.94585" lon="4.61689">
        <ele>473.151917</ele>
        <time>2016-09-11T08:12:44Z</time>
      </trkpt>
      <trkpt lat="45.94577" lon="4.61693">
        <ele>473.190765</ele>
        <time>2016-09-11T08:12:46Z</time>
      </trkpt>
      <trkpt lat="45.94569" lon="4.61697">
        <ele>473.204163</ele>
        <time>2016-09-11T08:12:48Z</time>
      </trkpt>
      <trkpt lat="45.94561" lon="4.61701">
        <ele>473.12616</ele>
        <time>2016-09-11T08:12:50Z</time>
      </trkpt>
      <trkpt lat="45.94553" lon="4.61706">
        <ele>473.316956</ele>
        <time>2016-09-11T08:12:52Z</time>
      </trkpt>
      <trkpt lat="45.94546" lon="4.6171">
        <ele>473.529388</ele>
        <time>2016-09-11T08:12:54Z</time>
      </trkpt>
      <trkpt lat="45.94539" lon="4.61714">
        <ele>473.830963</ele>
        <time>2016-09-11T08:12:56Z</time>
      </trkpt>
      <trkpt lat="45.94532" lon="4.61717">
        <ele>474.105652</ele>
        <time>2016-09-11T08:12:58Z</time>
      </trkpt>
      <trkpt lat="45.94525" lon="4.61721">
        <ele>474.461761</ele>
        <time>2016-09-11T08:13:00Z</time>
      </trkpt>
      <trkpt lat="45.94518" lon="4.61725">
        <ele>474.593994</ele>
        <time>2016-09-11T08:13:02Z</time>
      </trkpt>
      <trkpt lat="45.94512" lon="4.61729">
        <ele>474.815979</ele>
        <time>2016-09-11T08:13:04Z</time>
      </trkpt>
      <trkpt lat="45.94505" lon="4.61733">
        <ele>474.980713</ele>
        <time>2016-09-11T08:13:06Z</time>
      </trkpt>
      <trkpt lat="45.94498" lon="4.61736">
        <ele>475.490326</ele>
        <time>2016-09-11T08:13:08Z</time>
      </trkpt>
      <trkpt lat="45.94491" lon="4.61739">
        <ele>475.71582</ele>
        <time>2016-09-11T08:13:10Z</time>
      </trkpt>
      <trkpt lat="45.94484" lon="4.61742">
        <ele>476.277161</ele>
        <time>2016-09-11T08:13:12Z</time>
      </trkpt>
      <trkpt lat="45.94476" lon="4.61744">
        <ele>476.678375</ele>
        <time>2016-09-11T08:13:14Z</time>
      </trkpt>
      <trkpt lat="45.94469" lon="4.61746">
        <ele>476.984192</ele>
        <time>2016-09-11T08:13:16Z</time>
      </trkpt>
      <trkpt lat="45.94461" lon="4.61747">
        <ele>477.171875</ele>
        <time>2016-09-11T08:13:18Z</time>
      </trkpt>
      <trkpt lat="45.94452" lon="4.61747">
        <ele>477.232574</ele>
        <time>2016-09-11T08:13:20Z</time>
      </trkpt>
      <trkpt lat="45.94444" lon="4.61746">
        <ele>478.267242</ele>
        <time>2016-09-11T08:13:22Z</time>
      </trkpt>
      <trkpt lat="45.94433" lon="4.61745">
        <ele>478.082947</ele>
        <time>2016-09-11T08:13:24Z</time>
      </trkpt>
      <trkpt lat="45.94422" lon="4.61743">
        <ele>478.7229</ele>
        <time>2016-09-11T08:13:26Z</time>
      </trkpt>
      <trkpt lat="45.9441" lon="4.61743">
        <ele>478.700867</ele>
        <time>2016-09-11T08:13:28Z</time>
      </trkpt>
      <trkpt lat="45.94396" lon="4.61742">
        <ele>479.089111</ele>
        <time>2016-09-11T08:13:30Z</time>
      </trkpt>
      <trkpt lat="45.94383" lon="4.6174">
        <ele>479.108734</ele>
        <time>2016-09-11T08:13:32Z</time>
      </trkpt>
      <trkpt lat="45.94368" lon="4.6174">
        <ele>479.13208</ele>
        <time>2016-09-11T08:13:34Z</time>
      </trkpt>
      <trkpt lat="45.94353" lon="4.61746">
        <ele>478.830719</ele>
        <time>2016-09-11T08:13:36Z</time>
      </trkpt>
      <trkpt lat="45.94336" lon="4.61746">
        <ele>478.635406</ele>
        <time>2016-09-11T08:13:38Z</time>
      </trkpt>
      <trkpt lat="45.94322" lon="4.61752">
        <ele>478.118591</ele>
        <time>2016-09-11T08:13:40Z</time>
      </trkpt>
      <trkpt lat="45.94316" lon="4.61772">
        <ele>477.649963</ele>
        <time>2016-09-11T08:13:42Z</time>
      </trkpt>
      <trkpt lat="45.94312" lon="4.61793">
        <ele>477.213928</ele>
        <time>2016-09-11T08:13:44Z</time>
      </trkpt>
      <trkpt lat="45.94305" lon="4.61802">
        <ele>476.480652</ele>
        <time>2016-09-11T08:13:46Z</time>
      </trkpt>
      <trkpt lat="45.94294" lon="4.618">
        <ele>476.018982</ele>
        <time>2016-09-11T08:13:48Z</time>
      </trkpt>
      <trkpt lat="45.94281" lon="4.61798">
        <ele>475.08905</ele>
        <time>2016-09-11T08:13:50Z</time>
      </trkpt>
      <trkpt lat="45.94268" lon="4.61796">
        <ele>474.215881</ele>
        <time>2016-09-11T08:13:52Z</time>
      </trkpt>
      <trkpt lat="45.94254" lon="4.61794">
        <ele>473.093201</ele>
        <time>2016-09-11T08:13:54Z</time>
      </trkpt>
      <trkpt lat="45.94239" lon="4.61792">
        <ele>472.304443</ele>
        <time>2016-09-11T08:13:56Z</time>
      </trkpt>
      <trkpt lat="45.94225" lon="4.6179">
        <ele>471.13736</ele>
        <time>2016-09-11T08:13:58Z</time>
      </trkpt>
      <trkpt lat="45.94211" lon="4.61788">
        <ele>470.699463</ele>
        <time>2016-09-11T08:14:00Z</time>
      </trkpt>
      <trkpt lat="45.94196" lon="4.61786">
        <ele>469.769684</ele>
        <time>2016-09-11T08:14:02Z</time>
      </trkpt>
      <trkpt lat="45.94182" lon="4.61785">
        <ele>468.984528</ele>
        <time>2016-09-11T08:14:04Z</time>
      </trkpt>
      <trkpt lat="45.94169" lon="4.61783">
        <ele>468.546967</ele>
        <time>2016-09-11T08:14:06Z</time>
      </trkpt>
      <trkpt lat="45.94157" lon="4.61781">
        <ele>467.460876</ele>
        <time>2016-09-11T08:14:08Z</time>
      </trkpt>
      <trkpt lat="45.94145" lon="4.6178">
        <ele>466.626801</ele>
        <time>2016-09-11T08:14:10Z</time>
      </trkpt>
      <trkpt lat="45.94136" lon="4.61785">
        <ele>465.696838</ele>
        <time>2016-09-11T08:14:12Z</time>
      </trkpt>
      <trkpt lat="45.94131" lon="4.61799">
        <ele>465.211426</ele>
        <time>2016-09-11T08:14:14Z</time>
      </trkpt>
      <trkpt lat="45.94124" lon="4.61808">
        <ele>464.398346</ele>
        <time>2016-09-11T08:14:16Z</time>
      </trkpt>
      <trkpt lat="45.94114" lon="4.61808">
        <ele>464.033051</ele>
        <time>2016-09-11T08:14:18Z</time>
      </trkpt>
      <trkpt lat="45.94105" lon="4.61807">
        <ele>463.751038</ele>
        <time>2016-09-11T08:14:20Z</time>
      </trkpt>
      <trkpt lat="45.94097" lon="4.61805">
        <ele>463.090271</ele>
        <time>2016-09-11T08:14:22Z</time>
      </trkpt>
      <trkpt lat="45.94091" lon="4.61802">
        <ele>462.739746</ele>
        <time>2016-09-11T08:14:24Z</time>
      </trkpt>
      <trkpt lat="45.94085" lon="4.61799">
        <ele>462.566559</ele>
        <time>2016-09-11T08:14:26Z</time>
      </trkpt>
      <trkpt lat="45.94082" lon="4.61795">
        <ele>462.295837</ele>
        <time>2016-09-11T08:14:28Z</time>
      </trkpt>
      <trkpt lat="45.94078" lon="4.61792">
        <ele>462.191895</ele>
        <time>2016-09-11T08:14:30Z</time>
      </trkpt>
      <trkpt lat="45.94074" lon="4.61789">
        <ele>462.065979</ele>
        <time>2016-09-11T08:14:32Z</time>
      </trkpt>
      <trkpt lat="45.9407" lon="4.61785">
        <ele>461.960785</ele>
        <time>2016-09-11T08:14:34Z</time>
      </trkpt>
      <trkpt lat="45.94066" lon="4.61782">
        <ele>462.105865</ele>
        <time>2016-09-11T08:14:36Z</time>
      </trkpt>
      <trkpt lat="45.94062" lon="4.61779">
        <ele>462.014709</ele>
        <time>2016-09-11T08:14:38Z</time>
      </trkpt>
      <trkpt lat="45.94059" lon="4.61777">
        <ele>462.216064</ele>
        <time>2016-09-11T08:14:40Z</time>
      </trkpt>
      <trkpt lat="45.94056" lon="4.61774">
        <ele>461.86969</ele>
        <time>2016-09-11T08:14:42Z</time>
      </trkpt>
      <trkpt lat="45.94053" lon="4.61772">
        <ele>461.910797</ele>
        <time>2016-09-11T08:14:44Z</time>
      </trkpt>
      <trkpt lat="45.9405" lon="4.61771">
        <ele>461.945313</ele>
        <time>2016-09-11T08:14:46Z</time>
      </trkpt>
      <trkpt lat="45.94046" lon="4.61769">
        <ele>463.726074</ele>
        <time>2016-09-11T08:20:56Z</time>
      </trkpt>
      <trkpt lat="45.94043" lon="4.61764">
        <ele>463.695221</ele>
        <time>2016-09-11T08:20:58Z</time>
      </trkpt>
      <trkpt lat="45.94035" lon="4.61751">
        <ele>463.625977</ele>
        <time>2016-09-11T08:21:00Z</time>
      </trkpt>
      <trkpt lat="45.94032" lon="4.61746">
        <ele>463.558777</ele>
        <time>2016-09-11T08:21:02Z</time>
      </trkpt>
      <trkpt lat="45.94027" lon="4.61741">
        <ele>463.556641</ele>
        <time>2016-09-11T08:21:04Z</time>
      </trkpt>
      <trkpt lat="45.94022" lon="4.61735">
        <ele>463.535065</ele>
        <time>2016-09-11T08:21:06Z</time>
      </trkpt>
      <trkpt lat="45.94017" lon="4.61728">
        <ele>463.391754</ele>
        <time>2016-09-11T08:21:08Z</time>
      </trkpt>
      <trkpt lat="45.94013" lon="4.61721">
        <ele>463.30835</ele>
        <time>2016-09-11T08:21:10Z</time>
      </trkpt>
      <trkpt lat="45.9401" lon="4.61715">
        <ele>463.154602</ele>
        <time>2016-09-11T08:21:12Z</time>
      </trkpt>
      <trkpt lat="45.94008" lon="4.61706">
        <ele>462.983551</ele>
        <time>2016-09-11T08:21:14Z</time>
      </trkpt>
      <trkpt lat="45.94003" lon="4.61695">
        <ele>462.814697</ele>
        <time>2016-09-11T08:21:16Z</time>
      </trkpt>
      <trkpt lat="45.94" lon="4.61686">
        <ele>462.552673</ele>
        <time>2016-09-11T08:21:18Z</time>
      </trkpt>
      <trkpt lat="45.93995" lon="4.61675">
        <ele>462.210632</ele>
        <time>2016-09-11T08:21:20Z</time>
      </trkpt>
      <trkpt lat="45.93988" lon="4.61667">
        <ele>462.11972</ele>
        <time>2016-09-11T08:21:22Z</time>
      </trkpt>
      <trkpt lat="45.93983" lon="4.61663">
        <ele>461.907166</ele>
        <time>2016-09-11T08:21:24Z</time>
      </trkpt>
      <trkpt lat="45.93976" lon="4.61652">
        <ele>461.552094</ele>
        <time>2016-09-11T08:21:26Z</time>
      </trkpt>
      <trkpt lat="45.93971" lon="4.61644">
        <ele>461.210297</ele>
        <time>2016-09-11T08:21:28Z</time>
      </trkpt>
      <trkpt lat="45.93964" lon="4.61637">
        <ele>460.729797</ele>
        <time>2016-09-11T08:21:30Z</time>
      </trkpt>
      <trkpt lat="45.93957" lon="4.6163">
        <ele>460.331482</ele>
        <time>2016-09-11T08:21:32Z</time>
      </trkpt>
      <trkpt lat="45.93949" lon="4.61618">
        <ele>459.736267</ele>
        <time>2016-09-11T08:21:34Z</time>
      </trkpt>
      <trkpt lat="45.9394" lon="4.61606">
        <ele>459.23819</ele>
        <time>2016-09-11T08:21:36Z</time>
      </trkpt>
      <trkpt lat="45.93935" lon="4.616">
        <ele>458.46759</ele>
        <time>2016-09-11T08:21:38Z</time>
      </trkpt>
      <trkpt lat="45.93932" lon="4.61599">
        <ele>457.779449</ele>
        <time>2016-09-11T08:21:40Z</time>
      </trkpt>
      <trkpt lat="45.93926" lon="4.61601">
        <ele>457.004791</ele>
        <time>2016-09-11T08:21:42Z</time>
      </trkpt>
      <trkpt lat="45.93919" lon="4.61603">
        <ele>456.234528</ele>
        <time>2016-09-11T08:21:44Z</time>
      </trkpt>
      <trkpt lat="45.9391" lon="4.61605">
        <ele>455.656799</ele>
        <time>2016-09-11T08:21:46Z</time>
      </trkpt>
      <trkpt lat="45.93901" lon="4.61608">
        <ele>454.826996</ele>
        <time>2016-09-11T08:21:48Z</time>
      </trkpt>
      <trkpt lat="45.93889" lon="4.61615">
        <ele>454.18222</ele>
        <time>2016-09-11T08:21:50Z</time>
      </trkpt>
      <trkpt lat="45.93877" lon="4.61624">
        <ele>453.146149</ele>
        <time>2016-09-11T08:21:52Z</time>
      </trkpt>
      <trkpt lat="45.93866" lon="4.61629">
        <ele>452.040924</ele>
        <time>2016-09-11T08:21:54Z</time>
      </trkpt>
      <trkpt lat="45.93856" lon="4.61626">
        <ele>450.916656</ele>
        <time>2016-09-11T08:21:56Z</time>
      </trkpt>
      <trkpt lat="45.93844" lon="4.61625">
        <ele>449.869934</ele>
        <time>2016-09-11T08:21:58Z</time>
      </trkpt>
      <trkpt lat="45.93831" lon="4.61626">
        <ele>448.721832</ele>
        <time>2016-09-11T08:22:00Z</time>
      </trkpt>
      <trkpt lat="45.93817" lon="4.6163">
        <ele>447.306244</ele>
        <time>2016-09-11T08:22:02Z</time>
      </trkpt>
      <trkpt lat="45.93803" lon="4.61633">
        <ele>446.148743</ele>
        <time>2016-09-11T08:22:04Z</time>
      </trkpt>
      <trkpt lat="45.93787" lon="4.61635">
        <ele>444.569</ele>
        <time>2016-09-11T08:22:06Z</time>
      </trkpt>
      <trkpt lat="45.9377" lon="4.61637">
        <ele>443.363342</ele>
        <time>2016-09-11T08:22:08Z</time>
      </trkpt>
      <trkpt lat="45.9375" lon="4.61638">
        <ele>442.501404</ele>
        <time>2016-09-11T08:22:10Z</time>
      </trkpt>
      <trkpt lat="45.93729" lon="4.61637">
        <ele>441.229675</ele>
        <time>2016-09-11T08:22:12Z</time>
      </trkpt>
      <trkpt lat="45.93707" lon="4.61636">
        <ele>439.596252</ele>
        <time>2016-09-11T08:22:14Z</time>
      </trkpt>
      <trkpt lat="45.93687" lon="4.61638">
        <ele>437.939758</ele>
        <time>2016-09-11T08:22:16Z</time>
      </trkpt>
      <trkpt lat="45.93669" lon="4.61642">
        <ele>435.994629</ele>
        <time>2016-09-11T08:22:18Z</time>
      </trkpt>
      <trkpt lat="45.93655" lon="4.61646">
        <ele>435.05484</ele>
        <time>2016-09-11T08:22:20Z</time>
      </trkpt>
      <trkpt lat="45.93644" lon="4.61644">
        <ele>433.532867</ele>
        <time>2016-09-11T08:22:22Z</time>
      </trkpt>
      <trkpt lat="45.93632" lon="4.61637">
        <ele>431.760742</ele>
        <time>2016-09-11T08:22:24Z</time>
      </trkpt>
      <trkpt lat="45.93617" lon="4.61632">
        <ele>430.099609</ele>
        <time>2016-09-11T08:22:26Z</time>
      </trkpt>
      <trkpt lat="45.93601" lon="4.6163">
        <ele>428.18866</ele>
        <time>2016-09-11T08:22:28Z</time>
      </trkpt>
      <trkpt lat="45.93588" lon="4.6163">
        <ele>426.373779</ele>
        <time>2016-09-11T08:22:30Z</time>
      </trkpt>
      <trkpt lat="45.93576" lon="4.61629">
        <ele>424.744049</ele>
        <time>2016-09-11T08:22:32Z</time>
      </trkpt>
      <trkpt lat="45.93567" lon="4.61622">
        <ele>422.679504</ele>
        <time>2016-09-11T08:22:34Z</time>
      </trkpt>
      <trkpt lat="45.93561" lon="4.61613">
        <ele>421.930908</ele>
        <time>2016-09-11T08:22:36Z</time>
      </trkpt>
      <trkpt lat="45.93557" lon="4.61604">
        <ele>420.241119</ele>
        <time>2016-09-11T08:22:38Z</time>
      </trkpt>
      <trkpt lat="45.93553" lon="4.61595">
        <ele>418.393066</ele>
        <time>2016-09-11T08:22:40Z</time>
      </trkpt>
      <trkpt lat="45.93552" lon="4.61586">
        <ele>416.592865</ele>
        <time>2016-09-11T08:22:42Z</time>
      </trkpt>
      <trkpt lat="45.93552" lon="4.61574">
        <ele>415.002502</ele>
        <time>2016-09-11T08:22:44Z</time>
      </trkpt>
      <trkpt lat="45.93553" lon="4.6156">
        <ele>412.983948</ele>
        <time>2016-09-11T08:22:46Z</time>
      </trkpt>
      <trkpt lat="45.93554" lon="4.61548">
        <ele>411.489105</ele>
        <time>2016-09-11T08:22:48Z</time>
      </trkpt>
      <trkpt lat="45.93554" lon="4.61536">
        <ele>409.509644</ele>
        <time>2016-09-11T08:22:50Z</time>
      </trkpt>
      <trkpt lat="45.93555" lon="4.61524">
        <ele>407.677612</ele>
        <time>2016-09-11T08:22:52Z</time>
      </trkpt>
      <trkpt lat="45.93556" lon="4.61513">
        <ele>406.112</ele>
        <time>2016-09-11T08:22:54Z</time>
      </trkpt>
      <trkpt lat="45.93557" lon="4.61501">
        <ele>404.421692</ele>
        <time>2016-09-11T08:22:56Z</time>
      </trkpt>
      <trkpt lat="45.93559" lon="4.61489">
        <ele>403.097473</ele>
        <time>2016-09-11T08:22:58Z</time>
      </trkpt>
      <trkpt lat="45.93561" lon="4.61475">
        <ele>400.396912</ele>
        <time>2016-09-11T08:23:00Z</time>
      </trkpt>
      <trkpt lat="45.93563" lon="4.61464">
        <ele>399.825623</ele>
        <time>2016-09-11T08:23:02Z</time>
      </trkpt>
      <trkpt lat="45.93565" lon="4.61455">
        <ele>397.860626</ele>
        <time>2016-09-11T08:23:04Z</time>
      </trkpt>
      <trkpt lat="45.93568" lon="4.61447">
        <ele>396.133118</ele>
        <time>2016-09-11T08:23:06Z</time>
      </trkpt>
      <trkpt lat="45.93572" lon="4.61438">
        <ele>394.475464</ele>
        <time>2016-09-11T08:23:08Z</time>
      </trkpt>
      <trkpt lat="45.93576" lon="4.61427">
        <ele>392.991364</ele>
        <time>2016-09-11T08:23:10Z</time>
      </trkpt>
      <trkpt lat="45.93579" lon="4.61412">
        <ele>391.506927</ele>
        <time>2016-09-11T08:23:12Z</time>
      </trkpt>
      <trkpt lat="45.9358" lon="4.61396">
        <ele>389.851868</ele>
        <time>2016-09-11T08:23:14Z</time>
      </trkpt>
      <trkpt lat="45.9358" lon="4.61385">
        <ele>388.707794</ele>
        <time>2016-09-11T08:23:16Z</time>
      </trkpt>
      <trkpt lat="45.93579" lon="4.61379">
        <ele>387.125824</ele>
        <time>2016-09-11T08:23:18Z</time>
      </trkpt>
      <trkpt lat="45.93577" lon="4.61372">
        <ele>385.988037</ele>
        <time>2016-09-11T08:23:20Z</time>
      </trkpt>
      <trkpt lat="45.93575" lon="4.61366">
        <ele>384.769226</ele>
        <time>2016-09-11T08:23:22Z</time>
      </trkpt>
      <trkpt lat="45.93571" lon="4.61362">
        <ele>383.621429</ele>
        <time>2016-09-11T08:23:24Z</time>
      </trkpt>
      <trkpt lat="45.93566" lon="4.61358">
        <ele>382.860413</ele>
        <time>2016-09-11T08:23:26Z</time>
      </trkpt>
      <trkpt lat="45.93562" lon="4.61355">
        <ele>381.719025</ele>
        <time>2016-09-11T08:23:28Z</time>
      </trkpt>
      <trkpt lat="45.93559" lon="4.61352">
        <ele>381.366547</ele>
        <time>2016-09-11T08:23:30Z</time>
      </trkpt>
      <trkpt lat="45.93555" lon="4.6135">
        <ele>380.418762</ele>
        <time>2016-09-11T08:23:32Z</time>
      </trkpt>
      <trkpt lat="45.93551" lon="4.61348">
        <ele>379.905121</ele>
        <time>2016-09-11T08:23:34Z</time>
      </trkpt>
      <trkpt lat="45.93548" lon="4.61346">
        <ele>379.273315</ele>
        <time>2016-09-11T08:23:36Z</time>
      </trkpt>
      <trkpt lat="45.93544" lon="4.61342">
        <ele>378.893005</ele>
        <time>2016-09-11T08:23:38Z</time>
      </trkpt>
      <trkpt lat="45.9354" lon="4.6134">
        <ele>378.450256</ele>
        <time>2016-09-11T08:23:40Z</time>
      </trkpt>
      <trkpt lat="45.93537" lon="4.61339">
        <ele>378.918182</ele>
        <time>2016-09-11T08:23:42Z</time>
      </trkpt>
      <trkpt lat="45.93533" lon="4.61337">
        <ele>378.066711</ele>
        <time>2016-09-11T08:23:44Z</time>
      </trkpt>
      <trkpt lat="45.9353" lon="4.61336">
        <ele>378.573456</ele>
        <time>2016-09-11T08:23:46Z</time>
      </trkpt>
      <trkpt lat="45.93527" lon="4.61334">
        <ele>378.760376</ele>
        <time>2016-09-11T08:23:48Z</time>
      </trkpt>
      <trkpt lat="45.93523" lon="4.61333">
        <ele>379.024597</ele>
        <time>2016-09-11T08:23:50Z</time>
      </trkpt>
      <trkpt lat="45.9352" lon="4.61331">
        <ele>379.237244</ele>
        <time>2016-09-11T08:23:52Z</time>
      </trkpt>
      <trkpt lat="45.93518" lon="4.61329">
        <ele>379.263031</ele>
        <time>2016-09-11T08:23:54Z</time>
      </trkpt>
      <trkpt lat="45.93515" lon="4.61327">
        <ele>379.666046</ele>
        <time>2016-09-11T08:23:56Z</time>
      </trkpt>
      <trkpt lat="45.93512" lon="4.61326">
        <ele>379.94751</ele>
        <time>2016-09-11T08:23:58Z</time>
      </trkpt>
      <trkpt lat="45.93509" lon="4.61325">
        <ele>380.443787</ele>
        <time>2016-09-11T08:24:00Z</time>
      </trkpt>
      <trkpt lat="45.93507" lon="4.61323">
        <ele>380.79184</ele>
        <time>2016-09-11T08:24:02Z</time>
      </trkpt>
      <trkpt lat="45.93504" lon="4.61322">
        <ele>381.369324</ele>
        <time>2016-09-11T08:24:04Z</time>
      </trkpt>
      <trkpt lat="45.93501" lon="4.61321">
        <ele>382.056793</ele>
        <time>2016-09-11T08:24:06Z</time>
      </trkpt>
      <trkpt lat="45.93498" lon="4.6132">
        <ele>382.43927</ele>
        <time>2016-09-11T08:24:08Z</time>
      </trkpt>
      <trkpt lat="45.93495" lon="4.61319">
        <ele>382.95285</ele>
        <time>2016-09-11T08:24:10Z</time>
      </trkpt>
      <trkpt lat="45.93492" lon="4.61318">
        <ele>383.573853</ele>
        <time>2016-09-11T08:24:12Z</time>
      </trkpt>
      <trkpt lat="45.9349" lon="4.61318">
        <ele>384.188416</ele>
        <time>2016-09-11T08:24:14Z</time>
      </trkpt>
      <trkpt lat="45.93488" lon="4.61319">
        <ele>384.781525</ele>
        <time>2016-09-11T08:24:16Z</time>
      </trkpt>
      <trkpt lat="45.93486" lon="4.61319">
        <ele>385.023987</ele>
        <time>2016-09-11T08:24:18Z</time>
      </trkpt>
      <trkpt lat="45.93485" lon="4.6132">
        <ele>385.604248</ele>
        <time>2016-09-11T08:24:20Z</time>
      </trkpt>
      <trkpt lat="45.93481" lon="4.61321">
        <ele>386.07489</ele>
        <time>2016-09-11T08:24:22Z</time>
      </trkpt>
      <trkpt lat="45.93478" lon="4.61322">
        <ele>386.597168</ele>
        <time>2016-09-11T08:24:24Z</time>
      </trkpt>
      <trkpt lat="45.93475" lon="4.61323">
        <ele>387.081848</ele>
        <time>2016-09-11T08:24:26Z</time>
      </trkpt>
      <trkpt lat="45.93473" lon="4.61323">
        <ele>387.545654</ele>
        <time>2016-09-11T08:24:28Z</time>
      </trkpt>
      <trkpt lat="45.93469" lon="4.61324">
        <ele>387.932617</ele>
        <time>2016-09-11T08:24:30Z</time>
      </trkpt>
      <trkpt lat="45.93466" lon="4.61325">
        <ele>388.467194</ele>
        <time>2016-09-11T08:24:32Z</time>
      </trkpt>
      <trkpt lat="45.93463" lon="4.61325">
        <ele>388.93158</ele>
        <time>2016-09-11T08:24:34Z</time>
      </trkpt>
      <trkpt lat="45.9346" lon="4.61326">
        <ele>389.39212</ele>
        <time>2016-09-11T08:24:36Z</time>
      </trkpt>
      <trkpt lat="45.93457" lon="4.61326">
        <ele>389.776337</ele>
        <time>2016-09-11T08:24:38Z</time>
      </trkpt>
      <trkpt lat="45.93453" lon="4.61323">
        <ele>390.057983</ele>
        <time>2016-09-11T08:24:40Z</time>
      </trkpt>
      <trkpt lat="45.93449" lon="4.61322">
        <ele>390.182678</ele>
        <time>2016-09-11T08:24:42Z</time>
      </trkpt>
      <trkpt lat="45.93446" lon="4.61322">
        <ele>390.436646</ele>
        <time>2016-09-11T08:24:44Z</time>
      </trkpt>
      <trkpt lat="45.93443" lon="4.61324">
        <ele>390.731628</ele>
        <time>2016-09-11T08:24:46Z</time>
      </trkpt>
      <trkpt lat="45.9344" lon="4.61325">
        <ele>390.99826</ele>
        <time>2016-09-11T08:24:48Z</time>
      </trkpt>
      <trkpt lat="45.93437" lon="4.61326">
        <ele>391.34021</ele>
        <time>2016-09-11T08:24:50Z</time>
      </trkpt>
      <trkpt lat="45.93434" lon="4.61328">
        <ele>391.634491</ele>
        <time>2016-09-11T08:24:52Z</time>
      </trkpt>
      <trkpt lat="45.9343" lon="4.61329">
        <ele>391.902313</ele>
        <time>2016-09-11T08:24:54Z</time>
      </trkpt>
      <trkpt lat="45.93427" lon="4.61331">
        <ele>392.190552</ele>
        <time>2016-09-11T08:24:56Z</time>
      </trkpt>
      <trkpt lat="45.93424" lon="4.61332">
        <ele>392.375458</ele>
        <time>2016-09-11T08:24:58Z</time>
      </trkpt>
      <trkpt lat="45.93421" lon="4.61333">
        <ele>392.640411</ele>
        <time>2016-09-11T08:25:00Z</time>
      </trkpt>
      <trkpt lat="45.93417" lon="4.61334">
        <ele>392.84906</ele>
        <time>2016-09-11T08:25:02Z</time>
      </trkpt>
      <trkpt lat="45.93415" lon="4.61334">
        <ele>393.094238</ele>
        <time>2016-09-11T08:25:04Z</time>
      </trkpt>
      <trkpt lat="45.93412" lon="4.61333">
        <ele>393.231873</ele>
        <time>2016-09-11T08:25:06Z</time>
      </trkpt>
      <trkpt lat="45.93409" lon="4.61333">
        <ele>393.508331</ele>
        <time>2016-09-11T08:25:08Z</time>
      </trkpt>
      <trkpt lat="45.93406" lon="4.61332">
        <ele>393.771149</ele>
        <time>2016-09-11T08:25:10Z</time>
      </trkpt>
      <trkpt lat="45.93403" lon="4.6133">
        <ele>394.048645</ele>
        <time>2016-09-11T08:25:12Z</time>
      </trkpt>
      <trkpt lat="45.934" lon="4.61329">
        <ele>394.298889</ele>
        <time>2016-09-11T08:25:14Z</time>
      </trkpt>
      <trkpt lat="45.93397" lon="4.61327">
        <ele>394.492493</ele>
        <time>2016-09-11T08:25:16Z</time>
      </trkpt>
      <trkpt lat="45.93395" lon="4.61324">
        <ele>394.762268</ele>
        <time>2016-09-11T08:25:18Z</time>
      </trkpt>
      <trkpt lat="45.93392" lon="4.61322">
        <ele>395.100739</ele>
        <time>2016-09-11T08:25:20Z</time>
      </trkpt>
      <trkpt lat="45.9339" lon="4.61319">
        <ele>395.481995</ele>
        <time>2016-09-11T08:25:22Z</time>
      </trkpt>
      <trkpt lat="45.93388" lon="4.61316">
        <ele>395.843201</ele>
        <time>2016-09-11T08:25:24Z</time>
      </trkpt>
      <trkpt lat="45.93386" lon="4.61312">
        <ele>396.236908</ele>
        <time>2016-09-11T08:25:26Z</time>
      </trkpt>
      <trkpt lat="45.93384" lon="4.61309">
        <ele>396.589783</ele>
        <time>2016-09-11T08:25:28Z</time>
      </trkpt>
      <trkpt lat="45.93382" lon="4.61306">
        <ele>396.809265</ele>
        <time>2016-09-11T08:25:30Z</time>
      </trkpt>
      <trkpt lat="45.9338" lon="4.61303">
        <ele>397.114807</ele>
        <time>2016-09-11T08:25:32Z</time>
      </trkpt>
      <trkpt lat="45.93377" lon="4.613">
        <ele>397.373352</ele>
        <time>2016-09-11T08:25:34Z</time>
      </trkpt>
      <trkpt lat="45.93374" lon="4.61298">
        <ele>397.619598</ele>
        <time>2016-09-11T08:25:36Z</time>
      </trkpt>
      <trkpt lat="45.93371" lon="4.61297">
        <ele>397.925201</ele>
        <time>2016-09-11T08:25:38Z</time>
      </trkpt>
      <trkpt lat="45.93368" lon="4.61296">
        <ele>398.327637</ele>
        <time>2016-09-11T08:25:40Z</time>
      </trkpt>
      <trkpt lat="45.93364" lon="4.61296">
        <ele>398.690125</ele>
        <time>2016-09-11T08:25:42Z</time>
      </trkpt>
      <trkpt lat="45.93361" lon="4.61296">
        <ele>399.064362</ele>
        <time>2016-09-11T08:25:44Z</time>
      </trkpt>
      <trkpt lat="45.93358" lon="4.61296">
        <ele>399.529297</ele>
        <time>2016-09-11T08:25:46Z</time>
      </trkpt>
      <trkpt lat="45.93354" lon="4.61297">
        <ele>399.856445</ele>
        <time>2016-09-11T08:25:48Z</time>
      </trkpt>
      <trkpt lat="45.93351" lon="4.61299">
        <ele>400.203064</ele>
        <time>2016-09-11T08:25:50Z</time>
      </trkpt>
      <trkpt lat="45.93348" lon="4.61301">
        <ele>400.633575</ele>
        <time>2016-09-11T08:25:52Z</time>
      </trkpt>
      <trkpt lat="45.93344" lon="4.61303">
        <ele>400.848816</ele>
        <time>2016-09-11T08:25:54Z</time>
      </trkpt>
      <trkpt lat="45.93339" lon="4.61306">
        <ele>401.156677</ele>
        <time>2016-09-11T08:25:56Z</time>
      </trkpt>
      <trkpt lat="45.93333" lon="4.6131">
        <ele>401.516144</ele>
        <time>2016-09-11T08:25:58Z</time>
      </trkpt>
      <trkpt lat="45.93326" lon="4.61313">
        <ele>401.848907</ele>
        <time>2016-09-11T08:26:00Z</time>
      </trkpt>
      <trkpt lat="45.93321" lon="4.61317">
        <ele>401.954376</ele>
        <time>2016-09-11T08:26:02Z</time>
      </trkpt>
      <trkpt lat="45.93316" lon="4.61319">
        <ele>402.117462</ele>
        <time>2016-09-11T08:26:04Z</time>
      </trkpt>
      <trkpt lat="45.93312" lon="4.61321">
        <ele>402.345642</ele>
        <time>2016-09-11T08:26:06Z</time>
      </trkpt>
      <trkpt lat="45.93311" lon="4.61324">
        <ele>402.451111</ele>
        <time>2016-09-11T08:26:08Z</time>
      </trkpt>
      <trkpt lat="45.93306" lon="4.61332">
        <ele>402.810699</ele>
        <time>2016-09-11T08:26:10Z</time>
      </trkpt>
      <trkpt lat="45.933" lon="4.61345">
        <ele>402.563263</ele>
        <time>2016-09-11T08:26:12Z</time>
      </trkpt>
      <trkpt lat="45.93293" lon="4.61361">
        <ele>402.759186</ele>
        <time>2016-09-11T08:26:14Z</time>
      </trkpt>
      <trkpt lat="45.93283" lon="4.61378">
        <ele>403.120728</ele>
        <time>2016-09-11T08:26:16Z</time>
      </trkpt>
      <trkpt lat="45.93271" lon="4.61394">
        <ele>402.903412</ele>
        <time>2016-09-11T08:26:18Z</time>
      </trkpt>
      <trkpt lat="45.93257" lon="4.61409">
        <ele>402.66037</ele>
        <time>2016-09-11T08:26:20Z</time>
      </trkpt>
      <trkpt lat="45.93243" lon="4.61424">
        <ele>402.546295</ele>
        <time>2016-09-11T08:26:22Z</time>
      </trkpt>
      <trkpt lat="45.9323" lon="4.6144">
        <ele>402.266144</ele>
        <time>2016-09-11T08:26:24Z</time>
      </trkpt>
      <trkpt lat="45.93216" lon="4.61453">
        <ele>401.667419</ele>
        <time>2016-09-11T08:26:26Z</time>
      </trkpt>
      <trkpt lat="45.93202" lon="4.61465">
        <ele>400.83905</ele>
        <time>2016-09-11T08:26:28Z</time>
      </trkpt>
      <trkpt lat="45.93189" lon="4.61473">
        <ele>400.00235</ele>
        <time>2016-09-11T08:26:30Z</time>
      </trkpt>
      <trkpt lat="45.93181" lon="4.61483">
        <ele>399.315979</ele>
        <time>2016-09-11T08:26:32Z</time>
      </trkpt>
      <trkpt lat="45.93173" lon="4.61495">
        <ele>398.588623</ele>
        <time>2016-09-11T08:26:34Z</time>
      </trkpt>
      <trkpt lat="45.93162" lon="4.61507">
        <ele>397.476349</ele>
        <time>2016-09-11T08:26:36Z</time>
      </trkpt>
      <trkpt lat="45.9315" lon="4.61525">
        <ele>396.932037</ele>
        <time>2016-09-11T08:26:38Z</time>
      </trkpt>
      <trkpt lat="45.93138" lon="4.61547">
        <ele>396.600616</ele>
        <time>2016-09-11T08:26:40Z</time>
      </trkpt>
      <trkpt lat="45.93126" lon="4.61572">
        <ele>395.409119</ele>
        <time>2016-09-11T08:26:42Z</time>
      </trkpt>
      <trkpt lat="45.93113" lon="4.61595">
        <ele>394.286591</ele>
        <time>2016-09-11T08:26:44Z</time>
      </trkpt>
      <trkpt lat="45.93099" lon="4.61616">
        <ele>392.318481</ele>
        <time>2016-09-11T08:26:46Z</time>
      </trkpt>
      <trkpt lat="45.93085" lon="4.6164">
        <ele>391.242493</ele>
        <time>2016-09-11T08:26:48Z</time>
      </trkpt>
      <trkpt lat="45.9307" lon="4.61665">
        <ele>390.031952</ele>
        <time>2016-09-11T08:26:50Z</time>
      </trkpt>
      <trkpt lat="45.93057" lon="4.61689">
        <ele>388.442657</ele>
        <time>2016-09-11T08:26:52Z</time>
      </trkpt>
      <trkpt lat="45.93044" lon="4.61715">
        <ele>387.461456</ele>
        <time>2016-09-11T08:26:54Z</time>
      </trkpt>
      <trkpt lat="45.93037" lon="4.61739">
        <ele>385.816345</ele>
        <time>2016-09-11T08:26:56Z</time>
      </trkpt>
      <trkpt lat="45.93041" lon="4.61752">
        <ele>384.191132</ele>
        <time>2016-09-11T08:26:58Z</time>
      </trkpt>
      <trkpt lat="45.9305" lon="4.61757">
        <ele>383.36618</ele>
        <time>2016-09-11T08:27:00Z</time>
      </trkpt>
      <trkpt lat="45.93057" lon="4.61769">
        <ele>381.817261</ele>
        <time>2016-09-11T08:27:02Z</time>
      </trkpt>
      <trkpt lat="45.93062" lon="4.61788">
        <ele>380.300018</ele>
        <time>2016-09-11T08:27:04Z</time>
      </trkpt>
      <trkpt lat="45.93066" lon="4.61809">
        <ele>379.425232</ele>
        <time>2016-09-11T08:27:06Z</time>
      </trkpt>
      <trkpt lat="45.9307" lon="4.6183">
        <ele>378.674042</ele>
        <time>2016-09-11T08:27:08Z</time>
      </trkpt>
      <trkpt lat="45.9307" lon="4.61848">
        <ele>377.623352</ele>
        <time>2016-09-11T08:27:10Z</time>
      </trkpt>
      <trkpt lat="45.93066" lon="4.61863">
        <ele>376.202362</ele>
        <time>2016-09-11T08:27:12Z</time>
      </trkpt>
      <trkpt lat="45.93063" lon="4.61877">
        <ele>374.588013</ele>
        <time>2016-09-11T08:27:14Z</time>
      </trkpt>
      <trkpt lat="45.93058" lon="4.61885">
        <ele>373.26297</ele>
        <time>2016-09-11T08:27:16Z</time>
      </trkpt>
      <trkpt lat="45.93053" lon="4.61889">
        <ele>372.15741</ele>
        <time>2016-09-11T08:27:18Z</time>
      </trkpt>
      <trkpt lat="45.93049" lon="4.61894">
        <ele>370.701447</ele>
        <time>2016-09-11T08:27:20Z</time>
      </trkpt>
      <trkpt lat="45.93046" lon="4.61901">
        <ele>369.56134</ele>
        <time>2016-09-11T08:27:22Z</time>
      </trkpt>
      <trkpt lat="45.93048" lon="4.6191">
        <ele>368.685486</ele>
        <time>2016-09-11T08:27:24Z</time>
      </trkpt>
      <trkpt lat="45.93052" lon="4.61921">
        <ele>368.159607</ele>
        <time>2016-09-11T08:27:26Z</time>
      </trkpt>
      <trkpt lat="45.93056" lon="4.61937">
        <ele>367.642639</ele>
        <time>2016-09-11T08:27:28Z</time>
      </trkpt>
      <trkpt lat="45.93059" lon="4.61955">
        <ele>367.393585</ele>
        <time>2016-09-11T08:27:30Z</time>
      </trkpt>
      <trkpt lat="45.93058" lon="4.61976">
        <ele>366.224457</ele>
        <time>2016-09-11T08:27:32Z</time>
      </trkpt>
      <trkpt lat="45.93057" lon="4.61998">
        <ele>365.37912</ele>
        <time>2016-09-11T08:27:34Z</time>
      </trkpt>
      <trkpt lat="45.93055" lon="4.62019">
        <ele>364.918701</ele>
        <time>2016-09-11T08:27:36Z</time>
      </trkpt>
      <trkpt lat="45.93053" lon="4.62041">
        <ele>364.369873</ele>
        <time>2016-09-11T08:27:38Z</time>
      </trkpt>
      <trkpt lat="45.93054" lon="4.62061">
        <ele>364.245514</ele>
        <time>2016-09-11T08:27:40Z</time>
      </trkpt>
      <trkpt lat="45.93059" lon="4.62079">
        <ele>363.582489</ele>
        <time>2016-09-11T08:27:42Z</time>
      </trkpt>
      <trkpt lat="45.93065" lon="4.62098">
        <ele>362.863495</ele>
        <time>2016-09-11T08:27:44Z</time>
      </trkpt>
      <trkpt lat="45.93073" lon="4.62117">
        <ele>361.744476</ele>
        <time>2016-09-11T08:27:46Z</time>
      </trkpt>
      <trkpt lat="45.93082" lon="4.62135">
        <ele>361.011322</ele>
        <time>2016-09-11T08:27:48Z</time>
      </trkpt>
      <trkpt lat="45.93091" lon="4.62154">
        <ele>359.193939</ele>
        <time>2016-09-11T08:27:50Z</time>
      </trkpt>
      <trkpt lat="45.93099" lon="4.62173">
        <ele>358.870239</ele>
        <time>2016-09-11T08:27:52Z</time>
      </trkpt>
      <trkpt lat="45.93104" lon="4.62196">
        <ele>357.949646</ele>
        <time>2016-09-11T08:27:54Z</time>
      </trkpt>
      <trkpt lat="45.93109" lon="4.6222">
        <ele>357.34549</ele>
        <time>2016-09-11T08:27:56Z</time>
      </trkpt>
      <trkpt lat="45.93115" lon="4.62242">
        <ele>356.244995</ele>
        <time>2016-09-11T08:27:58Z</time>
      </trkpt>
      <trkpt lat="45.93119" lon="4.62267">
        <ele>355.23584</ele>
        <time>2016-09-11T08:28:00Z</time>
      </trkpt>
      <trkpt lat="45.9312" lon="4.62293">
        <ele>354.047119</ele>
        <time>2016-09-11T08:28:02Z</time>
      </trkpt>
      <trkpt lat="45.93118" lon="4.62318">
        <ele>353.057312</ele>
        <time>2016-09-11T08:28:04Z</time>
      </trkpt>
      <trkpt lat="45.93113" lon="4.62341">
        <ele>351.629486</ele>
        <time>2016-09-11T08:28:06Z</time>
      </trkpt>
      <trkpt lat="45.93107" lon="4.62363">
        <ele>350.423737</ele>
        <time>2016-09-11T08:28:08Z</time>
      </trkpt>
      <trkpt lat="45.93107" lon="4.62382">
        <ele>349.059753</ele>
        <time>2016-09-11T08:28:10Z</time>
      </trkpt>
      <trkpt lat="45.93115" lon="4.62398">
        <ele>347.560974</ele>
        <time>2016-09-11T08:28:12Z</time>
      </trkpt>
      <trkpt lat="45.93132" lon="4.62408">
        <ele>346.056091</ele>
        <time>2016-09-11T08:28:14Z</time>
      </trkpt>
      <trkpt lat="45.9315" lon="4.62422">
        <ele>345.169983</ele>
        <time>2016-09-11T08:28:16Z</time>
      </trkpt>
      <trkpt lat="45.93162" lon="4.62443">
        <ele>343.448151</ele>
        <time>2016-09-11T08:28:18Z</time>
      </trkpt>
      <trkpt lat="45.93166" lon="4.62466">
        <ele>341.594238</ele>
        <time>2016-09-11T08:28:20Z</time>
      </trkpt>
      <trkpt lat="45.93164" lon="4.62491">
        <ele>339.309692</ele>
        <time>2016-09-11T08:28:22Z</time>
      </trkpt>
      <trkpt lat="45.9316" lon="4.62516">
        <ele>337.546326</ele>
        <time>2016-09-11T08:28:24Z</time>
      </trkpt>
      <trkpt lat="45.93156" lon="4.62543">
        <ele>335.796326</ele>
        <time>2016-09-11T08:28:26Z</time>
      </trkpt>
      <trkpt lat="45.93152" lon="4.6257">
        <ele>334.642151</ele>
        <time>2016-09-11T08:28:28Z</time>
      </trkpt>
      <trkpt lat="45.93148" lon="4.62597">
        <ele>333.249542</ele>
        <time>2016-09-11T08:28:30Z</time>
      </trkpt>
      <trkpt lat="45.93144" lon="4.62624">
        <ele>332.351715</ele>
        <time>2016-09-11T08:28:32Z</time>
      </trkpt>
      <trkpt lat="45.9314" lon="4.6265">
        <ele>330.766479</ele>
        <time>2016-09-11T08:28:34Z</time>
      </trkpt>
      <trkpt lat="45.93136" lon="4.62675">
        <ele>330.011108</ele>
        <time>2016-09-11T08:28:36Z</time>
      </trkpt>
      <trkpt lat="45.93132" lon="4.627">
        <ele>328.755219</ele>
        <time>2016-09-11T08:28:38Z</time>
      </trkpt>
      <trkpt lat="45.93129" lon="4.62724">
        <ele>328.302216</ele>
        <time>2016-09-11T08:28:40Z</time>
      </trkpt>
      <trkpt lat="45.93126" lon="4.62747">
        <ele>327.215759</ele>
        <time>2016-09-11T08:28:42Z</time>
      </trkpt>
      <trkpt lat="45.93124" lon="4.6277">
        <ele>326.136475</ele>
        <time>2016-09-11T08:28:44Z</time>
      </trkpt>
      <trkpt lat="45.93119" lon="4.62792">
        <ele>324.823853</ele>
        <time>2016-09-11T08:28:46Z</time>
      </trkpt>
      <trkpt lat="45.93116" lon="4.62815">
        <ele>324.062134</ele>
        <time>2016-09-11T08:28:48Z</time>
      </trkpt>
      <trkpt lat="45.93112" lon="4.62838">
        <ele>323.089233</ele>
        <time>2016-09-11T08:28:50Z</time>
      </trkpt>
      <trkpt lat="45.93108" lon="4.62861">
        <ele>322.33963</ele>
        <time>2016-09-11T08:28:52Z</time>
      </trkpt>
      <trkpt lat="45.93105" lon="4.62884">
        <ele>321.739471</ele>
        <time>2016-09-11T08:28:54Z</time>
      </trkpt>
      <trkpt lat="45.93103" lon="4.62908">
        <ele>321.237366</ele>
        <time>2016-09-11T08:28:56Z</time>
      </trkpt>
      <trkpt lat="45.93102" lon="4.62931">
        <ele>320.739197</ele>
        <time>2016-09-11T08:28:58Z</time>
      </trkpt>
      <trkpt lat="45.93101" lon="4.62952">
        <ele>320.228699</ele>
        <time>2016-09-11T08:29:00Z</time>
      </trkpt>
      <trkpt lat="45.93106" lon="4.6297">
        <ele>319.709686</ele>
        <time>2016-09-11T08:29:02Z</time>
      </trkpt>
      <trkpt lat="45.93118" lon="4.62978">
        <ele>319.184509</ele>
        <time>2016-09-11T08:29:04Z</time>
      </trkpt>
      <trkpt lat="45.93129" lon="4.62983">
        <ele>319.006805</ele>
        <time>2016-09-11T08:29:06Z</time>
      </trkpt>
      <trkpt lat="45.93136" lon="4.62985">
        <ele>318.845917</ele>
        <time>2016-09-11T08:29:08Z</time>
      </trkpt>
      <trkpt lat="45.93141" lon="4.62981">
        <ele>318.298401</ele>
        <time>2016-09-11T08:29:10Z</time>
      </trkpt>
      <trkpt lat="45.93142" lon="4.62976">
        <ele>317.630157</ele>
        <time>2016-09-11T08:29:12Z</time>
      </trkpt>
      <trkpt lat="45.93145" lon="4.62971">
        <ele>317.34613</ele>
        <time>2016-09-11T08:29:14Z</time>
      </trkpt>
      <trkpt lat="45.93147" lon="4.62966">
        <ele>317.051453</ele>
        <time>2016-09-11T08:29:16Z</time>
      </trkpt>
      <trkpt lat="45.93148" lon="4.62962">
        <ele>317.002808</ele>
        <time>2016-09-11T08:29:18Z</time>
      </trkpt>
      <trkpt lat="45.93149" lon="4.62958">
        <ele>316.790497</ele>
        <time>2016-09-11T08:29:20Z</time>
      </trkpt>
      <trkpt lat="45.9315" lon="4.62954">
        <ele>316.752075</ele>
        <time>2016-09-11T08:29:22Z</time>
      </trkpt>
      <trkpt lat="45.9315" lon="4.62949">
        <ele>316.637207</ele>
        <time>2016-09-11T08:29:24Z</time>
      </trkpt>
      <trkpt lat="45.93151" lon="4.62945">
        <ele>316.746063</ele>
        <time>2016-09-11T08:29:26Z</time>
      </trkpt>
      <trkpt lat="45.93152" lon="4.62941">
        <ele>316.594421</ele>
        <time>2016-09-11T08:29:28Z</time>
      </trkpt>
      <trkpt lat="45.93152" lon="4.62937">
        <ele>316.669189</ele>
        <time>2016-09-11T08:29:30Z</time>
      </trkpt>
      <trkpt lat="45.93152" lon="4.62933">
        <ele>316.835876</ele>
        <time>2016-09-11T08:29:32Z</time>
      </trkpt>
      <trkpt lat="45.93153" lon="4.62929">
        <ele>316.92511</ele>
        <time>2016-09-11T08:29:34Z</time>
      </trkpt>
      <trkpt lat="45.93153" lon="4.62926">
        <ele>317.142487</ele>
        <time>2016-09-11T08:29:36Z</time>
      </trkpt>
      <trkpt lat="45.93154" lon="4.62922">
        <ele>317.297668</ele>
        <time>2016-09-11T08:29:38Z</time>
      </trkpt>
      <trkpt lat="45.93155" lon="4.62919">
        <ele>317.530518</ele>
        <time>2016-09-11T08:29:40Z</time>
      </trkpt>
      <trkpt lat="45.93156" lon="4.62916">
        <ele>317.938477</ele>
        <time>2016-09-11T08:29:42Z</time>
      </trkpt>
      <trkpt lat="45.93157" lon="4.62914">
        <ele>318.491608</ele>
        <time>2016-09-11T08:29:44Z</time>
      </trkpt>
      <trkpt lat="45.93158" lon="4.62911">
        <ele>319.194183</ele>
        <time>2016-09-11T08:29:46Z</time>
      </trkpt>
      <trkpt lat="45.9316" lon="4.62908">
        <ele>319.661957</ele>
        <time>2016-09-11T08:29:48Z</time>
      </trkpt>
      <trkpt lat="45.9316" lon="4.62905">
        <ele>320.262939</ele>
        <time>2016-09-11T08:29:50Z</time>
      </trkpt>
      <trkpt lat="45.93161" lon="4.62902">
        <ele>321.142761</ele>
        <time>2016-09-11T08:29:52Z</time>
      </trkpt>
      <trkpt lat="45.93162" lon="4.62898">
        <ele>321.930969</ele>
        <time>2016-09-11T08:29:54Z</time>
      </trkpt>
      <trkpt lat="45.93163" lon="4.62895">
        <ele>322.603821</ele>
        <time>2016-09-11T08:29:56Z</time>
      </trkpt>
      <trkpt lat="45.93163" lon="4.62892">
        <ele>322.917877</ele>
        <time>2016-09-11T08:29:58Z</time>
      </trkpt>
      <trkpt lat="45.93164" lon="4.62888">
        <ele>323.325989</ele>
        <time>2016-09-11T08:30:00Z</time>
      </trkpt>
      <trkpt lat="45.93164" lon="4.62885">
        <ele>324.001953</ele>
        <time>2016-09-11T08:30:02Z</time>
      </trkpt>
      <trkpt lat="45.93165" lon="4.62882">
        <ele>324.63858</ele>
        <time>2016-09-11T08:30:04Z</time>
      </trkpt>
      <trkpt lat="45.93166" lon="4.6288">
        <ele>325.194092</ele>
        <time>2016-09-11T08:30:06Z</time>
      </trkpt>
      <trkpt lat="45.93167" lon="4.62877">
        <ele>325.875061</ele>
        <time>2016-09-11T08:30:08Z</time>
      </trkpt>
      <trkpt lat="45.93168" lon="4.62874">
        <ele>326.595428</ele>
        <time>2016-09-11T08:30:10Z</time>
      </trkpt>
      <trkpt lat="45.93169" lon="4.62872">
        <ele>327.185211</ele>
        <time>2016-09-11T08:30:12Z</time>
      </trkpt>
      <trkpt lat="45.93171" lon="4.6287">
        <ele>327.644684</ele>
        <time>2016-09-11T08:30:14Z</time>
      </trkpt>
      <trkpt lat="45.93171" lon="4.62866">
        <ele>329.148132</ele>
        <time>2016-09-11T08:30:20Z</time>
      </trkpt>
      <trkpt lat="45.93173" lon="4.62865">
        <ele>329.513641</ele>
        <time>2016-09-11T08:30:22Z</time>
      </trkpt>
      <trkpt lat="45.93174" lon="4.62864">
        <ele>329.847107</ele>
        <time>2016-09-11T08:30:24Z</time>
      </trkpt>
      <trkpt lat="45.93176" lon="4.62862">
        <ele>330.216949</ele>
        <time>2016-09-11T08:30:26Z</time>
      </trkpt>
      <trkpt lat="45.93177" lon="4.62861">
        <ele>330.398651</ele>
        <time>2016-09-11T08:30:28Z</time>
      </trkpt>
      <trkpt lat="45.93178" lon="4.6286">
        <ele>330.739929</ele>
        <time>2016-09-11T08:30:30Z</time>
      </trkpt>
      <trkpt lat="45.9318" lon="4.62859">
        <ele>331.08197</ele>
        <time>2016-09-11T08:30:32Z</time>
      </trkpt>
      <trkpt lat="45.93182" lon="4.62858">
        <ele>331.385559</ele>
        <time>2016-09-11T08:30:34Z</time>
      </trkpt>
      <trkpt lat="45.93183" lon="4.62857">
        <ele>331.627136</ele>
        <time>2016-09-11T08:30:36Z</time>
      </trkpt>
      <trkpt lat="45.93185" lon="4.62855">
        <ele>331.924377</ele>
        <time>2016-09-11T08:30:38Z</time>
      </trkpt>
      <trkpt lat="45.93186" lon="4.62854">
        <ele>332.184296</ele>
        <time>2016-09-11T08:30:40Z</time>
      </trkpt>
      <trkpt lat="45.93188" lon="4.62852">
        <ele>332.485809</ele>
        <time>2016-09-11T08:30:42Z</time>
      </trkpt>
      <trkpt lat="45.9319" lon="4.62851">
        <ele>332.780914</ele>
        <time>2016-09-11T08:30:44Z</time>
      </trkpt>
      <trkpt lat="45.93192" lon="4.6285">
        <ele>333.142303</ele>
        <time>2016-09-11T08:30:46Z</time>
      </trkpt>
      <trkpt lat="45.93193" lon="4.62849">
        <ele>333.409637</ele>
        <time>2016-09-11T08:30:48Z</time>
      </trkpt>
      <trkpt lat="45.93195" lon="4.62847">
        <ele>333.654083</ele>
        <time>2016-09-11T08:30:50Z</time>
      </trkpt>
      <trkpt lat="45.93197" lon="4.62846">
        <ele>333.97879</ele>
        <time>2016-09-11T08:30:52Z</time>
      </trkpt>
      <trkpt lat="45.93198" lon="4.62845">
        <ele>334.297424</ele>
        <time>2016-09-11T08:30:54Z</time>
      </trkpt>
      <trkpt lat="45.932" lon="4.62844">
        <ele>334.577637</ele>
        <time>2016-09-11T08:30:56Z</time>
      </trkpt>
      <trkpt lat="45.93201" lon="4.62842">
        <ele>334.744446</ele>
        <time>2016-09-11T08:30:58Z</time>
      </trkpt>
      <trkpt lat="45.93203" lon="4.62841">
        <ele>335.041229</ele>
        <time>2016-09-11T08:31:00Z</time>
      </trkpt>
      <trkpt lat="45.93205" lon="4.62839">
        <ele>335.321411</ele>
        <time>2016-09-11T08:31:02Z</time>
      </trkpt>
      <trkpt lat="45.93207" lon="4.62838">
        <ele>335.635834</ele>
        <time>2016-09-11T08:31:04Z</time>
      </trkpt>
      <trkpt lat="45.93208" lon="4.62837">
        <ele>335.94812</ele>
        <time>2016-09-11T08:31:06Z</time>
      </trkpt>
      <trkpt lat="45.9321" lon="4.62835">
        <ele>336.264709</ele>
        <time>2016-09-11T08:31:08Z</time>
      </trkpt>
      <trkpt lat="45.93212" lon="4.62834">
        <ele>336.557678</ele>
        <time>2016-09-11T08:31:10Z</time>
      </trkpt>
      <trkpt lat="45.93213" lon="4.62832">
        <ele>336.846619</ele>
        <time>2016-09-11T08:31:12Z</time>
      </trkpt>
      <trkpt lat="45.93215" lon="4.6283">
        <ele>337.507355</ele>
        <time>2016-09-11T08:31:16Z</time>
      </trkpt>
      <trkpt lat="45.93217" lon="4.62829">
        <ele>337.815399</ele>
        <time>2016-09-11T08:31:18Z</time>
      </trkpt>
      <trkpt lat="45.93219" lon="4.62827">
        <ele>338.174866</ele>
        <time>2016-09-11T08:31:20Z</time>
      </trkpt>
      <trkpt lat="45.93221" lon="4.62825">
        <ele>338.353394</ele>
        <time>2016-09-11T08:31:22Z</time>
      </trkpt>
      <trkpt lat="45.93224" lon="4.62824">
        <ele>338.654724</ele>
        <time>2016-09-11T08:31:24Z</time>
      </trkpt>
      <trkpt lat="45.93227" lon="4.62822">
        <ele>339.009918</ele>
        <time>2016-09-11T08:31:26Z</time>
      </trkpt>
      <trkpt lat="45.93229" lon="4.6282">
        <ele>339.337311</ele>
        <time>2016-09-11T08:31:28Z</time>
      </trkpt>
      <trkpt lat="45.93232" lon="4.62818">
        <ele>339.632599</ele>
        <time>2016-09-11T08:31:30Z</time>
      </trkpt>
      <trkpt lat="45.93234" lon="4.62816">
        <ele>340.043396</ele>
        <time>2016-09-11T08:31:32Z</time>
      </trkpt>
      <trkpt lat="45.93237" lon="4.62814">
        <ele>340.330627</ele>
        <time>2016-09-11T08:31:34Z</time>
      </trkpt>
      <trkpt lat="45.93239" lon="4.62812">
        <ele>340.670898</ele>
        <time>2016-09-11T08:31:36Z</time>
      </trkpt>
      <trkpt lat="45.93242" lon="4.6281">
        <ele>341.024017</ele>
        <time>2016-09-11T08:31:38Z</time>
      </trkpt>
      <trkpt lat="45.93245" lon="4.62808">
        <ele>341.347717</ele>
        <time>2016-09-11T08:31:40Z</time>
      </trkpt>
      <trkpt lat="45.93247" lon="4.62807">
        <ele>341.585266</ele>
        <time>2016-09-11T08:31:42Z</time>
      </trkpt>
      <trkpt lat="45.9325" lon="4.62805">
        <ele>341.940765</ele>
        <time>2016-09-11T08:31:44Z</time>
      </trkpt>
      <trkpt lat="45.93253" lon="4.62802">
        <ele>342.34964</ele>
        <time>2016-09-11T08:31:46Z</time>
      </trkpt>
      <trkpt lat="45.93255" lon="4.628">
        <ele>342.5979</ele>
        <time>2016-09-11T08:31:48Z</time>
      </trkpt>
      <trkpt lat="45.93258" lon="4.62798">
        <ele>343.006775</ele>
        <time>2016-09-11T08:31:50Z</time>
      </trkpt>
      <trkpt lat="45.9326" lon="4.62796">
        <ele>343.465759</ele>
        <time>2016-09-11T08:31:52Z</time>
      </trkpt>
      <trkpt lat="45.93263" lon="4.62794">
        <ele>343.838074</ele>
        <time>2016-09-11T08:31:54Z</time>
      </trkpt>
      <trkpt lat="45.93266" lon="4.62792">
        <ele>344.159515</ele>
        <time>2016-09-11T08:31:56Z</time>
      </trkpt>
      <trkpt lat="45.93268" lon="4.62791">
        <ele>344.51355</ele>
        <time>2016-09-11T08:31:58Z</time>
      </trkpt>
      <trkpt lat="45.93271" lon="4.62788">
        <ele>344.879639</ele>
        <time>2016-09-11T08:32:00Z</time>
      </trkpt>
      <trkpt lat="45.93274" lon="4.62786">
        <ele>345.213623</ele>
        <time>2016-09-11T08:32:02Z</time>
      </trkpt>
      <trkpt lat="45.93276" lon="4.62784">
        <ele>345.606079</ele>
        <time>2016-09-11T08:32:04Z</time>
      </trkpt>
      <trkpt lat="45.93279" lon="4.62782">
        <ele>345.994202</ele>
        <time>2016-09-11T08:32:06Z</time>
      </trkpt>
      <trkpt lat="45.93281" lon="4.6278">
        <ele>346.296112</ele>
        <time>2016-09-11T08:32:08Z</time>
      </trkpt>
      <trkpt lat="45.93284" lon="4.62778">
        <ele>346.78006</ele>
        <time>2016-09-11T08:32:10Z</time>
      </trkpt>
      <trkpt lat="45.93286" lon="4.62776">
        <ele>347.159058</ele>
        <time>2016-09-11T08:32:12Z</time>
      </trkpt>
      <trkpt lat="45.93287" lon="4.62772">
        <ele>347.358215</ele>
        <time>2016-09-11T08:32:14Z</time>
      </trkpt>
      <trkpt lat="45.93289" lon="4.62769">
        <ele>347.793243</ele>
        <time>2016-09-11T08:32:16Z</time>
      </trkpt>
      <trkpt lat="45.93292" lon="4.62767">
        <ele>348.148438</ele>
        <time>2016-09-11T08:32:18Z</time>
      </trkpt>
      <trkpt lat="45.93294" lon="4.62765">
        <ele>348.476105</ele>
        <time>2016-09-11T08:32:20Z</time>
      </trkpt>
      <trkpt lat="45.93297" lon="4.62763">
        <ele>348.882996</ele>
        <time>2016-09-11T08:32:22Z</time>
      </trkpt>
      <trkpt lat="45.93299" lon="4.62761">
        <ele>349.341248</ele>
        <time>2016-09-11T08:32:24Z</time>
      </trkpt>
      <trkpt lat="45.93302" lon="4.6276">
        <ele>349.739441</ele>
        <time>2016-09-11T08:32:26Z</time>
      </trkpt>
      <trkpt lat="45.93304" lon="4.62759">
        <ele>349.979858</ele>
        <time>2016-09-11T08:32:28Z</time>
      </trkpt>
      <trkpt lat="45.93307" lon="4.62757">
        <ele>350.251129</ele>
        <time>2016-09-11T08:32:30Z</time>
      </trkpt>
      <trkpt lat="45.9331" lon="4.62754">
        <ele>350.56601</ele>
        <time>2016-09-11T08:32:32Z</time>
      </trkpt>
      <trkpt lat="45.93312" lon="4.62753">
        <ele>350.893738</ele>
        <time>2016-09-11T08:32:34Z</time>
      </trkpt>
      <trkpt lat="45.93315" lon="4.62751">
        <ele>351.335052</ele>
        <time>2016-09-11T08:32:36Z</time>
      </trkpt>
      <trkpt lat="45.93317" lon="4.6275">
        <ele>351.642731</ele>
        <time>2016-09-11T08:32:38Z</time>
      </trkpt>
      <trkpt lat="45.93321" lon="4.62748">
        <ele>352.004761</ele>
        <time>2016-09-11T08:32:40Z</time>
      </trkpt>
      <trkpt lat="45.93324" lon="4.62748">
        <ele>352.212555</ele>
        <time>2016-09-11T08:32:42Z</time>
      </trkpt>
      <trkpt lat="45.93326" lon="4.62748">
        <ele>352.51889</ele>
        <time>2016-09-11T08:32:44Z</time>
      </trkpt>
      <trkpt lat="45.93329" lon="4.62749">
        <ele>352.880646</ele>
        <time>2016-09-11T08:32:46Z</time>
      </trkpt>
      <trkpt lat="45.93333" lon="4.6275">
        <ele>353.220703</ele>
        <time>2016-09-11T08:32:48Z</time>
      </trkpt>
      <trkpt lat="45.93335" lon="4.6275">
        <ele>353.584656</ele>
        <time>2016-09-11T08:32:50Z</time>
      </trkpt>
      <trkpt lat="45.93338" lon="4.6275">
        <ele>353.891113</ele>
        <time>2016-09-11T08:32:52Z</time>
      </trkpt>
      <trkpt lat="45.93342" lon="4.6275">
        <ele>354.214661</ele>
        <time>2016-09-11T08:32:54Z</time>
      </trkpt>
      <trkpt lat="45.93345" lon="4.6275">
        <ele>354.565247</ele>
        <time>2016-09-11T08:32:56Z</time>
      </trkpt>
      <trkpt lat="45.93347" lon="4.6275">
        <ele>354.874115</ele>
        <time>2016-09-11T08:32:58Z</time>
      </trkpt>
      <trkpt lat="45.9335" lon="4.62748">
        <ele>355.227722</ele>
        <time>2016-09-11T08:33:00Z</time>
      </trkpt>
      <trkpt lat="45.93352" lon="4.62747">
        <ele>355.478424</ele>
        <time>2016-09-11T08:33:02Z</time>
      </trkpt>
      <trkpt lat="45.93355" lon="4.62746">
        <ele>355.682007</ele>
        <time>2016-09-11T08:33:04Z</time>
      </trkpt>
      <trkpt lat="45.93358" lon="4.62745">
        <ele>355.855591</ele>
        <time>2016-09-11T08:33:06Z</time>
      </trkpt>
      <trkpt lat="45.93361" lon="4.62744">
        <ele>356.147675</ele>
        <time>2016-09-11T08:33:08Z</time>
      </trkpt>
      <trkpt lat="45.93364" lon="4.62743">
        <ele>356.571503</ele>
        <time>2016-09-11T08:33:10Z</time>
      </trkpt>
      <trkpt lat="45.93368" lon="4.62743">
        <ele>356.908752</ele>
        <time>2016-09-11T08:33:12Z</time>
      </trkpt>
      <trkpt lat="45.93371" lon="4.62742">
        <ele>357.232422</ele>
        <time>2016-09-11T08:33:14Z</time>
      </trkpt>
      <trkpt lat="45.93374" lon="4.62741">
        <ele>357.536804</ele>
        <time>2016-09-11T08:33:16Z</time>
      </trkpt>
      <trkpt lat="45.93378" lon="4.6274">
        <ele>357.78653</ele>
        <time>2016-09-11T08:33:18Z</time>
      </trkpt>
      <trkpt lat="45.93381" lon="4.6274">
        <ele>358.202362</ele>
        <time>2016-09-11T08:33:20Z</time>
      </trkpt>
      <trkpt lat="45.93384" lon="4.62739">
        <ele>358.502472</ele>
        <time>2016-09-11T08:33:22Z</time>
      </trkpt>
      <trkpt lat="45.93388" lon="4.62738">
        <ele>358.83905</ele>
        <time>2016-09-11T08:33:24Z</time>
      </trkpt>
      <trkpt lat="45.93391" lon="4.62737">
        <ele>359.126282</ele>
        <time>2016-09-11T08:33:26Z</time>
      </trkpt>
      <trkpt lat="45.93395" lon="4.62736">
        <ele>359.400696</ele>
        <time>2016-09-11T08:33:28Z</time>
      </trkpt>
      <trkpt lat="45.93398" lon="4.62735">
        <ele>359.765198</ele>
        <time>2016-09-11T08:33:30Z</time>
      </trkpt>
      <trkpt lat="45.93401" lon="4.62734">
        <ele>359.924103</ele>
        <time>2016-09-11T08:33:32Z</time>
      </trkpt>
      <trkpt lat="45.93405" lon="4.62733">
        <ele>360.173187</ele>
        <time>2016-09-11T08:33:34Z</time>
      </trkpt>
      <trkpt lat="45.93409" lon="4.62732">
        <ele>360.552704</ele>
        <time>2016-09-11T08:33:36Z</time>
      </trkpt>
      <trkpt lat="45.93413" lon="4.6273">
        <ele>360.908661</ele>
        <time>2016-09-11T08:33:38Z</time>
      </trkpt>
      <trkpt lat="45.93417" lon="4.62729">
        <ele>361.318268</ele>
        <time>2016-09-11T08:33:40Z</time>
      </trkpt>
      <trkpt lat="45.9342" lon="4.62728">
        <ele>361.642395</ele>
        <time>2016-09-11T08:33:42Z</time>
      </trkpt>
      <trkpt lat="45.93425" lon="4.62727">
        <ele>362.075531</ele>
        <time>2016-09-11T08:33:44Z</time>
      </trkpt>
      <trkpt lat="45.93429" lon="4.62726">
        <ele>362.504395</ele>
        <time>2016-09-11T08:33:46Z</time>
      </trkpt>
      <trkpt lat="45.93434" lon="4.62725">
        <ele>362.868896</ele>
        <time>2016-09-11T08:33:48Z</time>
      </trkpt>
      <trkpt lat="45.93438" lon="4.62724">
        <ele>363.131775</ele>
        <time>2016-09-11T08:33:50Z</time>
      </trkpt>
      <trkpt lat="45.93443" lon="4.62723">
        <ele>363.524261</ele>
        <time>2016-09-11T08:33:52Z</time>
      </trkpt>
      <trkpt lat="45.93448" lon="4.62722">
        <ele>363.800934</ele>
        <time>2016-09-11T08:33:54Z</time>
      </trkpt>
      <trkpt lat="45.93453" lon="4.62724">
        <ele>364.19989</ele>
        <time>2016-09-11T08:33:56Z</time>
      </trkpt>
      <trkpt lat="45.93456" lon="4.62728">
        <ele>364.517242</ele>
        <time>2016-09-11T08:33:58Z</time>
      </trkpt>
      <trkpt lat="45.93459" lon="4.62733">
        <ele>364.835754</ele>
        <time>2016-09-11T08:34:00Z</time>
      </trkpt>
      <trkpt lat="45.93461" lon="4.62736">
        <ele>365.148926</ele>
        <time>2016-09-11T08:34:02Z</time>
      </trkpt>
      <trkpt lat="45.93462" lon="4.62739">
        <ele>365.299103</ele>
        <time>2016-09-11T08:34:04Z</time>
      </trkpt>
      <trkpt lat="45.93464" lon="4.6274">
        <ele>365.587524</ele>
        <time>2016-09-11T08:34:06Z</time>
      </trkpt>
      <trkpt lat="45.93467" lon="4.62738">
        <ele>365.89502</ele>
        <time>2016-09-11T08:34:08Z</time>
      </trkpt>
      <trkpt lat="45.93467" lon="4.62736">
        <ele>366.145996</ele>
        <time>2016-09-11T08:34:10Z</time>
      </trkpt>
      <trkpt lat="45.93466" lon="4.62735">
        <ele>366.315491</ele>
        <time>2016-09-11T08:34:12Z</time>
      </trkpt>
      <trkpt lat="45.93464" lon="4.62735">
        <ele>366.546753</ele>
        <time>2016-09-11T08:34:14Z</time>
      </trkpt>
      <trkpt lat="45.93463" lon="4.62738">
        <ele>366.717163</ele>
        <time>2016-09-11T08:34:16Z</time>
      </trkpt>
      <trkpt lat="45.93464" lon="4.6274">
        <ele>366.835144</ele>
        <time>2016-09-11T08:34:18Z</time>
      </trkpt>
      <trkpt lat="45.93467" lon="4.62743">
        <ele>367.495911</ele>
        <time>2016-09-11T08:34:43Z</time>
      </trkpt>
      <trkpt lat="45.93469" lon="4.62746">
        <ele>367.453308</ele>
        <time>2016-09-11T08:34:45Z</time>
      </trkpt>
      <trkpt lat="45.93469" lon="4.62751">
        <ele>367.450195</ele>
        <time>2016-09-11T08:34:47Z</time>
      </trkpt>
      <trkpt lat="45.93469" lon="4.62757">
        <ele>367.440826</ele>
        <time>2016-09-11T08:34:49Z</time>
      </trkpt>
      <trkpt lat="45.93469" lon="4.62766">
        <ele>367.339996</ele>
        <time>2016-09-11T08:34:51Z</time>
      </trkpt>
      <trkpt lat="45.93469" lon="4.62776">
        <ele>367.355042</ele>
        <time>2016-09-11T08:34:53Z</time>
      </trkpt>
      <trkpt lat="45.93468" lon="4.62787">
        <ele>367.31015</ele>
        <time>2016-09-11T08:34:55Z</time>
      </trkpt>
      <trkpt lat="45.93466" lon="4.62799">
        <ele>367.267242</ele>
        <time>2016-09-11T08:34:57Z</time>
      </trkpt>
      <trkpt lat="45.93464" lon="4.62813">
        <ele>367.107574</ele>
        <time>2016-09-11T08:34:59Z</time>
      </trkpt>
      <trkpt lat="45.9346" lon="4.62828">
        <ele>366.946777</ele>
        <time>2016-09-11T08:35:01Z</time>
      </trkpt>
      <trkpt lat="45.93456" lon="4.62845">
        <ele>366.734436</ele>
        <time>2016-09-11T08:35:03Z</time>
      </trkpt>
      <trkpt lat="45.93452" lon="4.62863">
        <ele>366.841705</ele>
        <time>2016-09-11T08:35:05Z</time>
      </trkpt>
      <trkpt lat="45.93449" lon="4.62883">
        <ele>366.544189</ele>
        <time>2016-09-11T08:35:07Z</time>
      </trkpt>
      <trkpt lat="45.93449" lon="4.62904">
        <ele>366.24469</ele>
        <time>2016-09-11T08:35:09Z</time>
      </trkpt>
      <trkpt lat="45.93452" lon="4.62926">
        <ele>366.103119</ele>
        <time>2016-09-11T08:35:11Z</time>
      </trkpt>
      <trkpt lat="45.93456" lon="4.62948">
        <ele>365.789398</ele>
        <time>2016-09-11T08:35:13Z</time>
      </trkpt>
      <trkpt lat="45.9346" lon="4.62969">
        <ele>365.345642</ele>
        <time>2016-09-11T08:35:15Z</time>
      </trkpt>
      <trkpt lat="45.93464" lon="4.62991">
        <ele>364.82666</ele>
        <time>2016-09-11T08:35:17Z</time>
      </trkpt>
      <trkpt lat="45.93468" lon="4.63012">
        <ele>364.492615</ele>
        <time>2016-09-11T08:35:19Z</time>
      </trkpt>
      <trkpt lat="45.93474" lon="4.63031">
        <ele>364.347961</ele>
        <time>2016-09-11T08:35:21Z</time>
      </trkpt>
      <trkpt lat="45.9348" lon="4.63048">
        <ele>363.834656</ele>
        <time>2016-09-11T08:35:23Z</time>
      </trkpt>
      <trkpt lat="45.93486" lon="4.63063">
        <ele>363.18927</ele>
        <time>2016-09-11T08:35:25Z</time>
      </trkpt>
      <trkpt lat="45.93494" lon="4.63074">
        <ele>362.804993</ele>
        <time>2016-09-11T08:35:27Z</time>
      </trkpt>
      <trkpt lat="45.93501" lon="4.63083">
        <ele>362.320313</ele>
        <time>2016-09-11T08:35:29Z</time>
      </trkpt>
      <trkpt lat="45.93507" lon="4.63092">
        <ele>361.842072</ele>
        <time>2016-09-11T08:35:31Z</time>
      </trkpt>
      <trkpt lat="45.93514" lon="4.631">
        <ele>361.591614</ele>
        <time>2016-09-11T08:35:33Z</time>
      </trkpt>
      <trkpt lat="45.93522" lon="4.63109">
        <ele>361.2547</ele>
        <time>2016-09-11T08:35:35Z</time>
      </trkpt>
      <trkpt lat="45.9353" lon="4.63117">
        <ele>360.669281</ele>
        <time>2016-09-11T08:35:37Z</time>
      </trkpt>
      <trkpt lat="45.93539" lon="4.63122">
        <ele>360.317719</ele>
        <time>2016-09-11T08:35:39Z</time>
      </trkpt>
      <trkpt lat="45.93547" lon="4.63127">
        <ele>359.946777</ele>
        <time>2016-09-11T08:35:41Z</time>
      </trkpt>
      <trkpt lat="45.93554" lon="4.63132">
        <ele>359.766693</ele>
        <time>2016-09-11T08:35:43Z</time>
      </trkpt>
      <trkpt lat="45.93562" lon="4.63139">
        <ele>359.42804</ele>
        <time>2016-09-11T08:35:45Z</time>
      </trkpt>
      <trkpt lat="45.9357" lon="4.63147">
        <ele>358.840393</ele>
        <time>2016-09-11T08:35:47Z</time>
      </trkpt>
      <trkpt lat="45.93578" lon="4.63154">
        <ele>358.954041</ele>
        <time>2016-09-11T08:35:49Z</time>
      </trkpt>
      <trkpt lat="45.93586" lon="4.63161">
        <ele>358.726837</ele>
        <time>2016-09-11T08:35:51Z</time>
      </trkpt>
      <trkpt lat="45.93594" lon="4.63167">
        <ele>358.224976</ele>
        <time>2016-09-11T08:35:53Z</time>
      </trkpt>
      <trkpt lat="45.93603" lon="4.63174">
        <ele>358.138214</ele>
        <time>2016-09-11T08:35:55Z</time>
      </trkpt>
      <trkpt lat="45.93612" lon="4.63181">
        <ele>357.931976</ele>
        <time>2016-09-11T08:35:57Z</time>
      </trkpt>
      <trkpt lat="45.9362" lon="4.63191">
        <ele>357.602173</ele>
        <time>2016-09-11T08:35:59Z</time>
      </trkpt>
      <trkpt lat="45.93647" lon="4.63215">
        <ele>357.432861</ele>
        <time>2016-09-11T08:36:04Z</time>
      </trkpt>
      <trkpt lat="45.93658" lon="4.63214">
        <ele>357.223358</ele>
        <time>2016-09-11T08:36:06Z</time>
      </trkpt>
      <trkpt lat="45.9367" lon="4.63214">
        <ele>357.091797</ele>
        <time>2016-09-11T08:36:08Z</time>
      </trkpt>
      <trkpt lat="45.93681" lon="4.63215">
        <ele>356.843262</ele>
        <time>2016-09-11T08:36:10Z</time>
      </trkpt>
      <trkpt lat="45.93692" lon="4.63215">
        <ele>356.395386</ele>
        <time>2016-09-11T08:36:12Z</time>
      </trkpt>
      <trkpt lat="45.93703" lon="4.63218">
        <ele>356.05896</ele>
        <time>2016-09-11T08:36:14Z</time>
      </trkpt>
      <trkpt lat="45.93708" lon="4.63226">
        <ele>355.878967</ele>
        <time>2016-09-11T08:36:16Z</time>
      </trkpt>
      <trkpt lat="45.93708" lon="4.63237">
        <ele>355.31958</ele>
        <time>2016-09-11T08:36:18Z</time>
      </trkpt>
      <trkpt lat="45.93706" lon="4.6325">
        <ele>354.884521</ele>
        <time>2016-09-11T08:36:20Z</time>
      </trkpt>
      <trkpt lat="45.93703" lon="4.63265">
        <ele>354.641052</ele>
        <time>2016-09-11T08:36:22Z</time>
      </trkpt>
      <trkpt lat="45.93699" lon="4.63281">
        <ele>354.167694</ele>
        <time>2016-09-11T08:36:24Z</time>
      </trkpt>
      <trkpt lat="45.93696" lon="4.63302">
        <ele>352.959808</ele>
        <time>2016-09-11T08:36:26Z</time>
      </trkpt>
      <trkpt lat="45.93692" lon="4.63326">
        <ele>352.141907</ele>
        <time>2016-09-11T08:36:28Z</time>
      </trkpt>
      <trkpt lat="45.93689" lon="4.63351">
        <ele>351.499084</ele>
        <time>2016-09-11T08:36:30Z</time>
      </trkpt>
      <trkpt lat="45.93684" lon="4.63376">
        <ele>350.548218</ele>
        <time>2016-09-11T08:36:32Z</time>
      </trkpt>
      <trkpt lat="45.93681" lon="4.63398">
        <ele>349.166687</ele>
        <time>2016-09-11T08:36:34Z</time>
      </trkpt>
      <trkpt lat="45.93683" lon="4.63414">
        <ele>347.86731</ele>
        <time>2016-09-11T08:36:36Z</time>
      </trkpt>
      <trkpt lat="45.93691" lon="4.63423">
        <ele>347.120117</ele>
        <time>2016-09-11T08:36:38Z</time>
      </trkpt>
      <trkpt lat="45.93699" lon="4.63428">
        <ele>346.601776</ele>
        <time>2016-09-11T08:36:40Z</time>
      </trkpt>
      <trkpt lat="45.93707" lon="4.63432">
        <ele>345.754822</ele>
        <time>2016-09-11T08:36:42Z</time>
      </trkpt>
      <trkpt lat="45.93715" lon="4.63435">
        <ele>344.870728</ele>
        <time>2016-09-11T08:36:44Z</time>
      </trkpt>
      <trkpt lat="45.93722" lon="4.63438">
        <ele>344.266235</ele>
        <time>2016-09-11T08:36:46Z</time>
      </trkpt>
      <trkpt lat="45.93728" lon="4.63445">
        <ele>343.231812</ele>
        <time>2016-09-11T08:36:48Z</time>
      </trkpt>
      <trkpt lat="45.93729" lon="4.63457">
        <ele>342.235779</ele>
        <time>2016-09-11T08:36:50Z</time>
      </trkpt>
      <trkpt lat="45.93728" lon="4.63469">
        <ele>341.612854</ele>
        <time>2016-09-11T08:36:52Z</time>
      </trkpt>
      <trkpt lat="45.93728" lon="4.63481">
        <ele>340.863647</ele>
        <time>2016-09-11T08:36:54Z</time>
      </trkpt>
      <trkpt lat="45.93728" lon="4.63495">
        <ele>340.142212</ele>
        <time>2016-09-11T08:36:56Z</time>
      </trkpt>
      <trkpt lat="45.93728" lon="4.63509">
        <ele>339.8703</ele>
        <time>2016-09-11T08:36:58Z</time>
      </trkpt>
      <trkpt lat="45.93728" lon="4.63524">
        <ele>339.350281</ele>
        <time>2016-09-11T08:37:00Z</time>
      </trkpt>
      <trkpt lat="45.93728" lon="4.63539">
        <ele>338.560425</ele>
        <time>2016-09-11T08:37:02Z</time>
      </trkpt>
      <trkpt lat="45.93728" lon="4.63554">
        <ele>337.876648</ele>
        <time>2016-09-11T08:37:04Z</time>
      </trkpt>
      <trkpt lat="45.93727" lon="4.63569">
        <ele>337.585999</ele>
        <time>2016-09-11T08:37:06Z</time>
      </trkpt>
      <trkpt lat="45.93726" lon="4.63585">
        <ele>337.583252</ele>
        <time>2016-09-11T08:37:08Z</time>
      </trkpt>
      <trkpt lat="45.93725" lon="4.636">
        <ele>337.524597</ele>
        <time>2016-09-11T08:37:10Z</time>
      </trkpt>
      <trkpt lat="45.93724" lon="4.63616">
        <ele>337.13739</ele>
        <time>2016-09-11T08:37:12Z</time>
      </trkpt>
      <trkpt lat="45.93721" lon="4.63631">
        <ele>337.030029</ele>
        <time>2016-09-11T08:37:14Z</time>
      </trkpt>
      <trkpt lat="45.93719" lon="4.63647">
        <ele>336.848297</ele>
        <time>2016-09-11T08:37:16Z</time>
      </trkpt>
      <trkpt lat="45.93717" lon="4.63664">
        <ele>337.09198</ele>
        <time>2016-09-11T08:37:18Z</time>
      </trkpt>
      <trkpt lat="45.93716" lon="4.63682">
        <ele>336.841705</ele>
        <time>2016-09-11T08:37:20Z</time>
      </trkpt>
      <trkpt lat="45.93713" lon="4.63701">
        <ele>336.52301</ele>
        <time>2016-09-11T08:37:22Z</time>
      </trkpt>
      <trkpt lat="45.93712" lon="4.63721">
        <ele>336.20639</ele>
        <time>2016-09-11T08:37:24Z</time>
      </trkpt>
      <trkpt lat="45.93709" lon="4.63741">
        <ele>336.101563</ele>
        <time>2016-09-11T08:37:26Z</time>
      </trkpt>
      <trkpt lat="45.93707" lon="4.63762">
        <ele>335.865875</ele>
        <time>2016-09-11T08:37:28Z</time>
      </trkpt>
      <trkpt lat="45.93705" lon="4.63784">
        <ele>335.637146</ele>
        <time>2016-09-11T08:37:30Z</time>
      </trkpt>
      <trkpt lat="45.93703" lon="4.63805">
        <ele>335.519592</ele>
        <time>2016-09-11T08:37:32Z</time>
      </trkpt>
      <trkpt lat="45.937" lon="4.63827">
        <ele>335.094055</ele>
        <time>2016-09-11T08:37:34Z</time>
      </trkpt>
      <trkpt lat="45.93696" lon="4.63849">
        <ele>334.580994</ele>
        <time>2016-09-11T08:37:36Z</time>
      </trkpt>
      <trkpt lat="45.93694" lon="4.63869">
        <ele>334.240967</ele>
        <time>2016-09-11T08:37:38Z</time>
      </trkpt>
      <trkpt lat="45.93698" lon="4.63887">
        <ele>333.698883</ele>
        <time>2016-09-11T08:37:40Z</time>
      </trkpt>
      <trkpt lat="45.93707" lon="4.63901">
        <ele>333.162201</ele>
        <time>2016-09-11T08:37:42Z</time>
      </trkpt>
      <trkpt lat="45.9372" lon="4.63904">
        <ele>332.734528</ele>
        <time>2016-09-11T08:37:44Z</time>
      </trkpt>
      <trkpt lat="45.93732" lon="4.639">
        <ele>331.907074</ele>
        <time>2016-09-11T08:37:46Z</time>
      </trkpt>
      <trkpt lat="45.93744" lon="4.63893">
        <ele>331.222534</ele>
        <time>2016-09-11T08:37:48Z</time>
      </trkpt>
      <trkpt lat="45.93756" lon="4.63887">
        <ele>330.744965</ele>
        <time>2016-09-11T08:37:50Z</time>
      </trkpt>
      <trkpt lat="45.93768" lon="4.63879">
        <ele>329.729828</ele>
        <time>2016-09-11T08:37:52Z</time>
      </trkpt>
      <trkpt lat="45.93781" lon="4.63872">
        <ele>329.281067</ele>
        <time>2016-09-11T08:37:54Z</time>
      </trkpt>
      <trkpt lat="45.93793" lon="4.6387">
        <ele>328.746979</ele>
        <time>2016-09-11T08:37:56Z</time>
      </trkpt>
      <trkpt lat="45.93805" lon="4.63876">
        <ele>327.945862</ele>
        <time>2016-09-11T08:37:58Z</time>
      </trkpt>
      <trkpt lat="45.93819" lon="4.6388">
        <ele>327.054657</ele>
        <time>2016-09-11T08:38:00Z</time>
      </trkpt>
      <trkpt lat="45.93835" lon="4.63881">
        <ele>326.26828</ele>
        <time>2016-09-11T08:38:02Z</time>
      </trkpt>
      <trkpt lat="45.9385" lon="4.63883">
        <ele>325.847229</ele>
        <time>2016-09-11T08:38:04Z</time>
      </trkpt>
      <trkpt lat="45.93864" lon="4.63886">
        <ele>325.288971</ele>
        <time>2016-09-11T08:38:06Z</time>
      </trkpt>
      <trkpt lat="45.93874" lon="4.63896">
        <ele>324.814972</ele>
        <time>2016-09-11T08:38:08Z</time>
      </trkpt>
      <trkpt lat="45.93882" lon="4.63911">
        <ele>324.107849</ele>
        <time>2016-09-11T08:38:10Z</time>
      </trkpt>
      <trkpt lat="45.93891" lon="4.63928">
        <ele>322.861725</ele>
        <time>2016-09-11T08:38:12Z</time>
      </trkpt>
      <trkpt lat="45.93901" lon="4.63948">
        <ele>321.811035</ele>
        <time>2016-09-11T08:38:14Z</time>
      </trkpt>
      <trkpt lat="45.93912" lon="4.63967">
        <ele>320.97171</ele>
        <time>2016-09-11T08:38:16Z</time>
      </trkpt>
      <trkpt lat="45.93922" lon="4.63985">
        <ele>320.115479</ele>
        <time>2016-09-11T08:38:18Z</time>
      </trkpt>
      <trkpt lat="45.93932" lon="4.64001">
        <ele>319.120605</ele>
        <time>2016-09-11T08:38:20Z</time>
      </trkpt>
      <trkpt lat="45.93942" lon="4.64017">
        <ele>318.572357</ele>
        <time>2016-09-11T08:38:22Z</time>
      </trkpt>
      <trkpt lat="45.93951" lon="4.64032">
        <ele>317.790741</ele>
        <time>2016-09-11T08:38:24Z</time>
      </trkpt>
      <trkpt lat="45.93961" lon="4.64047">
        <ele>316.450226</ele>
        <time>2016-09-11T08:38:26Z</time>
      </trkpt>
      <trkpt lat="45.93972" lon="4.64061">
        <ele>315.106537</ele>
        <time>2016-09-11T08:38:28Z</time>
      </trkpt>
      <trkpt lat="45.93982" lon="4.64075">
        <ele>313.677155</ele>
        <time>2016-09-11T08:38:30Z</time>
      </trkpt>
      <trkpt lat="45.93991" lon="4.64089">
        <ele>312.453918</ele>
        <time>2016-09-11T08:38:32Z</time>
      </trkpt>
      <trkpt lat="45.93999" lon="4.64105">
        <ele>312.573242</ele>
        <time>2016-09-11T08:38:34Z</time>
      </trkpt>
      <trkpt lat="45.94004" lon="4.64119">
        <ele>310.897247</ele>
        <time>2016-09-11T08:38:36Z</time>
      </trkpt>
      <trkpt lat="45.94009" lon="4.64127">
        <ele>309.198914</ele>
        <time>2016-09-11T08:38:38Z</time>
      </trkpt>
      <trkpt lat="45.94012" lon="4.6413">
        <ele>308.434845</ele>
        <time>2016-09-11T08:38:40Z</time>
      </trkpt>
      <trkpt lat="45.94013" lon="4.64133">
        <ele>307.392029</ele>
        <time>2016-09-11T08:38:42Z</time>
      </trkpt>
      <trkpt lat="45.94015" lon="4.64136">
        <ele>298.998962</ele>
        <time>2016-09-11T08:38:58Z</time>
      </trkpt>
      <trkpt lat="45.94017" lon="4.64142">
        <ele>298.301666</ele>
        <time>2016-09-11T08:39:00Z</time>
      </trkpt>
      <trkpt lat="45.94019" lon="4.64144">
        <ele>297.628357</ele>
        <time>2016-09-11T08:39:02Z</time>
      </trkpt>
      <trkpt lat="45.94021" lon="4.64147">
        <ele>296.87973</ele>
        <time>2016-09-11T08:39:04Z</time>
      </trkpt>
      <trkpt lat="45.94024" lon="4.6415">
        <ele>296.208282</ele>
        <time>2016-09-11T08:39:06Z</time>
      </trkpt>
      <trkpt lat="45.94025" lon="4.64154">
        <ele>295.673096</ele>
        <time>2016-09-11T08:39:08Z</time>
      </trkpt>
      <trkpt lat="45.94028" lon="4.64157">
        <ele>295.815735</ele>
        <time>2016-09-11T08:39:10Z</time>
      </trkpt>
      <trkpt lat="45.9403" lon="4.64161">
        <ele>295.781616</ele>
        <time>2016-09-11T08:39:12Z</time>
      </trkpt>
      <trkpt lat="45.94032" lon="4.64165">
        <ele>294.722931</ele>
        <time>2016-09-11T08:39:14Z</time>
      </trkpt>
      <trkpt lat="45.94035" lon="4.64169">
        <ele>294.395233</ele>
        <time>2016-09-11T08:39:16Z</time>
      </trkpt>
      <trkpt lat="45.94038" lon="4.64171">
        <ele>294.824097</ele>
        <time>2016-09-11T08:39:18Z</time>
      </trkpt>
      <trkpt lat="45.9404" lon="4.64172">
        <ele>295.113892</ele>
        <time>2016-09-11T08:39:20Z</time>
      </trkpt>
      <trkpt lat="45.94042" lon="4.64172">
        <ele>295.331726</ele>
        <time>2016-09-11T08:39:24Z</time>
      </trkpt>
      <trkpt lat="45.94043" lon="4.64172">
        <ele>295.297668</ele>
        <time>2016-09-11T08:39:26Z</time>
      </trkpt>
      <trkpt lat="45.94045" lon="4.64171">
        <ele>295.532501</ele>
        <time>2016-09-11T08:39:28Z</time>
      </trkpt>
      <trkpt lat="45.94046" lon="4.6417">
        <ele>295.624084</ele>
        <time>2016-09-11T08:39:30Z</time>
      </trkpt>
      <trkpt lat="45.94047" lon="4.6417">
        <ele>295.773254</ele>
        <time>2016-09-11T08:39:32Z</time>
      </trkpt>
      <trkpt lat="45.94048" lon="4.64169">
        <ele>296.031128</ele>
        <time>2016-09-11T08:39:34Z</time>
      </trkpt>
      <trkpt lat="45.9405" lon="4.64168">
        <ele>296.340363</ele>
        <time>2016-09-11T08:39:36Z</time>
      </trkpt>
      <trkpt lat="45.94051" lon="4.64167">
        <ele>296.666443</ele>
        <time>2016-09-11T08:39:38Z</time>
      </trkpt>
      <trkpt lat="45.94053" lon="4.64166">
        <ele>296.973328</ele>
        <time>2016-09-11T08:39:40Z</time>
      </trkpt>
      <trkpt lat="45.94056" lon="4.64165">
        <ele>297.271851</ele>
        <time>2016-09-11T08:39:42Z</time>
      </trkpt>
      <trkpt lat="45.94058" lon="4.64164">
        <ele>297.746887</ele>
        <time>2016-09-11T08:39:44Z</time>
      </trkpt>
      <trkpt lat="45.94059" lon="4.64163">
        <ele>297.887512</ele>
        <time>2016-09-11T08:39:46Z</time>
      </trkpt>
      <trkpt lat="45.94061" lon="4.64162">
        <ele>298.305298</ele>
        <time>2016-09-11T08:39:48Z</time>
      </trkpt>
      <trkpt lat="45.94064" lon="4.64161">
        <ele>298.671906</ele>
        <time>2016-09-11T08:39:50Z</time>
      </trkpt>
      <trkpt lat="45.94067" lon="4.64161">
        <ele>299.142883</ele>
        <time>2016-09-11T08:39:52Z</time>
      </trkpt>
      <trkpt lat="45.94069" lon="4.6416">
        <ele>299.603271</ele>
        <time>2016-09-11T08:39:54Z</time>
      </trkpt>
      <trkpt lat="45.94071" lon="4.64161">
        <ele>300.587158</ele>
        <time>2016-09-11T08:40:00Z</time>
      </trkpt>
      <trkpt lat="45.94073" lon="4.64162">
        <ele>300.900513</ele>
        <time>2016-09-11T08:40:02Z</time>
      </trkpt>
      <trkpt lat="45.94075" lon="4.64162">
        <ele>301.16272</ele>
        <time>2016-09-11T08:40:04Z</time>
      </trkpt>
      <trkpt lat="45.94076" lon="4.64164">
        <ele>301.6521</ele>
        <time>2016-09-11T08:40:06Z</time>
      </trkpt>
      <trkpt lat="45.94078" lon="4.64164">
        <ele>302.180389</ele>
        <time>2016-09-11T08:40:10Z</time>
      </trkpt>
      <trkpt lat="45.9408" lon="4.64165">
        <ele>302.474548</ele>
        <time>2016-09-11T08:40:12Z</time>
      </trkpt>
      <trkpt lat="45.94082" lon="4.64166">
        <ele>302.638733</ele>
        <time>2016-09-11T08:40:14Z</time>
      </trkpt>
      <trkpt lat="45.94085" lon="4.64167">
        <ele>302.805756</ele>
        <time>2016-09-11T08:40:16Z</time>
      </trkpt>
      <trkpt lat="45.94088" lon="4.64168">
        <ele>302.89743</ele>
        <time>2016-09-11T08:40:18Z</time>
      </trkpt>
      <trkpt lat="45.94091" lon="4.64168">
        <ele>303.023254</ele>
        <time>2016-09-11T08:40:20Z</time>
      </trkpt>
      <trkpt lat="45.94095" lon="4.64168">
        <ele>303.200226</ele>
        <time>2016-09-11T08:40:22Z</time>
      </trkpt>
      <trkpt lat="45.94098" lon="4.64169">
        <ele>303.424072</ele>
        <time>2016-09-11T08:40:24Z</time>
      </trkpt>
      <trkpt lat="45.94102" lon="4.64171">
        <ele>303.355835</ele>
        <time>2016-09-11T08:40:26Z</time>
      </trkpt>
      <trkpt lat="45.94106" lon="4.64174">
        <ele>303.628143</ele>
        <time>2016-09-11T08:40:28Z</time>
      </trkpt>
      <trkpt lat="45.9411" lon="4.64177">
        <ele>303.933105</ele>
        <time>2016-09-11T08:40:30Z</time>
      </trkpt>
      <trkpt lat="45.94115" lon="4.64181">
        <ele>304.050415</ele>
        <time>2016-09-11T08:40:32Z</time>
      </trkpt>
      <trkpt lat="45.9412" lon="4.64185">
        <ele>304.346863</ele>
        <time>2016-09-11T08:40:34Z</time>
      </trkpt>
      <trkpt lat="45.94125" lon="4.64188">
        <ele>304.255249</ele>
        <time>2016-09-11T08:40:36Z</time>
      </trkpt>
      <trkpt lat="45.9413" lon="4.64191">
        <ele>304.355499</ele>
        <time>2016-09-11T08:40:38Z</time>
      </trkpt>
      <trkpt lat="45.94134" lon="4.64195">
        <ele>304.327759</ele>
        <time>2016-09-11T08:40:40Z</time>
      </trkpt>
      <trkpt lat="45.9414" lon="4.642">
        <ele>304.357635</ele>
        <time>2016-09-11T08:40:42Z</time>
      </trkpt>
      <trkpt lat="45.94146" lon="4.64202">
        <ele>304.490448</ele>
        <time>2016-09-11T08:40:44Z</time>
      </trkpt>
      <trkpt lat="45.94152" lon="4.64204">
        <ele>304.503235</ele>
        <time>2016-09-11T08:40:46Z</time>
      </trkpt>
      <trkpt lat="45.94158" lon="4.64206">
        <ele>304.644653</ele>
        <time>2016-09-11T08:40:48Z</time>
      </trkpt>
      <trkpt lat="45.94164" lon="4.64208">
        <ele>304.749146</ele>
        <time>2016-09-11T08:40:50Z</time>
      </trkpt>
      <trkpt lat="45.9417" lon="4.64209">
        <ele>304.749146</ele>
        <time>2016-09-11T08:40:52Z</time>
      </trkpt>
      <trkpt lat="45.94176" lon="4.6421">
        <ele>304.874969</ele>
        <time>2016-09-11T08:40:54Z</time>
      </trkpt>
      <trkpt lat="45.94182" lon="4.64211">
        <ele>304.942261</ele>
        <time>2016-09-11T08:40:56Z</time>
      </trkpt>
      <trkpt lat="45.94188" lon="4.64211">
        <ele>305.04364</ele>
        <time>2016-09-11T08:40:58Z</time>
      </trkpt>
      <trkpt lat="45.94194" lon="4.6421">
        <ele>305.169495</ele>
        <time>2016-09-11T08:41:00Z</time>
      </trkpt>
      <trkpt lat="45.94201" lon="4.6421">
        <ele>305.346497</ele>
        <time>2016-09-11T08:41:02Z</time>
      </trkpt>
      <trkpt lat="45.94206" lon="4.6421">
        <ele>305.412628</ele>
        <time>2016-09-11T08:41:04Z</time>
      </trkpt>
      <trkpt lat="45.94212" lon="4.64211">
        <ele>305.510742</ele>
        <time>2016-09-11T08:41:06Z</time>
      </trkpt>
      <trkpt lat="45.94218" lon="4.64212">
        <ele>305.604553</ele>
        <time>2016-09-11T08:41:08Z</time>
      </trkpt>
      <trkpt lat="45.94223" lon="4.64212">
        <ele>305.694641</ele>
        <time>2016-09-11T08:41:10Z</time>
      </trkpt>
      <trkpt lat="45.94228" lon="4.64214">
        <ele>305.596497</ele>
        <time>2016-09-11T08:41:12Z</time>
      </trkpt>
      <trkpt lat="45.94234" lon="4.64217">
        <ele>305.615692</ele>
        <time>2016-09-11T08:41:14Z</time>
      </trkpt>
      <trkpt lat="45.94239" lon="4.6422">
        <ele>305.470642</ele>
        <time>2016-09-11T08:41:16Z</time>
      </trkpt>
      <trkpt lat="45.94245" lon="4.64221">
        <ele>305.820374</ele>
        <time>2016-09-11T08:41:18Z</time>
      </trkpt>
      <trkpt lat="45.94251" lon="4.64223">
        <ele>305.905701</ele>
        <time>2016-09-11T08:41:20Z</time>
      </trkpt>
      <trkpt lat="45.94257" lon="4.64225">
        <ele>306.191467</ele>
        <time>2016-09-11T08:41:22Z</time>
      </trkpt>
      <trkpt lat="45.94263" lon="4.64228">
        <ele>306.233521</ele>
        <time>2016-09-11T08:41:24Z</time>
      </trkpt>
      <trkpt lat="45.94269" lon="4.6423">
        <ele>306.438293</ele>
        <time>2016-09-11T08:41:26Z</time>
      </trkpt>
      <trkpt lat="45.94275" lon="4.64231">
        <ele>306.575317</ele>
        <time>2016-09-11T08:41:28Z</time>
      </trkpt>
      <trkpt lat="45.9428" lon="4.64233">
        <ele>306.72464</ele>
        <time>2016-09-11T08:41:30Z</time>
      </trkpt>
      <trkpt lat="45.94286" lon="4.64235">
        <ele>306.92511</ele>
        <time>2016-09-11T08:41:32Z</time>
      </trkpt>
      <trkpt lat="45.94291" lon="4.64235">
        <ele>306.980621</ele>
        <time>2016-09-11T08:41:34Z</time>
      </trkpt>
      <trkpt lat="45.94296" lon="4.64232">
        <ele>307.262207</ele>
        <time>2016-09-11T08:41:36Z</time>
      </trkpt>
      <trkpt lat="45.94298" lon="4.64226">
        <ele>307.380707</ele>
        <time>2016-09-11T08:41:38Z</time>
      </trkpt>
      <trkpt lat="45.94299" lon="4.64221">
        <ele>307.54068</ele>
        <time>2016-09-11T08:41:40Z</time>
      </trkpt>
      <trkpt lat="45.94301" lon="4.64215">
        <ele>307.698547</ele>
        <time>2016-09-11T08:41:42Z</time>
      </trkpt>
      <trkpt lat="45.94302" lon="4.64208">
        <ele>307.72876</ele>
        <time>2016-09-11T08:41:44Z</time>
      </trkpt>
      <trkpt lat="45.94303" lon="4.642">
        <ele>307.982666</ele>
        <time>2016-09-11T08:41:46Z</time>
      </trkpt>
      <trkpt lat="45.94305" lon="4.64193">
        <ele>308.134125</ele>
        <time>2016-09-11T08:41:48Z</time>
      </trkpt>
      <trkpt lat="45.94306" lon="4.64186">
        <ele>308.443542</ele>
        <time>2016-09-11T08:41:50Z</time>
      </trkpt>
      <trkpt lat="45.94307" lon="4.64178">
        <ele>308.580048</ele>
        <time>2016-09-11T08:41:52Z</time>
      </trkpt>
      <trkpt lat="45.94309" lon="4.6417">
        <ele>308.870178</ele>
        <time>2016-09-11T08:41:54Z</time>
      </trkpt>
      <trkpt lat="45.9431" lon="4.64163">
        <ele>309.189758</ele>
        <time>2016-09-11T08:41:56Z</time>
      </trkpt>
      <trkpt lat="45.94311" lon="4.64155">
        <ele>309.43158</ele>
        <time>2016-09-11T08:41:58Z</time>
      </trkpt>
      <trkpt lat="45.94313" lon="4.64147">
        <ele>309.62146</ele>
        <time>2016-09-11T08:42:00Z</time>
      </trkpt>
      <trkpt lat="45.94314" lon="4.6414">
        <ele>309.81134</ele>
        <time>2016-09-11T08:42:02Z</time>
      </trkpt>
      <trkpt lat="45.94315" lon="4.64133">
        <ele>310.11145</ele>
        <time>2016-09-11T08:42:04Z</time>
      </trkpt>
      <trkpt lat="45.94317" lon="4.64126">
        <ele>310.314178</ele>
        <time>2016-09-11T08:42:06Z</time>
      </trkpt>
      <trkpt lat="45.94318" lon="4.6412">
        <ele>310.502472</ele>
        <time>2016-09-11T08:42:08Z</time>
      </trkpt>
      <trkpt lat="45.94319" lon="4.64113">
        <ele>310.854126</ele>
        <time>2016-09-11T08:42:10Z</time>
      </trkpt>
      <trkpt lat="45.94321" lon="4.64105">
        <ele>311.003479</ele>
        <time>2016-09-11T08:42:12Z</time>
      </trkpt>
      <trkpt lat="45.94322" lon="4.64097">
        <ele>311.261749</ele>
        <time>2016-09-11T08:42:14Z</time>
      </trkpt>
      <trkpt lat="45.94324" lon="4.64089">
        <ele>311.415405</ele>
        <time>2016-09-11T08:42:16Z</time>
      </trkpt>
      <trkpt lat="45.94325" lon="4.64081">
        <ele>311.562531</ele>
        <time>2016-09-11T08:42:18Z</time>
      </trkpt>
      <trkpt lat="45.94326" lon="4.64073">
        <ele>311.895386</ele>
        <time>2016-09-11T08:42:20Z</time>
      </trkpt>
      <trkpt lat="45.94328" lon="4.64065">
        <ele>312.002136</ele>
        <time>2016-09-11T08:42:22Z</time>
      </trkpt>
      <trkpt lat="45.94329" lon="4.64057">
        <ele>312.202576</ele>
        <time>2016-09-11T08:42:24Z</time>
      </trkpt>
      <trkpt lat="45.9433" lon="4.64049">
        <ele>312.427917</ele>
        <time>2016-09-11T08:42:26Z</time>
      </trkpt>
      <trkpt lat="45.94332" lon="4.64041">
        <ele>312.722382</ele>
        <time>2016-09-11T08:42:28Z</time>
      </trkpt>
      <trkpt lat="45.94333" lon="4.64033">
        <ele>313.119415</ele>
        <time>2016-09-11T08:42:30Z</time>
      </trkpt>
      <trkpt lat="45.94334" lon="4.64026">
        <ele>313.328644</ele>
        <time>2016-09-11T08:42:32Z</time>
      </trkpt>
      <trkpt lat="45.94337" lon="4.64021">
        <ele>313.480164</ele>
        <time>2016-09-11T08:42:34Z</time>
      </trkpt>
      <trkpt lat="45.94341" lon="4.64021">
        <ele>313.627411</ele>
        <time>2016-09-11T08:42:36Z</time>
      </trkpt>
      <trkpt lat="45.94343" lon="4.64027">
        <ele>313.898743</ele>
        <time>2016-09-11T08:42:38Z</time>
      </trkpt>
      <trkpt lat="45.94346" lon="4.64034">
        <ele>313.969482</ele>
        <time>2016-09-11T08:42:40Z</time>
      </trkpt>
      <trkpt lat="45.94349" lon="4.6404">
        <ele>314.153015</ele>
        <time>2016-09-11T08:42:42Z</time>
      </trkpt>
      <trkpt lat="45.94352" lon="4.64045">
        <ele>314.296051</ele>
        <time>2016-09-11T08:42:44Z</time>
      </trkpt>
      <trkpt lat="45.94355" lon="4.64049">
        <ele>314.497467</ele>
        <time>2016-09-11T08:42:46Z</time>
      </trkpt>
      <trkpt lat="45.94357" lon="4.64053">
        <ele>314.561462</ele>
        <time>2016-09-11T08:42:48Z</time>
      </trkpt>
      <trkpt lat="45.94359" lon="4.64057">
        <ele>314.637451</ele>
        <time>2016-09-11T08:42:50Z</time>
      </trkpt>
      <trkpt lat="45.9436" lon="4.64062">
        <ele>314.513611</ele>
        <time>2016-09-11T08:42:52Z</time>
      </trkpt>
      <trkpt lat="45.94363" lon="4.64065">
        <ele>314.562683</ele>
        <time>2016-09-11T08:42:54Z</time>
      </trkpt>
      <trkpt lat="45.94365" lon="4.64071">
        <ele>314.430328</ele>
        <time>2016-09-11T08:42:56Z</time>
      </trkpt>
      <trkpt lat="45.94367" lon="4.64076">
        <ele>314.562653</ele>
        <time>2016-09-11T08:42:58Z</time>
      </trkpt>
      <trkpt lat="45.9437" lon="4.64082">
        <ele>314.596252</ele>
        <time>2016-09-11T08:43:00Z</time>
      </trkpt>
      <trkpt lat="45.94373" lon="4.64088">
        <ele>314.451111</ele>
        <time>2016-09-11T08:43:02Z</time>
      </trkpt>
      <trkpt lat="45.94376" lon="4.64094">
        <ele>314.406311</ele>
        <time>2016-09-11T08:43:04Z</time>
      </trkpt>
      <trkpt lat="45.94379" lon="4.64101">
        <ele>314.421051</ele>
        <time>2016-09-11T08:43:06Z</time>
      </trkpt>
      <trkpt lat="45.94382" lon="4.64108">
        <ele>314.547852</ele>
        <time>2016-09-11T08:43:08Z</time>
      </trkpt>
      <trkpt lat="45.94386" lon="4.64115">
        <ele>314.166016</ele>
        <time>2016-09-11T08:43:10Z</time>
      </trkpt>
      <trkpt lat="45.9439" lon="4.64123">
        <ele>313.839447</ele>
        <time>2016-09-11T08:43:12Z</time>
      </trkpt>
      <trkpt lat="45.94394" lon="4.64131">
        <ele>313.589661</ele>
        <time>2016-09-11T08:43:14Z</time>
      </trkpt>
      <trkpt lat="45.94399" lon="4.6414">
        <ele>313.416687</ele>
        <time>2016-09-11T08:43:16Z</time>
      </trkpt>
      <trkpt lat="45.94403" lon="4.64149">
        <ele>313.015015</ele>
        <time>2016-09-11T08:43:18Z</time>
      </trkpt>
      <trkpt lat="45.94408" lon="4.64159">
        <ele>312.632996</ele>
        <time>2016-09-11T08:43:20Z</time>
      </trkpt>
      <trkpt lat="45.94413" lon="4.6417">
        <ele>312.718689</ele>
        <time>2016-09-11T08:43:22Z</time>
      </trkpt>
      <trkpt lat="45.94418" lon="4.64181">
        <ele>312.445496</ele>
        <time>2016-09-11T08:43:24Z</time>
      </trkpt>
      <trkpt lat="45.94424" lon="4.64192">
        <ele>312.126801</ele>
        <time>2016-09-11T08:43:26Z</time>
      </trkpt>
      <trkpt lat="45.9443" lon="4.64203">
        <ele>311.700287</ele>
        <time>2016-09-11T08:43:28Z</time>
      </trkpt>
      <trkpt lat="45.94436" lon="4.64216">
        <ele>311.360992</ele>
        <time>2016-09-11T08:43:30Z</time>
      </trkpt>
      <trkpt lat="45.94442" lon="4.64228">
        <ele>311.03418</ele>
        <time>2016-09-11T08:43:32Z</time>
      </trkpt>
      <trkpt lat="45.94449" lon="4.64241">
        <ele>311.360901</ele>
        <time>2016-09-11T08:43:34Z</time>
      </trkpt>
      <trkpt lat="45.94455" lon="4.64253">
        <ele>311.051605</ele>
        <time>2016-09-11T08:43:36Z</time>
      </trkpt>
      <trkpt lat="45.94461" lon="4.64266">
        <ele>310.364258</ele>
        <time>2016-09-11T08:43:38Z</time>
      </trkpt>
      <trkpt lat="45.94467" lon="4.64278">
        <ele>309.861572</ele>
        <time>2016-09-11T08:43:40Z</time>
      </trkpt>
      <trkpt lat="45.94474" lon="4.64291">
        <ele>309.144928</ele>
        <time>2016-09-11T08:43:42Z</time>
      </trkpt>
      <trkpt lat="45.94482" lon="4.64305">
        <ele>308.805756</ele>
        <time>2016-09-11T08:43:44Z</time>
      </trkpt>
      <trkpt lat="45.94489" lon="4.64318">
        <ele>308.155182</ele>
        <time>2016-09-11T08:43:46Z</time>
      </trkpt>
      <trkpt lat="45.94497" lon="4.64333">
        <ele>307.993073</ele>
        <time>2016-09-11T08:43:48Z</time>
      </trkpt>
      <trkpt lat="45.94503" lon="4.64348">
        <ele>307.447937</ele>
        <time>2016-09-11T08:43:50Z</time>
      </trkpt>
      <trkpt lat="45.9451" lon="4.64363">
        <ele>307.477661</ele>
        <time>2016-09-11T08:43:52Z</time>
      </trkpt>
      <trkpt lat="45.94516" lon="4.64378">
        <ele>307.091583</ele>
        <time>2016-09-11T08:43:54Z</time>
      </trkpt>
      <trkpt lat="45.94522" lon="4.64394">
        <ele>306.511414</ele>
        <time>2016-09-11T08:43:56Z</time>
      </trkpt>
      <trkpt lat="45.94528" lon="4.6441">
        <ele>306.138245</ele>
        <time>2016-09-11T08:43:58Z</time>
      </trkpt>
      <trkpt lat="45.94532" lon="4.64426">
        <ele>305.846832</ele>
        <time>2016-09-11T08:44:00Z</time>
      </trkpt>
      <trkpt lat="45.94536" lon="4.64442">
        <ele>305.77002</ele>
        <time>2016-09-11T08:44:02Z</time>
      </trkpt>
      <trkpt lat="45.94539" lon="4.64458">
        <ele>305.326172</ele>
        <time>2016-09-11T08:44:04Z</time>
      </trkpt>
      <trkpt lat="45.94541" lon="4.64475">
        <ele>304.940979</ele>
        <time>2016-09-11T08:44:06Z</time>
      </trkpt>
      <trkpt lat="45.94541" lon="4.64492">
        <ele>304.435944</ele>
        <time>2016-09-11T08:44:08Z</time>
      </trkpt>
      <trkpt lat="45.94542" lon="4.64508">
        <ele>304.030518</ele>
        <time>2016-09-11T08:44:10Z</time>
      </trkpt>
      <trkpt lat="45.94542" lon="4.64525">
        <ele>303.791077</ele>
        <time>2016-09-11T08:44:12Z</time>
      </trkpt>
      <trkpt lat="45.94543" lon="4.64543">
        <ele>303.384583</ele>
        <time>2016-09-11T08:44:14Z</time>
      </trkpt>
      <trkpt lat="45.94543" lon="4.64561">
        <ele>302.491119</ele>
        <time>2016-09-11T08:44:16Z</time>
      </trkpt>
      <trkpt lat="45.94543" lon="4.64581">
        <ele>302.109375</ele>
        <time>2016-09-11T08:44:18Z</time>
      </trkpt>
      <trkpt lat="45.94543" lon="4.646">
        <ele>302.095612</ele>
        <time>2016-09-11T08:44:20Z</time>
      </trkpt>
      <trkpt lat="45.94542" lon="4.6462">
        <ele>301.862366</ele>
        <time>2016-09-11T08:44:22Z</time>
      </trkpt>
      <trkpt lat="45.9454" lon="4.64639">
        <ele>301.4086</ele>
        <time>2016-09-11T08:44:24Z</time>
      </trkpt>
      <trkpt lat="45.94538" lon="4.64659">
        <ele>301.173004</ele>
        <time>2016-09-11T08:44:26Z</time>
      </trkpt>
      <trkpt lat="45.94535" lon="4.64678">
        <ele>301.040833</ele>
        <time>2016-09-11T08:44:28Z</time>
      </trkpt>
      <trkpt lat="45.94533" lon="4.64698">
        <ele>300.33844</ele>
        <time>2016-09-11T08:44:30Z</time>
      </trkpt>
      <trkpt lat="45.94531" lon="4.64717">
        <ele>300.052795</ele>
        <time>2016-09-11T08:44:32Z</time>
      </trkpt>
      <trkpt lat="45.94529" lon="4.64737">
        <ele>299.668945</ele>
        <time>2016-09-11T08:44:34Z</time>
      </trkpt>
      <trkpt lat="45.94527" lon="4.64756">
        <ele>299.310791</ele>
        <time>2016-09-11T08:44:36Z</time>
      </trkpt>
      <trkpt lat="45.94527" lon="4.64776">
        <ele>298.887543</ele>
        <time>2016-09-11T08:44:38Z</time>
      </trkpt>
      <trkpt lat="45.94526" lon="4.64794">
        <ele>298.442078</ele>
        <time>2016-09-11T08:44:40Z</time>
      </trkpt>
      <trkpt lat="45.94525" lon="4.64813">
        <ele>297.934967</ele>
        <time>2016-09-11T08:44:42Z</time>
      </trkpt>
      <trkpt lat="45.94524" lon="4.64831">
        <ele>297.456238</ele>
        <time>2016-09-11T08:44:44Z</time>
      </trkpt>
      <trkpt lat="45.94522" lon="4.64849">
        <ele>297.138794</ele>
        <time>2016-09-11T08:44:46Z</time>
      </trkpt>
      <trkpt lat="45.94521" lon="4.64866">
        <ele>296.823334</ele>
        <time>2016-09-11T08:44:48Z</time>
      </trkpt>
      <trkpt lat="45.94522" lon="4.64882">
        <ele>296.97879</ele>
        <time>2016-09-11T08:44:50Z</time>
      </trkpt>
      <trkpt lat="45.94525" lon="4.64898">
        <ele>297.028442</ele>
        <time>2016-09-11T08:44:52Z</time>
      </trkpt>
      <trkpt lat="45.94531" lon="4.64913">
        <ele>296.693939</ele>
        <time>2016-09-11T08:44:54Z</time>
      </trkpt>
      <trkpt lat="45.94535" lon="4.6493">
        <ele>296.412018</ele>
        <time>2016-09-11T08:44:56Z</time>
      </trkpt>
      <trkpt lat="45.94539" lon="4.64947">
        <ele>296.167023</ele>
        <time>2016-09-11T08:44:58Z</time>
      </trkpt>
      <trkpt lat="45.94542" lon="4.64965">
        <ele>295.964722</ele>
        <time>2016-09-11T08:45:00Z</time>
      </trkpt>
      <trkpt lat="45.94544" lon="4.64982">
        <ele>295.667908</ele>
        <time>2016-09-11T08:45:02Z</time>
      </trkpt>
      <trkpt lat="45.94547" lon="4.64999">
        <ele>295.010559</ele>
        <time>2016-09-11T08:45:04Z</time>
      </trkpt>
      <trkpt lat="45.94549" lon="4.65016">
        <ele>295.321564</ele>
        <time>2016-09-11T08:45:06Z</time>
      </trkpt>
      <trkpt lat="45.94552" lon="4.65032">
        <ele>295.055603</ele>
        <time>2016-09-11T08:45:08Z</time>
      </trkpt>
      <trkpt lat="45.94555" lon="4.6505">
        <ele>295.008759</ele>
        <time>2016-09-11T08:45:10Z</time>
      </trkpt>
      <trkpt lat="45.94558" lon="4.65067">
        <ele>295.102478</ele>
        <time>2016-09-11T08:45:12Z</time>
      </trkpt>
      <trkpt lat="45.94562" lon="4.65082">
        <ele>294.998077</ele>
        <time>2016-09-11T08:45:14Z</time>
      </trkpt>
      <trkpt lat="45.94569" lon="4.65096">
        <ele>294.544495</ele>
        <time>2016-09-11T08:45:16Z</time>
      </trkpt>
      <trkpt lat="45.94577" lon="4.65108">
        <ele>294.808807</ele>
        <time>2016-09-11T08:45:18Z</time>
      </trkpt>
      <trkpt lat="45.94584" lon="4.65121">
        <ele>293.857269</ele>
        <time>2016-09-11T08:45:20Z</time>
      </trkpt>
      <trkpt lat="45.94591" lon="4.65135">
        <ele>293.605957</ele>
        <time>2016-09-11T08:45:22Z</time>
      </trkpt>
      <trkpt lat="45.94599" lon="4.65149">
        <ele>293.188629</ele>
        <time>2016-09-11T08:45:24Z</time>
      </trkpt>
      <trkpt lat="45.94607" lon="4.65165">
        <ele>292.656006</ele>
        <time>2016-09-11T08:45:26Z</time>
      </trkpt>
      <trkpt lat="45.94616" lon="4.65182">
        <ele>292.170074</ele>
        <time>2016-09-11T08:45:28Z</time>
      </trkpt>
      <trkpt lat="45.94625" lon="4.652">
        <ele>291.93573</ele>
        <time>2016-09-11T08:45:30Z</time>
      </trkpt>
      <trkpt lat="45.94634" lon="4.65219">
        <ele>290.680634</ele>
        <time>2016-09-11T08:45:32Z</time>
      </trkpt>
      <trkpt lat="45.94644" lon="4.65237">
        <ele>289.795959</ele>
        <time>2016-09-11T08:45:34Z</time>
      </trkpt>
      <trkpt lat="45.94654" lon="4.65254">
        <ele>289.808807</ele>
        <time>2016-09-11T08:45:36Z</time>
      </trkpt>
      <trkpt lat="45.94664" lon="4.65273">
        <ele>289.082794</ele>
        <time>2016-09-11T08:45:38Z</time>
      </trkpt>
      <trkpt lat="45.94674" lon="4.65292">
        <ele>288.850525</ele>
        <time>2016-09-11T08:45:40Z</time>
      </trkpt>
      <trkpt lat="45.94684" lon="4.65312">
        <ele>288.197266</ele>
        <time>2016-09-11T08:45:42Z</time>
      </trkpt>
      <trkpt lat="45.9469" lon="4.65335">
        <ele>287.801331</ele>
        <time>2016-09-11T08:45:44Z</time>
      </trkpt>
      <trkpt lat="45.94695" lon="4.65358">
        <ele>288.050842</ele>
        <time>2016-09-11T08:45:46Z</time>
      </trkpt>
      <trkpt lat="45.94701" lon="4.65382">
        <ele>287.25882</ele>
        <time>2016-09-11T08:45:48Z</time>
      </trkpt>
      <trkpt lat="45.9471" lon="4.65404">
        <ele>286.33139</ele>
        <time>2016-09-11T08:45:50Z</time>
      </trkpt>
      <trkpt lat="45.94719" lon="4.65426">
        <ele>285.509705</ele>
        <time>2016-09-11T08:45:52Z</time>
      </trkpt>
      <trkpt lat="45.94729" lon="4.65447">
        <ele>284.787903</ele>
        <time>2016-09-11T08:45:54Z</time>
      </trkpt>
      <trkpt lat="45.94742" lon="4.65465">
        <ele>283.84259</ele>
        <time>2016-09-11T08:45:56Z</time>
      </trkpt>
      <trkpt lat="45.94756" lon="4.6548">
        <ele>283.853119</ele>
        <time>2016-09-11T08:45:58Z</time>
      </trkpt>
      <trkpt lat="45.94771" lon="4.65494">
        <ele>282.410278</ele>
        <time>2016-09-11T08:46:00Z</time>
      </trkpt>
      <trkpt lat="45.94783" lon="4.65511">
        <ele>282.038208</ele>
        <time>2016-09-11T08:46:02Z</time>
      </trkpt>
      <trkpt lat="45.94795" lon="4.65529">
        <ele>280.923523</ele>
        <time>2016-09-11T08:46:04Z</time>
      </trkpt>
      <trkpt lat="45.94805" lon="4.65549">
        <ele>280.751129</ele>
        <time>2016-09-11T08:46:06Z</time>
      </trkpt>
      <trkpt lat="45.94814" lon="4.65569">
        <ele>280.053375</ele>
        <time>2016-09-11T08:46:08Z</time>
      </trkpt>
      <trkpt lat="45.94824" lon="4.6559">
        <ele>279.470367</ele>
        <time>2016-09-11T08:46:10Z</time>
      </trkpt>
      <trkpt lat="45.94834" lon="4.65609">
        <ele>278.28299</ele>
        <time>2016-09-11T08:46:12Z</time>
      </trkpt>
      <trkpt lat="45.94843" lon="4.65629">
        <ele>277.774902</ele>
        <time>2016-09-11T08:46:14Z</time>
      </trkpt>
      <trkpt lat="45.94852" lon="4.65651">
        <ele>276.90686</ele>
        <time>2016-09-11T08:46:16Z</time>
      </trkpt>
      <trkpt lat="45.94862" lon="4.65672">
        <ele>275.596619</ele>
        <time>2016-09-11T08:46:18Z</time>
      </trkpt>
      <trkpt lat="45.94871" lon="4.65694">
        <ele>274.995972</ele>
        <time>2016-09-11T08:46:20Z</time>
      </trkpt>
      <trkpt lat="45.9488" lon="4.65718">
        <ele>273.512146</ele>
        <time>2016-09-11T08:46:22Z</time>
      </trkpt>
      <trkpt lat="45.9489" lon="4.65742">
        <ele>272.285583</ele>
        <time>2016-09-11T08:46:24Z</time>
      </trkpt>
      <trkpt lat="45.94899" lon="4.65766">
        <ele>271.46106</ele>
        <time>2016-09-11T08:46:26Z</time>
      </trkpt>
      <trkpt lat="45.94909" lon="4.65792">
        <ele>269.670685</ele>
        <time>2016-09-11T08:46:28Z</time>
      </trkpt>
      <trkpt lat="45.94919" lon="4.65818">
        <ele>268.64389</ele>
        <time>2016-09-11T08:46:30Z</time>
      </trkpt>
      <trkpt lat="45.94928" lon="4.65842">
        <ele>268.13205</ele>
        <time>2016-09-11T08:46:32Z</time>
      </trkpt>
      <trkpt lat="45.94938" lon="4.65866">
        <ele>266.745361</ele>
        <time>2016-09-11T08:46:34Z</time>
      </trkpt>
      <trkpt lat="45.94947" lon="4.65888">
        <ele>265.40036</ele>
        <time>2016-09-11T08:46:36Z</time>
      </trkpt>
      <trkpt lat="45.94956" lon="4.65911">
        <ele>264.107697</ele>
        <time>2016-09-11T08:46:38Z</time>
      </trkpt>
      <trkpt lat="45.94965" lon="4.65931">
        <ele>262.038025</ele>
        <time>2016-09-11T08:46:40Z</time>
      </trkpt>
      <trkpt lat="45.94974" lon="4.6595">
        <ele>261.19928</ele>
        <time>2016-09-11T08:46:42Z</time>
      </trkpt>
      <trkpt lat="45.94982" lon="4.65971">
        <ele>260.564301</ele>
        <time>2016-09-11T08:46:44Z</time>
      </trkpt>
      <trkpt lat="45.94989" lon="4.65989">
        <ele>259.804138</ele>
        <time>2016-09-11T08:46:46Z</time>
      </trkpt>
      <trkpt lat="45.94996" lon="4.66006">
        <ele>258.93634</ele>
        <time>2016-09-11T08:46:48Z</time>
      </trkpt>
      <trkpt lat="45.95001" lon="4.66024">
        <ele>258.039886</ele>
        <time>2016-09-11T08:46:50Z</time>
      </trkpt>
      <trkpt lat="45.95004" lon="4.66041">
        <ele>257.200623</ele>
        <time>2016-09-11T08:46:52Z</time>
      </trkpt>
      <trkpt lat="45.95005" lon="4.66057">
        <ele>256.38092</ele>
        <time>2016-09-11T08:46:54Z</time>
      </trkpt>
      <trkpt lat="45.95008" lon="4.66069">
        <ele>256.021515</ele>
        <time>2016-09-11T08:46:56Z</time>
      </trkpt>
      <trkpt lat="45.95012" lon="4.66072">
        <ele>255.166229</ele>
        <time>2016-09-11T08:46:58Z</time>
      </trkpt>
      <trkpt lat="45.95015" lon="4.66069">
        <ele>254.397339</ele>
        <time>2016-09-11T08:47:00Z</time>
      </trkpt>
      <trkpt lat="45.95017" lon="4.66065">
        <ele>253.58078</ele>
        <time>2016-09-11T08:47:02Z</time>
      </trkpt>
      <trkpt lat="45.95019" lon="4.66062">
        <ele>253.306549</ele>
        <time>2016-09-11T08:47:04Z</time>
      </trkpt>
      <trkpt lat="45.95021" lon="4.66059">
        <ele>253.117645</ele>
        <time>2016-09-11T08:47:06Z</time>
      </trkpt>
      <trkpt lat="45.95023" lon="4.66056">
        <ele>252.735428</ele>
        <time>2016-09-11T08:47:08Z</time>
      </trkpt>
      <trkpt lat="45.95025" lon="4.66053">
        <ele>252.724823</ele>
        <time>2016-09-11T08:47:10Z</time>
      </trkpt>
      <trkpt lat="45.95026" lon="4.66049">
        <ele>252.329926</ele>
        <time>2016-09-11T08:47:12Z</time>
      </trkpt>
      <trkpt lat="45.95029" lon="4.66047">
        <ele>252.308716</ele>
        <time>2016-09-11T08:47:14Z</time>
      </trkpt>
      <trkpt lat="45.95031" lon="4.66045">
        <ele>252.515579</ele>
        <time>2016-09-11T08:47:16Z</time>
      </trkpt>
      <trkpt lat="45.95035" lon="4.66044">
        <ele>252.58342</ele>
        <time>2016-09-11T08:47:18Z</time>
      </trkpt>
      <trkpt lat="45.95038" lon="4.66043">
        <ele>252.93045</ele>
        <time>2016-09-11T08:47:20Z</time>
      </trkpt>
      <trkpt lat="45.95041" lon="4.66045">
        <ele>253.421219</ele>
        <time>2016-09-11T08:47:22Z</time>
      </trkpt>
      <trkpt lat="45.95044" lon="4.66047">
        <ele>253.716187</ele>
        <time>2016-09-11T08:47:24Z</time>
      </trkpt>
      <trkpt lat="45.95047" lon="4.66049">
        <ele>254.023849</ele>
        <time>2016-09-11T08:47:26Z</time>
      </trkpt>
      <trkpt lat="45.9505" lon="4.6605">
        <ele>254.276489</ele>
        <time>2016-09-11T08:47:28Z</time>
      </trkpt>
      <trkpt lat="45.95052" lon="4.66052">
        <ele>254.451782</ele>
        <time>2016-09-11T08:47:30Z</time>
      </trkpt>
      <trkpt lat="45.95055" lon="4.66053">
        <ele>254.653442</ele>
        <time>2016-09-11T08:47:32Z</time>
      </trkpt>
      <trkpt lat="45.95058" lon="4.66054">
        <ele>255.101318</ele>
        <time>2016-09-11T08:47:34Z</time>
      </trkpt>
      <trkpt lat="45.95062" lon="4.66056">
        <ele>255.431</ele>
        <time>2016-09-11T08:47:36Z</time>
      </trkpt>
      <trkpt lat="45.95064" lon="4.66057">
        <ele>255.802444</ele>
        <time>2016-09-11T08:47:38Z</time>
      </trkpt>
      <trkpt lat="45.95067" lon="4.66058">
        <ele>256.209961</ele>
        <time>2016-09-11T08:47:40Z</time>
      </trkpt>
      <trkpt lat="45.9507" lon="4.6606">
        <ele>256.424316</ele>
        <time>2016-09-11T08:47:42Z</time>
      </trkpt>
      <trkpt lat="45.95073" lon="4.66062">
        <ele>256.840393</ele>
        <time>2016-09-11T08:47:44Z</time>
      </trkpt>
      <trkpt lat="45.95076" lon="4.66063">
        <ele>257.133636</ele>
        <time>2016-09-11T08:47:46Z</time>
      </trkpt>
      <trkpt lat="45.95079" lon="4.66065">
        <ele>257.560944</ele>
        <time>2016-09-11T08:47:48Z</time>
      </trkpt>
      <trkpt lat="45.95083" lon="4.66067">
        <ele>257.909088</ele>
        <time>2016-09-11T08:47:50Z</time>
      </trkpt>
      <trkpt lat="45.95086" lon="4.66068">
        <ele>258.227478</ele>
        <time>2016-09-11T08:47:52Z</time>
      </trkpt>
      <trkpt lat="45.95089" lon="4.6607">
        <ele>258.560699</ele>
        <time>2016-09-11T08:47:54Z</time>
      </trkpt>
      <trkpt lat="45.95092" lon="4.66071">
        <ele>258.939758</ele>
        <time>2016-09-11T08:47:56Z</time>
      </trkpt>
      <trkpt lat="45.95095" lon="4.66072">
        <ele>259.122498</ele>
        <time>2016-09-11T08:47:58Z</time>
      </trkpt>
      <trkpt lat="45.95099" lon="4.66074">
        <ele>259.416107</ele>
        <time>2016-09-11T08:48:00Z</time>
      </trkpt>
      <trkpt lat="45.95102" lon="4.66075">
        <ele>259.560486</ele>
        <time>2016-09-11T08:48:02Z</time>
      </trkpt>
      <trkpt lat="45.95105" lon="4.66077">
        <ele>259.916565</ele>
        <time>2016-09-11T08:48:04Z</time>
      </trkpt>
      <trkpt lat="45.95108" lon="4.66078">
        <ele>260.222351</ele>
        <time>2016-09-11T08:48:06Z</time>
      </trkpt>
      <trkpt lat="45.95111" lon="4.66079">
        <ele>260.500549</ele>
        <time>2016-09-11T08:48:08Z</time>
      </trkpt>
      <trkpt lat="45.95114" lon="4.66081">
        <ele>260.78891</ele>
        <time>2016-09-11T08:48:10Z</time>
      </trkpt>
      <trkpt lat="45.95117" lon="4.66082">
        <ele>261.065002</ele>
        <time>2016-09-11T08:48:12Z</time>
      </trkpt>
      <trkpt lat="45.9512" lon="4.66083">
        <ele>261.385681</ele>
        <time>2016-09-11T08:48:14Z</time>
      </trkpt>
      <trkpt lat="45.95122" lon="4.66084">
        <ele>261.589569</ele>
        <time>2016-09-11T08:48:16Z</time>
      </trkpt>
      <trkpt lat="45.95125" lon="4.66085">
        <ele>261.855042</ele>
        <time>2016-09-11T08:48:18Z</time>
      </trkpt>
      <trkpt lat="45.95127" lon="4.66083">
        <ele>262.148132</ele>
        <time>2016-09-11T08:48:20Z</time>
      </trkpt>
      <trkpt lat="45.95129" lon="4.6608">
        <ele>262.352936</ele>
        <time>2016-09-11T08:48:22Z</time>
      </trkpt>
      <trkpt lat="45.95129" lon="4.66077">
        <ele>262.512207</ele>
        <time>2016-09-11T08:48:24Z</time>
      </trkpt>
      <trkpt lat="45.95129" lon="4.66073">
        <ele>262.739838</ele>
        <time>2016-09-11T08:48:26Z</time>
      </trkpt>
      <trkpt lat="45.9513" lon="4.66069">
        <ele>263.079651</ele>
        <time>2016-09-11T08:48:28Z</time>
      </trkpt>
      <trkpt lat="45.9513" lon="4.66066">
        <ele>263.393372</ele>
        <time>2016-09-11T08:48:30Z</time>
      </trkpt>
      <trkpt lat="45.9513" lon="4.66062">
        <ele>263.662567</ele>
        <time>2016-09-11T08:48:32Z</time>
      </trkpt>
      <trkpt lat="45.95131" lon="4.66058">
        <ele>264.04068</ele>
        <time>2016-09-11T08:48:34Z</time>
      </trkpt>
      <trkpt lat="45.95131" lon="4.66054">
        <ele>264.436676</ele>
        <time>2016-09-11T08:48:36Z</time>
      </trkpt>
      <trkpt lat="45.95131" lon="4.6605">
        <ele>264.590637</ele>
        <time>2016-09-11T08:48:38Z</time>
      </trkpt>
      <trkpt lat="45.95131" lon="4.66046">
        <ele>264.88739</ele>
        <time>2016-09-11T08:48:40Z</time>
      </trkpt>
      <trkpt lat="45.9513" lon="4.66042">
        <ele>265.084961</ele>
        <time>2016-09-11T08:48:42Z</time>
      </trkpt>
      <trkpt lat="45.9513" lon="4.66039">
        <ele>265.516266</ele>
        <time>2016-09-11T08:48:44Z</time>
      </trkpt>
      <trkpt lat="45.9513" lon="4.66035">
        <ele>265.85199</ele>
        <time>2016-09-11T08:48:46Z</time>
      </trkpt>
      <trkpt lat="45.9513" lon="4.66031">
        <ele>266.215332</ele>
        <time>2016-09-11T08:48:48Z</time>
      </trkpt>
      <trkpt lat="45.9513" lon="4.66027">
        <ele>266.706238</ele>
        <time>2016-09-11T08:48:50Z</time>
      </trkpt>
      <trkpt lat="45.9513" lon="4.66023">
        <ele>267.145691</ele>
        <time>2016-09-11T08:48:52Z</time>
      </trkpt>
      <trkpt lat="45.9513" lon="4.6602">
        <ele>267.604706</ele>
        <time>2016-09-11T08:48:54Z</time>
      </trkpt>
      <trkpt lat="45.95129" lon="4.66016">
        <ele>267.902252</ele>
        <time>2016-09-11T08:48:56Z</time>
      </trkpt>
      <trkpt lat="45.95129" lon="4.66013">
        <ele>268.328247</ele>
        <time>2016-09-11T08:48:58Z</time>
      </trkpt>
      <trkpt lat="45.95129" lon="4.66009">
        <ele>268.800079</ele>
        <time>2016-09-11T08:49:00Z</time>
      </trkpt>
      <trkpt lat="45.95129" lon="4.66005">
        <ele>269.216614</ele>
        <time>2016-09-11T08:49:02Z</time>
      </trkpt>
      <trkpt lat="45.95129" lon="4.66001">
        <ele>269.475891</ele>
        <time>2016-09-11T08:49:04Z</time>
      </trkpt>
      <trkpt lat="45.9513" lon="4.65997">
        <ele>269.915833</ele>
        <time>2016-09-11T08:49:06Z</time>
      </trkpt>
      <trkpt lat="45.9513" lon="4.65993">
        <ele>270.363953</ele>
        <time>2016-09-11T08:49:08Z</time>
      </trkpt>
      <trkpt lat="45.95132" lon="4.65991">
        <ele>270.820892</ele>
        <time>2016-09-11T08:49:10Z</time>
      </trkpt>
      <trkpt lat="45.95134" lon="4.6599">
        <ele>271.14975</ele>
        <time>2016-09-11T08:49:12Z</time>
      </trkpt>
      <trkpt lat="45.95137" lon="4.65991">
        <ele>271.524353</ele>
        <time>2016-09-11T08:49:14Z</time>
      </trkpt>
      <trkpt lat="45.95139" lon="4.65993">
        <ele>271.849335</ele>
        <time>2016-09-11T08:49:16Z</time>
      </trkpt>
      <trkpt lat="45.95142" lon="4.65995">
        <ele>272.116272</ele>
        <time>2016-09-11T08:49:18Z</time>
      </trkpt>
      <trkpt lat="45.95144" lon="4.65998">
        <ele>272.588074</ele>
        <time>2016-09-11T08:49:20Z</time>
      </trkpt>
      <trkpt lat="45.95147" lon="4.66">
        <ele>272.974976</ele>
        <time>2016-09-11T08:49:22Z</time>
      </trkpt>
      <trkpt lat="45.9515" lon="4.66003">
        <ele>273.264099</ele>
        <time>2016-09-11T08:49:24Z</time>
      </trkpt>
      <trkpt lat="45.95152" lon="4.66005">
        <ele>273.537781</ele>
        <time>2016-09-11T08:49:26Z</time>
      </trkpt>
      <trkpt lat="45.95155" lon="4.66008">
        <ele>273.803528</ele>
        <time>2016-09-11T08:49:28Z</time>
      </trkpt>
      <trkpt lat="45.95158" lon="4.66011">
        <ele>274.00769</ele>
        <time>2016-09-11T08:49:30Z</time>
      </trkpt>
      <trkpt lat="45.9516" lon="4.66013">
        <ele>274.064026</ele>
        <time>2016-09-11T08:49:32Z</time>
      </trkpt>
      <trkpt lat="45.95163" lon="4.66016">
        <ele>274.309357</ele>
        <time>2016-09-11T08:49:34Z</time>
      </trkpt>
      <trkpt lat="45.95166" lon="4.66019">
        <ele>274.562439</ele>
        <time>2016-09-11T08:49:36Z</time>
      </trkpt>
      <trkpt lat="45.95168" lon="4.66021">
        <ele>274.849487</ele>
        <time>2016-09-11T08:49:38Z</time>
      </trkpt>
      <trkpt lat="45.95171" lon="4.66024">
        <ele>275.114288</ele>
        <time>2016-09-11T08:49:40Z</time>
      </trkpt>
      <trkpt lat="45.95174" lon="4.66026">
        <ele>275.34613</ele>
        <time>2016-09-11T08:49:42Z</time>
      </trkpt>
      <trkpt lat="45.95176" lon="4.66027">
        <ele>275.720459</ele>
        <time>2016-09-11T08:49:44Z</time>
      </trkpt>
      <trkpt lat="45.95179" lon="4.6603">
        <ele>276.032227</ele>
        <time>2016-09-11T08:49:46Z</time>
      </trkpt>
      <trkpt lat="45.95182" lon="4.66032">
        <ele>276.293823</ele>
        <time>2016-09-11T08:49:48Z</time>
      </trkpt>
      <trkpt lat="45.95184" lon="4.66034">
        <ele>276.440582</ele>
        <time>2016-09-11T08:49:50Z</time>
      </trkpt>
      <trkpt lat="45.95187" lon="4.66035">
        <ele>276.750183</ele>
        <time>2016-09-11T08:49:52Z</time>
      </trkpt>
      <trkpt lat="45.9519" lon="4.66037">
        <ele>277.071716</ele>
        <time>2016-09-11T08:49:54Z</time>
      </trkpt>
      <trkpt lat="45.95193" lon="4.66039">
        <ele>277.473694</ele>
        <time>2016-09-11T08:49:56Z</time>
      </trkpt>
      <trkpt lat="45.95196" lon="4.66042">
        <ele>277.856812</ele>
        <time>2016-09-11T08:49:58Z</time>
      </trkpt>
      <trkpt lat="45.95199" lon="4.66044">
        <ele>278.236786</ele>
        <time>2016-09-11T08:50:00Z</time>
      </trkpt>
      <trkpt lat="45.95203" lon="4.66046">
        <ele>278.594177</ele>
        <time>2016-09-11T08:50:02Z</time>
      </trkpt>
      <trkpt lat="45.95206" lon="4.66049">
        <ele>278.94516</ele>
        <time>2016-09-11T08:50:04Z</time>
      </trkpt>
      <trkpt lat="45.9521" lon="4.66051">
        <ele>279.292145</ele>
        <time>2016-09-11T08:50:06Z</time>
      </trkpt>
      <trkpt lat="45.95213" lon="4.66054">
        <ele>279.579895</ele>
        <time>2016-09-11T08:50:08Z</time>
      </trkpt>
      <trkpt lat="45.95218" lon="4.66056">
        <ele>279.915955</ele>
        <time>2016-09-11T08:50:10Z</time>
      </trkpt>
      <trkpt lat="45.95221" lon="4.66058">
        <ele>280.180847</ele>
        <time>2016-09-11T08:50:12Z</time>
      </trkpt>
      <trkpt lat="45.95224" lon="4.66059">
        <ele>280.541412</ele>
        <time>2016-09-11T08:50:14Z</time>
      </trkpt>
      <trkpt lat="45.95228" lon="4.66061">
        <ele>280.911591</ele>
        <time>2016-09-11T08:50:16Z</time>
      </trkpt>
      <trkpt lat="45.95231" lon="4.66063">
        <ele>281.117981</ele>
        <time>2016-09-11T08:50:18Z</time>
      </trkpt>
      <trkpt lat="45.95235" lon="4.66065">
        <ele>281.443481</ele>
        <time>2016-09-11T08:50:20Z</time>
      </trkpt>
      <trkpt lat="45.95238" lon="4.66067">
        <ele>281.562622</ele>
        <time>2016-09-11T08:50:22Z</time>
      </trkpt>
      <trkpt lat="45.95242" lon="4.66069">
        <ele>281.783905</ele>
        <time>2016-09-11T08:50:24Z</time>
      </trkpt>
      <trkpt lat="45.95245" lon="4.66072">
        <ele>281.947784</ele>
        <time>2016-09-11T08:50:26Z</time>
      </trkpt>
      <trkpt lat="45.95248" lon="4.66075">
        <ele>282.142761</ele>
        <time>2016-09-11T08:50:28Z</time>
      </trkpt>
      <trkpt lat="45.95252" lon="4.66078">
        <ele>282.356995</ele>
        <time>2016-09-11T08:50:30Z</time>
      </trkpt>
      <trkpt lat="45.95256" lon="4.6608">
        <ele>282.574493</ele>
        <time>2016-09-11T08:50:32Z</time>
      </trkpt>
      <trkpt lat="45.9526" lon="4.66084">
        <ele>282.744995</ele>
        <time>2016-09-11T08:50:34Z</time>
      </trkpt>
      <trkpt lat="45.95264" lon="4.66089">
        <ele>282.942902</ele>
        <time>2016-09-11T08:50:36Z</time>
      </trkpt>
      <trkpt lat="45.95268" lon="4.66094">
        <ele>282.966278</ele>
        <time>2016-09-11T08:50:38Z</time>
      </trkpt>
      <trkpt lat="45.95272" lon="4.66099">
        <ele>283.011017</ele>
        <time>2016-09-11T08:50:40Z</time>
      </trkpt>
      <trkpt lat="45.95277" lon="4.66104">
        <ele>283.2034</ele>
        <time>2016-09-11T08:50:42Z</time>
      </trkpt>
      <trkpt lat="45.95281" lon="4.6611">
        <ele>283.380066</ele>
        <time>2016-09-11T08:50:44Z</time>
      </trkpt>
      <trkpt lat="45.95287" lon="4.66117">
        <ele>283.55246</ele>
        <time>2016-09-11T08:50:46Z</time>
      </trkpt>
      <trkpt lat="45.95292" lon="4.66125">
        <ele>283.650177</ele>
        <time>2016-09-11T08:50:48Z</time>
      </trkpt>
      <trkpt lat="45.95297" lon="4.66131">
        <ele>283.882141</ele>
        <time>2016-09-11T08:50:50Z</time>
      </trkpt>
      <trkpt lat="45.95301" lon="4.66137">
        <ele>283.958771</ele>
        <time>2016-09-11T08:50:52Z</time>
      </trkpt>
      <trkpt lat="45.95307" lon="4.66142">
        <ele>284.035431</ele>
        <time>2016-09-11T08:50:54Z</time>
      </trkpt>
      <trkpt lat="45.95314" lon="4.66147">
        <ele>284.126556</ele>
        <time>2016-09-11T08:50:56Z</time>
      </trkpt>
      <trkpt lat="45.95321" lon="4.6615">
        <ele>284.060608</ele>
        <time>2016-09-11T08:50:58Z</time>
      </trkpt>
      <trkpt lat="45.95328" lon="4.66154">
        <ele>284.275574</ele>
        <time>2016-09-11T08:51:00Z</time>
      </trkpt>
      <trkpt lat="45.95335" lon="4.66157">
        <ele>284.354401</ele>
        <time>2016-09-11T08:51:02Z</time>
      </trkpt>
      <trkpt lat="45.95343" lon="4.66161">
        <ele>284.409729</ele>
        <time>2016-09-11T08:51:04Z</time>
      </trkpt>
      <trkpt lat="45.9535" lon="4.66165">
        <ele>284.677979</ele>
        <time>2016-09-11T08:51:06Z</time>
      </trkpt>
      <trkpt lat="45.95358" lon="4.66168">
        <ele>284.836853</ele>
        <time>2016-09-11T08:51:08Z</time>
      </trkpt>
      <trkpt lat="45.95366" lon="4.66172">
        <ele>284.768799</ele>
        <time>2016-09-11T08:51:10Z</time>
      </trkpt>
      <trkpt lat="45.95374" lon="4.66175">
        <ele>284.822662</ele>
        <time>2016-09-11T08:51:12Z</time>
      </trkpt>
      <trkpt lat="45.95381" lon="4.66177">
        <ele>284.829498</ele>
        <time>2016-09-11T08:51:14Z</time>
      </trkpt>
      <trkpt lat="45.95389" lon="4.66179">
        <ele>284.944397</ele>
        <time>2016-09-11T08:51:16Z</time>
      </trkpt>
      <trkpt lat="45.95397" lon="4.6618">
        <ele>284.626617</ele>
        <time>2016-09-11T08:51:18Z</time>
      </trkpt>
      <trkpt lat="45.95406" lon="4.66181">
        <ele>284.501068</ele>
        <time>2016-09-11T08:51:20Z</time>
      </trkpt>
      <trkpt lat="45.95415" lon="4.66182">
        <ele>284.315979</ele>
        <time>2016-09-11T08:51:22Z</time>
      </trkpt>
      <trkpt lat="45.95423" lon="4.66183">
        <ele>284.03717</ele>
        <time>2016-09-11T08:51:24Z</time>
      </trkpt>
      <trkpt lat="45.95428" lon="4.66183">
        <ele>283.713684</ele>
        <time>2016-09-11T08:51:26Z</time>
      </trkpt>
      <trkpt lat="45.95433" lon="4.66184">
        <ele>283.468903</ele>
        <time>2016-09-11T08:51:28Z</time>
      </trkpt>
      <trkpt lat="45.95438" lon="4.66189">
        <ele>283.206604</ele>
        <time>2016-09-11T08:51:30Z</time>
      </trkpt>
      <trkpt lat="45.95442" lon="4.66196">
        <ele>282.772552</ele>
        <time>2016-09-11T08:51:32Z</time>
      </trkpt>
      <trkpt lat="45.95443" lon="4.66203">
        <ele>282.349213</ele>
        <time>2016-09-11T08:51:34Z</time>
      </trkpt>
      <trkpt lat="45.95444" lon="4.66214">
        <ele>281.983398</ele>
        <time>2016-09-11T08:51:36Z</time>
      </trkpt>
      <trkpt lat="45.95444" lon="4.66229">
        <ele>281.603882</ele>
        <time>2016-09-11T08:51:38Z</time>
      </trkpt>
      <trkpt lat="45.95443" lon="4.66248">
        <ele>281.308167</ele>
        <time>2016-09-11T08:51:40Z</time>
      </trkpt>
      <trkpt lat="45.95439" lon="4.66269">
        <ele>280.961365</ele>
        <time>2016-09-11T08:51:42Z</time>
      </trkpt>
      <trkpt lat="45.95433" lon="4.66289">
        <ele>280.19989</ele>
        <time>2016-09-11T08:51:44Z</time>
      </trkpt>
      <trkpt lat="45.95427" lon="4.6631">
        <ele>279.362</ele>
        <time>2016-09-11T08:51:46Z</time>
      </trkpt>
      <trkpt lat="45.95422" lon="4.66329">
        <ele>278.156097</ele>
        <time>2016-09-11T08:51:48Z</time>
      </trkpt>
      <trkpt lat="45.95421" lon="4.66346">
        <ele>277.137512</ele>
        <time>2016-09-11T08:51:50Z</time>
      </trkpt>
      <trkpt lat="45.95426" lon="4.66361">
        <ele>275.796814</ele>
        <time>2016-09-11T08:51:52Z</time>
      </trkpt>
      <trkpt lat="45.95436" lon="4.66379">
        <ele>274.584991</ele>
        <time>2016-09-11T08:51:54Z</time>
      </trkpt>
      <trkpt lat="45.95447" lon="4.66395">
        <ele>273.114227</ele>
        <time>2016-09-11T08:51:56Z</time>
      </trkpt>
      <trkpt lat="45.95461" lon="4.66413">
        <ele>271.555145</ele>
        <time>2016-09-11T08:51:58Z</time>
      </trkpt>
      <trkpt lat="45.95475" lon="4.66433">
        <ele>270.270233</ele>
        <time>2016-09-11T08:52:00Z</time>
      </trkpt>
      <trkpt lat="45.9549" lon="4.66452">
        <ele>268.52478</ele>
        <time>2016-09-11T08:52:02Z</time>
      </trkpt>
      <trkpt lat="45.95505" lon="4.66467">
        <ele>267.853577</ele>
        <time>2016-09-11T08:52:04Z</time>
      </trkpt>
      <trkpt lat="45.9551" lon="4.66484">
        <ele>266.380554</ele>
        <time>2016-09-11T08:52:06Z</time>
      </trkpt>
      <trkpt lat="45.95506" lon="4.66503">
        <ele>264.647461</ele>
        <time>2016-09-11T08:52:08Z</time>
      </trkpt>
      <trkpt lat="45.955" lon="4.66524">
        <ele>262.657776</ele>
        <time>2016-09-11T08:52:10Z</time>
      </trkpt>
      <trkpt lat="45.95496" lon="4.66543">
        <ele>261.075073</ele>
        <time>2016-09-11T08:52:12Z</time>
      </trkpt>
      <trkpt lat="45.95493" lon="4.66555">
        <ele>259.486023</ele>
        <time>2016-09-11T08:52:14Z</time>
      </trkpt>
      <trkpt lat="45.9549" lon="4.66559">
        <ele>257.842682</ele>
        <time>2016-09-11T08:52:16Z</time>
      </trkpt>
      <trkpt lat="45.95487" lon="4.66558">
        <ele>256.154755</ele>
        <time>2016-09-11T08:52:18Z</time>
      </trkpt>
      <trkpt lat="45.95482" lon="4.66559">
        <ele>254.422287</ele>
        <time>2016-09-11T08:52:20Z</time>
      </trkpt>
      <trkpt lat="45.95478" lon="4.66565">
        <ele>252.751633</ele>
        <time>2016-09-11T08:52:22Z</time>
      </trkpt>
      <trkpt lat="45.95478" lon="4.66572">
        <ele>251.672638</ele>
        <time>2016-09-11T08:52:24Z</time>
      </trkpt>
      <trkpt lat="45.95483" lon="4.66578">
        <ele>251.078888</ele>
        <time>2016-09-11T08:52:26Z</time>
      </trkpt>
      <trkpt lat="45.95487" lon="4.66583">
        <ele>249.735352</ele>
        <time>2016-09-11T08:52:28Z</time>
      </trkpt>
      <trkpt lat="45.95491" lon="4.66588">
        <ele>248.251633</ele>
        <time>2016-09-11T08:52:30Z</time>
      </trkpt>
      <trkpt lat="45.95496" lon="4.66594">
        <ele>247.245972</ele>
        <time>2016-09-11T08:52:32Z</time>
      </trkpt>
      <trkpt lat="45.95498" lon="4.66602">
        <ele>245.84024</ele>
        <time>2016-09-11T08:52:34Z</time>
      </trkpt>
      <trkpt lat="45.95498" lon="4.66612">
        <ele>245.195435</ele>
        <time>2016-09-11T08:52:36Z</time>
      </trkpt>
      <trkpt lat="45.95496" lon="4.66623">
        <ele>244.073196</ele>
        <time>2016-09-11T08:52:38Z</time>
      </trkpt>
      <trkpt lat="45.95495" lon="4.66634">
        <ele>243.256195</ele>
        <time>2016-09-11T08:52:40Z</time>
      </trkpt>
      <trkpt lat="45.95495" lon="4.66645">
        <ele>242.619919</ele>
        <time>2016-09-11T08:52:42Z</time>
      </trkpt>
      <trkpt lat="45.95495" lon="4.66655">
        <ele>242.214813</ele>
        <time>2016-09-11T08:52:44Z</time>
      </trkpt>
      <trkpt lat="45.95492" lon="4.66664">
        <ele>242.424591</ele>
        <time>2016-09-11T08:52:46Z</time>
      </trkpt>
      <trkpt lat="45.9549" lon="4.66672">
        <ele>241.763184</ele>
        <time>2016-09-11T08:52:48Z</time>
      </trkpt>
      <trkpt lat="45.95487" lon="4.66679">
        <ele>241.496063</ele>
        <time>2016-09-11T08:52:50Z</time>
      </trkpt>
      <trkpt lat="45.95485" lon="4.66686">
        <ele>241.561737</ele>
        <time>2016-09-11T08:52:52Z</time>
      </trkpt>
      <trkpt lat="45.95481" lon="4.66691">
        <ele>241.296677</ele>
        <time>2016-09-11T08:52:54Z</time>
      </trkpt>
      <trkpt lat="45.95477" lon="4.66695">
        <ele>240.956329</ele>
        <time>2016-09-11T08:52:56Z</time>
      </trkpt>
      <trkpt lat="45.95474" lon="4.66698">
        <ele>240.994629</ele>
        <time>2016-09-11T08:52:58Z</time>
      </trkpt>
      <trkpt lat="45.95471" lon="4.667">
        <ele>241.009476</ele>
        <time>2016-09-11T08:53:00Z</time>
      </trkpt>
      <trkpt lat="45.95469" lon="4.66703">
        <ele>241.155762</ele>
        <time>2016-09-11T08:53:02Z</time>
      </trkpt>
      <trkpt lat="45.95467" lon="4.66706">
        <ele>241.319016</ele>
        <time>2016-09-11T08:53:04Z</time>
      </trkpt>
      <trkpt lat="45.95464" lon="4.66707">
        <ele>241.520416</ele>
        <time>2016-09-11T08:53:06Z</time>
      </trkpt>
      <trkpt lat="45.95463" lon="4.66711">
        <ele>241.698044</ele>
        <time>2016-09-11T08:53:08Z</time>
      </trkpt>
      <trkpt lat="45.95462" lon="4.66714">
        <ele>241.804031</ele>
        <time>2016-09-11T08:53:10Z</time>
      </trkpt>
      <trkpt lat="45.95461" lon="4.66718">
        <ele>241.994873</ele>
        <time>2016-09-11T08:53:12Z</time>
      </trkpt>
      <trkpt lat="45.95461" lon="4.66722">
        <ele>242.257767</ele>
        <time>2016-09-11T08:53:14Z</time>
      </trkpt>
      <trkpt lat="45.9546" lon="4.66726">
        <ele>242.533371</ele>
        <time>2016-09-11T08:53:16Z</time>
      </trkpt>
      <trkpt lat="45.95459" lon="4.6673">
        <ele>242.889496</ele>
        <time>2016-09-11T08:53:18Z</time>
      </trkpt>
      <trkpt lat="45.95459" lon="4.66734">
        <ele>243.256256</ele>
        <time>2016-09-11T08:53:20Z</time>
      </trkpt>
      <trkpt lat="45.95458" lon="4.66738">
        <ele>243.612701</ele>
        <time>2016-09-11T08:53:22Z</time>
      </trkpt>
      <trkpt lat="45.95457" lon="4.66743">
        <ele>243.985931</ele>
        <time>2016-09-11T08:53:24Z</time>
      </trkpt>
      <trkpt lat="45.95456" lon="4.66746">
        <ele>244.335617</ele>
        <time>2016-09-11T08:53:26Z</time>
      </trkpt>
      <trkpt lat="45.95454" lon="4.6675">
        <ele>244.751862</ele>
        <time>2016-09-11T08:53:28Z</time>
      </trkpt>
      <trkpt lat="45.95452" lon="4.66753">
        <ele>245.226837</ele>
        <time>2016-09-11T08:53:30Z</time>
      </trkpt>
      <trkpt lat="45.9545" lon="4.66757">
        <ele>245.689087</ele>
        <time>2016-09-11T08:53:32Z</time>
      </trkpt>
      <trkpt lat="45.95448" lon="4.6676">
        <ele>246.206512</ele>
        <time>2016-09-11T08:53:34Z</time>
      </trkpt>
      <trkpt lat="45.95446" lon="4.66764">
        <ele>246.61377</ele>
        <time>2016-09-11T08:53:36Z</time>
      </trkpt>
      <trkpt lat="45.95444" lon="4.66767">
        <ele>246.853424</ele>
        <time>2016-09-11T08:53:38Z</time>
      </trkpt>
      <trkpt lat="45.95442" lon="4.6677">
        <ele>247.319656</ele>
        <time>2016-09-11T08:53:40Z</time>
      </trkpt>
      <trkpt lat="45.95439" lon="4.66773">
        <ele>247.788361</ele>
        <time>2016-09-11T08:53:42Z</time>
      </trkpt>
      <trkpt lat="45.95436" lon="4.66775">
        <ele>248.183029</ele>
        <time>2016-09-11T08:53:44Z</time>
      </trkpt>
      <trkpt lat="45.95433" lon="4.66776">
        <ele>248.66452</ele>
        <time>2016-09-11T08:53:46Z</time>
      </trkpt>
      <trkpt lat="45.95431" lon="4.66778">
        <ele>249.126923</ele>
        <time>2016-09-11T08:53:48Z</time>
      </trkpt>
      <trkpt lat="45.95428" lon="4.66779">
        <ele>249.595749</ele>
        <time>2016-09-11T08:53:50Z</time>
      </trkpt>
      <trkpt lat="45.95425" lon="4.66779">
        <ele>250.123993</ele>
        <time>2016-09-11T08:53:52Z</time>
      </trkpt>
      <trkpt lat="45.95422" lon="4.6678">
        <ele>250.643753</ele>
        <time>2016-09-11T08:53:54Z</time>
      </trkpt>
      <trkpt lat="45.95419" lon="4.6678">
        <ele>250.828323</ele>
        <time>2016-09-11T08:53:56Z</time>
      </trkpt>
      <trkpt lat="45.95417" lon="4.66781">
        <ele>251.305695</ele>
        <time>2016-09-11T08:53:58Z</time>
      </trkpt>
      <trkpt lat="45.95416" lon="4.66782">
        <ele>251.776855</ele>
        <time>2016-09-11T08:54:00Z</time>
      </trkpt>
      <trkpt lat="45.95413" lon="4.66783">
        <ele>252.281815</ele>
        <time>2016-09-11T08:54:02Z</time>
      </trkpt>
      <trkpt lat="45.9541" lon="4.66783">
        <ele>252.784698</ele>
        <time>2016-09-11T08:54:04Z</time>
      </trkpt>
      <trkpt lat="45.95408" lon="4.66783">
        <ele>253.285324</ele>
        <time>2016-09-11T08:54:06Z</time>
      </trkpt>
      <trkpt lat="45.95405" lon="4.66784">
        <ele>253.803192</ele>
        <time>2016-09-11T08:54:08Z</time>
      </trkpt>
      <trkpt lat="45.95402" lon="4.66785">
        <ele>254.246704</ele>
        <time>2016-09-11T08:54:10Z</time>
      </trkpt>
      <trkpt lat="45.954" lon="4.66785">
        <ele>254.649216</ele>
        <time>2016-09-11T08:54:12Z</time>
      </trkpt>
      <trkpt lat="45.95397" lon="4.66786">
        <ele>255.080811</ele>
        <time>2016-09-11T08:54:14Z</time>
      </trkpt>
      <trkpt lat="45.95394" lon="4.66787">
        <ele>255.492584</ele>
        <time>2016-09-11T08:54:16Z</time>
      </trkpt>
      <trkpt lat="45.95392" lon="4.66789">
        <ele>256.023163</ele>
        <time>2016-09-11T08:54:18Z</time>
      </trkpt>
      <trkpt lat="45.95389" lon="4.6679">
        <ele>256.45636</ele>
        <time>2016-09-11T08:54:20Z</time>
      </trkpt>
      <trkpt lat="45.95386" lon="4.66792">
        <ele>256.919098</ele>
        <time>2016-09-11T08:54:22Z</time>
      </trkpt>
      <trkpt lat="45.95384" lon="4.66793">
        <ele>257.339417</ele>
        <time>2016-09-11T08:54:24Z</time>
      </trkpt>
      <trkpt lat="45.95381" lon="4.66795">
        <ele>257.721283</ele>
        <time>2016-09-11T08:54:26Z</time>
      </trkpt>
      <trkpt lat="45.95378" lon="4.66797">
        <ele>257.867767</ele>
        <time>2016-09-11T08:54:28Z</time>
      </trkpt>
      <trkpt lat="45.95376" lon="4.668">
        <ele>258.199127</ele>
        <time>2016-09-11T08:54:30Z</time>
      </trkpt>
      <trkpt lat="45.95374" lon="4.66803">
        <ele>258.555786</ele>
        <time>2016-09-11T08:54:32Z</time>
      </trkpt>
      <trkpt lat="45.95371" lon="4.66805">
        <ele>258.891266</ele>
        <time>2016-09-11T08:54:34Z</time>
      </trkpt>
      <trkpt lat="45.95369" lon="4.66808">
        <ele>259.205872</ele>
        <time>2016-09-11T08:54:36Z</time>
      </trkpt>
      <trkpt lat="45.95367" lon="4.66812">
        <ele>259.571075</ele>
        <time>2016-09-11T08:54:38Z</time>
      </trkpt>
      <trkpt lat="45.95365" lon="4.66815">
        <ele>259.997681</ele>
        <time>2016-09-11T08:54:40Z</time>
      </trkpt>
      <trkpt lat="45.95363" lon="4.66818">
        <ele>260.377777</ele>
        <time>2016-09-11T08:54:42Z</time>
      </trkpt>
      <trkpt lat="45.95361" lon="4.66821">
        <ele>260.745148</ele>
        <time>2016-09-11T08:54:44Z</time>
      </trkpt>
      <trkpt lat="45.95359" lon="4.66825">
        <ele>261.140137</ele>
        <time>2016-09-11T08:54:46Z</time>
      </trkpt>
      <trkpt lat="45.95358" lon="4.66828">
        <ele>261.526672</ele>
        <time>2016-09-11T08:54:48Z</time>
      </trkpt>
      <trkpt lat="45.95356" lon="4.66832">
        <ele>261.74115</ele>
        <time>2016-09-11T08:54:50Z</time>
      </trkpt>
      <trkpt lat="45.95354" lon="4.66835">
        <ele>262.144867</ele>
        <time>2016-09-11T08:54:52Z</time>
      </trkpt>
      <trkpt lat="45.95352" lon="4.66838">
        <ele>262.549042</ele>
        <time>2016-09-11T08:54:54Z</time>
      </trkpt>
      <trkpt lat="45.9535" lon="4.66842">
        <ele>262.994324</ele>
        <time>2016-09-11T08:54:56Z</time>
      </trkpt>
      <trkpt lat="45.95349" lon="4.66845">
        <ele>263.361786</ele>
        <time>2016-09-11T08:54:58Z</time>
      </trkpt>
      <trkpt lat="45.95347" lon="4.66849">
        <ele>263.697205</ele>
        <time>2016-09-11T08:55:00Z</time>
      </trkpt>
      <trkpt lat="45.95345" lon="4.66852">
        <ele>264.071106</ele>
        <time>2016-09-11T08:55:02Z</time>
      </trkpt>
      <trkpt lat="45.95343" lon="4.66855">
        <ele>264.420837</ele>
        <time>2016-09-11T08:55:04Z</time>
      </trkpt>
      <trkpt lat="45.95342" lon="4.66859">
        <ele>264.792572</ele>
        <time>2016-09-11T08:55:06Z</time>
      </trkpt>
      <trkpt lat="45.9534" lon="4.66862">
        <ele>265.228516</ele>
        <time>2016-09-11T08:55:08Z</time>
      </trkpt>
      <trkpt lat="45.95338" lon="4.66865">
        <ele>265.687195</ele>
        <time>2016-09-11T08:55:10Z</time>
      </trkpt>
      <trkpt lat="45.95336" lon="4.66869">
        <ele>265.912415</ele>
        <time>2016-09-11T08:55:12Z</time>
      </trkpt>
      <trkpt lat="45.95335" lon="4.66872">
        <ele>266.294128</ele>
        <time>2016-09-11T08:55:14Z</time>
      </trkpt>
      <trkpt lat="45.95332" lon="4.66875">
        <ele>266.638306</ele>
        <time>2016-09-11T08:55:16Z</time>
      </trkpt>
      <trkpt lat="45.95331" lon="4.66879">
        <ele>267.041626</ele>
        <time>2016-09-11T08:55:18Z</time>
      </trkpt>
      <trkpt lat="45.95329" lon="4.66882">
        <ele>267.451508</ele>
        <time>2016-09-11T08:55:20Z</time>
      </trkpt>
      <trkpt lat="45.95327" lon="4.66885">
        <ele>267.814911</ele>
        <time>2016-09-11T08:55:22Z</time>
      </trkpt>
      <trkpt lat="45.95326" lon="4.66889">
        <ele>268.208649</ele>
        <time>2016-09-11T08:55:24Z</time>
      </trkpt>
      <trkpt lat="45.95326" lon="4.66893">
        <ele>268.667664</ele>
        <time>2016-09-11T08:55:26Z</time>
      </trkpt>
      <trkpt lat="45.95328" lon="4.66897">
        <ele>269.024719</ele>
        <time>2016-09-11T08:55:28Z</time>
      </trkpt>
      <trkpt lat="45.95331" lon="4.66899">
        <ele>269.390289</ele>
        <time>2016-09-11T08:55:30Z</time>
      </trkpt>
      <trkpt lat="45.95334" lon="4.66901">
        <ele>269.70462</ele>
        <time>2016-09-11T08:55:32Z</time>
      </trkpt>
      <trkpt lat="45.95338" lon="4.66903">
        <ele>270.036194</ele>
        <time>2016-09-11T08:55:34Z</time>
      </trkpt>
      <trkpt lat="45.95341" lon="4.66905">
        <ele>270.340027</ele>
        <time>2016-09-11T08:55:36Z</time>
      </trkpt>
      <trkpt lat="45.95345" lon="4.66908">
        <ele>270.641876</ele>
        <time>2016-09-11T08:55:38Z</time>
      </trkpt>
      <trkpt lat="45.95349" lon="4.66911">
        <ele>270.763</ele>
        <time>2016-09-11T08:55:40Z</time>
      </trkpt>
      <trkpt lat="45.95353" lon="4.66914">
        <ele>271.118195</ele>
        <time>2016-09-11T08:55:42Z</time>
      </trkpt>
      <trkpt lat="45.95358" lon="4.66917">
        <ele>271.430634</ele>
        <time>2016-09-11T08:55:44Z</time>
      </trkpt>
      <trkpt lat="45.95362" lon="4.6692">
        <ele>271.724762</ele>
        <time>2016-09-11T08:55:46Z</time>
      </trkpt>
      <trkpt lat="45.95367" lon="4.66923">
        <ele>272.079803</ele>
        <time>2016-09-11T08:55:48Z</time>
      </trkpt>
      <trkpt lat="45.95372" lon="4.66926">
        <ele>272.370361</ele>
        <time>2016-09-11T08:55:50Z</time>
      </trkpt>
      <trkpt lat="45.95377" lon="4.66929">
        <ele>272.704163</ele>
        <time>2016-09-11T08:55:52Z</time>
      </trkpt>
      <trkpt lat="45.95383" lon="4.66933">
        <ele>273.05069</ele>
        <time>2016-09-11T08:55:54Z</time>
      </trkpt>
      <trkpt lat="45.95388" lon="4.66937">
        <ele>273.334137</ele>
        <time>2016-09-11T08:55:56Z</time>
      </trkpt>
      <trkpt lat="45.95393" lon="4.66941">
        <ele>273.697693</ele>
        <time>2016-09-11T08:55:58Z</time>
      </trkpt>
      <trkpt lat="45.95398" lon="4.66945">
        <ele>273.793396</ele>
        <time>2016-09-11T08:56:00Z</time>
      </trkpt>
      <trkpt lat="45.95403" lon="4.66949">
        <ele>274.108093</ele>
        <time>2016-09-11T08:56:02Z</time>
      </trkpt>
      <trkpt lat="45.95408" lon="4.66954">
        <ele>274.469574</ele>
        <time>2016-09-11T08:56:04Z</time>
      </trkpt>
      <trkpt lat="45.95413" lon="4.66959">
        <ele>274.666718</ele>
        <time>2016-09-11T08:56:06Z</time>
      </trkpt>
      <trkpt lat="45.95417" lon="4.66964">
        <ele>274.830475</ele>
        <time>2016-09-11T08:56:08Z</time>
      </trkpt>
      <trkpt lat="45.95422" lon="4.66969">
        <ele>275.096252</ele>
        <time>2016-09-11T08:56:10Z</time>
      </trkpt>
      <trkpt lat="45.95426" lon="4.66975">
        <ele>275.316956</ele>
        <time>2016-09-11T08:56:12Z</time>
      </trkpt>
      <trkpt lat="45.9543" lon="4.66981">
        <ele>275.629456</ele>
        <time>2016-09-11T08:56:14Z</time>
      </trkpt>
      <trkpt lat="45.95435" lon="4.66987">
        <ele>275.891907</ele>
        <time>2016-09-11T08:56:16Z</time>
      </trkpt>
      <trkpt lat="45.95438" lon="4.66993">
        <ele>276.217316</ele>
        <time>2016-09-11T08:56:18Z</time>
      </trkpt>
      <trkpt lat="45.95442" lon="4.66999">
        <ele>276.546967</ele>
        <time>2016-09-11T08:56:20Z</time>
      </trkpt>
      <trkpt lat="45.95446" lon="4.67005">
        <ele>276.923431</ele>
        <time>2016-09-11T08:56:22Z</time>
      </trkpt>
      <trkpt lat="45.95449" lon="4.67011">
        <ele>277.212708</ele>
        <time>2016-09-11T08:56:24Z</time>
      </trkpt>
      <trkpt lat="45.95453" lon="4.67017">
        <ele>277.627502</ele>
        <time>2016-09-11T08:56:26Z</time>
      </trkpt>
      <trkpt lat="45.95456" lon="4.67024">
        <ele>277.818909</ele>
        <time>2016-09-11T08:56:28Z</time>
      </trkpt>
      <trkpt lat="45.95459" lon="4.67029">
        <ele>278.074799</ele>
        <time>2016-09-11T08:56:30Z</time>
      </trkpt>
      <trkpt lat="45.95462" lon="4.67035">
        <ele>278.349426</ele>
        <time>2016-09-11T08:56:32Z</time>
      </trkpt>
      <trkpt lat="45.95465" lon="4.6704">
        <ele>278.519592</ele>
        <time>2016-09-11T08:56:34Z</time>
      </trkpt>
      <trkpt lat="45.95468" lon="4.67046">
        <ele>278.787659</ele>
        <time>2016-09-11T08:56:36Z</time>
      </trkpt>
      <trkpt lat="45.95472" lon="4.67051">
        <ele>279.115234</ele>
        <time>2016-09-11T08:56:38Z</time>
      </trkpt>
      <trkpt lat="45.95475" lon="4.67056">
        <ele>279.357727</ele>
        <time>2016-09-11T08:56:40Z</time>
      </trkpt>
      <trkpt lat="45.95478" lon="4.6706">
        <ele>279.711029</ele>
        <time>2016-09-11T08:56:42Z</time>
      </trkpt>
      <trkpt lat="45.95481" lon="4.67065">
        <ele>279.962097</ele>
        <time>2016-09-11T08:56:44Z</time>
      </trkpt>
      <trkpt lat="45.95484" lon="4.6707">
        <ele>280.24295</ele>
        <time>2016-09-11T08:56:46Z</time>
      </trkpt>
      <trkpt lat="45.95487" lon="4.67075">
        <ele>280.58548</ele>
        <time>2016-09-11T08:56:48Z</time>
      </trkpt>
      <trkpt lat="45.9549" lon="4.67079">
        <ele>280.93866</ele>
        <time>2016-09-11T08:56:50Z</time>
      </trkpt>
      <trkpt lat="45.95493" lon="4.67084">
        <ele>281.140808</ele>
        <time>2016-09-11T08:56:52Z</time>
      </trkpt>
      <trkpt lat="45.95497" lon="4.67089">
        <ele>281.493225</ele>
        <time>2016-09-11T08:56:54Z</time>
      </trkpt>
      <trkpt lat="45.955" lon="4.67093">
        <ele>281.908325</ele>
        <time>2016-09-11T08:56:56Z</time>
      </trkpt>
      <trkpt lat="45.95504" lon="4.67098">
        <ele>282.322449</ele>
        <time>2016-09-11T08:56:58Z</time>
      </trkpt>
      <trkpt lat="45.95507" lon="4.67102">
        <ele>282.594818</ele>
        <time>2016-09-11T08:57:00Z</time>
      </trkpt>
      <trkpt lat="45.9551" lon="4.67107">
        <ele>282.824646</ele>
        <time>2016-09-11T08:57:02Z</time>
      </trkpt>
      <trkpt lat="45.95514" lon="4.67111">
        <ele>283.140686</ele>
        <time>2016-09-11T08:57:04Z</time>
      </trkpt>
      <trkpt lat="45.95517" lon="4.67116">
        <ele>283.455872</ele>
        <time>2016-09-11T08:57:06Z</time>
      </trkpt>
      <trkpt lat="45.95521" lon="4.6712">
        <ele>283.62616</ele>
        <time>2016-09-11T08:57:08Z</time>
      </trkpt>
      <trkpt lat="45.95525" lon="4.67123">
        <ele>283.883759</ele>
        <time>2016-09-11T08:57:10Z</time>
      </trkpt>
      <trkpt lat="45.9553" lon="4.67127">
        <ele>284.189758</ele>
        <time>2016-09-11T08:57:12Z</time>
      </trkpt>
      <trkpt lat="45.95533" lon="4.67132">
        <ele>284.532471</ele>
        <time>2016-09-11T08:57:14Z</time>
      </trkpt>
      <trkpt lat="45.95538" lon="4.67136">
        <ele>284.934753</ele>
        <time>2016-09-11T08:57:16Z</time>
      </trkpt>
      <trkpt lat="45.95542" lon="4.67139">
        <ele>285.153992</ele>
        <time>2016-09-11T08:57:18Z</time>
      </trkpt>
      <trkpt lat="45.95546" lon="4.67142">
        <ele>285.37323</ele>
        <time>2016-09-11T08:57:20Z</time>
      </trkpt>
      <trkpt lat="45.95552" lon="4.67143">
        <ele>285.632263</ele>
        <time>2016-09-11T08:57:22Z</time>
      </trkpt>
      <trkpt lat="45.95556" lon="4.67144">
        <ele>285.979248</ele>
        <time>2016-09-11T08:57:24Z</time>
      </trkpt>
      <trkpt lat="45.95561" lon="4.67146">
        <ele>286.31134</ele>
        <time>2016-09-11T08:57:26Z</time>
      </trkpt>
      <trkpt lat="45.95566" lon="4.67148">
        <ele>286.483734</ele>
        <time>2016-09-11T08:57:28Z</time>
      </trkpt>
      <trkpt lat="45.95571" lon="4.6715">
        <ele>286.781799</ele>
        <time>2016-09-11T08:57:30Z</time>
      </trkpt>
      <trkpt lat="45.95575" lon="4.67152">
        <ele>286.681396</ele>
        <time>2016-09-11T08:57:32Z</time>
      </trkpt>
      <trkpt lat="45.9558" lon="4.67153">
        <ele>286.899811</ele>
        <time>2016-09-11T08:57:34Z</time>
      </trkpt>
      <trkpt lat="45.95585" lon="4.67154">
        <ele>287.176575</ele>
        <time>2016-09-11T08:57:36Z</time>
      </trkpt>
      <trkpt lat="45.9559" lon="4.67156">
        <ele>287.144592</ele>
        <time>2016-09-11T08:57:38Z</time>
      </trkpt>
      <trkpt lat="45.95595" lon="4.67157">
        <ele>287.621582</ele>
        <time>2016-09-11T08:57:40Z</time>
      </trkpt>
      <trkpt lat="45.95599" lon="4.67158">
        <ele>288.010345</ele>
        <time>2016-09-11T08:57:42Z</time>
      </trkpt>
      <trkpt lat="45.95604" lon="4.67159">
        <ele>288.348969</ele>
        <time>2016-09-11T08:57:44Z</time>
      </trkpt>
      <trkpt lat="45.95609" lon="4.67161">
        <ele>288.491455</ele>
        <time>2016-09-11T08:57:46Z</time>
      </trkpt>
      <trkpt lat="45.95614" lon="4.67162">
        <ele>288.838318</ele>
        <time>2016-09-11T08:57:48Z</time>
      </trkpt>
      <trkpt lat="45.95619" lon="4.67162">
        <ele>289.112976</ele>
        <time>2016-09-11T08:57:50Z</time>
      </trkpt>
      <trkpt lat="45.95624" lon="4.67162">
        <ele>289.493652</ele>
        <time>2016-09-11T08:57:52Z</time>
      </trkpt>
      <trkpt lat="45.95628" lon="4.67163">
        <ele>289.903015</ele>
        <time>2016-09-11T08:57:54Z</time>
      </trkpt>
      <trkpt lat="45.95633" lon="4.67164">
        <ele>290.096771</ele>
        <time>2016-09-11T08:57:56Z</time>
      </trkpt>
      <trkpt lat="45.95638" lon="4.67165">
        <ele>290.45459</ele>
        <time>2016-09-11T08:57:58Z</time>
      </trkpt>
      <trkpt lat="45.95642" lon="4.67168">
        <ele>290.876282</ele>
        <time>2016-09-11T08:58:00Z</time>
      </trkpt>
      <trkpt lat="45.95646" lon="4.67171">
        <ele>291.146759</ele>
        <time>2016-09-11T08:58:02Z</time>
      </trkpt>
      <trkpt lat="45.95651" lon="4.67174">
        <ele>291.469177</ele>
        <time>2016-09-11T08:58:04Z</time>
      </trkpt>
      <trkpt lat="45.95655" lon="4.67176">
        <ele>291.513916</ele>
        <time>2016-09-11T08:58:06Z</time>
      </trkpt>
      <trkpt lat="45.9566" lon="4.67179">
        <ele>291.944153</ele>
        <time>2016-09-11T08:58:08Z</time>
      </trkpt>
      <trkpt lat="45.95664" lon="4.67181">
        <ele>292.088959</ele>
        <time>2016-09-11T08:58:10Z</time>
      </trkpt>
      <trkpt lat="45.95669" lon="4.67184">
        <ele>292.357849</ele>
        <time>2016-09-11T08:58:12Z</time>
      </trkpt>
      <trkpt lat="45.95674" lon="4.67187">
        <ele>293.111511</ele>
        <time>2016-09-11T08:58:14Z</time>
      </trkpt>
      <trkpt lat="45.95679" lon="4.67189">
        <ele>293.367249</ele>
        <time>2016-09-11T08:58:16Z</time>
      </trkpt>
      <trkpt lat="45.95684" lon="4.67191">
        <ele>293.718689</ele>
        <time>2016-09-11T08:58:18Z</time>
      </trkpt>
      <trkpt lat="45.9569" lon="4.67193">
        <ele>294.159607</ele>
        <time>2016-09-11T08:58:20Z</time>
      </trkpt>
      <trkpt lat="45.95695" lon="4.67194">
        <ele>294.296021</ele>
        <time>2016-09-11T08:58:22Z</time>
      </trkpt>
      <trkpt lat="45.957" lon="4.67196">
        <ele>294.639954</ele>
        <time>2016-09-11T08:58:24Z</time>
      </trkpt>
      <trkpt lat="45.95705" lon="4.67197">
        <ele>294.797485</ele>
        <time>2016-09-11T08:58:26Z</time>
      </trkpt>
      <trkpt lat="45.9571" lon="4.67198">
        <ele>295.192963</ele>
        <time>2016-09-11T08:58:28Z</time>
      </trkpt>
      <trkpt lat="45.95716" lon="4.67199">
        <ele>295.427307</ele>
        <time>2016-09-11T08:58:30Z</time>
      </trkpt>
      <trkpt lat="45.95721" lon="4.67201">
        <ele>295.486877</ele>
        <time>2016-09-11T08:58:32Z</time>
      </trkpt>
      <trkpt lat="45.95727" lon="4.67202">
        <ele>295.354797</ele>
        <time>2016-09-11T08:58:34Z</time>
      </trkpt>
      <trkpt lat="45.95733" lon="4.67204">
        <ele>295.514587</ele>
        <time>2016-09-11T08:58:36Z</time>
      </trkpt>
      <trkpt lat="45.95738" lon="4.67205">
        <ele>295.885345</ele>
        <time>2016-09-11T08:58:38Z</time>
      </trkpt>
      <trkpt lat="45.95744" lon="4.67207">
        <ele>295.947144</ele>
        <time>2016-09-11T08:58:40Z</time>
      </trkpt>
      <trkpt lat="45.9575" lon="4.67208">
        <ele>296.019592</ele>
        <time>2016-09-11T08:58:42Z</time>
      </trkpt>
      <trkpt lat="45.95756" lon="4.67209">
        <ele>296.266815</ele>
        <time>2016-09-11T08:58:44Z</time>
      </trkpt>
      <trkpt lat="45.95762" lon="4.67211">
        <ele>296.619019</ele>
        <time>2016-09-11T08:58:46Z</time>
      </trkpt>
      <trkpt lat="45.95768" lon="4.67212">
        <ele>296.663879</ele>
        <time>2016-09-11T08:58:48Z</time>
      </trkpt>
      <trkpt lat="45.95773" lon="4.67213">
        <ele>296.778961</ele>
        <time>2016-09-11T08:58:50Z</time>
      </trkpt>
      <trkpt lat="45.95779" lon="4.67214">
        <ele>296.772614</ele>
        <time>2016-09-11T08:58:52Z</time>
      </trkpt>
      <trkpt lat="45.95785" lon="4.67215">
        <ele>297.017181</ele>
        <time>2016-09-11T08:58:54Z</time>
      </trkpt>
      <trkpt lat="45.9579" lon="4.67216">
        <ele>297.11734</ele>
        <time>2016-09-11T08:58:56Z</time>
      </trkpt>
      <trkpt lat="45.95796" lon="4.67218">
        <ele>297.208069</ele>
        <time>2016-09-11T08:58:58Z</time>
      </trkpt>
      <trkpt lat="45.95801" lon="4.6722">
        <ele>297.105835</ele>
        <time>2016-09-11T08:59:00Z</time>
      </trkpt>
      <trkpt lat="45.95807" lon="4.67222">
        <ele>297.142059</ele>
        <time>2016-09-11T08:59:02Z</time>
      </trkpt>
      <trkpt lat="45.95812" lon="4.67225">
        <ele>297.316803</ele>
        <time>2016-09-11T08:59:04Z</time>
      </trkpt>
      <trkpt lat="45.95817" lon="4.67227">
        <ele>297.438293</ele>
        <time>2016-09-11T08:59:06Z</time>
      </trkpt>
      <trkpt lat="45.95822" lon="4.6723">
        <ele>297.410736</ele>
        <time>2016-09-11T08:59:08Z</time>
      </trkpt>
      <trkpt lat="45.95828" lon="4.67233">
        <ele>297.459808</ele>
        <time>2016-09-11T08:59:10Z</time>
      </trkpt>
      <trkpt lat="45.95833" lon="4.67235">
        <ele>297.800201</ele>
        <time>2016-09-11T08:59:12Z</time>
      </trkpt>
      <trkpt lat="45.95838" lon="4.67238">
        <ele>298.300873</ele>
        <time>2016-09-11T08:59:14Z</time>
      </trkpt>
      <trkpt lat="45.95844" lon="4.67241">
        <ele>298.735596</ele>
        <time>2016-09-11T08:59:16Z</time>
      </trkpt>
      <trkpt lat="45.95849" lon="4.67244">
        <ele>299.147003</ele>
        <time>2016-09-11T08:59:18Z</time>
      </trkpt>
      <trkpt lat="45.95854" lon="4.67246">
        <ele>299.142761</ele>
        <time>2016-09-11T08:59:20Z</time>
      </trkpt>
      <trkpt lat="45.9586" lon="4.67248">
        <ele>299.434753</ele>
        <time>2016-09-11T08:59:22Z</time>
      </trkpt>
      <trkpt lat="45.95865" lon="4.67251">
        <ele>299.52002</ele>
        <time>2016-09-11T08:59:24Z</time>
      </trkpt>
      <trkpt lat="45.9587" lon="4.67254">
        <ele>299.881683</ele>
        <time>2016-09-11T08:59:26Z</time>
      </trkpt>
      <trkpt lat="45.95875" lon="4.67257">
        <ele>299.804932</ele>
        <time>2016-09-11T08:59:28Z</time>
      </trkpt>
      <trkpt lat="45.95881" lon="4.6726">
        <ele>300.194946</ele>
        <time>2016-09-11T08:59:30Z</time>
      </trkpt>
      <trkpt lat="45.95886" lon="4.67263">
        <ele>300.666168</ele>
        <time>2016-09-11T08:59:32Z</time>
      </trkpt>
      <trkpt lat="45.95891" lon="4.67266">
        <ele>301.243652</ele>
        <time>2016-09-11T08:59:34Z</time>
      </trkpt>
      <trkpt lat="45.95896" lon="4.67269">
        <ele>301.372009</ele>
        <time>2016-09-11T08:59:36Z</time>
      </trkpt>
      <trkpt lat="45.959" lon="4.67272">
        <ele>301.845367</ele>
        <time>2016-09-11T08:59:38Z</time>
      </trkpt>
      <trkpt lat="45.95906" lon="4.67275">
        <ele>302.174591</ele>
        <time>2016-09-11T08:59:40Z</time>
      </trkpt>
      <trkpt lat="45.95912" lon="4.67277">
        <ele>302.662048</ele>
        <time>2016-09-11T08:59:42Z</time>
      </trkpt>
      <trkpt lat="45.95918" lon="4.67279">
        <ele>303.010193</ele>
        <time>2016-09-11T08:59:44Z</time>
      </trkpt>
      <trkpt lat="45.95924" lon="4.6728">
        <ele>303.263977</ele>
        <time>2016-09-11T08:59:46Z</time>
      </trkpt>
      <trkpt lat="45.9593" lon="4.67282">
        <ele>303.706909</ele>
        <time>2016-09-11T08:59:48Z</time>
      </trkpt>
      <trkpt lat="45.95936" lon="4.67284">
        <ele>303.882874</ele>
        <time>2016-09-11T08:59:50Z</time>
      </trkpt>
      <trkpt lat="45.95941" lon="4.67288">
        <ele>303.610046</ele>
        <time>2016-09-11T08:59:52Z</time>
      </trkpt>
      <trkpt lat="45.95947" lon="4.67292">
        <ele>303.796295</ele>
        <time>2016-09-11T08:59:54Z</time>
      </trkpt>
      <trkpt lat="45.95952" lon="4.67296">
        <ele>303.779236</ele>
        <time>2016-09-11T08:59:56Z</time>
      </trkpt>
      <trkpt lat="45.95957" lon="4.67301">
        <ele>303.930695</ele>
        <time>2016-09-11T08:59:58Z</time>
      </trkpt>
      <trkpt lat="45.95962" lon="4.67306">
        <ele>304.040466</ele>
        <time>2016-09-11T09:00:00Z</time>
      </trkpt>
      <trkpt lat="45.95966" lon="4.67311">
        <ele>304.383789</ele>
        <time>2016-09-11T09:00:02Z</time>
      </trkpt>
      <trkpt lat="45.95971" lon="4.67316">
        <ele>304.66214</ele>
        <time>2016-09-11T09:00:04Z</time>
      </trkpt>
      <trkpt lat="45.95976" lon="4.67321">
        <ele>304.891022</ele>
        <time>2016-09-11T09:00:06Z</time>
      </trkpt>
      <trkpt lat="45.9598" lon="4.67326">
        <ele>305.117004</ele>
        <time>2016-09-11T09:00:08Z</time>
      </trkpt>
      <trkpt lat="45.95985" lon="4.67331">
        <ele>305.379089</ele>
        <time>2016-09-11T09:00:10Z</time>
      </trkpt>
      <trkpt lat="45.9599" lon="4.67336">
        <ele>305.723083</ele>
        <time>2016-09-11T09:00:12Z</time>
      </trkpt>
      <trkpt lat="45.95995" lon="4.67341">
        <ele>305.791382</ele>
        <time>2016-09-11T09:00:14Z</time>
      </trkpt>
      <trkpt lat="45.96" lon="4.67346">
        <ele>306.015289</ele>
        <time>2016-09-11T09:00:16Z</time>
      </trkpt>
      <trkpt lat="45.96005" lon="4.67351">
        <ele>306.179504</ele>
        <time>2016-09-11T09:00:18Z</time>
      </trkpt>
      <trkpt lat="45.9601" lon="4.67356">
        <ele>305.949219</ele>
        <time>2016-09-11T09:00:20Z</time>
      </trkpt>
      <trkpt lat="45.96015" lon="4.67362">
        <ele>306.047333</ele>
        <time>2016-09-11T09:00:22Z</time>
      </trkpt>
      <trkpt lat="45.96021" lon="4.67368">
        <ele>306.282593</ele>
        <time>2016-09-11T09:00:24Z</time>
      </trkpt>
      <trkpt lat="45.96026" lon="4.67374">
        <ele>306.16687</ele>
        <time>2016-09-11T09:00:26Z</time>
      </trkpt>
      <trkpt lat="45.96031" lon="4.67381">
        <ele>306.282166</ele>
        <time>2016-09-11T09:00:28Z</time>
      </trkpt>
      <trkpt lat="45.96035" lon="4.67387">
        <ele>306.673157</ele>
        <time>2016-09-11T09:00:30Z</time>
      </trkpt>
      <trkpt lat="45.96041" lon="4.67394">
        <ele>307.047058</ele>
        <time>2016-09-11T09:00:32Z</time>
      </trkpt>
      <trkpt lat="45.96046" lon="4.674">
        <ele>307.553528</ele>
        <time>2016-09-11T09:00:34Z</time>
      </trkpt>
      <trkpt lat="45.96051" lon="4.67406">
        <ele>307.796753</ele>
        <time>2016-09-11T09:00:36Z</time>
      </trkpt>
      <trkpt lat="45.96056" lon="4.6741">
        <ele>308.059052</ele>
        <time>2016-09-11T09:00:38Z</time>
      </trkpt>
      <trkpt lat="45.96059" lon="4.67413">
        <ele>308.090027</ele>
        <time>2016-09-11T09:00:40Z</time>
      </trkpt>
      <trkpt lat="45.96059" lon="4.67416">
        <ele>308.196716</ele>
        <time>2016-09-11T09:00:42Z</time>
      </trkpt>
      <trkpt lat="45.9606" lon="4.67419">
        <ele>308.376892</ele>
        <time>2016-09-11T09:00:44Z</time>
      </trkpt>
      <trkpt lat="45.96063" lon="4.67423">
        <ele>308.48996</ele>
        <time>2016-09-11T09:00:46Z</time>
      </trkpt>
      <trkpt lat="45.96066" lon="4.67426">
        <ele>308.612976</ele>
        <time>2016-09-11T09:00:48Z</time>
      </trkpt>
      <trkpt lat="45.96068" lon="4.67428">
        <ele>308.715363</ele>
        <time>2016-09-11T09:00:50Z</time>
      </trkpt>
      <trkpt lat="45.96071" lon="4.6743">
        <ele>308.7453</ele>
        <time>2016-09-11T09:00:52Z</time>
      </trkpt>
      <trkpt lat="45.96074" lon="4.67433">
        <ele>308.797913</ele>
        <time>2016-09-11T09:00:54Z</time>
      </trkpt>
      <trkpt lat="45.96076" lon="4.67436">
        <ele>308.817108</ele>
        <time>2016-09-11T09:00:56Z</time>
      </trkpt>
      <trkpt lat="45.96078" lon="4.67437">
        <ele>308.972839</ele>
        <time>2016-09-11T09:00:58Z</time>
      </trkpt>
      <trkpt lat="45.96085" lon="4.67441">
        <ele>309.593597</ele>
        <time>2016-09-11T09:01:39Z</time>
      </trkpt>
      <trkpt lat="45.96092" lon="4.67444">
        <ele>309.675873</ele>
        <time>2016-09-11T09:01:41Z</time>
      </trkpt>
      <trkpt lat="45.96096" lon="4.67447">
        <ele>309.721344</ele>
        <time>2016-09-11T09:01:43Z</time>
      </trkpt>
      <trkpt lat="45.96101" lon="4.6745">
        <ele>309.73642</ele>
        <time>2016-09-11T09:01:45Z</time>
      </trkpt>
      <trkpt lat="45.96106" lon="4.67453">
        <ele>309.716858</ele>
        <time>2016-09-11T09:01:47Z</time>
      </trkpt>
      <trkpt lat="45.96112" lon="4.67456">
        <ele>309.759521</ele>
        <time>2016-09-11T09:01:49Z</time>
      </trkpt>
      <trkpt lat="45.96118" lon="4.67459">
        <ele>309.776611</ele>
        <time>2016-09-11T09:01:51Z</time>
      </trkpt>
      <trkpt lat="45.96124" lon="4.67463">
        <ele>309.716888</ele>
        <time>2016-09-11T09:01:53Z</time>
      </trkpt>
      <trkpt lat="45.9613" lon="4.67469">
        <ele>309.667816</ele>
        <time>2016-09-11T09:01:55Z</time>
      </trkpt>
      <trkpt lat="45.96131" lon="4.67478">
        <ele>309.697693</ele>
        <time>2016-09-11T09:01:57Z</time>
      </trkpt>
      <trkpt lat="45.96129" lon="4.67488">
        <ele>309.815033</ele>
        <time>2016-09-11T09:01:59Z</time>
      </trkpt>
      <trkpt lat="45.96127" lon="4.67499">
        <ele>309.791321</ele>
        <time>2016-09-11T09:02:01Z</time>
      </trkpt>
      <trkpt lat="45.96124" lon="4.67511">
        <ele>309.8396</ele>
        <time>2016-09-11T09:02:03Z</time>
      </trkpt>
      <trkpt lat="45.96121" lon="4.67525">
        <ele>309.698792</ele>
        <time>2016-09-11T09:02:05Z</time>
      </trkpt>
      <trkpt lat="45.96117" lon="4.67541">
        <ele>309.539246</ele>
        <time>2016-09-11T09:02:07Z</time>
      </trkpt>
      <trkpt lat="45.96113" lon="4.67559">
        <ele>309.343445</ele>
        <time>2016-09-11T09:02:09Z</time>
      </trkpt>
      <trkpt lat="45.96108" lon="4.67579">
        <ele>309.228271</ele>
        <time>2016-09-11T09:02:11Z</time>
      </trkpt>
      <trkpt lat="45.96102" lon="4.67601">
        <ele>309.149567</ele>
        <time>2016-09-11T09:02:13Z</time>
      </trkpt>
      <trkpt lat="45.96095" lon="4.67622">
        <ele>308.656921</ele>
        <time>2016-09-11T09:02:15Z</time>
      </trkpt>
      <trkpt lat="45.96085" lon="4.67641">
        <ele>307.976715</ele>
        <time>2016-09-11T09:02:17Z</time>
      </trkpt>
      <trkpt lat="45.96074" lon="4.67658">
        <ele>307.793365</ele>
        <time>2016-09-11T09:02:19Z</time>
      </trkpt>
      <trkpt lat="45.9606" lon="4.67671">
        <ele>307.094971</ele>
        <time>2016-09-11T09:02:21Z</time>
      </trkpt>
      <trkpt lat="45.96046" lon="4.67685">
        <ele>306.632172</ele>
        <time>2016-09-11T09:02:23Z</time>
      </trkpt>
      <trkpt lat="45.96033" lon="4.67702">
        <ele>306.103271</ele>
        <time>2016-09-11T09:02:25Z</time>
      </trkpt>
      <trkpt lat="45.96022" lon="4.6772">
        <ele>305.467926</ele>
        <time>2016-09-11T09:02:27Z</time>
      </trkpt>
      <trkpt lat="45.96014" lon="4.67739">
        <ele>304.879395</ele>
        <time>2016-09-11T09:02:29Z</time>
      </trkpt>
      <trkpt lat="45.96008" lon="4.67761">
        <ele>303.756195</ele>
        <time>2016-09-11T09:02:31Z</time>
      </trkpt>
      <trkpt lat="45.96005" lon="4.67776">
        <ele>302.858734</ele>
        <time>2016-09-11T09:02:33Z</time>
      </trkpt>
      <trkpt lat="45.96007" lon="4.67781">
        <ele>302.323822</ele>
        <time>2016-09-11T09:02:35Z</time>
      </trkpt>
      <trkpt lat="45.96012" lon="4.67785">
        <ele>301.550446</ele>
        <time>2016-09-11T09:02:37Z</time>
      </trkpt>
      <trkpt lat="45.9602" lon="4.67791">
        <ele>300.391052</ele>
        <time>2016-09-11T09:02:39Z</time>
      </trkpt>
      <trkpt lat="45.9603" lon="4.67799">
        <ele>299.076019</ele>
        <time>2016-09-11T09:02:41Z</time>
      </trkpt>
      <trkpt lat="45.9604" lon="4.67807">
        <ele>297.925385</ele>
        <time>2016-09-11T09:02:43Z</time>
      </trkpt>
      <trkpt lat="45.96051" lon="4.67815">
        <ele>296.424011</ele>
        <time>2016-09-11T09:02:45Z</time>
      </trkpt>
      <trkpt lat="45.96061" lon="4.67822">
        <ele>295.48999</ele>
        <time>2016-09-11T09:02:47Z</time>
      </trkpt>
      <trkpt lat="45.96071" lon="4.67826">
        <ele>294.656677</ele>
        <time>2016-09-11T09:02:49Z</time>
      </trkpt>
      <trkpt lat="45.9608" lon="4.67827">
        <ele>293.808929</ele>
        <time>2016-09-11T09:02:51Z</time>
      </trkpt>
      <trkpt lat="45.96088" lon="4.67828">
        <ele>292.921875</ele>
        <time>2016-09-11T09:02:53Z</time>
      </trkpt>
      <trkpt lat="45.96095" lon="4.67831">
        <ele>292.075989</ele>
        <time>2016-09-11T09:02:55Z</time>
      </trkpt>
      <trkpt lat="45.96103" lon="4.67837">
        <ele>291.690491</ele>
        <time>2016-09-11T09:02:57Z</time>
      </trkpt>
      <trkpt lat="45.96112" lon="4.67842">
        <ele>291.287903</ele>
        <time>2016-09-11T09:02:59Z</time>
      </trkpt>
      <trkpt lat="45.96121" lon="4.67847">
        <ele>290.366394</ele>
        <time>2016-09-11T09:03:01Z</time>
      </trkpt>
      <trkpt lat="45.96129" lon="4.67852">
        <ele>290.065247</ele>
        <time>2016-09-11T09:03:03Z</time>
      </trkpt>
      <trkpt lat="45.96137" lon="4.67856">
        <ele>289.271545</ele>
        <time>2016-09-11T09:03:05Z</time>
      </trkpt>
      <trkpt lat="45.96146" lon="4.6786">
        <ele>288.662262</ele>
        <time>2016-09-11T09:03:07Z</time>
      </trkpt>
      <trkpt lat="45.96153" lon="4.67863">
        <ele>288.207367</ele>
        <time>2016-09-11T09:03:09Z</time>
      </trkpt>
      <trkpt lat="45.96161" lon="4.67866">
        <ele>287.760315</ele>
        <time>2016-09-11T09:03:11Z</time>
      </trkpt>
      <trkpt lat="45.96171" lon="4.67867">
        <ele>287.812408</ele>
        <time>2016-09-11T09:03:13Z</time>
      </trkpt>
      <trkpt lat="45.96182" lon="4.67866">
        <ele>287.585541</ele>
        <time>2016-09-11T09:03:15Z</time>
      </trkpt>
      <trkpt lat="45.96192" lon="4.67867">
        <ele>287.391266</ele>
        <time>2016-09-11T09:03:17Z</time>
      </trkpt>
      <trkpt lat="45.96202" lon="4.6787">
        <ele>287.331635</ele>
        <time>2016-09-11T09:03:19Z</time>
      </trkpt>
      <trkpt lat="45.96212" lon="4.67872">
        <ele>287.746826</ele>
        <time>2016-09-11T09:03:21Z</time>
      </trkpt>
      <trkpt lat="45.96221" lon="4.67877">
        <ele>287.844727</ele>
        <time>2016-09-11T09:03:23Z</time>
      </trkpt>
      <trkpt lat="45.9623" lon="4.67883">
        <ele>287.797913</ele>
        <time>2016-09-11T09:03:25Z</time>
      </trkpt>
      <trkpt lat="45.96239" lon="4.6789">
        <ele>288.30661</ele>
        <time>2016-09-11T09:03:27Z</time>
      </trkpt>
      <trkpt lat="45.96248" lon="4.67897">
        <ele>288.343445</ele>
        <time>2016-09-11T09:03:29Z</time>
      </trkpt>
      <trkpt lat="45.96257" lon="4.67904">
        <ele>288.381805</ele>
        <time>2016-09-11T09:03:31Z</time>
      </trkpt>
      <trkpt lat="45.96267" lon="4.67911">
        <ele>288.366486</ele>
        <time>2016-09-11T09:03:33Z</time>
      </trkpt>
      <trkpt lat="45.96278" lon="4.67917">
        <ele>288.289856</ele>
        <time>2016-09-11T09:03:35Z</time>
      </trkpt>
      <trkpt lat="45.96289" lon="4.67921">
        <ele>288.326019</ele>
        <time>2016-09-11T09:03:37Z</time>
      </trkpt>
      <trkpt lat="45.963" lon="4.67924">
        <ele>288.228088</ele>
        <time>2016-09-11T09:03:39Z</time>
      </trkpt>
      <trkpt lat="45.96311" lon="4.67926">
        <ele>288.342346</ele>
        <time>2016-09-11T09:03:41Z</time>
      </trkpt>
      <trkpt lat="45.96322" lon="4.67928">
        <ele>288.472107</ele>
        <time>2016-09-11T09:03:43Z</time>
      </trkpt>
      <trkpt lat="45.96333" lon="4.67929">
        <ele>288.465454</ele>
        <time>2016-09-11T09:03:45Z</time>
      </trkpt>
      <trkpt lat="45.96343" lon="4.67931">
        <ele>288.654938</ele>
        <time>2016-09-11T09:03:47Z</time>
      </trkpt>
      <trkpt lat="45.96354" lon="4.67934">
        <ele>288.686859</ele>
        <time>2016-09-11T09:03:49Z</time>
      </trkpt>
      <trkpt lat="45.96364" lon="4.67937">
        <ele>288.607025</ele>
        <time>2016-09-11T09:03:51Z</time>
      </trkpt>
      <trkpt lat="45.96375" lon="4.67941">
        <ele>288.705841</ele>
        <time>2016-09-11T09:03:53Z</time>
      </trkpt>
      <trkpt lat="45.96385" lon="4.67946">
        <ele>288.73468</ele>
        <time>2016-09-11T09:03:55Z</time>
      </trkpt>
      <trkpt lat="45.96396" lon="4.67951">
        <ele>288.738922</ele>
        <time>2016-09-11T09:03:57Z</time>
      </trkpt>
      <trkpt lat="45.96407" lon="4.67956">
        <ele>288.721832</ele>
        <time>2016-09-11T09:03:59Z</time>
      </trkpt>
      <trkpt lat="45.96418" lon="4.67962">
        <ele>288.681366</ele>
        <time>2016-09-11T09:04:01Z</time>
      </trkpt>
      <trkpt lat="45.9643" lon="4.67968">
        <ele>288.472687</ele>
        <time>2016-09-11T09:04:03Z</time>
      </trkpt>
      <trkpt lat="45.96442" lon="4.67974">
        <ele>288.396057</ele>
        <time>2016-09-11T09:04:05Z</time>
      </trkpt>
      <trkpt lat="45.96454" lon="4.6798">
        <ele>288.260956</ele>
        <time>2016-09-11T09:04:07Z</time>
      </trkpt>
      <trkpt lat="45.96465" lon="4.67986">
        <ele>287.984192</ele>
        <time>2016-09-11T09:04:09Z</time>
      </trkpt>
      <trkpt lat="45.96478" lon="4.67992">
        <ele>287.843811</ele>
        <time>2016-09-11T09:04:11Z</time>
      </trkpt>
      <trkpt lat="45.96489" lon="4.68">
        <ele>287.547852</ele>
        <time>2016-09-11T09:04:13Z</time>
      </trkpt>
      <trkpt lat="45.96502" lon="4.6801">
        <ele>287.222229</ele>
        <time>2016-09-11T09:04:15Z</time>
      </trkpt>
      <trkpt lat="45.96515" lon="4.68022">
        <ele>286.930603</ele>
        <time>2016-09-11T09:04:17Z</time>
      </trkpt>
      <trkpt lat="45.9653" lon="4.68034">
        <ele>286.470947</ele>
        <time>2016-09-11T09:04:19Z</time>
      </trkpt>
      <trkpt lat="45.96545" lon="4.6805">
        <ele>286.204926</ele>
        <time>2016-09-11T09:04:21Z</time>
      </trkpt>
      <trkpt lat="45.96559" lon="4.68067">
        <ele>285.974518</ele>
        <time>2016-09-11T09:04:23Z</time>
      </trkpt>
      <trkpt lat="45.96573" lon="4.68085">
        <ele>285.376404</ele>
        <time>2016-09-11T09:04:25Z</time>
      </trkpt>
      <trkpt lat="45.96589" lon="4.681">
        <ele>284.65741</ele>
        <time>2016-09-11T09:04:27Z</time>
      </trkpt>
      <trkpt lat="45.96604" lon="4.68116">
        <ele>283.957428</ele>
        <time>2016-09-11T09:04:29Z</time>
      </trkpt>
      <trkpt lat="45.96617" lon="4.68136">
        <ele>283.085052</ele>
        <time>2016-09-11T09:04:31Z</time>
      </trkpt>
      <trkpt lat="45.96627" lon="4.6816">
        <ele>282.115173</ele>
        <time>2016-09-11T09:04:33Z</time>
      </trkpt>
      <trkpt lat="45.96638" lon="4.68185">
        <ele>281.030243</ele>
        <time>2016-09-11T09:04:35Z</time>
      </trkpt>
      <trkpt lat="45.9665" lon="4.6821">
        <ele>280.015259</ele>
        <time>2016-09-11T09:04:37Z</time>
      </trkpt>
      <trkpt lat="45.96658" lon="4.68228">
        <ele>278.830841</ele>
        <time>2016-09-11T09:04:39Z</time>
      </trkpt>
      <trkpt lat="45.96662" lon="4.68239">
        <ele>277.554962</ele>
        <time>2016-09-11T09:04:41Z</time>
      </trkpt>
      <trkpt lat="45.9666" lon="4.68249">
        <ele>276.183533</ele>
        <time>2016-09-11T09:04:43Z</time>
      </trkpt>
      <trkpt lat="45.96659" lon="4.6826">
        <ele>275.160614</ele>
        <time>2016-09-11T09:04:45Z</time>
      </trkpt>
      <trkpt lat="45.96658" lon="4.68274">
        <ele>274.308472</ele>
        <time>2016-09-11T09:04:47Z</time>
      </trkpt>
      <trkpt lat="45.96653" lon="4.68292">
        <ele>272.592102</ele>
        <time>2016-09-11T09:04:49Z</time>
      </trkpt>
      <trkpt lat="45.96647" lon="4.68315">
        <ele>271.310211</ele>
        <time>2016-09-11T09:04:51Z</time>
      </trkpt>
      <trkpt lat="45.9664" lon="4.6834">
        <ele>269.478271</ele>
        <time>2016-09-11T09:04:53Z</time>
      </trkpt>
      <trkpt lat="45.96634" lon="4.68363">
        <ele>267.481567</ele>
        <time>2016-09-11T09:04:55Z</time>
      </trkpt>
      <trkpt lat="45.96629" lon="4.68384">
        <ele>265.866119</ele>
        <time>2016-09-11T09:04:57Z</time>
      </trkpt>
      <trkpt lat="45.96625" lon="4.68399">
        <ele>264.194489</ele>
        <time>2016-09-11T09:04:59Z</time>
      </trkpt>
      <trkpt lat="45.96618" lon="4.68405">
        <ele>262.205078</ele>
        <time>2016-09-11T09:05:01Z</time>
      </trkpt>
      <trkpt lat="45.9661" lon="4.68405">
        <ele>260.322693</ele>
        <time>2016-09-11T09:05:03Z</time>
      </trkpt>
      <trkpt lat="45.96597" lon="4.684">
        <ele>258.371094</ele>
        <time>2016-09-11T09:05:05Z</time>
      </trkpt>
      <trkpt lat="45.96586" lon="4.68399">
        <ele>256.638611</ele>
        <time>2016-09-11T09:05:07Z</time>
      </trkpt>
      <trkpt lat="45.96577" lon="4.68402">
        <ele>254.342331</ele>
        <time>2016-09-11T09:05:09Z</time>
      </trkpt>
      <trkpt lat="45.9657" lon="4.68403">
        <ele>252.407379</ele>
        <time>2016-09-11T09:05:11Z</time>
      </trkpt>
      <trkpt lat="45.96564" lon="4.68408">
        <ele>251.38472</ele>
        <time>2016-09-11T09:05:13Z</time>
      </trkpt>
      <trkpt lat="45.96561" lon="4.68413">
        <ele>249.562592</ele>
        <time>2016-09-11T09:05:15Z</time>
      </trkpt>
      <trkpt lat="45.96561" lon="4.68419">
        <ele>247.695953</ele>
        <time>2016-09-11T09:05:17Z</time>
      </trkpt>
      <trkpt lat="45.96561" lon="4.68427">
        <ele>245.82309</ele>
        <time>2016-09-11T09:05:19Z</time>
      </trkpt>
      <trkpt lat="45.96561" lon="4.68437">
        <ele>244.2939</ele>
        <time>2016-09-11T09:05:21Z</time>
      </trkpt>
      <trkpt lat="45.96562" lon="4.68448">
        <ele>242.809235</ele>
        <time>2016-09-11T09:05:23Z</time>
      </trkpt>
      <trkpt lat="45.96565" lon="4.6846">
        <ele>241.387253</ele>
        <time>2016-09-11T09:05:25Z</time>
      </trkpt>
      <trkpt lat="45.96566" lon="4.68471">
        <ele>239.77507</ele>
        <time>2016-09-11T09:05:27Z</time>
      </trkpt>
      <trkpt lat="45.96566" lon="4.68482">
        <ele>238.554245</ele>
        <time>2016-09-11T09:05:29Z</time>
      </trkpt>
      <trkpt lat="45.96567" lon="4.68492">
        <ele>237.30542</ele>
        <time>2016-09-11T09:05:31Z</time>
      </trkpt>
      <trkpt lat="45.96568" lon="4.68498">
        <ele>236.696899</ele>
        <time>2016-09-11T09:05:33Z</time>
      </trkpt>
      <trkpt lat="45.96569" lon="4.68502">
        <ele>236.018875</ele>
        <time>2016-09-11T09:05:35Z</time>
      </trkpt>
      <trkpt lat="45.9657" lon="4.68506">
        <ele>235.532303</ele>
        <time>2016-09-11T09:05:37Z</time>
      </trkpt>
      <trkpt lat="45.96571" lon="4.68511">
        <ele>234.854858</ele>
        <time>2016-09-11T09:05:39Z</time>
      </trkpt>
      <trkpt lat="45.96573" lon="4.68515">
        <ele>234.218628</ele>
        <time>2016-09-11T09:05:41Z</time>
      </trkpt>
      <trkpt lat="45.96574" lon="4.6852">
        <ele>234.161407</ele>
        <time>2016-09-11T09:05:43Z</time>
      </trkpt>
      <trkpt lat="45.96576" lon="4.68525">
        <ele>233.838409</ele>
        <time>2016-09-11T09:05:45Z</time>
      </trkpt>
      <trkpt lat="45.96578" lon="4.6853">
        <ele>233.509918</ele>
        <time>2016-09-11T09:05:47Z</time>
      </trkpt>
      <trkpt lat="45.96579" lon="4.68534">
        <ele>233.459442</ele>
        <time>2016-09-11T09:05:49Z</time>
      </trkpt>
      <trkpt lat="45.96581" lon="4.68537">
        <ele>233.84285</ele>
        <time>2016-09-11T09:05:51Z</time>
      </trkpt>
      <trkpt lat="45.96583" lon="4.68541">
        <ele>234.323807</ele>
        <time>2016-09-11T09:05:53Z</time>
      </trkpt>
      <trkpt lat="45.96585" lon="4.68545">
        <ele>234.753815</ele>
        <time>2016-09-11T09:05:55Z</time>
      </trkpt>
      <trkpt lat="45.96587" lon="4.68549">
        <ele>235.31311</ele>
        <time>2016-09-11T09:05:57Z</time>
      </trkpt>
      <trkpt lat="45.96589" lon="4.68553">
        <ele>235.87236</ele>
        <time>2016-09-11T09:05:59Z</time>
      </trkpt>
      <trkpt lat="45.96591" lon="4.68558">
        <ele>236.393478</ele>
        <time>2016-09-11T09:06:01Z</time>
      </trkpt>
      <trkpt lat="45.96592" lon="4.68562">
        <ele>236.393478</ele>
        <time>2016-09-11T09:06:03Z</time>
      </trkpt>
      <trkpt lat="45.96594" lon="4.68566">
        <ele>236.904251</ele>
        <time>2016-09-11T09:06:05Z</time>
      </trkpt>
      <trkpt lat="45.96596" lon="4.68571">
        <ele>237.358841</ele>
        <time>2016-09-11T09:06:07Z</time>
      </trkpt>
      <trkpt lat="45.96597" lon="4.68575">
        <ele>237.769867</ele>
        <time>2016-09-11T09:06:09Z</time>
      </trkpt>
      <trkpt lat="45.96599" lon="4.6858">
        <ele>238.564362</ele>
        <time>2016-09-11T09:06:11Z</time>
      </trkpt>
      <trkpt lat="45.96599" lon="4.68585">
        <ele>239.195755</ele>
        <time>2016-09-11T09:06:13Z</time>
      </trkpt>
      <trkpt lat="45.96599" lon="4.68589">
        <ele>239.787018</ele>
        <time>2016-09-11T09:06:15Z</time>
      </trkpt>
      <trkpt lat="45.96598" lon="4.68592">
        <ele>240.250031</ele>
        <time>2016-09-11T09:06:17Z</time>
      </trkpt>
      <trkpt lat="45.96597" lon="4.68595">
        <ele>240.819092</ele>
        <time>2016-09-11T09:06:19Z</time>
      </trkpt>
      <trkpt lat="45.96595" lon="4.68593">
        <ele>241.26416</ele>
        <time>2016-09-11T09:06:21Z</time>
      </trkpt>
      <trkpt lat="45.96593" lon="4.6859">
        <ele>241.662628</ele>
        <time>2016-09-11T09:06:23Z</time>
      </trkpt>
      <trkpt lat="45.9659" lon="4.68588">
        <ele>242.045609</ele>
        <time>2016-09-11T09:06:25Z</time>
      </trkpt>
      <trkpt lat="45.96588" lon="4.68586">
        <ele>242.48645</ele>
        <time>2016-09-11T09:06:27Z</time>
      </trkpt>
      <trkpt lat="45.96586" lon="4.68585">
        <ele>242.68782</ele>
        <time>2016-09-11T09:06:29Z</time>
      </trkpt>
      <trkpt lat="45.96583" lon="4.68583">
        <ele>243.029816</ele>
        <time>2016-09-11T09:06:31Z</time>
      </trkpt>
      <trkpt lat="45.9658" lon="4.68581">
        <ele>243.374802</ele>
        <time>2016-09-11T09:06:33Z</time>
      </trkpt>
      <trkpt lat="45.96578" lon="4.68579">
        <ele>243.571976</ele>
        <time>2016-09-11T09:06:35Z</time>
      </trkpt>
      <trkpt lat="45.96574" lon="4.68578">
        <ele>243.885696</ele>
        <time>2016-09-11T09:06:37Z</time>
      </trkpt>
      <trkpt lat="45.96571" lon="4.68578">
        <ele>244.092682</ele>
        <time>2016-09-11T09:06:39Z</time>
      </trkpt>
      <trkpt lat="45.9657" lon="4.68577">
        <ele>244.383133</ele>
        <time>2016-09-11T09:06:41Z</time>
      </trkpt>
      <trkpt lat="45.96569" lon="4.68574">
        <ele>244.660858</ele>
        <time>2016-09-11T09:06:43Z</time>
      </trkpt>
      <trkpt lat="45.96571" lon="4.68573">
        <ele>245.014557</ele>
        <time>2016-09-11T09:06:45Z</time>
      </trkpt>
      <trkpt lat="45.96573" lon="4.68574">
        <ele>245.107834</ele>
        <time>2016-09-11T09:06:47Z</time>
      </trkpt>
      <trkpt lat="45.96575" lon="4.68575">
        <ele>245.410568</ele>
        <time>2016-09-11T09:06:49Z</time>
      </trkpt>
      <trkpt lat="45.96576" lon="4.68577">
        <ele>245.423294</ele>
        <time>2016-09-11T09:06:51Z</time>
      </trkpt>
      <trkpt lat="45.96575" lon="4.6858">
        <ele>245.497513</ele>
        <time>2016-09-11T09:06:53Z</time>
      </trkpt>
      <trkpt lat="45.96573" lon="4.6858">
        <ele>245.505981</ele>
        <time>2016-09-11T09:06:55Z</time>
      </trkpt>
      <trkpt lat="45.96571" lon="4.68579">
        <ele>245.533646</ele>
        <time>2016-09-11T09:06:57Z</time>
      </trkpt>
      <trkpt lat="45.96569" lon="4.68577">
        <ele>245.606888</ele>
        <time>2016-09-11T09:06:59Z</time>
      </trkpt>
      <trkpt lat="45.96568" lon="4.68575">
        <ele>245.594162</ele>
        <time>2016-09-11T09:07:01Z</time>
      </trkpt>
      <trkpt lat="45.96566" lon="4.68573">
        <ele>245.581451</ele>
        <time>2016-09-11T09:07:03Z</time>
      </trkpt>
      <trkpt lat="45.96563" lon="4.68572">
        <ele>245.615387</ele>
        <time>2016-09-11T09:07:05Z</time>
      </trkpt>
      <trkpt lat="45.96561" lon="4.68571">
        <ele>245.716705</ele>
        <time>2016-09-11T09:07:07Z</time>
      </trkpt>
      <trkpt lat="45.96558" lon="4.68569">
        <ele>245.732819</ele>
        <time>2016-09-11T09:07:09Z</time>
      </trkpt>
      <trkpt lat="45.96555" lon="4.68567">
        <ele>245.82962</ele>
        <time>2016-09-11T09:07:11Z</time>
      </trkpt>
      <trkpt lat="45.96552" lon="4.68565">
        <ele>245.823242</ele>
        <time>2016-09-11T09:07:13Z</time>
      </trkpt>
      <trkpt lat="45.96547" lon="4.68563">
        <ele>245.898026</ele>
        <time>2016-09-11T09:07:15Z</time>
      </trkpt>
      <trkpt lat="45.96544" lon="4.68561">
        <ele>246.0168</ele>
        <time>2016-09-11T09:07:17Z</time>
      </trkpt>
      <trkpt lat="45.96539" lon="4.68558">
        <ele>246.157547</ele>
        <time>2016-09-11T09:07:19Z</time>
      </trkpt>
      <trkpt lat="45.96534" lon="4.68553">
        <ele>246.19783</ele>
        <time>2016-09-11T09:07:21Z</time>
      </trkpt>
      <trkpt lat="45.96528" lon="4.68548">
        <ele>246.263596</ele>
        <time>2016-09-11T09:07:23Z</time>
      </trkpt>
      <trkpt lat="45.96523" lon="4.68541">
        <ele>246.354782</ele>
        <time>2016-09-11T09:07:25Z</time>
      </trkpt>
      <trkpt lat="45.96517" lon="4.68534">
        <ele>246.484497</ele>
        <time>2016-09-11T09:07:27Z</time>
      </trkpt>
      <trkpt lat="45.96511" lon="4.68527">
        <ele>246.558716</ele>
        <time>2016-09-11T09:07:29Z</time>
      </trkpt>
      <trkpt lat="45.96504" lon="4.6852">
        <ele>246.682098</ele>
        <time>2016-09-11T09:07:31Z</time>
      </trkpt>
      <trkpt lat="45.96496" lon="4.68512">
        <ele>246.82959</ele>
        <time>2016-09-11T09:07:33Z</time>
      </trkpt>
      <trkpt lat="45.96489" lon="4.68505">
        <ele>246.986542</ele>
        <time>2016-09-11T09:07:35Z</time>
      </trkpt>
      <trkpt lat="45.96481" lon="4.68497">
        <ele>247.236786</ele>
        <time>2016-09-11T09:07:37Z</time>
      </trkpt>
      <trkpt lat="45.96473" lon="4.6849">
        <ele>247.395752</ele>
        <time>2016-09-11T09:07:39Z</time>
      </trkpt>
      <trkpt lat="45.96466" lon="4.68484">
        <ele>247.561157</ele>
        <time>2016-09-11T09:07:41Z</time>
      </trkpt>
      <trkpt lat="45.96458" lon="4.68478">
        <ele>247.864456</ele>
        <time>2016-09-11T09:07:43Z</time>
      </trkpt>
      <trkpt lat="45.9645" lon="4.68472">
        <ele>248.087158</ele>
        <time>2016-09-11T09:07:45Z</time>
      </trkpt>
      <trkpt lat="45.96442" lon="4.68465">
        <ele>248.290771</ele>
        <time>2016-09-11T09:07:47Z</time>
      </trkpt>
      <trkpt lat="45.96433" lon="4.68459">
        <ele>248.40152</ele>
        <time>2016-09-11T09:07:49Z</time>
      </trkpt>
      <trkpt lat="45.96425" lon="4.68451">
        <ele>248.59111</ele>
        <time>2016-09-11T09:07:51Z</time>
      </trkpt>
      <trkpt lat="45.96416" lon="4.68445">
        <ele>248.65686</ele>
        <time>2016-09-11T09:07:53Z</time>
      </trkpt>
      <trkpt lat="45.96407" lon="4.68438">
        <ele>248.790451</ele>
        <time>2016-09-11T09:07:55Z</time>
      </trkpt>
      <trkpt lat="45.96398" lon="4.6843">
        <ele>248.968353</ele>
        <time>2016-09-11T09:07:57Z</time>
      </trkpt>
      <trkpt lat="45.96389" lon="4.68422">
        <ele>248.934418</ele>
        <time>2016-09-11T09:07:59Z</time>
      </trkpt>
      <trkpt lat="45.96379" lon="4.68414">
        <ele>248.955643</ele>
        <time>2016-09-11T09:08:01Z</time>
      </trkpt>
      <trkpt lat="45.96369" lon="4.68405">
        <ele>248.934418</ele>
        <time>2016-09-11T09:08:03Z</time>
      </trkpt>
      <trkpt lat="45.9636" lon="4.68397">
        <ele>248.824142</ele>
        <time>2016-09-11T09:08:05Z</time>
      </trkpt>
      <trkpt lat="45.9635" lon="4.68389">
        <ele>248.726593</ele>
        <time>2016-09-11T09:08:07Z</time>
      </trkpt>
      <trkpt lat="45.96341" lon="4.68384">
        <ele>248.787842</ele>
        <time>2016-09-11T09:08:09Z</time>
      </trkpt>
      <trkpt lat="45.96331" lon="4.68384">
        <ele>248.834518</ele>
        <time>2016-09-11T09:08:11Z</time>
      </trkpt>
      <trkpt lat="45.9632" lon="4.68386">
        <ele>248.88118</ele>
        <time>2016-09-11T09:08:13Z</time>
      </trkpt>
      <trkpt lat="45.9631" lon="4.6839">
        <ele>248.865845</ele>
        <time>2016-09-11T09:08:15Z</time>
      </trkpt>
      <trkpt lat="45.963" lon="4.68395">
        <ele>248.743652</ele>
        <time>2016-09-11T09:08:17Z</time>
      </trkpt>
      <trkpt lat="45.96291" lon="4.684">
        <ele>248.631226</ele>
        <time>2016-09-11T09:08:19Z</time>
      </trkpt>
      <trkpt lat="45.96282" lon="4.684">
        <ele>248.359787</ele>
        <time>2016-09-11T09:08:21Z</time>
      </trkpt>
      <trkpt lat="45.96277" lon="4.68399">
        <ele>248.2686</ele>
        <time>2016-09-11T09:08:23Z</time>
      </trkpt>
      <trkpt lat="45.96273" lon="4.68399">
        <ele>248.024658</ele>
        <time>2016-09-11T09:08:25Z</time>
      </trkpt>
      <trkpt lat="45.9627" lon="4.68398">
        <ele>247.91861</ele>
        <time>2016-09-11T09:08:27Z</time>
      </trkpt>
      <trkpt lat="45.96268" lon="4.68398">
        <ele>247.753143</ele>
        <time>2016-09-11T09:08:29Z</time>
      </trkpt>
      <trkpt lat="45.96266" lon="4.68397">
        <ele>247.659836</ele>
        <time>2016-09-11T09:08:31Z</time>
      </trkpt>
      <trkpt lat="45.96264" lon="4.68398">
        <ele>247.653473</ele>
        <time>2016-09-11T09:08:33Z</time>
      </trkpt>
      <trkpt lat="45.96261" lon="4.68398">
        <ele>247.708618</ele>
        <time>2016-09-11T09:08:35Z</time>
      </trkpt>
      <trkpt lat="45.96258" lon="4.68398">
        <ele>247.821045</ele>
        <time>2016-09-11T09:08:37Z</time>
      </trkpt>
      <trkpt lat="45.96256" lon="4.68398">
        <ele>247.875</ele>
        <time>2016-09-11T09:08:39Z</time>
      </trkpt>
      <trkpt lat="45.96252" lon="4.68398">
        <ele>247.902588</ele>
        <time>2016-09-11T09:08:41Z</time>
      </trkpt>
      <trkpt lat="45.9625" lon="4.68399">
        <ele>247.936523</ele>
        <time>2016-09-11T09:08:43Z</time>
      </trkpt>
      <trkpt lat="45.96247" lon="4.68399">
        <ele>248.082886</ele>
        <time>2016-09-11T09:08:45Z</time>
      </trkpt>
      <trkpt lat="45.96243" lon="4.68399">
        <ele>248.314117</ele>
        <time>2016-09-11T09:08:47Z</time>
      </trkpt>
      <trkpt lat="45.9624" lon="4.68398">
        <ele>248.649292</ele>
        <time>2016-09-11T09:08:49Z</time>
      </trkpt>
      <trkpt lat="45.96236" lon="4.68396">
        <ele>248.887131</ele>
        <time>2016-09-11T09:08:51Z</time>
      </trkpt>
      <trkpt lat="45.96233" lon="4.68394">
        <ele>249.112061</ele>
        <time>2016-09-11T09:08:53Z</time>
      </trkpt>
      <trkpt lat="45.96229" lon="4.68391">
        <ele>249.395706</ele>
        <time>2016-09-11T09:08:55Z</time>
      </trkpt>
      <trkpt lat="45.96225" lon="4.68388">
        <ele>249.709076</ele>
        <time>2016-09-11T09:08:57Z</time>
      </trkpt>
      <trkpt lat="45.96221" lon="4.68384">
        <ele>250.129364</ele>
        <time>2016-09-11T09:08:59Z</time>
      </trkpt>
      <trkpt lat="45.96216" lon="4.68381">
        <ele>250.459518</ele>
        <time>2016-09-11T09:09:01Z</time>
      </trkpt>
      <trkpt lat="45.96211" lon="4.68377">
        <ele>250.741669</ele>
        <time>2016-09-11T09:09:03Z</time>
      </trkpt>
      <trkpt lat="45.96205" lon="4.68372">
        <ele>250.9814</ele>
        <time>2016-09-11T09:09:05Z</time>
      </trkpt>
      <trkpt lat="45.96199" lon="4.68367">
        <ele>251.431183</ele>
        <time>2016-09-11T09:09:07Z</time>
      </trkpt>
      <trkpt lat="45.96192" lon="4.68362">
        <ele>251.607254</ele>
        <time>2016-09-11T09:09:09Z</time>
      </trkpt>
      <trkpt lat="45.96186" lon="4.68356">
        <ele>251.932281</ele>
        <time>2016-09-11T09:09:11Z</time>
      </trkpt>
      <trkpt lat="45.96177" lon="4.68351">
        <ele>252.303558</ele>
        <time>2016-09-11T09:09:13Z</time>
      </trkpt>
      <trkpt lat="45.96169" lon="4.68346">
        <ele>252.547531</ele>
        <time>2016-09-11T09:09:15Z</time>
      </trkpt>
      <trkpt lat="45.96159" lon="4.68341">
        <ele>252.831863</ele>
        <time>2016-09-11T09:09:17Z</time>
      </trkpt>
      <trkpt lat="45.9615" lon="4.68337">
        <ele>252.982544</ele>
        <time>2016-09-11T09:09:19Z</time>
      </trkpt>
      <trkpt lat="45.96141" lon="4.68333">
        <ele>253.111237</ele>
        <time>2016-09-11T09:09:21Z</time>
      </trkpt>
      <trkpt lat="45.96132" lon="4.68328">
        <ele>253.171677</ele>
        <time>2016-09-11T09:09:23Z</time>
      </trkpt>
      <trkpt lat="45.96122" lon="4.68325">
        <ele>253.317017</ele>
        <time>2016-09-11T09:09:25Z</time>
      </trkpt>
      <trkpt lat="45.96113" lon="4.68321">
        <ele>253.105026</ele>
        <time>2016-09-11T09:09:27Z</time>
      </trkpt>
      <trkpt lat="45.96105" lon="4.68319">
        <ele>253.077469</ele>
        <time>2016-09-11T09:09:29Z</time>
      </trkpt>
      <trkpt lat="45.96096" lon="4.68317">
        <ele>253.030762</ele>
        <time>2016-09-11T09:09:31Z</time>
      </trkpt>
      <trkpt lat="45.96088" lon="4.68314">
        <ele>253.068939</ele>
        <time>2016-09-11T09:09:33Z</time>
      </trkpt>
      <trkpt lat="45.9608" lon="4.68312">
        <ele>252.988312</ele>
        <time>2016-09-11T09:09:35Z</time>
      </trkpt>
      <trkpt lat="45.96073" lon="4.68312">
        <ele>252.731644</ele>
        <time>2016-09-11T09:09:37Z</time>
      </trkpt>
      <trkpt lat="45.96069" lon="4.68318">
        <ele>252.803558</ele>
        <time>2016-09-11T09:09:39Z</time>
      </trkpt>
      <trkpt lat="45.96068" lon="4.68323">
        <ele>252.742218</ele>
        <time>2016-09-11T09:09:41Z</time>
      </trkpt>
      <trkpt lat="45.96065" lon="4.68327">
        <ele>253.015182</ele>
        <time>2016-09-11T09:09:43Z</time>
      </trkpt>
      <trkpt lat="45.96063" lon="4.68331">
        <ele>253.225266</ele>
        <time>2016-09-11T09:09:45Z</time>
      </trkpt>
      <trkpt lat="45.96061" lon="4.68333">
        <ele>253.524445</ele>
        <time>2016-09-11T09:09:47Z</time>
      </trkpt>
      <trkpt lat="45.96057" lon="4.68333">
        <ele>253.515961</ele>
        <time>2016-09-11T09:09:49Z</time>
      </trkpt>
      <trkpt lat="45.96054" lon="4.68336">
        <ele>253.678955</ele>
        <time>2016-09-11T09:09:51Z</time>
      </trkpt>
      <trkpt lat="45.9605" lon="4.68339">
        <ele>253.827545</ele>
        <time>2016-09-11T09:09:53Z</time>
      </trkpt>
      <trkpt lat="45.96046" lon="4.68342">
        <ele>253.957443</ele>
        <time>2016-09-11T09:09:55Z</time>
      </trkpt>
      <trkpt lat="45.96042" lon="4.68344">
        <ele>254.068878</ele>
        <time>2016-09-11T09:09:57Z</time>
      </trkpt>
      <trkpt lat="45.96037" lon="4.68343">
        <ele>254.266281</ele>
        <time>2016-09-11T09:09:59Z</time>
      </trkpt>
      <trkpt lat="45.96032" lon="4.68342">
        <ele>254.59314</ele>
        <time>2016-09-11T09:10:01Z</time>
      </trkpt>
      <trkpt lat="45.96026" lon="4.68339">
        <ele>254.832489</ele>
        <time>2016-09-11T09:10:03Z</time>
      </trkpt>
      <trkpt lat="45.96019" lon="4.68336">
        <ele>255.219772</ele>
        <time>2016-09-11T09:10:05Z</time>
      </trkpt>
      <trkpt lat="45.96013" lon="4.68332">
        <ele>255.4384</ele>
        <time>2016-09-11T09:10:07Z</time>
      </trkpt>
      <trkpt lat="45.96007" lon="4.68328">
        <ele>256.130096</ele>
        <time>2016-09-11T09:10:09Z</time>
      </trkpt>
      <trkpt lat="45.96" lon="4.68324">
        <ele>256.535461</ele>
        <time>2016-09-11T09:10:11Z</time>
      </trkpt>
      <trkpt lat="45.95993" lon="4.68319">
        <ele>256.8815</ele>
        <time>2016-09-11T09:10:13Z</time>
      </trkpt>
      <trkpt lat="45.95985" lon="4.68315">
        <ele>257.114929</ele>
        <time>2016-09-11T09:10:15Z</time>
      </trkpt>
      <trkpt lat="45.95976" lon="4.6831">
        <ele>257.43335</ele>
        <time>2016-09-11T09:10:17Z</time>
      </trkpt>
      <trkpt lat="45.95968" lon="4.68305">
        <ele>258.031372</ele>
        <time>2016-09-11T09:10:19Z</time>
      </trkpt>
      <trkpt lat="45.95958" lon="4.683">
        <ele>258.287811</ele>
        <time>2016-09-11T09:10:21Z</time>
      </trkpt>
      <trkpt lat="45.95947" lon="4.68294">
        <ele>258.595032</ele>
        <time>2016-09-11T09:10:23Z</time>
      </trkpt>
      <trkpt lat="45.95936" lon="4.68292">
        <ele>258.467651</ele>
        <time>2016-09-11T09:10:25Z</time>
      </trkpt>
      <trkpt lat="45.95924" lon="4.68296">
        <ele>258.510406</ele>
        <time>2016-09-11T09:10:27Z</time>
      </trkpt>
      <trkpt lat="45.95909" lon="4.683">
        <ele>258.00116</ele>
        <time>2016-09-11T09:10:29Z</time>
      </trkpt>
      <trkpt lat="45.95894" lon="4.68301">
        <ele>257.871735</ele>
        <time>2016-09-11T09:10:31Z</time>
      </trkpt>
      <trkpt lat="45.95882" lon="4.68297">
        <ele>257.666626</ele>
        <time>2016-09-11T09:10:33Z</time>
      </trkpt>
      <trkpt lat="45.95874" lon="4.6829">
        <ele>257.191345</ele>
        <time>2016-09-11T09:10:35Z</time>
      </trkpt>
      <trkpt lat="45.95868" lon="4.68286">
        <ele>256.613831</ele>
        <time>2016-09-11T09:10:37Z</time>
      </trkpt>
      <trkpt lat="45.95866" lon="4.6829">
        <ele>256.26004</ele>
        <time>2016-09-11T09:10:39Z</time>
      </trkpt>
      <trkpt lat="45.9587" lon="4.68295">
        <ele>255.791046</ele>
        <time>2016-09-11T09:10:41Z</time>
      </trkpt>
      <trkpt lat="45.95875" lon="4.68301">
        <ele>255.223145</ele>
        <time>2016-09-11T09:10:43Z</time>
      </trkpt>
      <trkpt lat="45.95882" lon="4.68308">
        <ele>254.703171</ele>
        <time>2016-09-11T09:10:45Z</time>
      </trkpt>
      <trkpt lat="45.95889" lon="4.68314">
        <ele>254.278732</ele>
        <time>2016-09-11T09:10:47Z</time>
      </trkpt>
      <trkpt lat="45.95897" lon="4.6832">
        <ele>253.716278</ele>
        <time>2016-09-11T09:10:49Z</time>
      </trkpt>
      <trkpt lat="45.95905" lon="4.68326">
        <ele>253.113556</ele>
        <time>2016-09-11T09:10:51Z</time>
      </trkpt>
      <trkpt lat="45.95913" lon="4.68332">
        <ele>252.571945</ele>
        <time>2016-09-11T09:10:53Z</time>
      </trkpt>
      <trkpt lat="45.95921" lon="4.68338">
        <ele>252.225998</ele>
        <time>2016-09-11T09:10:55Z</time>
      </trkpt>
      <trkpt lat="45.95929" lon="4.68344">
        <ele>251.990448</ele>
        <time>2016-09-11T09:10:57Z</time>
      </trkpt>
      <trkpt lat="45.95936" lon="4.6835">
        <ele>251.657196</ele>
        <time>2016-09-11T09:10:59Z</time>
      </trkpt>
      <trkpt lat="45.95943" lon="4.68357">
        <ele>251.364655</ele>
        <time>2016-09-11T09:11:01Z</time>
      </trkpt>
      <trkpt lat="45.95949" lon="4.68364">
        <ele>250.958374</ele>
        <time>2016-09-11T09:11:03Z</time>
      </trkpt>
      <trkpt lat="45.95955" lon="4.68373">
        <ele>250.404465</ele>
        <time>2016-09-11T09:11:05Z</time>
      </trkpt>
      <trkpt lat="45.9596" lon="4.68382">
        <ele>250.226196</ele>
        <time>2016-09-11T09:11:07Z</time>
      </trkpt>
      <trkpt lat="45.95964" lon="4.68392">
        <ele>250.005203</ele>
        <time>2016-09-11T09:11:09Z</time>
      </trkpt>
      <trkpt lat="45.95968" lon="4.68402">
        <ele>250.143097</ele>
        <time>2016-09-11T09:11:11Z</time>
      </trkpt>
      <trkpt lat="45.95972" lon="4.68412">
        <ele>250.300095</ele>
        <time>2016-09-11T09:11:13Z</time>
      </trkpt>
      <trkpt lat="45.95977" lon="4.68422">
        <ele>250.420242</ele>
        <time>2016-09-11T09:11:15Z</time>
      </trkpt>
      <trkpt lat="45.95981" lon="4.68432">
        <ele>250.863602</ele>
        <time>2016-09-11T09:11:17Z</time>
      </trkpt>
      <trkpt lat="45.95985" lon="4.68442">
        <ele>251.092728</ele>
        <time>2016-09-11T09:11:19Z</time>
      </trkpt>
      <trkpt lat="45.95989" lon="4.68451">
        <ele>251.309616</ele>
        <time>2016-09-11T09:11:21Z</time>
      </trkpt>
      <trkpt lat="45.95993" lon="4.68461">
        <ele>251.536835</ele>
        <time>2016-09-11T09:11:23Z</time>
      </trkpt>
      <trkpt lat="45.95997" lon="4.68471">
        <ele>251.853851</ele>
        <time>2016-09-11T09:11:25Z</time>
      </trkpt>
      <trkpt lat="45.96" lon="4.68481">
        <ele>251.998123</ele>
        <time>2016-09-11T09:11:27Z</time>
      </trkpt>
      <trkpt lat="45.96003" lon="4.68491">
        <ele>252.339767</ele>
        <time>2016-09-11T09:11:29Z</time>
      </trkpt>
      <trkpt lat="45.96006" lon="4.68498">
        <ele>252.65596</ele>
        <time>2016-09-11T09:11:31Z</time>
      </trkpt>
      <trkpt lat="45.96009" lon="4.68505">
        <ele>252.993317</ele>
        <time>2016-09-11T09:11:33Z</time>
      </trkpt>
      <trkpt lat="45.96011" lon="4.68512">
        <ele>253.454224</ele>
        <time>2016-09-11T09:11:35Z</time>
      </trkpt>
      <trkpt lat="45.96013" lon="4.6852">
        <ele>253.711014</ele>
        <time>2016-09-11T09:11:37Z</time>
      </trkpt>
      <trkpt lat="45.96015" lon="4.68527">
        <ele>254.016571</ele>
        <time>2016-09-11T09:11:39Z</time>
      </trkpt>
      <trkpt lat="45.96017" lon="4.68535">
        <ele>254.16304</ele>
        <time>2016-09-11T09:11:41Z</time>
      </trkpt>
      <trkpt lat="45.96018" lon="4.68543">
        <ele>254.350662</ele>
        <time>2016-09-11T09:11:43Z</time>
      </trkpt>
      <trkpt lat="45.96019" lon="4.68552">
        <ele>254.743256</ele>
        <time>2016-09-11T09:11:45Z</time>
      </trkpt>
      <trkpt lat="45.96021" lon="4.6856">
        <ele>255.197433</ele>
        <time>2016-09-11T09:11:47Z</time>
      </trkpt>
      <trkpt lat="45.96022" lon="4.68568">
        <ele>255.503098</ele>
        <time>2016-09-11T09:11:49Z</time>
      </trkpt>
      <trkpt lat="45.96023" lon="4.68577">
        <ele>256.042175</ele>
        <time>2016-09-11T09:11:51Z</time>
      </trkpt>
      <trkpt lat="45.96023" lon="4.68585">
        <ele>256.216248</ele>
        <time>2016-09-11T09:11:53Z</time>
      </trkpt>
      <trkpt lat="45.96024" lon="4.68592">
        <ele>256.601471</ele>
        <time>2016-09-11T09:11:55Z</time>
      </trkpt>
      <trkpt lat="45.96024" lon="4.68601">
        <ele>256.898651</ele>
        <time>2016-09-11T09:11:57Z</time>
      </trkpt>
      <trkpt lat="45.96024" lon="4.68609">
        <ele>257.19162</ele>
        <time>2016-09-11T09:11:59Z</time>
      </trkpt>
      <trkpt lat="45.96023" lon="4.68617">
        <ele>257.554626</ele>
        <time>2016-09-11T09:12:01Z</time>
      </trkpt>
      <trkpt lat="45.96022" lon="4.68624">
        <ele>257.920563</ele>
        <time>2016-09-11T09:12:03Z</time>
      </trkpt>
      <trkpt lat="45.96022" lon="4.68632">
        <ele>258.371887</ele>
        <time>2016-09-11T09:12:05Z</time>
      </trkpt>
      <trkpt lat="45.96021" lon="4.6864">
        <ele>258.792297</ele>
        <time>2016-09-11T09:12:07Z</time>
      </trkpt>
      <trkpt lat="45.9602" lon="4.68647">
        <ele>259.121399</ele>
        <time>2016-09-11T09:12:09Z</time>
      </trkpt>
      <trkpt lat="45.96019" lon="4.68654">
        <ele>259.482361</ele>
        <time>2016-09-11T09:12:11Z</time>
      </trkpt>
      <trkpt lat="45.96018" lon="4.68661">
        <ele>259.894318</ele>
        <time>2016-09-11T09:12:13Z</time>
      </trkpt>
      <trkpt lat="45.96017" lon="4.68668">
        <ele>260.109833</ele>
        <time>2016-09-11T09:12:15Z</time>
      </trkpt>
      <trkpt lat="45.96016" lon="4.68675">
        <ele>260.47934</ele>
        <time>2016-09-11T09:12:17Z</time>
      </trkpt>
      <trkpt lat="45.96015" lon="4.68682">
        <ele>260.91684</ele>
        <time>2016-09-11T09:12:19Z</time>
      </trkpt>
      <trkpt lat="45.96014" lon="4.68689">
        <ele>261.301208</ele>
        <time>2016-09-11T09:12:21Z</time>
      </trkpt>
      <trkpt lat="45.96013" lon="4.68696">
        <ele>261.746552</ele>
        <time>2016-09-11T09:12:23Z</time>
      </trkpt>
      <trkpt lat="45.96013" lon="4.68703">
        <ele>262.194641</ele>
        <time>2016-09-11T09:12:25Z</time>
      </trkpt>
      <trkpt lat="45.96012" lon="4.6871">
        <ele>262.543304</ele>
        <time>2016-09-11T09:12:27Z</time>
      </trkpt>
      <trkpt lat="45.96011" lon="4.68717">
        <ele>262.878845</ele>
        <time>2016-09-11T09:12:29Z</time>
      </trkpt>
      <trkpt lat="45.96011" lon="4.68724">
        <ele>263.176208</ele>
        <time>2016-09-11T09:12:31Z</time>
      </trkpt>
      <trkpt lat="45.96011" lon="4.68731">
        <ele>263.550079</ele>
        <time>2016-09-11T09:12:33Z</time>
      </trkpt>
      <trkpt lat="45.96011" lon="4.68738">
        <ele>263.976013</ele>
        <time>2016-09-11T09:12:35Z</time>
      </trkpt>
      <trkpt lat="45.9601" lon="4.68745">
        <ele>264.390259</ele>
        <time>2016-09-11T09:12:37Z</time>
      </trkpt>
      <trkpt lat="45.9601" lon="4.68752">
        <ele>264.772644</ele>
        <time>2016-09-11T09:12:39Z</time>
      </trkpt>
      <trkpt lat="45.96011" lon="4.68759">
        <ele>264.904358</ele>
        <time>2016-09-11T09:12:41Z</time>
      </trkpt>
      <trkpt lat="45.96011" lon="4.68767">
        <ele>265.325317</ele>
        <time>2016-09-11T09:12:43Z</time>
      </trkpt>
      <trkpt lat="45.96011" lon="4.68775">
        <ele>265.723877</ele>
        <time>2016-09-11T09:12:45Z</time>
      </trkpt>
      <trkpt lat="45.96013" lon="4.68783">
        <ele>266.058044</ele>
        <time>2016-09-11T09:12:47Z</time>
      </trkpt>
      <trkpt lat="45.96014" lon="4.68791">
        <ele>266.333374</ele>
        <time>2016-09-11T09:12:49Z</time>
      </trkpt>
      <trkpt lat="45.96014" lon="4.688">
        <ele>266.615906</ele>
        <time>2016-09-11T09:12:51Z</time>
      </trkpt>
      <trkpt lat="45.96016" lon="4.68808">
        <ele>266.919739</ele>
        <time>2016-09-11T09:12:53Z</time>
      </trkpt>
      <trkpt lat="45.96017" lon="4.68817">
        <ele>267.12796</ele>
        <time>2016-09-11T09:12:55Z</time>
      </trkpt>
      <trkpt lat="45.96019" lon="4.68825">
        <ele>267.39328</ele>
        <time>2016-09-11T09:12:57Z</time>
      </trkpt>
      <trkpt lat="45.9602" lon="4.68834">
        <ele>267.6203</ele>
        <time>2016-09-11T09:12:59Z</time>
      </trkpt>
      <trkpt lat="45.96021" lon="4.68842">
        <ele>267.773285</ele>
        <time>2016-09-11T09:13:01Z</time>
      </trkpt>
      <trkpt lat="45.96022" lon="4.68851">
        <ele>267.949646</ele>
        <time>2016-09-11T09:13:03Z</time>
      </trkpt>
      <trkpt lat="45.96023" lon="4.68859">
        <ele>268.235016</ele>
        <time>2016-09-11T09:13:05Z</time>
      </trkpt>
      <trkpt lat="45.96024" lon="4.68867">
        <ele>268.436493</ele>
        <time>2016-09-11T09:13:07Z</time>
      </trkpt>
      <trkpt lat="45.96026" lon="4.68874">
        <ele>268.71698</ele>
        <time>2016-09-11T09:13:09Z</time>
      </trkpt>
      <trkpt lat="45.96027" lon="4.68881">
        <ele>268.901917</ele>
        <time>2016-09-11T09:13:11Z</time>
      </trkpt>
      <trkpt lat="45.96028" lon="4.68889">
        <ele>269.166748</ele>
        <time>2016-09-11T09:13:13Z</time>
      </trkpt>
      <trkpt lat="45.96029" lon="4.68896">
        <ele>269.372894</ele>
        <time>2016-09-11T09:13:15Z</time>
      </trkpt>
      <trkpt lat="45.9603" lon="4.68904">
        <ele>269.591858</ele>
        <time>2016-09-11T09:13:17Z</time>
      </trkpt>
      <trkpt lat="45.96032" lon="4.68911">
        <ele>269.823547</ele>
        <time>2016-09-11T09:13:19Z</time>
      </trkpt>
      <trkpt lat="45.96033" lon="4.68918">
        <ele>270.165741</ele>
        <time>2016-09-11T09:13:21Z</time>
      </trkpt>
      <trkpt lat="45.96034" lon="4.68925">
        <ele>270.46936</ele>
        <time>2016-09-11T09:13:23Z</time>
      </trkpt>
      <trkpt lat="45.96035" lon="4.68932">
        <ele>270.689453</ele>
        <time>2016-09-11T09:13:25Z</time>
      </trkpt>
      <trkpt lat="45.96036" lon="4.68939">
        <ele>271.067871</ele>
        <time>2016-09-11T09:13:27Z</time>
      </trkpt>
      <trkpt lat="45.96037" lon="4.68945">
        <ele>271.385498</ele>
        <time>2016-09-11T09:13:29Z</time>
      </trkpt>
      <trkpt lat="45.96038" lon="4.68952">
        <ele>271.76178</ele>
        <time>2016-09-11T09:13:31Z</time>
      </trkpt>
      <trkpt lat="45.96039" lon="4.68959">
        <ele>272.097656</ele>
        <time>2016-09-11T09:13:33Z</time>
      </trkpt>
      <trkpt lat="45.9604" lon="4.68965">
        <ele>272.498932</ele>
        <time>2016-09-11T09:13:35Z</time>
      </trkpt>
      <trkpt lat="45.96042" lon="4.68972">
        <ele>272.783813</ele>
        <time>2016-09-11T09:13:37Z</time>
      </trkpt>
      <trkpt lat="45.96043" lon="4.68979">
        <ele>273.259583</ele>
        <time>2016-09-11T09:13:39Z</time>
      </trkpt>
      <trkpt lat="45.96045" lon="4.68985">
        <ele>273.463715</ele>
        <time>2016-09-11T09:13:41Z</time>
      </trkpt>
      <trkpt lat="45.96046" lon="4.68992">
        <ele>273.878845</ele>
        <time>2016-09-11T09:13:43Z</time>
      </trkpt>
      <trkpt lat="45.96048" lon="4.68999">
        <ele>274.323059</ele>
        <time>2016-09-11T09:13:45Z</time>
      </trkpt>
      <trkpt lat="45.9605" lon="4.69005">
        <ele>274.848358</ele>
        <time>2016-09-11T09:13:47Z</time>
      </trkpt>
      <trkpt lat="45.96052" lon="4.69011">
        <ele>275.318329</ele>
        <time>2016-09-11T09:13:49Z</time>
      </trkpt>
      <trkpt lat="45.96055" lon="4.69017">
        <ele>275.758484</ele>
        <time>2016-09-11T09:13:51Z</time>
      </trkpt>
      <trkpt lat="45.96056" lon="4.69024">
        <ele>276.148529</ele>
        <time>2016-09-11T09:13:53Z</time>
      </trkpt>
      <trkpt lat="45.96058" lon="4.6903">
        <ele>276.595154</ele>
        <time>2016-09-11T09:13:55Z</time>
      </trkpt>
      <trkpt lat="45.96061" lon="4.69036">
        <ele>277.078888</ele>
        <time>2016-09-11T09:13:57Z</time>
      </trkpt>
      <trkpt lat="45.96064" lon="4.69042">
        <ele>277.542572</ele>
        <time>2016-09-11T09:13:59Z</time>
      </trkpt>
      <trkpt lat="45.96066" lon="4.69048">
        <ele>277.955231</ele>
        <time>2016-09-11T09:14:01Z</time>
      </trkpt>
      <trkpt lat="45.96068" lon="4.69054">
        <ele>278.346619</ele>
        <time>2016-09-11T09:14:03Z</time>
      </trkpt>
      <trkpt lat="45.96071" lon="4.69059">
        <ele>278.744415</ele>
        <time>2016-09-11T09:14:05Z</time>
      </trkpt>
      <trkpt lat="45.96075" lon="4.69065">
        <ele>278.915558</ele>
        <time>2016-09-11T09:14:07Z</time>
      </trkpt>
      <trkpt lat="45.96077" lon="4.6907">
        <ele>279.338867</ele>
        <time>2016-09-11T09:14:09Z</time>
      </trkpt>
      <trkpt lat="45.9608" lon="4.69076">
        <ele>279.72818</ele>
        <time>2016-09-11T09:14:11Z</time>
      </trkpt>
      <trkpt lat="45.96083" lon="4.69082">
        <ele>280.056854</ele>
        <time>2016-09-11T09:14:13Z</time>
      </trkpt>
      <trkpt lat="45.96085" lon="4.69087">
        <ele>280.480255</ele>
        <time>2016-09-11T09:14:15Z</time>
      </trkpt>
      <trkpt lat="45.96088" lon="4.69093">
        <ele>280.859467</ele>
        <time>2016-09-11T09:14:17Z</time>
      </trkpt>
      <trkpt lat="45.96091" lon="4.69098">
        <ele>281.250916</ele>
        <time>2016-09-11T09:14:19Z</time>
      </trkpt>
      <trkpt lat="45.96094" lon="4.69103">
        <ele>281.63031</ele>
        <time>2016-09-11T09:14:21Z</time>
      </trkpt>
      <trkpt lat="45.96098" lon="4.69108">
        <ele>281.970154</ele>
        <time>2016-09-11T09:14:23Z</time>
      </trkpt>
      <trkpt lat="45.96101" lon="4.69113">
        <ele>282.324005</ele>
        <time>2016-09-11T09:14:25Z</time>
      </trkpt>
      <trkpt lat="45.96104" lon="4.69118">
        <ele>282.600739</ele>
        <time>2016-09-11T09:14:27Z</time>
      </trkpt>
      <trkpt lat="45.96108" lon="4.69123">
        <ele>282.86676</ele>
        <time>2016-09-11T09:14:29Z</time>
      </trkpt>
      <trkpt lat="45.96113" lon="4.69128">
        <ele>283.266846</ele>
        <time>2016-09-11T09:14:31Z</time>
      </trkpt>
      <trkpt lat="45.96117" lon="4.69134">
        <ele>283.628326</ele>
        <time>2016-09-11T09:14:33Z</time>
      </trkpt>
      <trkpt lat="45.96123" lon="4.69141">
        <ele>283.915619</ele>
        <time>2016-09-11T09:14:35Z</time>
      </trkpt>
      <trkpt lat="45.96127" lon="4.69148">
        <ele>284.236023</ele>
        <time>2016-09-11T09:14:37Z</time>
      </trkpt>
      <trkpt lat="45.96129" lon="4.69156">
        <ele>284.342468</ele>
        <time>2016-09-11T09:14:39Z</time>
      </trkpt>
      <trkpt lat="45.9613" lon="4.69163">
        <ele>284.459503</ele>
        <time>2016-09-11T09:14:41Z</time>
      </trkpt>
      <trkpt lat="45.96127" lon="4.69167">
        <ele>284.582947</ele>
        <time>2016-09-11T09:14:43Z</time>
      </trkpt>
      <trkpt lat="45.96123" lon="4.69169">
        <ele>284.834106</ele>
        <time>2016-09-11T09:14:45Z</time>
      </trkpt>
      <trkpt lat="45.96119" lon="4.69169">
        <ele>285.070374</ele>
        <time>2016-09-11T09:14:47Z</time>
      </trkpt>
      <trkpt lat="45.96116" lon="4.69168">
        <ele>285.253387</ele>
        <time>2016-09-11T09:14:49Z</time>
      </trkpt>
      <trkpt lat="45.96113" lon="4.69167">
        <ele>285.538635</ele>
        <time>2016-09-11T09:14:51Z</time>
      </trkpt>
      <trkpt lat="45.9611" lon="4.69166">
        <ele>285.839813</ele>
        <time>2016-09-11T09:14:53Z</time>
      </trkpt>
      <trkpt lat="45.96108" lon="4.69165">
        <ele>286.063324</ele>
        <time>2016-09-11T09:14:55Z</time>
      </trkpt>
      <trkpt lat="45.96105" lon="4.69165">
        <ele>286.30838</ele>
        <time>2016-09-11T09:14:57Z</time>
      </trkpt>
      <trkpt lat="45.96103" lon="4.69164">
        <ele>286.661804</ele>
        <time>2016-09-11T09:14:59Z</time>
      </trkpt>
      <trkpt lat="45.961" lon="4.69163">
        <ele>286.979034</ele>
        <time>2016-09-11T09:15:01Z</time>
      </trkpt>
      <trkpt lat="45.96096" lon="4.69162">
        <ele>287.214783</ele>
        <time>2016-09-11T09:15:03Z</time>
      </trkpt>
      <trkpt lat="45.96093" lon="4.69162">
        <ele>287.566864</ele>
        <time>2016-09-11T09:15:05Z</time>
      </trkpt>
      <trkpt lat="45.9609" lon="4.69161">
        <ele>287.928223</ele>
        <time>2016-09-11T09:15:07Z</time>
      </trkpt>
      <trkpt lat="45.96087" lon="4.69161">
        <ele>288.339203</ele>
        <time>2016-09-11T09:15:09Z</time>
      </trkpt>
      <trkpt lat="45.96084" lon="4.69161">
        <ele>288.611725</ele>
        <time>2016-09-11T09:15:11Z</time>
      </trkpt>
      <trkpt lat="45.9608" lon="4.6916">
        <ele>288.886414</ele>
        <time>2016-09-11T09:15:13Z</time>
      </trkpt>
      <trkpt lat="45.96077" lon="4.6916">
        <ele>289.182739</ele>
        <time>2016-09-11T09:15:15Z</time>
      </trkpt>
      <trkpt lat="45.96073" lon="4.69159">
        <ele>289.502167</ele>
        <time>2016-09-11T09:15:17Z</time>
      </trkpt>
      <trkpt lat="45.9607" lon="4.69159">
        <ele>289.872742</ele>
        <time>2016-09-11T09:15:19Z</time>
      </trkpt>
      <trkpt lat="45.96067" lon="4.69158">
        <ele>290.285828</ele>
        <time>2016-09-11T09:15:21Z</time>
      </trkpt>
      <trkpt lat="45.96063" lon="4.69158">
        <ele>290.773499</ele>
        <time>2016-09-11T09:15:23Z</time>
      </trkpt>
      <trkpt lat="45.96059" lon="4.69157">
        <ele>291.333649</ele>
        <time>2016-09-11T09:15:25Z</time>
      </trkpt>
      <trkpt lat="45.96056" lon="4.69157">
        <ele>291.56369</ele>
        <time>2016-09-11T09:15:27Z</time>
      </trkpt>
      <trkpt lat="45.96053" lon="4.69156">
        <ele>291.959869</ele>
        <time>2016-09-11T09:15:29Z</time>
      </trkpt>
      <trkpt lat="45.96049" lon="4.69155">
        <ele>292.230316</ele>
        <time>2016-09-11T09:15:31Z</time>
      </trkpt>
      <trkpt lat="45.96046" lon="4.69154">
        <ele>292.538513</ele>
        <time>2016-09-11T09:15:33Z</time>
      </trkpt>
      <trkpt lat="45.96042" lon="4.69154">
        <ele>292.926758</ele>
        <time>2016-09-11T09:15:35Z</time>
      </trkpt>
      <trkpt lat="45.96038" lon="4.69154">
        <ele>293.45929</ele>
        <time>2016-09-11T09:15:37Z</time>
      </trkpt>
      <trkpt lat="45.96035" lon="4.69153">
        <ele>293.782837</ele>
        <time>2016-09-11T09:15:39Z</time>
      </trkpt>
      <trkpt lat="45.96031" lon="4.69153">
        <ele>294.153564</ele>
        <time>2016-09-11T09:15:41Z</time>
      </trkpt>
      <trkpt lat="45.96028" lon="4.69152">
        <ele>294.560486</ele>
        <time>2016-09-11T09:15:43Z</time>
      </trkpt>
      <trkpt lat="45.96024" lon="4.69152">
        <ele>294.762909</ele>
        <time>2016-09-11T09:15:45Z</time>
      </trkpt>
      <trkpt lat="45.96021" lon="4.69151">
        <ele>295.116333</ele>
        <time>2016-09-11T09:15:47Z</time>
      </trkpt>
      <trkpt lat="45.96017" lon="4.6915">
        <ele>295.470032</ele>
        <time>2016-09-11T09:15:49Z</time>
      </trkpt>
      <trkpt lat="45.96014" lon="4.6915">
        <ele>295.90686</ele>
        <time>2016-09-11T09:15:51Z</time>
      </trkpt>
      <trkpt lat="45.9601" lon="4.69149">
        <ele>296.22644</ele>
        <time>2016-09-11T09:15:53Z</time>
      </trkpt>
      <trkpt lat="45.96006" lon="4.69149">
        <ele>296.388397</ele>
        <time>2016-09-11T09:15:55Z</time>
      </trkpt>
      <trkpt lat="45.96003" lon="4.69148">
        <ele>296.780518</ele>
        <time>2016-09-11T09:15:57Z</time>
      </trkpt>
      <trkpt lat="45.95999" lon="4.69147">
        <ele>297.106567</ele>
        <time>2016-09-11T09:15:59Z</time>
      </trkpt>
      <trkpt lat="45.95995" lon="4.69146">
        <ele>297.431305</ele>
        <time>2016-09-11T09:16:01Z</time>
      </trkpt>
      <trkpt lat="45.95991" lon="4.69146">
        <ele>297.774414</ele>
        <time>2016-09-11T09:16:03Z</time>
      </trkpt>
      <trkpt lat="45.95987" lon="4.69145">
        <ele>298.057861</ele>
        <time>2016-09-11T09:16:05Z</time>
      </trkpt>
      <trkpt lat="45.95983" lon="4.69144">
        <ele>298.354156</ele>
        <time>2016-09-11T09:16:07Z</time>
      </trkpt>
      <trkpt lat="45.95979" lon="4.69142">
        <ele>298.946533</ele>
        <time>2016-09-11T09:16:09Z</time>
      </trkpt>
      <trkpt lat="45.95974" lon="4.69141">
        <ele>299.291595</ele>
        <time>2016-09-11T09:16:11Z</time>
      </trkpt>
      <trkpt lat="45.95969" lon="4.69139">
        <ele>299.560883</ele>
        <time>2016-09-11T09:16:13Z</time>
      </trkpt>
      <trkpt lat="45.95964" lon="4.69137">
        <ele>300.001617</ele>
        <time>2016-09-11T09:16:15Z</time>
      </trkpt>
      <trkpt lat="45.95959" lon="4.69136">
        <ele>300.417297</ele>
        <time>2016-09-11T09:16:17Z</time>
      </trkpt>
      <trkpt lat="45.95953" lon="4.69134">
        <ele>300.528137</ele>
        <time>2016-09-11T09:16:19Z</time>
      </trkpt>
      <trkpt lat="45.95947" lon="4.69131">
        <ele>300.963043</ele>
        <time>2016-09-11T09:16:21Z</time>
      </trkpt>
      <trkpt lat="45.9594" lon="4.69129">
        <ele>301.024841</ele>
        <time>2016-09-11T09:16:23Z</time>
      </trkpt>
      <trkpt lat="45.95933" lon="4.69126">
        <ele>301.130066</ele>
        <time>2016-09-11T09:16:25Z</time>
      </trkpt>
      <trkpt lat="45.95925" lon="4.69125">
        <ele>301.776276</ele>
        <time>2016-09-11T09:16:27Z</time>
      </trkpt>
      <trkpt lat="45.95917" lon="4.69125">
        <ele>302.033691</ele>
        <time>2016-09-11T09:16:29Z</time>
      </trkpt>
      <trkpt lat="45.95908" lon="4.69126">
        <ele>302.291656</ele>
        <time>2016-09-11T09:16:31Z</time>
      </trkpt>
      <trkpt lat="45.95899" lon="4.69127">
        <ele>302.295898</ele>
        <time>2016-09-11T09:16:33Z</time>
      </trkpt>
      <trkpt lat="45.95889" lon="4.6913">
        <ele>302.349182</ele>
        <time>2016-09-11T09:16:35Z</time>
      </trkpt>
      <trkpt lat="45.95878" lon="4.69133">
        <ele>302.306549</ele>
        <time>2016-09-11T09:16:37Z</time>
      </trkpt>
      <trkpt lat="45.95867" lon="4.69136">
        <ele>302.419556</ele>
        <time>2016-09-11T09:16:39Z</time>
      </trkpt>
      <trkpt lat="45.95855" lon="4.69142">
        <ele>302.619293</ele>
        <time>2016-09-11T09:16:41Z</time>
      </trkpt>
      <trkpt lat="45.95842" lon="4.69146">
        <ele>302.523376</ele>
        <time>2016-09-11T09:16:43Z</time>
      </trkpt>
      <trkpt lat="45.95828" lon="4.69153">
        <ele>302.335785</ele>
        <time>2016-09-11T09:16:45Z</time>
      </trkpt>
      <trkpt lat="45.95814" lon="4.69156">
        <ele>302.224976</ele>
        <time>2016-09-11T09:16:47Z</time>
      </trkpt>
      <trkpt lat="45.95801" lon="4.69158">
        <ele>302.003296</ele>
        <time>2016-09-11T09:16:49Z</time>
      </trkpt>
      <trkpt lat="45.95789" lon="4.6916">
        <ele>301.711334</ele>
        <time>2016-09-11T09:16:51Z</time>
      </trkpt>
      <trkpt lat="45.95778" lon="4.69161">
        <ele>301.406738</ele>
        <time>2016-09-11T09:16:53Z</time>
      </trkpt>
      <trkpt lat="45.95768" lon="4.69162">
        <ele>301.261749</ele>
        <time>2016-09-11T09:16:55Z</time>
      </trkpt>
      <trkpt lat="45.95758" lon="4.69163">
        <ele>301.16275</ele>
        <time>2016-09-11T09:16:57Z</time>
      </trkpt>
      <trkpt lat="45.9575" lon="4.69163">
        <ele>300.853607</ele>
        <time>2016-09-11T09:16:59Z</time>
      </trkpt>
      <trkpt lat="45.95741" lon="4.69163">
        <ele>300.940552</ele>
        <time>2016-09-11T09:17:01Z</time>
      </trkpt>
      <trkpt lat="45.95731" lon="4.69163">
        <ele>300.776337</ele>
        <time>2016-09-11T09:17:03Z</time>
      </trkpt>
      <trkpt lat="45.95722" lon="4.69163">
        <ele>300.607178</ele>
        <time>2016-09-11T09:17:05Z</time>
      </trkpt>
      <trkpt lat="45.95713" lon="4.69162">
        <ele>300.316956</ele>
        <time>2016-09-11T09:17:07Z</time>
      </trkpt>
      <trkpt lat="45.95704" lon="4.6916">
        <ele>300.014313</ele>
        <time>2016-09-11T09:17:09Z</time>
      </trkpt>
      <trkpt lat="45.95694" lon="4.69159">
        <ele>299.967407</ele>
        <time>2016-09-11T09:17:11Z</time>
      </trkpt>
      <trkpt lat="45.95686" lon="4.69158">
        <ele>299.793762</ele>
        <time>2016-09-11T09:17:13Z</time>
      </trkpt>
      <trkpt lat="45.95677" lon="4.69157">
        <ele>299.781647</ele>
        <time>2016-09-11T09:17:15Z</time>
      </trkpt>
      <trkpt lat="45.95668" lon="4.69156">
        <ele>299.551666</ele>
        <time>2016-09-11T09:17:17Z</time>
      </trkpt>
      <trkpt lat="45.9566" lon="4.69155">
        <ele>299.709412</ele>
        <time>2016-09-11T09:17:19Z</time>
      </trkpt>
      <trkpt lat="45.95653" lon="4.69154">
        <ele>299.647522</ele>
        <time>2016-09-11T09:17:21Z</time>
      </trkpt>
      <trkpt lat="45.95647" lon="4.69153">
        <ele>299.634583</ele>
        <time>2016-09-11T09:17:23Z</time>
      </trkpt>
      <trkpt lat="45.95641" lon="4.69151">
        <ele>299.905334</ele>
        <time>2016-09-11T09:17:25Z</time>
      </trkpt>
      <trkpt lat="45.95635" lon="4.6915">
        <ele>300.205933</ele>
        <time>2016-09-11T09:17:27Z</time>
      </trkpt>
      <trkpt lat="45.95628" lon="4.69149">
        <ele>300.42337</ele>
        <time>2016-09-11T09:17:29Z</time>
      </trkpt>
      <trkpt lat="45.9562" lon="4.69147">
        <ele>300.843842</ele>
        <time>2016-09-11T09:17:31Z</time>
      </trkpt>
      <trkpt lat="45.95614" lon="4.69146">
        <ele>301.074036</ele>
        <time>2016-09-11T09:17:33Z</time>
      </trkpt>
      <trkpt lat="45.95606" lon="4.69146">
        <ele>301.368225</ele>
        <time>2016-09-11T09:17:35Z</time>
      </trkpt>
      <trkpt lat="45.956" lon="4.6915">
        <ele>301.464081</ele>
        <time>2016-09-11T09:17:37Z</time>
      </trkpt>
      <trkpt lat="45.95597" lon="4.69157">
        <ele>301.586365</ele>
        <time>2016-09-11T09:17:39Z</time>
      </trkpt>
      <trkpt lat="45.95594" lon="4.69166">
        <ele>301.857056</ele>
        <time>2016-09-11T09:17:41Z</time>
      </trkpt>
      <trkpt lat="45.95593" lon="4.69173">
        <ele>302.141144</ele>
        <time>2016-09-11T09:17:43Z</time>
      </trkpt>
      <trkpt lat="45.95592" lon="4.6918">
        <ele>302.243622</ele>
        <time>2016-09-11T09:17:45Z</time>
      </trkpt>
      <trkpt lat="45.95591" lon="4.69183">
        <ele>304.617706</ele>
        <time>2016-09-11T09:18:00Z</time>
      </trkpt>
      <trkpt lat="45.95591" lon="4.69186">
        <ele>304.844452</ele>
        <time>2016-09-11T09:18:02Z</time>
      </trkpt>
      <trkpt lat="45.95589" lon="4.6919">
        <ele>305.035828</ele>
        <time>2016-09-11T09:18:04Z</time>
      </trkpt>
      <trkpt lat="45.95588" lon="4.69194">
        <ele>305.142456</ele>
        <time>2016-09-11T09:18:06Z</time>
      </trkpt>
      <trkpt lat="45.95585" lon="4.69198">
        <ele>305.332275</ele>
        <time>2016-09-11T09:18:08Z</time>
      </trkpt>
      <trkpt lat="45.95582" lon="4.69203">
        <ele>305.618103</ele>
        <time>2016-09-11T09:18:10Z</time>
      </trkpt>
      <trkpt lat="45.95578" lon="4.69205">
        <ele>305.977417</ele>
        <time>2016-09-11T09:18:12Z</time>
      </trkpt>
      <trkpt lat="45.95574" lon="4.69208">
        <ele>306.24765</ele>
        <time>2016-09-11T09:18:14Z</time>
      </trkpt>
      <trkpt lat="45.9557" lon="4.6921">
        <ele>306.488678</ele>
        <time>2016-09-11T09:18:16Z</time>
      </trkpt>
      <trkpt lat="45.95566" lon="4.69213">
        <ele>306.791565</ele>
        <time>2016-09-11T09:18:18Z</time>
      </trkpt>
      <trkpt lat="45.95562" lon="4.69216">
        <ele>307.028503</ele>
        <time>2016-09-11T09:18:20Z</time>
      </trkpt>
      <trkpt lat="45.95559" lon="4.69219">
        <ele>307.350616</ele>
        <time>2016-09-11T09:18:22Z</time>
      </trkpt>
      <trkpt lat="45.95553" lon="4.69222">
        <ele>307.421173</ele>
        <time>2016-09-11T09:18:25Z</time>
      </trkpt>
      <trkpt lat="45.95549" lon="4.69225">
        <ele>307.671112</ele>
        <time>2016-09-11T09:18:27Z</time>
      </trkpt>
      <trkpt lat="45.95547" lon="4.6923">
        <ele>307.941925</ele>
        <time>2016-09-11T09:18:29Z</time>
      </trkpt>
      <trkpt lat="45.95545" lon="4.69234">
        <ele>308.210754</ele>
        <time>2016-09-11T09:18:31Z</time>
      </trkpt>
      <trkpt lat="45.95542" lon="4.69235">
        <ele>308.475281</ele>
        <time>2016-09-11T09:18:33Z</time>
      </trkpt>
      <trkpt lat="45.95538" lon="4.69235">
        <ele>308.69928</ele>
        <time>2016-09-11T09:18:35Z</time>
      </trkpt>
      <trkpt lat="45.95535" lon="4.69233">
        <ele>308.857178</ele>
        <time>2016-09-11T09:18:37Z</time>
      </trkpt>
      <trkpt lat="45.9553" lon="4.69232">
        <ele>309.136047</ele>
        <time>2016-09-11T09:18:39Z</time>
      </trkpt>
      <trkpt lat="45.95524" lon="4.69227">
        <ele>309.264069</ele>
        <time>2016-09-11T09:18:41Z</time>
      </trkpt>
      <trkpt lat="45.95515" lon="4.6922">
        <ele>309.34198</ele>
        <time>2016-09-11T09:18:43Z</time>
      </trkpt>
      <trkpt lat="45.95507" lon="4.69209">
        <ele>309.454315</ele>
        <time>2016-09-11T09:18:45Z</time>
      </trkpt>
      <trkpt lat="45.95496" lon="4.69196">
        <ele>309.450623</ele>
        <time>2016-09-11T09:18:47Z</time>
      </trkpt>
      <trkpt lat="45.95487" lon="4.69182">
        <ele>309.707611</ele>
        <time>2016-09-11T09:18:49Z</time>
      </trkpt>
      <trkpt lat="45.95477" lon="4.69166">
        <ele>309.764374</ele>
        <time>2016-09-11T09:18:51Z</time>
      </trkpt>
      <trkpt lat="45.95471" lon="4.69148">
        <ele>309.731354</ele>
        <time>2016-09-11T09:18:53Z</time>
      </trkpt>
      <trkpt lat="45.95466" lon="4.69128">
        <ele>309.587372</ele>
        <time>2016-09-11T09:18:55Z</time>
      </trkpt>
      <trkpt lat="45.95459" lon="4.69111">
        <ele>309.563904</ele>
        <time>2016-09-11T09:18:57Z</time>
      </trkpt>
      <trkpt lat="45.95448" lon="4.69099">
        <ele>309.403931</ele>
        <time>2016-09-11T09:18:59Z</time>
      </trkpt>
      <trkpt lat="45.95436" lon="4.6909">
        <ele>309.286621</ele>
        <time>2016-09-11T09:19:01Z</time>
      </trkpt>
      <trkpt lat="45.95425" lon="4.69083">
        <ele>309.182312</ele>
        <time>2016-09-11T09:19:03Z</time>
      </trkpt>
      <trkpt lat="45.95414" lon="4.69076">
        <ele>308.998871</ele>
        <time>2016-09-11T09:19:05Z</time>
      </trkpt>
      <trkpt lat="45.95403" lon="4.69069">
        <ele>308.781128</ele>
        <time>2016-09-11T09:19:07Z</time>
      </trkpt>
      <trkpt lat="45.95393" lon="4.69065">
        <ele>308.620758</ele>
        <time>2016-09-11T09:19:09Z</time>
      </trkpt>
      <trkpt lat="45.95383" lon="4.69061">
        <ele>308.490631</ele>
        <time>2016-09-11T09:19:11Z</time>
      </trkpt>
      <trkpt lat="45.95372" lon="4.69058">
        <ele>308.313538</ele>
        <time>2016-09-11T09:19:13Z</time>
      </trkpt>
      <trkpt lat="45.95356" lon="4.69055">
        <ele>308.138733</ele>
        <time>2016-09-11T09:19:16Z</time>
      </trkpt>
      <trkpt lat="45.95346" lon="4.69055">
        <ele>307.976563</ele>
        <time>2016-09-11T09:19:18Z</time>
      </trkpt>
      <trkpt lat="45.95335" lon="4.69054">
        <ele>307.823547</ele>
        <time>2016-09-11T09:19:20Z</time>
      </trkpt>
      <trkpt lat="45.95326" lon="4.69054">
        <ele>307.770203</ele>
        <time>2016-09-11T09:19:22Z</time>
      </trkpt>
      <trkpt lat="45.95318" lon="4.69054">
        <ele>307.771667</ele>
        <time>2016-09-11T09:19:24Z</time>
      </trkpt>
      <trkpt lat="45.95309" lon="4.69054">
        <ele>307.86554</ele>
        <time>2016-09-11T09:19:26Z</time>
      </trkpt>
      <trkpt lat="45.95301" lon="4.69055">
        <ele>307.895447</ele>
        <time>2016-09-11T09:19:28Z</time>
      </trkpt>
      <trkpt lat="45.95292" lon="4.69056">
        <ele>308.085297</ele>
        <time>2016-09-11T09:19:30Z</time>
      </trkpt>
      <trkpt lat="45.95284" lon="4.69056">
        <ele>308.043823</ele>
        <time>2016-09-11T09:19:32Z</time>
      </trkpt>
      <trkpt lat="45.95276" lon="4.69056">
        <ele>308.171753</ele>
        <time>2016-09-11T09:19:34Z</time>
      </trkpt>
      <trkpt lat="45.9527" lon="4.69058">
        <ele>308.355682</ele>
        <time>2016-09-11T09:19:36Z</time>
      </trkpt>
      <trkpt lat="45.95263" lon="4.69058">
        <ele>308.615936</ele>
        <time>2016-09-11T09:19:38Z</time>
      </trkpt>
      <trkpt lat="45.95255" lon="4.69059">
        <ele>308.83786</ele>
        <time>2016-09-11T09:19:40Z</time>
      </trkpt>
      <trkpt lat="45.95249" lon="4.69059">
        <ele>309.307251</ele>
        <time>2016-09-11T09:19:42Z</time>
      </trkpt>
      <trkpt lat="45.95242" lon="4.69058">
        <ele>309.62912</ele>
        <time>2016-09-11T09:19:44Z</time>
      </trkpt>
      <trkpt lat="45.95236" lon="4.69057">
        <ele>310.038788</ele>
        <time>2016-09-11T09:19:46Z</time>
      </trkpt>
      <trkpt lat="45.9523" lon="4.69056">
        <ele>310.215942</ele>
        <time>2016-09-11T09:19:48Z</time>
      </trkpt>
      <trkpt lat="45.95223" lon="4.69055">
        <ele>310.623474</ele>
        <time>2016-09-11T09:19:50Z</time>
      </trkpt>
      <trkpt lat="45.95218" lon="4.69052">
        <ele>311.005432</ele>
        <time>2016-09-11T09:19:52Z</time>
      </trkpt>
      <trkpt lat="45.95212" lon="4.69048">
        <ele>311.3974</ele>
        <time>2016-09-11T09:19:54Z</time>
      </trkpt>
      <trkpt lat="45.95207" lon="4.69043">
        <ele>311.807098</ele>
        <time>2016-09-11T09:19:56Z</time>
      </trkpt>
      <trkpt lat="45.95201" lon="4.69039">
        <ele>312.25946</ele>
        <time>2016-09-11T09:19:58Z</time>
      </trkpt>
      <trkpt lat="45.95196" lon="4.69034">
        <ele>312.695923</ele>
        <time>2016-09-11T09:20:00Z</time>
      </trkpt>
      <trkpt lat="45.9519" lon="4.69028">
        <ele>313.061981</ele>
        <time>2016-09-11T09:20:02Z</time>
      </trkpt>
      <trkpt lat="45.95186" lon="4.69023">
        <ele>313.619812</ele>
        <time>2016-09-11T09:20:04Z</time>
      </trkpt>
      <trkpt lat="45.95181" lon="4.69017">
        <ele>314.082977</ele>
        <time>2016-09-11T09:20:06Z</time>
      </trkpt>
      <trkpt lat="45.95176" lon="4.69012">
        <ele>314.591034</ele>
        <time>2016-09-11T09:20:08Z</time>
      </trkpt>
      <trkpt lat="45.95171" lon="4.69007">
        <ele>315.158875</ele>
        <time>2016-09-11T09:20:10Z</time>
      </trkpt>
      <trkpt lat="45.95166" lon="4.69001">
        <ele>315.331787</ele>
        <time>2016-09-11T09:20:12Z</time>
      </trkpt>
      <trkpt lat="45.95161" lon="4.68995">
        <ele>315.769226</ele>
        <time>2016-09-11T09:20:14Z</time>
      </trkpt>
      <trkpt lat="45.95157" lon="4.68989">
        <ele>316.143677</ele>
        <time>2016-09-11T09:20:16Z</time>
      </trkpt>
      <trkpt lat="45.95151" lon="4.68982">
        <ele>316.605438</ele>
        <time>2016-09-11T09:20:18Z</time>
      </trkpt>
      <trkpt lat="45.95145" lon="4.68976">
        <ele>317.083618</ele>
        <time>2016-09-11T09:20:20Z</time>
      </trkpt>
      <trkpt lat="45.9514" lon="4.68969">
        <ele>317.43161</ele>
        <time>2016-09-11T09:20:22Z</time>
      </trkpt>
      <trkpt lat="45.95134" lon="4.68963">
        <ele>317.788239</ele>
        <time>2016-09-11T09:20:24Z</time>
      </trkpt>
      <trkpt lat="45.95128" lon="4.68956">
        <ele>318.17038</ele>
        <time>2016-09-11T09:20:26Z</time>
      </trkpt>
      <trkpt lat="45.95122" lon="4.68951">
        <ele>318.420197</ele>
        <time>2016-09-11T09:20:28Z</time>
      </trkpt>
      <trkpt lat="45.95115" lon="4.68946">
        <ele>318.618744</ele>
        <time>2016-09-11T09:20:30Z</time>
      </trkpt>
      <trkpt lat="45.95108" lon="4.68941">
        <ele>318.802368</ele>
        <time>2016-09-11T09:20:32Z</time>
      </trkpt>
      <trkpt lat="45.95101" lon="4.68936">
        <ele>319.131958</ele>
        <time>2016-09-11T09:20:34Z</time>
      </trkpt>
      <trkpt lat="45.95094" lon="4.68931">
        <ele>319.198151</ele>
        <time>2016-09-11T09:20:36Z</time>
      </trkpt>
      <trkpt lat="45.95087" lon="4.68927">
        <ele>319.36322</ele>
        <time>2016-09-11T09:20:38Z</time>
      </trkpt>
      <trkpt lat="45.95081" lon="4.68922">
        <ele>319.57254</ele>
        <time>2016-09-11T09:20:40Z</time>
      </trkpt>
      <trkpt lat="45.95075" lon="4.68917">
        <ele>319.827667</ele>
        <time>2016-09-11T09:20:42Z</time>
      </trkpt>
      <trkpt lat="45.95068" lon="4.68913">
        <ele>320.140472</ele>
        <time>2016-09-11T09:20:44Z</time>
      </trkpt>
      <trkpt lat="45.95062" lon="4.68907">
        <ele>320.401093</ele>
        <time>2016-09-11T09:20:46Z</time>
      </trkpt>
      <trkpt lat="45.95057" lon="4.68902">
        <ele>320.583862</ele>
        <time>2016-09-11T09:20:48Z</time>
      </trkpt>
      <trkpt lat="45.9505" lon="4.68896">
        <ele>320.885101</ele>
        <time>2016-09-11T09:20:50Z</time>
      </trkpt>
      <trkpt lat="45.95044" lon="4.68889">
        <ele>321.000458</ele>
        <time>2016-09-11T09:20:52Z</time>
      </trkpt>
      <trkpt lat="45.95036" lon="4.6888">
        <ele>321.141663</ele>
        <time>2016-09-11T09:20:54Z</time>
      </trkpt>
      <trkpt lat="45.95029" lon="4.6887">
        <ele>321.252686</ele>
        <time>2016-09-11T09:20:56Z</time>
      </trkpt>
      <trkpt lat="45.95019" lon="4.68859">
        <ele>321.350006</ele>
        <time>2016-09-11T09:20:58Z</time>
      </trkpt>
      <trkpt lat="45.95009" lon="4.68846">
        <ele>321.439728</ele>
        <time>2016-09-11T09:21:00Z</time>
      </trkpt>
      <trkpt lat="45.95" lon="4.68833">
        <ele>321.420471</ele>
        <time>2016-09-11T09:21:02Z</time>
      </trkpt>
      <trkpt lat="45.94992" lon="4.68817">
        <ele>321.568573</ele>
        <time>2016-09-11T09:21:04Z</time>
      </trkpt>
      <trkpt lat="45.94988" lon="4.688">
        <ele>321.487427</ele>
        <time>2016-09-11T09:21:06Z</time>
      </trkpt>
      <trkpt lat="45.94987" lon="4.68783">
        <ele>321.619843</ele>
        <time>2016-09-11T09:21:08Z</time>
      </trkpt>
      <trkpt lat="45.94987" lon="4.68766">
        <ele>321.769348</ele>
        <time>2016-09-11T09:21:10Z</time>
      </trkpt>
      <trkpt lat="45.94989" lon="4.6875">
        <ele>321.927429</ele>
        <time>2016-09-11T09:21:12Z</time>
      </trkpt>
      <trkpt lat="45.94991" lon="4.68736">
        <ele>322.044891</ele>
        <time>2016-09-11T09:21:14Z</time>
      </trkpt>
      <trkpt lat="45.94994" lon="4.68722">
        <ele>322.112122</ele>
        <time>2016-09-11T09:21:16Z</time>
      </trkpt>
      <trkpt lat="45.94996" lon="4.6871">
        <ele>322.240295</ele>
        <time>2016-09-11T09:21:18Z</time>
      </trkpt>
      <trkpt lat="45.94998" lon="4.68698">
        <ele>322.485962</ele>
        <time>2016-09-11T09:21:20Z</time>
      </trkpt>
      <trkpt lat="45.95" lon="4.68686">
        <ele>322.637634</ele>
        <time>2016-09-11T09:21:22Z</time>
      </trkpt>
      <trkpt lat="45.95002" lon="4.68675">
        <ele>322.688904</ele>
        <time>2016-09-11T09:21:24Z</time>
      </trkpt>
      <trkpt lat="45.95005" lon="4.68664">
        <ele>322.744568</ele>
        <time>2016-09-11T09:21:26Z</time>
      </trkpt>
      <trkpt lat="45.95007" lon="4.68652">
        <ele>322.738098</ele>
        <time>2016-09-11T09:21:28Z</time>
      </trkpt>
      <trkpt lat="45.95009" lon="4.68641">
        <ele>322.907043</ele>
        <time>2016-09-11T09:21:30Z</time>
      </trkpt>
      <trkpt lat="45.95011" lon="4.68631">
        <ele>322.825867</ele>
        <time>2016-09-11T09:21:32Z</time>
      </trkpt>
      <trkpt lat="45.95015" lon="4.68622">
        <ele>323.018921</ele>
        <time>2016-09-11T09:21:34Z</time>
      </trkpt>
      <trkpt lat="45.95018" lon="4.68613">
        <ele>323.414246</ele>
        <time>2016-09-11T09:21:36Z</time>
      </trkpt>
      <trkpt lat="45.95022" lon="4.68604">
        <ele>323.544586</ele>
        <time>2016-09-11T09:21:38Z</time>
      </trkpt>
      <trkpt lat="45.95026" lon="4.68594">
        <ele>323.945129</ele>
        <time>2016-09-11T09:21:40Z</time>
      </trkpt>
      <trkpt lat="45.95032" lon="4.68584">
        <ele>324.185059</ele>
        <time>2016-09-11T09:21:42Z</time>
      </trkpt>
      <trkpt lat="45.95038" lon="4.68571">
        <ele>324.457092</ele>
        <time>2016-09-11T09:21:44Z</time>
      </trkpt>
      <trkpt lat="45.95044" lon="4.68557">
        <ele>324.596008</ele>
        <time>2016-09-11T09:21:46Z</time>
      </trkpt>
      <trkpt lat="45.95053" lon="4.68541">
        <ele>324.854492</ele>
        <time>2016-09-11T09:21:48Z</time>
      </trkpt>
      <trkpt lat="45.95063" lon="4.68525">
        <ele>325.018524</ele>
        <time>2016-09-11T09:21:50Z</time>
      </trkpt>
      <trkpt lat="45.95072" lon="4.6851">
        <ele>325.133881</ele>
        <time>2016-09-11T09:21:52Z</time>
      </trkpt>
      <trkpt lat="45.95078" lon="4.68503">
        <ele>325.14032</ele>
        <time>2016-09-11T09:21:54Z</time>
      </trkpt>
      <trkpt lat="45.9508" lon="4.68498">
        <ele>324.973694</ele>
        <time>2016-09-11T09:21:56Z</time>
      </trkpt>
      <trkpt lat="45.95082" lon="4.68496">
        <ele>324.860931</ele>
        <time>2016-09-11T09:21:58Z</time>
      </trkpt>
      <trkpt lat="45.95083" lon="4.68493">
        <ele>324.835297</ele>
        <time>2016-09-11T09:22:00Z</time>
      </trkpt>
      <trkpt lat="45.95085" lon="4.68488">
        <ele>321.665924</ele>
        <time>2016-09-11T09:22:23Z</time>
      </trkpt>
      <trkpt lat="45.95088" lon="4.68485">
        <ele>321.516357</ele>
        <time>2016-09-11T09:22:25Z</time>
      </trkpt>
      <trkpt lat="45.95092" lon="4.68481">
        <ele>321.272369</ele>
        <time>2016-09-11T09:22:27Z</time>
      </trkpt>
      <trkpt lat="45.95097" lon="4.68475">
        <ele>320.941223</ele>
        <time>2016-09-11T09:22:29Z</time>
      </trkpt>
      <trkpt lat="45.95101" lon="4.68468">
        <ele>320.620789</ele>
        <time>2016-09-11T09:22:31Z</time>
      </trkpt>
      <trkpt lat="45.95105" lon="4.68459">
        <ele>320.275238</ele>
        <time>2016-09-11T09:22:33Z</time>
      </trkpt>
      <trkpt lat="45.95109" lon="4.68449">
        <ele>319.989014</ele>
        <time>2016-09-11T09:22:35Z</time>
      </trkpt>
      <trkpt lat="45.95112" lon="4.68437">
        <ele>319.976166</ele>
        <time>2016-09-11T09:22:37Z</time>
      </trkpt>
      <trkpt lat="45.95115" lon="4.68425">
        <ele>319.901459</ele>
        <time>2016-09-11T09:22:39Z</time>
      </trkpt>
      <trkpt lat="45.95117" lon="4.68412">
        <ele>319.711365</ele>
        <time>2016-09-11T09:22:41Z</time>
      </trkpt>
      <trkpt lat="45.95116" lon="4.68398">
        <ele>319.643158</ele>
        <time>2016-09-11T09:22:43Z</time>
      </trkpt>
      <trkpt lat="45.95115" lon="4.68383">
        <ele>319.47113</ele>
        <time>2016-09-11T09:22:45Z</time>
      </trkpt>
      <trkpt lat="45.95113" lon="4.68367">
        <ele>319.298157</ele>
        <time>2016-09-11T09:22:47Z</time>
      </trkpt>
      <trkpt lat="45.95111" lon="4.68351">
        <ele>318.90741</ele>
        <time>2016-09-11T09:22:49Z</time>
      </trkpt>
      <trkpt lat="45.95107" lon="4.68335">
        <ele>318.467621</ele>
        <time>2016-09-11T09:22:51Z</time>
      </trkpt>
      <trkpt lat="45.95101" lon="4.6832">
        <ele>318.057739</ele>
        <time>2016-09-11T09:22:53Z</time>
      </trkpt>
      <trkpt lat="45.95093" lon="4.68313">
        <ele>317.988098</ele>
        <time>2016-09-11T09:22:55Z</time>
      </trkpt>
      <trkpt lat="45.95084" lon="4.68313">
        <ele>317.511902</ele>
        <time>2016-09-11T09:22:57Z</time>
      </trkpt>
      <trkpt lat="45.95079" lon="4.68315">
        <ele>317.176605</ele>
        <time>2016-09-11T09:22:59Z</time>
      </trkpt>
    </trkseg>
  </trk>
</gpx>